<?xml version="1.0" encoding="UTF-8" standalone="no" ?>
<gpx xmlns="http://www.topografix.com/GPX/1/1" xmlns:xsi="http://www.w3.org/2001/XMLSchema-instance" xsi:schemaLocation="http://www.topografix.com/GPX/1/1 http://www.topografix.com/GPX/1/1/gpx.xsd" version="1.1" creator="VisuGPX - https://www.visugpx.com">
  <metadata>
    <name>Crémaillère du Revard</name>
    <desc><![CDATA[Un magnifique rando à faire en raquette en montant et en luge en descendant. Attention à la descente , ne pas faire cette rando avec des enfants: trop dangereux.]]></desc>
  </metadata>
  <trk>
    <name><![CDATA[Crémaillère du Revard_1]]></name>
    <trkseg>
      <trkpt lat="45.69882" lon="5.9738">
        <ele>835.52294921875</ele>
        <time>2012-02-11T06:28:26Z</time>
      </trkpt>
      <trkpt lat="45.69882" lon="5.9738">
        <ele>835.52294921875</ele>
        <time>2012-02-11T06:28:27Z</time>
      </trkpt>
      <trkpt lat="45.69882" lon="5.97379">
        <ele>835.04248046875</ele>
        <time>2012-02-11T06:28:28Z</time>
      </trkpt>
      <trkpt lat="45.69883" lon="5.97372">
        <ele>832.15844726562</ele>
        <time>2012-02-11T06:28:34Z</time>
      </trkpt>
      <trkpt lat="45.69881" lon="5.9737">
        <ele>833.11962890625</ele>
        <time>2012-02-11T06:28:38Z</time>
      </trkpt>
      <trkpt lat="45.69879" lon="5.97369">
        <ele>834.0810546875</ele>
        <time>2012-02-11T06:28:41Z</time>
      </trkpt>
      <trkpt lat="45.69876" lon="5.97369">
        <ele>834.56176757812</ele>
        <time>2012-02-11T06:28:45Z</time>
      </trkpt>
      <trkpt lat="45.69875" lon="5.97369">
        <ele>836.00366210938</ele>
        <time>2012-02-11T06:28:48Z</time>
      </trkpt>
      <trkpt lat="45.69872" lon="5.97366">
        <ele>836.96484375</ele>
        <time>2012-02-11T06:28:54Z</time>
      </trkpt>
      <trkpt lat="45.69869" lon="5.97362">
        <ele>840.81005859375</ele>
        <time>2012-02-11T06:29:00Z</time>
      </trkpt>
      <trkpt lat="45.69864" lon="5.97357">
        <ele>842.73291015625</ele>
        <time>2012-02-11T06:29:06Z</time>
      </trkpt>
      <trkpt lat="45.6986" lon="5.97355">
        <ele>840.81005859375</ele>
        <time>2012-02-11T06:29:10Z</time>
      </trkpt>
      <trkpt lat="45.69857" lon="5.97354">
        <ele>839.84887695312</ele>
        <time>2012-02-11T06:29:15Z</time>
      </trkpt>
      <trkpt lat="45.69854" lon="5.97351">
        <ele>840.81005859375</ele>
        <time>2012-02-11T06:29:19Z</time>
      </trkpt>
      <trkpt lat="45.69851" lon="5.97349">
        <ele>843.21337890625</ele>
        <time>2012-02-11T06:29:24Z</time>
      </trkpt>
      <trkpt lat="45.69847" lon="5.97346">
        <ele>844.17504882812</ele>
        <time>2012-02-11T06:29:28Z</time>
      </trkpt>
      <trkpt lat="45.69843" lon="5.97342">
        <ele>843.69409179688</ele>
        <time>2012-02-11T06:29:35Z</time>
      </trkpt>
      <trkpt lat="45.69839" lon="5.9734">
        <ele>847.53955078125</ele>
        <time>2012-02-11T06:29:41Z</time>
      </trkpt>
      <trkpt lat="45.69833" lon="5.97335">
        <ele>849.94287109375</ele>
        <time>2012-02-11T06:29:48Z</time>
      </trkpt>
      <trkpt lat="45.69828" lon="5.97333">
        <ele>847.53955078125</ele>
        <time>2012-02-11T06:29:52Z</time>
      </trkpt>
      <trkpt lat="45.69822" lon="5.97333">
        <ele>844.65551757812</ele>
        <time>2012-02-11T06:29:57Z</time>
      </trkpt>
      <trkpt lat="45.69817" lon="5.97331">
        <ele>843.69409179688</ele>
        <time>2012-02-11T06:30:02Z</time>
      </trkpt>
      <trkpt lat="45.69817" lon="5.97331">
        <ele>842.73291015625</ele>
        <time>2012-02-11T06:30:03Z</time>
      </trkpt>
      <trkpt lat="45.69812" lon="5.97328">
        <ele>841.771484375</ele>
        <time>2012-02-11T06:30:08Z</time>
      </trkpt>
      <trkpt lat="45.69808" lon="5.97325">
        <ele>839.3681640625</ele>
        <time>2012-02-11T06:30:15Z</time>
      </trkpt>
      <trkpt lat="45.69805" lon="5.97323">
        <ele>838.40698242188</ele>
        <time>2012-02-11T06:30:20Z</time>
      </trkpt>
      <trkpt lat="45.69801" lon="5.9732">
        <ele>839.3681640625</ele>
        <time>2012-02-11T06:30:24Z</time>
      </trkpt>
      <trkpt lat="45.69796" lon="5.97316">
        <ele>840.81005859375</ele>
        <time>2012-02-11T06:30:34Z</time>
      </trkpt>
      <trkpt lat="45.6979" lon="5.97314">
        <ele>843.21337890625</ele>
        <time>2012-02-11T06:30:38Z</time>
      </trkpt>
      <trkpt lat="45.69786" lon="5.97312">
        <ele>843.21337890625</ele>
        <time>2012-02-11T06:30:43Z</time>
      </trkpt>
      <trkpt lat="45.69782" lon="5.97309">
        <ele>844.65551757812</ele>
        <time>2012-02-11T06:30:48Z</time>
      </trkpt>
      <trkpt lat="45.69777" lon="5.97304">
        <ele>847.53955078125</ele>
        <time>2012-02-11T06:30:57Z</time>
      </trkpt>
      <trkpt lat="45.69774" lon="5.97302">
        <ele>847.53955078125</ele>
        <time>2012-02-11T06:31:03Z</time>
      </trkpt>
      <trkpt lat="45.69766" lon="5.97297">
        <ele>850.90405273438</ele>
        <time>2012-02-11T06:31:16Z</time>
      </trkpt>
      <trkpt lat="45.6976" lon="5.97294">
        <ele>850.42358398438</ele>
        <time>2012-02-11T06:31:23Z</time>
      </trkpt>
      <trkpt lat="45.69755" lon="5.97292">
        <ele>848.9814453125</ele>
        <time>2012-02-11T06:31:29Z</time>
      </trkpt>
      <trkpt lat="45.69752" lon="5.9729">
        <ele>849.94287109375</ele>
        <time>2012-02-11T06:31:34Z</time>
      </trkpt>
      <trkpt lat="45.69748" lon="5.97289">
        <ele>848.50073242188</ele>
        <time>2012-02-11T06:31:42Z</time>
      </trkpt>
      <trkpt lat="45.69743" lon="5.97286">
        <ele>849.46215820312</ele>
        <time>2012-02-11T06:31:48Z</time>
      </trkpt>
      <trkpt lat="45.69738" lon="5.97282">
        <ele>853.7880859375</ele>
        <time>2012-02-11T06:31:56Z</time>
      </trkpt>
      <trkpt lat="45.69733" lon="5.9728">
        <ele>852.82666015625</ele>
        <time>2012-02-11T06:32:03Z</time>
      </trkpt>
      <trkpt lat="45.69729" lon="5.97279">
        <ele>852.34594726562</ele>
        <time>2012-02-11T06:32:07Z</time>
      </trkpt>
      <trkpt lat="45.69729" lon="5.97278">
        <ele>854.26879882812</ele>
        <time>2012-02-11T06:32:14Z</time>
      </trkpt>
      <trkpt lat="45.69728" lon="5.97277">
        <ele>855.71069335938</ele>
        <time>2012-02-11T06:32:20Z</time>
      </trkpt>
      <trkpt lat="45.69724" lon="5.97275">
        <ele>855.71069335938</ele>
        <time>2012-02-11T06:32:28Z</time>
      </trkpt>
      <trkpt lat="45.69719" lon="5.97276">
        <ele>855.22998046875</ele>
        <time>2012-02-11T06:32:33Z</time>
      </trkpt>
      <trkpt lat="45.69715" lon="5.97275">
        <ele>854.26879882812</ele>
        <time>2012-02-11T06:32:37Z</time>
      </trkpt>
      <trkpt lat="45.69712" lon="5.97274">
        <ele>853.7880859375</ele>
        <time>2012-02-11T06:32:41Z</time>
      </trkpt>
      <trkpt lat="45.69709" lon="5.97273">
        <ele>854.74926757812</ele>
        <time>2012-02-11T06:32:46Z</time>
      </trkpt>
      <trkpt lat="45.69704" lon="5.97272">
        <ele>854.26879882812</ele>
        <time>2012-02-11T06:32:52Z</time>
      </trkpt>
      <trkpt lat="45.69709" lon="5.97273">
        <ele>857.15258789062</ele>
        <time>2012-02-11T06:32:55Z</time>
      </trkpt>
      <trkpt lat="45.69709" lon="5.97271">
        <ele>860.03662109375</ele>
        <time>2012-02-11T06:33:02Z</time>
      </trkpt>
      <trkpt lat="45.69702" lon="5.97269">
        <ele>860.998046875</ele>
        <time>2012-02-11T06:33:07Z</time>
      </trkpt>
      <trkpt lat="45.69695" lon="5.97269">
        <ele>860.998046875</ele>
        <time>2012-02-11T06:33:16Z</time>
      </trkpt>
      <trkpt lat="45.69688" lon="5.97267">
        <ele>861.47875976562</ele>
        <time>2012-02-11T06:33:25Z</time>
      </trkpt>
      <trkpt lat="45.6968" lon="5.97265">
        <ele>861.47875976562</ele>
        <time>2012-02-11T06:33:35Z</time>
      </trkpt>
      <trkpt lat="45.69675" lon="5.97263">
        <ele>862.43994140625</ele>
        <time>2012-02-11T06:33:42Z</time>
      </trkpt>
      <trkpt lat="45.69669" lon="5.97261">
        <ele>862.92065429688</ele>
        <time>2012-02-11T06:33:49Z</time>
      </trkpt>
      <trkpt lat="45.69664" lon="5.9726">
        <ele>862.92065429688</ele>
        <time>2012-02-11T06:33:56Z</time>
      </trkpt>
      <trkpt lat="45.6966" lon="5.97259">
        <ele>862.43994140625</ele>
        <time>2012-02-11T06:34:04Z</time>
      </trkpt>
      <trkpt lat="45.69656" lon="5.97259">
        <ele>860.998046875</ele>
        <time>2012-02-11T06:34:17Z</time>
      </trkpt>
      <trkpt lat="45.69648" lon="5.97258">
        <ele>860.03662109375</ele>
        <time>2012-02-11T06:34:27Z</time>
      </trkpt>
      <trkpt lat="45.69645" lon="5.97256">
        <ele>862.43994140625</ele>
        <time>2012-02-11T06:34:34Z</time>
      </trkpt>
      <trkpt lat="45.69645" lon="5.97257">
        <ele>862.92065429688</ele>
        <time>2012-02-11T06:34:43Z</time>
      </trkpt>
      <trkpt lat="45.69642" lon="5.97258">
        <ele>864.36254882812</ele>
        <time>2012-02-11T06:34:53Z</time>
      </trkpt>
      <trkpt lat="45.69637" lon="5.97257">
        <ele>864.84326171875</ele>
        <time>2012-02-11T06:34:59Z</time>
      </trkpt>
      <trkpt lat="45.69636" lon="5.97257">
        <ele>864.36254882812</ele>
        <time>2012-02-11T06:35:07Z</time>
      </trkpt>
      <trkpt lat="45.69634" lon="5.97256">
        <ele>863.4013671875</ele>
        <time>2012-02-11T06:35:14Z</time>
      </trkpt>
      <trkpt lat="45.69634" lon="5.97255">
        <ele>863.4013671875</ele>
        <time>2012-02-11T06:35:19Z</time>
      </trkpt>
      <trkpt lat="45.69634" lon="5.97254">
        <ele>864.84326171875</ele>
        <time>2012-02-11T06:35:27Z</time>
      </trkpt>
      <trkpt lat="45.69632" lon="5.97255">
        <ele>864.36254882812</ele>
        <time>2012-02-11T06:35:38Z</time>
      </trkpt>
      <trkpt lat="45.69628" lon="5.97255">
        <ele>863.8818359375</ele>
        <time>2012-02-11T06:35:43Z</time>
      </trkpt>
      <trkpt lat="45.69621" lon="5.97253">
        <ele>863.8818359375</ele>
        <time>2012-02-11T06:35:51Z</time>
      </trkpt>
      <trkpt lat="45.69618" lon="5.97253">
        <ele>863.8818359375</ele>
        <time>2012-02-11T06:35:57Z</time>
      </trkpt>
      <trkpt lat="45.69616" lon="5.97253">
        <ele>865.32397460938</ele>
        <time>2012-02-11T06:36:02Z</time>
      </trkpt>
      <trkpt lat="45.69619" lon="5.97261">
        <ele>868.20776367188</ele>
        <time>2012-02-11T06:36:08Z</time>
      </trkpt>
      <trkpt lat="45.69618" lon="5.97262">
        <ele>869.16918945312</ele>
        <time>2012-02-11T06:36:13Z</time>
      </trkpt>
      <trkpt lat="45.69618" lon="5.97264">
        <ele>869.64990234375</ele>
        <time>2012-02-11T06:36:18Z</time>
      </trkpt>
      <trkpt lat="45.69618" lon="5.97268">
        <ele>869.16918945312</ele>
        <time>2012-02-11T06:36:25Z</time>
      </trkpt>
      <trkpt lat="45.69619" lon="5.97272">
        <ele>868.6884765625</ele>
        <time>2012-02-11T06:36:36Z</time>
      </trkpt>
      <trkpt lat="45.6962" lon="5.97277">
        <ele>868.20776367188</ele>
        <time>2012-02-11T06:36:42Z</time>
      </trkpt>
      <trkpt lat="45.6962" lon="5.97279">
        <ele>867.72705078125</ele>
        <time>2012-02-11T06:36:49Z</time>
      </trkpt>
      <trkpt lat="45.69621" lon="5.97281">
        <ele>867.72705078125</ele>
        <time>2012-02-11T06:36:56Z</time>
      </trkpt>
      <trkpt lat="45.69624" lon="5.97287">
        <ele>869.16918945312</ele>
        <time>2012-02-11T06:37:03Z</time>
      </trkpt>
      <trkpt lat="45.69624" lon="5.97288">
        <ele>868.6884765625</ele>
        <time>2012-02-11T06:37:09Z</time>
      </trkpt>
      <trkpt lat="45.69625" lon="5.9729">
        <ele>868.6884765625</ele>
        <time>2012-02-11T06:37:12Z</time>
      </trkpt>
      <trkpt lat="45.69624" lon="5.97295">
        <ele>870.61108398438</ele>
        <time>2012-02-11T06:37:19Z</time>
      </trkpt>
      <trkpt lat="45.69623" lon="5.97295">
        <ele>871.091796875</ele>
        <time>2012-02-11T06:37:22Z</time>
      </trkpt>
      <trkpt lat="45.69624" lon="5.97296">
        <ele>873.4951171875</ele>
        <time>2012-02-11T06:37:30Z</time>
      </trkpt>
      <trkpt lat="45.69624" lon="5.97298">
        <ele>874.45629882812</ele>
        <time>2012-02-11T06:37:37Z</time>
      </trkpt>
      <trkpt lat="45.69625" lon="5.97303">
        <ele>876.85986328125</ele>
        <time>2012-02-11T06:37:43Z</time>
      </trkpt>
      <trkpt lat="45.69625" lon="5.97309">
        <ele>877.34057617188</ele>
        <time>2012-02-11T06:37:49Z</time>
      </trkpt>
      <trkpt lat="45.69625" lon="5.97314">
        <ele>877.34057617188</ele>
        <time>2012-02-11T06:37:54Z</time>
      </trkpt>
      <trkpt lat="45.69626" lon="5.9732">
        <ele>877.82104492188</ele>
        <time>2012-02-11T06:37:58Z</time>
      </trkpt>
      <trkpt lat="45.69628" lon="5.97324">
        <ele>877.34057617188</ele>
        <time>2012-02-11T06:38:04Z</time>
      </trkpt>
      <trkpt lat="45.69629" lon="5.97328">
        <ele>878.78247070312</ele>
        <time>2012-02-11T06:38:09Z</time>
      </trkpt>
      <trkpt lat="45.6963" lon="5.97337">
        <ele>878.3017578125</ele>
        <time>2012-02-11T06:38:19Z</time>
      </trkpt>
      <trkpt lat="45.69633" lon="5.97345">
        <ele>879.74365234375</ele>
        <time>2012-02-11T06:38:28Z</time>
      </trkpt>
      <trkpt lat="45.69635" lon="5.9735">
        <ele>882.14697265625</ele>
        <time>2012-02-11T06:38:36Z</time>
      </trkpt>
      <trkpt lat="45.69637" lon="5.97356">
        <ele>884.06958007812</ele>
        <time>2012-02-11T06:38:42Z</time>
      </trkpt>
      <trkpt lat="45.69637" lon="5.97361">
        <ele>883.5888671875</ele>
        <time>2012-02-11T06:38:47Z</time>
      </trkpt>
      <trkpt lat="45.69637" lon="5.97365">
        <ele>884.06958007812</ele>
        <time>2012-02-11T06:38:54Z</time>
      </trkpt>
      <trkpt lat="45.69638" lon="5.97371">
        <ele>884.06958007812</ele>
        <time>2012-02-11T06:38:59Z</time>
      </trkpt>
      <trkpt lat="45.6964" lon="5.97377">
        <ele>884.55029296875</ele>
        <time>2012-02-11T06:39:04Z</time>
      </trkpt>
      <trkpt lat="45.6964" lon="5.9738">
        <ele>884.06958007812</ele>
        <time>2012-02-11T06:39:06Z</time>
      </trkpt>
      <trkpt lat="45.69642" lon="5.97387">
        <ele>883.10815429688</ele>
        <time>2012-02-11T06:39:13Z</time>
      </trkpt>
      <trkpt lat="45.6964" lon="5.97389">
        <ele>882.14697265625</ele>
        <time>2012-02-11T06:39:22Z</time>
      </trkpt>
      <trkpt lat="45.69642" lon="5.9739">
        <ele>883.5888671875</ele>
        <time>2012-02-11T06:39:33Z</time>
      </trkpt>
      <trkpt lat="45.69647" lon="5.97395">
        <ele>886.95336914062</ele>
        <time>2012-02-11T06:39:38Z</time>
      </trkpt>
      <trkpt lat="45.6965" lon="5.974">
        <ele>887.43408203125</ele>
        <time>2012-02-11T06:39:42Z</time>
      </trkpt>
      <trkpt lat="45.69652" lon="5.97406">
        <ele>885.9921875</ele>
        <time>2012-02-11T06:39:48Z</time>
      </trkpt>
      <trkpt lat="45.69654" lon="5.97413">
        <ele>881.66625976562</ele>
        <time>2012-02-11T06:39:56Z</time>
      </trkpt>
      <trkpt lat="45.69655" lon="5.97417">
        <ele>883.10815429688</ele>
        <time>2012-02-11T06:40:03Z</time>
      </trkpt>
      <trkpt lat="45.69656" lon="5.97417">
        <ele>884.06958007812</ele>
        <time>2012-02-11T06:40:17Z</time>
      </trkpt>
      <trkpt lat="45.69656" lon="5.97418">
        <ele>885.51147460938</ele>
        <time>2012-02-11T06:40:23Z</time>
      </trkpt>
      <trkpt lat="45.69658" lon="5.9742">
        <ele>886.47290039062</ele>
        <time>2012-02-11T06:40:28Z</time>
      </trkpt>
      <trkpt lat="45.69658" lon="5.97421">
        <ele>887.43408203125</ele>
        <time>2012-02-11T06:40:37Z</time>
      </trkpt>
      <trkpt lat="45.69659" lon="5.97422">
        <ele>889.35668945312</ele>
        <time>2012-02-11T06:40:45Z</time>
      </trkpt>
      <trkpt lat="45.69661" lon="5.97422">
        <ele>892.7216796875</ele>
        <time>2012-02-11T06:40:55Z</time>
      </trkpt>
      <trkpt lat="45.69663" lon="5.97422">
        <ele>895.12475585938</ele>
        <time>2012-02-11T06:41:01Z</time>
      </trkpt>
      <trkpt lat="45.69662" lon="5.97423">
        <ele>894.64404296875</ele>
        <time>2012-02-11T06:41:05Z</time>
      </trkpt>
      <trkpt lat="45.69661" lon="5.97423">
        <ele>893.2021484375</ele>
        <time>2012-02-11T06:41:12Z</time>
      </trkpt>
      <trkpt lat="45.69661" lon="5.97423">
        <ele>893.2021484375</ele>
        <time>2012-02-11T06:41:18Z</time>
      </trkpt>
      <trkpt lat="45.69661" lon="5.97426">
        <ele>890.31811523438</ele>
        <time>2012-02-11T06:41:23Z</time>
      </trkpt>
      <trkpt lat="45.69664" lon="5.9743">
        <ele>886.95336914062</ele>
        <time>2012-02-11T06:41:29Z</time>
      </trkpt>
      <trkpt lat="45.69666" lon="5.97433">
        <ele>884.55029296875</ele>
        <time>2012-02-11T06:41:34Z</time>
      </trkpt>
      <trkpt lat="45.69669" lon="5.97435">
        <ele>882.62768554688</ele>
        <time>2012-02-11T06:41:38Z</time>
      </trkpt>
      <trkpt lat="45.69671" lon="5.97438">
        <ele>882.62768554688</ele>
        <time>2012-02-11T06:41:42Z</time>
      </trkpt>
      <trkpt lat="45.69674" lon="5.97441">
        <ele>881.66625976562</ele>
        <time>2012-02-11T06:41:46Z</time>
      </trkpt>
      <trkpt lat="45.69678" lon="5.97446">
        <ele>881.66625976562</ele>
        <time>2012-02-11T06:41:53Z</time>
      </trkpt>
      <trkpt lat="45.69685" lon="5.97453">
        <ele>885.03100585938</ele>
        <time>2012-02-11T06:42:01Z</time>
      </trkpt>
      <trkpt lat="45.69687" lon="5.97458">
        <ele>884.06958007812</ele>
        <time>2012-02-11T06:42:06Z</time>
      </trkpt>
      <trkpt lat="45.69691" lon="5.97464">
        <ele>883.10815429688</ele>
        <time>2012-02-11T06:42:15Z</time>
      </trkpt>
      <trkpt lat="45.69694" lon="5.97468">
        <ele>882.14697265625</ele>
        <time>2012-02-11T06:42:19Z</time>
      </trkpt>
      <trkpt lat="45.69698" lon="5.97472">
        <ele>881.18579101562</ele>
        <time>2012-02-11T06:42:24Z</time>
      </trkpt>
      <trkpt lat="45.69704" lon="5.97478">
        <ele>882.62768554688</ele>
        <time>2012-02-11T06:42:30Z</time>
      </trkpt>
      <trkpt lat="45.69711" lon="5.97482">
        <ele>883.10815429688</ele>
        <time>2012-02-11T06:42:39Z</time>
      </trkpt>
      <trkpt lat="45.69714" lon="5.97483">
        <ele>884.55029296875</ele>
        <time>2012-02-11T06:42:46Z</time>
      </trkpt>
      <trkpt lat="45.69717" lon="5.97483">
        <ele>883.5888671875</ele>
        <time>2012-02-11T06:42:51Z</time>
      </trkpt>
      <trkpt lat="45.6972" lon="5.97485">
        <ele>882.62768554688</ele>
        <time>2012-02-11T06:42:56Z</time>
      </trkpt>
      <trkpt lat="45.69722" lon="5.9749">
        <ele>883.5888671875</ele>
        <time>2012-02-11T06:43:02Z</time>
      </trkpt>
      <trkpt lat="45.69724" lon="5.97492">
        <ele>885.51147460938</ele>
        <time>2012-02-11T06:43:06Z</time>
      </trkpt>
      <trkpt lat="45.69725" lon="5.97492">
        <ele>885.9921875</ele>
        <time>2012-02-11T06:43:10Z</time>
      </trkpt>
      <trkpt lat="45.69725" lon="5.97492">
        <ele>886.47290039062</ele>
        <time>2012-02-11T06:43:16Z</time>
      </trkpt>
      <trkpt lat="45.69725" lon="5.97493">
        <ele>885.03100585938</ele>
        <time>2012-02-11T06:43:20Z</time>
      </trkpt>
      <trkpt lat="45.69725" lon="5.97494">
        <ele>883.5888671875</ele>
        <time>2012-02-11T06:43:28Z</time>
      </trkpt>
      <trkpt lat="45.69725" lon="5.97493">
        <ele>882.62768554688</ele>
        <time>2012-02-11T06:43:33Z</time>
      </trkpt>
      <trkpt lat="45.69727" lon="5.97491">
        <ele>887.43408203125</ele>
        <time>2012-02-11T06:43:40Z</time>
      </trkpt>
      <trkpt lat="45.6973" lon="5.97495">
        <ele>888.87622070312</ele>
        <time>2012-02-11T06:43:44Z</time>
      </trkpt>
      <trkpt lat="45.69732" lon="5.975">
        <ele>887.43408203125</ele>
        <time>2012-02-11T06:43:50Z</time>
      </trkpt>
      <trkpt lat="45.6973" lon="5.97497">
        <ele>885.9921875</ele>
        <time>2012-02-11T06:43:55Z</time>
      </trkpt>
      <trkpt lat="45.69729" lon="5.97495">
        <ele>884.06958007812</ele>
        <time>2012-02-11T06:43:59Z</time>
      </trkpt>
      <trkpt lat="45.69727" lon="5.97492">
        <ele>882.62768554688</ele>
        <time>2012-02-11T06:44:04Z</time>
      </trkpt>
      <trkpt lat="45.69725" lon="5.97487">
        <ele>889.35668945312</ele>
        <time>2012-02-11T06:44:12Z</time>
      </trkpt>
      <trkpt lat="45.69722" lon="5.97481">
        <ele>890.31811523438</ele>
        <time>2012-02-11T06:44:19Z</time>
      </trkpt>
      <trkpt lat="45.69717" lon="5.9748">
        <ele>888.3955078125</ele>
        <time>2012-02-11T06:44:26Z</time>
      </trkpt>
      <trkpt lat="45.69712" lon="5.9748">
        <ele>886.95336914062</ele>
        <time>2012-02-11T06:44:31Z</time>
      </trkpt>
      <trkpt lat="45.69708" lon="5.97477">
        <ele>885.51147460938</ele>
        <time>2012-02-11T06:44:36Z</time>
      </trkpt>
      <trkpt lat="45.69703" lon="5.97474">
        <ele>885.03100585938</ele>
        <time>2012-02-11T06:44:42Z</time>
      </trkpt>
      <trkpt lat="45.69699" lon="5.97472">
        <ele>884.06958007812</ele>
        <time>2012-02-11T06:44:47Z</time>
      </trkpt>
      <trkpt lat="45.69698" lon="5.97469">
        <ele>884.06958007812</ele>
        <time>2012-02-11T06:44:52Z</time>
      </trkpt>
      <trkpt lat="45.69695" lon="5.97462">
        <ele>885.51147460938</ele>
        <time>2012-02-11T06:44:57Z</time>
      </trkpt>
      <trkpt lat="45.69693" lon="5.9746">
        <ele>885.51147460938</ele>
        <time>2012-02-11T06:44:59Z</time>
      </trkpt>
      <trkpt lat="45.69688" lon="5.97453">
        <ele>887.43408203125</ele>
        <time>2012-02-11T06:45:06Z</time>
      </trkpt>
      <trkpt lat="45.69686" lon="5.97448">
        <ele>887.43408203125</ele>
        <time>2012-02-11T06:45:10Z</time>
      </trkpt>
      <trkpt lat="45.69684" lon="5.97443">
        <ele>887.43408203125</ele>
        <time>2012-02-11T06:45:14Z</time>
      </trkpt>
      <trkpt lat="45.69683" lon="5.97442">
        <ele>887.43408203125</ele>
        <time>2012-02-11T06:45:15Z</time>
      </trkpt>
      <trkpt lat="45.69677" lon="5.97438">
        <ele>886.47290039062</ele>
        <time>2012-02-11T06:45:20Z</time>
      </trkpt>
      <trkpt lat="45.69674" lon="5.97434">
        <ele>886.47290039062</ele>
        <time>2012-02-11T06:45:24Z</time>
      </trkpt>
      <trkpt lat="45.69669" lon="5.9743">
        <ele>886.47290039062</ele>
        <time>2012-02-11T06:45:29Z</time>
      </trkpt>
      <trkpt lat="45.69664" lon="5.97425">
        <ele>887.43408203125</ele>
        <time>2012-02-11T06:45:34Z</time>
      </trkpt>
      <trkpt lat="45.69659" lon="5.97418">
        <ele>886.47290039062</ele>
        <time>2012-02-11T06:45:40Z</time>
      </trkpt>
      <trkpt lat="45.69654" lon="5.97417">
        <ele>885.03100585938</ele>
        <time>2012-02-11T06:45:47Z</time>
      </trkpt>
      <trkpt lat="45.69653" lon="5.97419">
        <ele>883.5888671875</ele>
        <time>2012-02-11T06:45:51Z</time>
      </trkpt>
      <trkpt lat="45.6965" lon="5.97419">
        <ele>881.18579101562</ele>
        <time>2012-02-11T06:46:00Z</time>
      </trkpt>
      <trkpt lat="45.69648" lon="5.9742">
        <ele>881.18579101562</ele>
        <time>2012-02-11T06:46:04Z</time>
      </trkpt>
      <trkpt lat="45.69646" lon="5.9742">
        <ele>882.14697265625</ele>
        <time>2012-02-11T06:46:16Z</time>
      </trkpt>
      <trkpt lat="45.69645" lon="5.9742">
        <ele>883.5888671875</ele>
        <time>2012-02-11T06:46:23Z</time>
      </trkpt>
      <trkpt lat="45.69642" lon="5.97422">
        <ele>882.62768554688</ele>
        <time>2012-02-11T06:46:27Z</time>
      </trkpt>
      <trkpt lat="45.69638" lon="5.97424">
        <ele>884.06958007812</ele>
        <time>2012-02-11T06:46:32Z</time>
      </trkpt>
      <trkpt lat="45.69636" lon="5.97425">
        <ele>885.9921875</ele>
        <time>2012-02-11T06:46:37Z</time>
      </trkpt>
      <trkpt lat="45.69633" lon="5.97425">
        <ele>885.9921875</ele>
        <time>2012-02-11T06:46:42Z</time>
      </trkpt>
      <trkpt lat="45.69631" lon="5.97428">
        <ele>887.91479492188</ele>
        <time>2012-02-11T06:46:48Z</time>
      </trkpt>
      <trkpt lat="45.69634" lon="5.97426">
        <ele>889.83740234375</ele>
        <time>2012-02-11T06:46:54Z</time>
      </trkpt>
      <trkpt lat="45.69637" lon="5.97424">
        <ele>887.91479492188</ele>
        <time>2012-02-11T06:47:01Z</time>
      </trkpt>
      <trkpt lat="45.69638" lon="5.97423">
        <ele>887.91479492188</ele>
        <time>2012-02-11T06:47:07Z</time>
      </trkpt>
      <trkpt lat="45.69639" lon="5.9742">
        <ele>887.91479492188</ele>
        <time>2012-02-11T06:47:12Z</time>
      </trkpt>
      <trkpt lat="45.69641" lon="5.97419">
        <ele>887.43408203125</ele>
        <time>2012-02-11T06:47:18Z</time>
      </trkpt>
      <trkpt lat="45.69645" lon="5.97418">
        <ele>885.03100585938</ele>
        <time>2012-02-11T06:47:26Z</time>
      </trkpt>
      <trkpt lat="45.69648" lon="5.97417">
        <ele>883.5888671875</ele>
        <time>2012-02-11T06:47:31Z</time>
      </trkpt>
      <trkpt lat="45.69654" lon="5.97417">
        <ele>883.10815429688</ele>
        <time>2012-02-11T06:47:36Z</time>
      </trkpt>
      <trkpt lat="45.69657" lon="5.97419">
        <ele>882.62768554688</ele>
        <time>2012-02-11T06:47:40Z</time>
      </trkpt>
      <trkpt lat="45.69661" lon="5.97424">
        <ele>881.66625976562</ele>
        <time>2012-02-11T06:47:46Z</time>
      </trkpt>
      <trkpt lat="45.69663" lon="5.97428">
        <ele>880.705078125</ele>
        <time>2012-02-11T06:47:52Z</time>
      </trkpt>
      <trkpt lat="45.69665" lon="5.97431">
        <ele>881.66625976562</ele>
        <time>2012-02-11T06:47:55Z</time>
      </trkpt>
      <trkpt lat="45.69668" lon="5.97433">
        <ele>881.18579101562</ele>
        <time>2012-02-11T06:47:59Z</time>
      </trkpt>
      <trkpt lat="45.69671" lon="5.97436">
        <ele>881.66625976562</ele>
        <time>2012-02-11T06:48:04Z</time>
      </trkpt>
      <trkpt lat="45.69675" lon="5.9744">
        <ele>882.62768554688</ele>
        <time>2012-02-11T06:48:10Z</time>
      </trkpt>
      <trkpt lat="45.69678" lon="5.97444">
        <ele>883.5888671875</ele>
        <time>2012-02-11T06:48:15Z</time>
      </trkpt>
      <trkpt lat="45.69681" lon="5.97447">
        <ele>882.62768554688</ele>
        <time>2012-02-11T06:48:20Z</time>
      </trkpt>
      <trkpt lat="45.69685" lon="5.97451">
        <ele>883.5888671875</ele>
        <time>2012-02-11T06:48:25Z</time>
      </trkpt>
      <trkpt lat="45.69687" lon="5.97454">
        <ele>885.9921875</ele>
        <time>2012-02-11T06:48:29Z</time>
      </trkpt>
      <trkpt lat="45.69688" lon="5.97457">
        <ele>888.87622070312</ele>
        <time>2012-02-11T06:48:34Z</time>
      </trkpt>
      <trkpt lat="45.69691" lon="5.97462">
        <ele>887.91479492188</ele>
        <time>2012-02-11T06:48:39Z</time>
      </trkpt>
      <trkpt lat="45.69695" lon="5.97467">
        <ele>887.43408203125</ele>
        <time>2012-02-11T06:48:44Z</time>
      </trkpt>
      <trkpt lat="45.69697" lon="5.97471">
        <ele>885.03100585938</ele>
        <time>2012-02-11T06:48:49Z</time>
      </trkpt>
      <trkpt lat="45.69698" lon="5.97474">
        <ele>880.705078125</ele>
        <time>2012-02-11T06:48:54Z</time>
      </trkpt>
      <trkpt lat="45.69702" lon="5.97479">
        <ele>880.22436523438</ele>
        <time>2012-02-11T06:48:59Z</time>
      </trkpt>
      <trkpt lat="45.69708" lon="5.97482">
        <ele>880.705078125</ele>
        <time>2012-02-11T06:49:05Z</time>
      </trkpt>
      <trkpt lat="45.69711" lon="5.97483">
        <ele>881.66625976562</ele>
        <time>2012-02-11T06:49:07Z</time>
      </trkpt>
      <trkpt lat="45.69713" lon="5.97483">
        <ele>881.66625976562</ele>
        <time>2012-02-11T06:49:09Z</time>
      </trkpt>
      <trkpt lat="45.69717" lon="5.97484">
        <ele>881.66625976562</ele>
        <time>2012-02-11T06:49:16Z</time>
      </trkpt>
      <trkpt lat="45.6972" lon="5.97486">
        <ele>882.14697265625</ele>
        <time>2012-02-11T06:49:20Z</time>
      </trkpt>
      <trkpt lat="45.69723" lon="5.97489">
        <ele>881.66625976562</ele>
        <time>2012-02-11T06:49:25Z</time>
      </trkpt>
      <trkpt lat="45.69724" lon="5.97492">
        <ele>884.55029296875</ele>
        <time>2012-02-11T06:49:30Z</time>
      </trkpt>
      <trkpt lat="45.69724" lon="5.97494">
        <ele>885.9921875</ele>
        <time>2012-02-11T06:49:35Z</time>
      </trkpt>
      <trkpt lat="45.69724" lon="5.97496">
        <ele>888.87622070312</ele>
        <time>2012-02-11T06:49:41Z</time>
      </trkpt>
      <trkpt lat="45.69723" lon="5.97499">
        <ele>889.35668945312</ele>
        <time>2012-02-11T06:49:50Z</time>
      </trkpt>
      <trkpt lat="45.69722" lon="5.97502">
        <ele>889.83740234375</ele>
        <time>2012-02-11T06:49:57Z</time>
      </trkpt>
      <trkpt lat="45.69722" lon="5.97502">
        <ele>890.79858398438</ele>
        <time>2012-02-11T06:50:02Z</time>
      </trkpt>
      <trkpt lat="45.69721" lon="5.97506">
        <ele>889.83740234375</ele>
        <time>2012-02-11T06:50:10Z</time>
      </trkpt>
      <trkpt lat="45.69722" lon="5.97509">
        <ele>896.08618164062</ele>
        <time>2012-02-11T06:50:20Z</time>
      </trkpt>
      <trkpt lat="45.69722" lon="5.97509">
        <ele>897.52807617188</ele>
        <time>2012-02-11T06:50:25Z</time>
      </trkpt>
      <trkpt lat="45.69721" lon="5.97509">
        <ele>897.04736328125</ele>
        <time>2012-02-11T06:50:33Z</time>
      </trkpt>
      <trkpt lat="45.6972" lon="5.9751">
        <ele>896.56689453125</ele>
        <time>2012-02-11T06:50:39Z</time>
      </trkpt>
      <trkpt lat="45.69719" lon="5.97511">
        <ele>895.60546875</ele>
        <time>2012-02-11T06:50:45Z</time>
      </trkpt>
      <trkpt lat="45.69718" lon="5.97512">
        <ele>897.04736328125</ele>
        <time>2012-02-11T06:50:52Z</time>
      </trkpt>
      <trkpt lat="45.69717" lon="5.97514">
        <ele>897.04736328125</ele>
        <time>2012-02-11T06:50:57Z</time>
      </trkpt>
      <trkpt lat="45.69717" lon="5.97517">
        <ele>893.68286132812</ele>
        <time>2012-02-11T06:51:05Z</time>
      </trkpt>
      <trkpt lat="45.69716" lon="5.9752">
        <ele>890.79858398438</ele>
        <time>2012-02-11T06:51:09Z</time>
      </trkpt>
      <trkpt lat="45.69715" lon="5.9752">
        <ele>891.279296875</ele>
        <time>2012-02-11T06:51:15Z</time>
      </trkpt>
      <trkpt lat="45.69715" lon="5.97519">
        <ele>894.16357421875</ele>
        <time>2012-02-11T06:51:19Z</time>
      </trkpt>
      <trkpt lat="45.69715" lon="5.97521">
        <ele>896.08618164062</ele>
        <time>2012-02-11T06:51:29Z</time>
      </trkpt>
      <trkpt lat="45.69714" lon="5.9752">
        <ele>897.04736328125</ele>
        <time>2012-02-11T06:51:31Z</time>
      </trkpt>
      <trkpt lat="45.69712" lon="5.97517">
        <ele>898.0087890625</ele>
        <time>2012-02-11T06:51:39Z</time>
      </trkpt>
      <trkpt lat="45.69712" lon="5.97516">
        <ele>896.08618164062</ele>
        <time>2012-02-11T06:51:47Z</time>
      </trkpt>
      <trkpt lat="45.69713" lon="5.97516">
        <ele>895.12475585938</ele>
        <time>2012-02-11T06:51:56Z</time>
      </trkpt>
      <trkpt lat="45.69714" lon="5.97515">
        <ele>895.12475585938</ele>
        <time>2012-02-11T06:52:03Z</time>
      </trkpt>
      <trkpt lat="45.69712" lon="5.97516">
        <ele>895.60546875</ele>
        <time>2012-02-11T06:52:08Z</time>
      </trkpt>
      <trkpt lat="45.69712" lon="5.97519">
        <ele>896.08618164062</ele>
        <time>2012-02-11T06:52:13Z</time>
      </trkpt>
      <trkpt lat="45.69711" lon="5.97521">
        <ele>895.60546875</ele>
        <time>2012-02-11T06:52:19Z</time>
      </trkpt>
      <trkpt lat="45.6971" lon="5.97525">
        <ele>895.60546875</ele>
        <time>2012-02-11T06:52:25Z</time>
      </trkpt>
      <trkpt lat="45.69708" lon="5.97528">
        <ele>898.4892578125</ele>
        <time>2012-02-11T06:52:32Z</time>
      </trkpt>
      <trkpt lat="45.69707" lon="5.97529">
        <ele>900.892578125</ele>
        <time>2012-02-11T06:52:40Z</time>
      </trkpt>
      <trkpt lat="45.69706" lon="5.97532">
        <ele>900.892578125</ele>
        <time>2012-02-11T06:52:45Z</time>
      </trkpt>
      <trkpt lat="45.69706" lon="5.97535">
        <ele>902.81518554688</ele>
        <time>2012-02-11T06:52:49Z</time>
      </trkpt>
      <trkpt lat="45.69705" lon="5.97537">
        <ele>904.25732421875</ele>
        <time>2012-02-11T06:52:53Z</time>
      </trkpt>
      <trkpt lat="45.69705" lon="5.97541">
        <ele>902.33447265625</ele>
        <time>2012-02-11T06:52:57Z</time>
      </trkpt>
      <trkpt lat="45.69707" lon="5.97542">
        <ele>902.33447265625</ele>
        <time>2012-02-11T06:53:06Z</time>
      </trkpt>
      <trkpt lat="45.69706" lon="5.97544">
        <ele>902.33447265625</ele>
        <time>2012-02-11T06:53:11Z</time>
      </trkpt>
      <trkpt lat="45.69707" lon="5.97546">
        <ele>904.25732421875</ele>
        <time>2012-02-11T06:53:17Z</time>
      </trkpt>
      <trkpt lat="45.69706" lon="5.97546">
        <ele>906.1796875</ele>
        <time>2012-02-11T06:53:25Z</time>
      </trkpt>
      <trkpt lat="45.69706" lon="5.97548">
        <ele>908.10278320312</ele>
        <time>2012-02-11T06:53:31Z</time>
      </trkpt>
      <trkpt lat="45.69705" lon="5.97551">
        <ele>908.10278320312</ele>
        <time>2012-02-11T06:53:37Z</time>
      </trkpt>
      <trkpt lat="45.69704" lon="5.97554">
        <ele>905.69921875</ele>
        <time>2012-02-11T06:53:44Z</time>
      </trkpt>
      <trkpt lat="45.69706" lon="5.97555">
        <ele>907.14111328125</ele>
        <time>2012-02-11T06:53:50Z</time>
      </trkpt>
      <trkpt lat="45.69706" lon="5.97556">
        <ele>906.66040039062</ele>
        <time>2012-02-11T06:53:57Z</time>
      </trkpt>
      <trkpt lat="45.69706" lon="5.97558">
        <ele>906.66040039062</ele>
        <time>2012-02-11T06:54:06Z</time>
      </trkpt>
      <trkpt lat="45.69706" lon="5.9756">
        <ele>905.69921875</ele>
        <time>2012-02-11T06:54:17Z</time>
      </trkpt>
      <trkpt lat="45.69706" lon="5.97559">
        <ele>903.77661132812</ele>
        <time>2012-02-11T06:54:21Z</time>
      </trkpt>
      <trkpt lat="45.69704" lon="5.97556">
        <ele>905.69921875</ele>
        <time>2012-02-11T06:54:35Z</time>
      </trkpt>
      <trkpt lat="45.69706" lon="5.97557">
        <ele>906.1796875</ele>
        <time>2012-02-11T06:54:38Z</time>
      </trkpt>
      <trkpt lat="45.69706" lon="5.97558">
        <ele>904.25732421875</ele>
        <time>2012-02-11T06:54:45Z</time>
      </trkpt>
      <trkpt lat="45.69709" lon="5.97558">
        <ele>906.1796875</ele>
        <time>2012-02-11T06:54:55Z</time>
      </trkpt>
      <trkpt lat="45.69708" lon="5.9756">
        <ele>905.21850585938</ele>
        <time>2012-02-11T06:55:02Z</time>
      </trkpt>
      <trkpt lat="45.69707" lon="5.97563">
        <ele>904.25732421875</ele>
        <time>2012-02-11T06:55:07Z</time>
      </trkpt>
      <trkpt lat="45.69706" lon="5.97567">
        <ele>903.2958984375</ele>
        <time>2012-02-11T06:55:13Z</time>
      </trkpt>
      <trkpt lat="45.69705" lon="5.97567">
        <ele>903.77661132812</ele>
        <time>2012-02-11T06:55:18Z</time>
      </trkpt>
      <trkpt lat="45.69704" lon="5.97568">
        <ele>904.73779296875</ele>
        <time>2012-02-11T06:55:25Z</time>
      </trkpt>
      <trkpt lat="45.69704" lon="5.97571">
        <ele>904.25732421875</ele>
        <time>2012-02-11T06:55:30Z</time>
      </trkpt>
      <trkpt lat="45.69704" lon="5.97574">
        <ele>902.81518554688</ele>
        <time>2012-02-11T06:55:35Z</time>
      </trkpt>
      <trkpt lat="45.69704" lon="5.97576">
        <ele>902.81518554688</ele>
        <time>2012-02-11T06:55:39Z</time>
      </trkpt>
      <trkpt lat="45.69704" lon="5.97575">
        <ele>901.85400390625</ele>
        <time>2012-02-11T06:55:41Z</time>
      </trkpt>
      <trkpt lat="45.69704" lon="5.97577">
        <ele>903.2958984375</ele>
        <time>2012-02-11T06:55:48Z</time>
      </trkpt>
      <trkpt lat="45.69704" lon="5.97578">
        <ele>904.25732421875</ele>
        <time>2012-02-11T06:55:54Z</time>
      </trkpt>
      <trkpt lat="45.69704" lon="5.9758">
        <ele>905.21850585938</ele>
        <time>2012-02-11T06:56:06Z</time>
      </trkpt>
      <trkpt lat="45.69703" lon="5.97582">
        <ele>906.1796875</ele>
        <time>2012-02-11T06:56:12Z</time>
      </trkpt>
      <trkpt lat="45.69702" lon="5.97585">
        <ele>907.14111328125</ele>
        <time>2012-02-11T06:56:17Z</time>
      </trkpt>
      <trkpt lat="45.69701" lon="5.97586">
        <ele>907.14111328125</ele>
        <time>2012-02-11T06:56:20Z</time>
      </trkpt>
      <trkpt lat="45.69698" lon="5.97587">
        <ele>908.10278320312</ele>
        <time>2012-02-11T06:56:24Z</time>
      </trkpt>
      <trkpt lat="45.69698" lon="5.97592">
        <ele>909.54467773438</ele>
        <time>2012-02-11T06:56:29Z</time>
      </trkpt>
      <trkpt lat="45.69696" lon="5.97594">
        <ele>910.98657226562</ele>
        <time>2012-02-11T06:56:33Z</time>
      </trkpt>
      <trkpt lat="45.69695" lon="5.97597">
        <ele>912.42846679688</ele>
        <time>2012-02-11T06:56:41Z</time>
      </trkpt>
      <trkpt lat="45.69694" lon="5.97598">
        <ele>914.35107421875</ele>
        <time>2012-02-11T06:56:45Z</time>
      </trkpt>
      <trkpt lat="45.69692" lon="5.97602">
        <ele>914.83178710938</ele>
        <time>2012-02-11T06:56:52Z</time>
      </trkpt>
      <trkpt lat="45.69691" lon="5.97603">
        <ele>914.83178710938</ele>
        <time>2012-02-11T06:56:56Z</time>
      </trkpt>
      <trkpt lat="45.69693" lon="5.97603">
        <ele>916.75439453125</ele>
        <time>2012-02-11T06:57:15Z</time>
      </trkpt>
      <trkpt lat="45.69692" lon="5.97604">
        <ele>914.83178710938</ele>
        <time>2012-02-11T06:57:29Z</time>
      </trkpt>
      <trkpt lat="45.69693" lon="5.97605">
        <ele>916.27368164062</ele>
        <time>2012-02-11T06:57:34Z</time>
      </trkpt>
      <trkpt lat="45.69693" lon="5.97605">
        <ele>917.23510742188</ele>
        <time>2012-02-11T06:57:38Z</time>
      </trkpt>
      <trkpt lat="45.69693" lon="5.97605">
        <ele>915.79321289062</ele>
        <time>2012-02-11T06:57:47Z</time>
      </trkpt>
      <trkpt lat="45.69694" lon="5.97606">
        <ele>914.83178710938</ele>
        <time>2012-02-11T06:57:51Z</time>
      </trkpt>
      <trkpt lat="45.69695" lon="5.97606">
        <ele>915.79321289062</ele>
        <time>2012-02-11T06:57:56Z</time>
      </trkpt>
      <trkpt lat="45.69693" lon="5.97605">
        <ele>918.1962890625</ele>
        <time>2012-02-11T06:57:58Z</time>
      </trkpt>
      <trkpt lat="45.69693" lon="5.97605">
        <ele>919.15771484375</ele>
        <time>2012-02-11T06:57:59Z</time>
      </trkpt>
      <trkpt lat="45.69691" lon="5.97605">
        <ele>918.67700195312</ele>
        <time>2012-02-11T06:58:08Z</time>
      </trkpt>
      <trkpt lat="45.6969" lon="5.97611">
        <ele>918.1962890625</ele>
        <time>2012-02-11T06:58:16Z</time>
      </trkpt>
      <trkpt lat="45.69688" lon="5.97613">
        <ele>918.67700195312</ele>
        <time>2012-02-11T06:58:20Z</time>
      </trkpt>
      <trkpt lat="45.69689" lon="5.97613">
        <ele>919.63842773438</ele>
        <time>2012-02-11T06:58:24Z</time>
      </trkpt>
      <trkpt lat="45.69688" lon="5.97615">
        <ele>920.11889648438</ele>
        <time>2012-02-11T06:58:29Z</time>
      </trkpt>
      <trkpt lat="45.69687" lon="5.97619">
        <ele>919.63842773438</ele>
        <time>2012-02-11T06:58:36Z</time>
      </trkpt>
      <trkpt lat="45.69686" lon="5.97622">
        <ele>920.11889648438</ele>
        <time>2012-02-11T06:58:40Z</time>
      </trkpt>
      <trkpt lat="45.69687" lon="5.97623">
        <ele>921.56079101562</ele>
        <time>2012-02-11T06:58:45Z</time>
      </trkpt>
      <trkpt lat="45.69685" lon="5.97626">
        <ele>923.48364257812</ele>
        <time>2012-02-11T06:58:51Z</time>
      </trkpt>
      <trkpt lat="45.69685" lon="5.97629">
        <ele>923.96411132812</ele>
        <time>2012-02-11T06:58:55Z</time>
      </trkpt>
      <trkpt lat="45.69685" lon="5.97632">
        <ele>922.52221679688</ele>
        <time>2012-02-11T06:59:02Z</time>
      </trkpt>
      <trkpt lat="45.69685" lon="5.97633">
        <ele>923.0029296875</ele>
        <time>2012-02-11T06:59:17Z</time>
      </trkpt>
      <trkpt lat="45.69685" lon="5.97634">
        <ele>922.52221679688</ele>
        <time>2012-02-11T06:59:30Z</time>
      </trkpt>
      <trkpt lat="45.69685" lon="5.97635">
        <ele>923.48364257812</ele>
        <time>2012-02-11T06:59:37Z</time>
      </trkpt>
      <trkpt lat="45.69684" lon="5.97636">
        <ele>922.52221679688</ele>
        <time>2012-02-11T06:59:41Z</time>
      </trkpt>
      <trkpt lat="45.69685" lon="5.97636">
        <ele>922.52221679688</ele>
        <time>2012-02-11T06:59:42Z</time>
      </trkpt>
      <trkpt lat="45.69684" lon="5.97636">
        <ele>924.44506835938</ele>
        <time>2012-02-11T06:59:51Z</time>
      </trkpt>
      <trkpt lat="45.69682" lon="5.97638">
        <ele>925.40625</ele>
        <time>2012-02-11T06:59:59Z</time>
      </trkpt>
      <trkpt lat="45.69682" lon="5.97639">
        <ele>925.88696289062</ele>
        <time>2012-02-11T07:00:05Z</time>
      </trkpt>
      <trkpt lat="45.69682" lon="5.97639">
        <ele>925.88696289062</ele>
        <time>2012-02-11T07:00:09Z</time>
      </trkpt>
      <trkpt lat="45.69682" lon="5.97641">
        <ele>926.36767578125</ele>
        <time>2012-02-11T07:00:18Z</time>
      </trkpt>
      <trkpt lat="45.69682" lon="5.97641">
        <ele>926.84838867188</ele>
        <time>2012-02-11T07:00:22Z</time>
      </trkpt>
      <trkpt lat="45.69681" lon="5.97639">
        <ele>927.3291015625</ele>
        <time>2012-02-11T07:00:25Z</time>
      </trkpt>
      <trkpt lat="45.69682" lon="5.97639">
        <ele>926.36767578125</ele>
        <time>2012-02-11T07:00:36Z</time>
      </trkpt>
      <trkpt lat="45.69683" lon="5.9764">
        <ele>927.3291015625</ele>
        <time>2012-02-11T07:00:44Z</time>
      </trkpt>
      <trkpt lat="45.69683" lon="5.9764">
        <ele>926.36767578125</ele>
        <time>2012-02-11T07:00:49Z</time>
      </trkpt>
      <trkpt lat="45.69682" lon="5.97642">
        <ele>926.36767578125</ele>
        <time>2012-02-11T07:00:55Z</time>
      </trkpt>
      <trkpt lat="45.69681" lon="5.97646">
        <ele>925.40625</ele>
        <time>2012-02-11T07:01:02Z</time>
      </trkpt>
      <trkpt lat="45.69681" lon="5.97647">
        <ele>925.40625</ele>
        <time>2012-02-11T07:01:08Z</time>
      </trkpt>
      <trkpt lat="45.6968" lon="5.97646">
        <ele>925.40625</ele>
        <time>2012-02-11T07:01:13Z</time>
      </trkpt>
      <trkpt lat="45.69677" lon="5.9764">
        <ele>924.92578125</ele>
        <time>2012-02-11T07:01:19Z</time>
      </trkpt>
      <trkpt lat="45.69677" lon="5.97639">
        <ele>925.40625</ele>
        <time>2012-02-11T07:01:23Z</time>
      </trkpt>
      <trkpt lat="45.69675" lon="5.97642">
        <ele>926.36767578125</ele>
        <time>2012-02-11T07:01:32Z</time>
      </trkpt>
      <trkpt lat="45.69672" lon="5.97636">
        <ele>925.40625</ele>
        <time>2012-02-11T07:01:38Z</time>
      </trkpt>
      <trkpt lat="45.6967" lon="5.97632">
        <ele>925.40625</ele>
        <time>2012-02-11T07:01:43Z</time>
      </trkpt>
      <trkpt lat="45.69668" lon="5.9763">
        <ele>925.40625</ele>
        <time>2012-02-11T07:01:47Z</time>
      </trkpt>
      <trkpt lat="45.69667" lon="5.97627">
        <ele>925.40625</ele>
        <time>2012-02-11T07:01:59Z</time>
      </trkpt>
      <trkpt lat="45.69663" lon="5.97621">
        <ele>926.36767578125</ele>
        <time>2012-02-11T07:02:06Z</time>
      </trkpt>
      <trkpt lat="45.6966" lon="5.97615">
        <ele>927.8095703125</ele>
        <time>2012-02-11T07:02:12Z</time>
      </trkpt>
      <trkpt lat="45.6966" lon="5.97614">
        <ele>927.8095703125</ele>
        <time>2012-02-11T07:02:19Z</time>
      </trkpt>
      <trkpt lat="45.69658" lon="5.97611">
        <ele>929.73217773438</ele>
        <time>2012-02-11T07:02:27Z</time>
      </trkpt>
      <trkpt lat="45.69655" lon="5.97609">
        <ele>928.77099609375</ele>
        <time>2012-02-11T07:02:33Z</time>
      </trkpt>
      <trkpt lat="45.69655" lon="5.97609">
        <ele>927.8095703125</ele>
        <time>2012-02-11T07:02:39Z</time>
      </trkpt>
      <trkpt lat="45.69653" lon="5.97609">
        <ele>926.84838867188</ele>
        <time>2012-02-11T07:02:45Z</time>
      </trkpt>
      <trkpt lat="45.69654" lon="5.97608">
        <ele>927.3291015625</ele>
        <time>2012-02-11T07:02:59Z</time>
      </trkpt>
      <trkpt lat="45.69653" lon="5.97609">
        <ele>926.36767578125</ele>
        <time>2012-02-11T07:03:09Z</time>
      </trkpt>
      <trkpt lat="45.69652" lon="5.97609">
        <ele>926.36767578125</ele>
        <time>2012-02-11T07:03:19Z</time>
      </trkpt>
      <trkpt lat="45.6965" lon="5.97609">
        <ele>925.88696289062</ele>
        <time>2012-02-11T07:03:21Z</time>
      </trkpt>
      <trkpt lat="45.69646" lon="5.97607">
        <ele>926.36767578125</ele>
        <time>2012-02-11T07:03:27Z</time>
      </trkpt>
      <trkpt lat="45.69642" lon="5.97606">
        <ele>926.36767578125</ele>
        <time>2012-02-11T07:03:33Z</time>
      </trkpt>
      <trkpt lat="45.69642" lon="5.97606">
        <ele>927.3291015625</ele>
        <time>2012-02-11T07:03:42Z</time>
      </trkpt>
      <trkpt lat="45.69642" lon="5.97606">
        <ele>927.8095703125</ele>
        <time>2012-02-11T07:03:50Z</time>
      </trkpt>
      <trkpt lat="45.69638" lon="5.97606">
        <ele>927.8095703125</ele>
        <time>2012-02-11T07:03:56Z</time>
      </trkpt>
      <trkpt lat="45.69635" lon="5.97605">
        <ele>929.25146484375</ele>
        <time>2012-02-11T07:04:00Z</time>
      </trkpt>
      <trkpt lat="45.6963" lon="5.97606">
        <ele>928.29028320312</ele>
        <time>2012-02-11T07:04:07Z</time>
      </trkpt>
      <trkpt lat="45.69627" lon="5.97608">
        <ele>929.25146484375</ele>
        <time>2012-02-11T07:04:13Z</time>
      </trkpt>
      <trkpt lat="45.69624" lon="5.9761">
        <ele>928.29028320312</ele>
        <time>2012-02-11T07:04:18Z</time>
      </trkpt>
      <trkpt lat="45.69619" lon="5.97611">
        <ele>929.73217773438</ele>
        <time>2012-02-11T07:04:25Z</time>
      </trkpt>
      <trkpt lat="45.69616" lon="5.97612">
        <ele>929.25146484375</ele>
        <time>2012-02-11T07:04:30Z</time>
      </trkpt>
      <trkpt lat="45.69613" lon="5.9761">
        <ele>933.57739257812</ele>
        <time>2012-02-11T07:04:37Z</time>
      </trkpt>
      <trkpt lat="45.69612" lon="5.97611">
        <ele>935.98071289062</ele>
        <time>2012-02-11T07:04:56Z</time>
      </trkpt>
      <trkpt lat="45.69611" lon="5.97611">
        <ele>936.94189453125</ele>
        <time>2012-02-11T07:05:04Z</time>
      </trkpt>
      <trkpt lat="45.69611" lon="5.97612">
        <ele>937.42260742188</ele>
        <time>2012-02-11T07:05:09Z</time>
      </trkpt>
      <trkpt lat="45.69611" lon="5.97613">
        <ele>936.94189453125</ele>
        <time>2012-02-11T07:05:12Z</time>
      </trkpt>
      <trkpt lat="45.69611" lon="5.97613">
        <ele>936.94189453125</ele>
        <time>2012-02-11T07:05:21Z</time>
      </trkpt>
      <trkpt lat="45.69611" lon="5.97612">
        <ele>938.86474609375</ele>
        <time>2012-02-11T07:05:43Z</time>
      </trkpt>
      <trkpt lat="45.69611" lon="5.97611">
        <ele>934.53881835938</ele>
        <time>2012-02-11T07:05:59Z</time>
      </trkpt>
      <trkpt lat="45.69612" lon="5.97612">
        <ele>933.57739257812</ele>
        <time>2012-02-11T07:06:11Z</time>
      </trkpt>
      <trkpt lat="45.69609" lon="5.97612">
        <ele>933.57739257812</ele>
        <time>2012-02-11T07:06:16Z</time>
      </trkpt>
      <trkpt lat="45.69604" lon="5.97613">
        <ele>935.01953125</ele>
        <time>2012-02-11T07:06:22Z</time>
      </trkpt>
      <trkpt lat="45.69601" lon="5.97614">
        <ele>935.01953125</ele>
        <time>2012-02-11T07:06:27Z</time>
      </trkpt>
      <trkpt lat="45.69597" lon="5.97612">
        <ele>935.5</ele>
        <time>2012-02-11T07:06:31Z</time>
      </trkpt>
      <trkpt lat="45.69594" lon="5.97612">
        <ele>935.5</ele>
        <time>2012-02-11T07:06:37Z</time>
      </trkpt>
      <trkpt lat="45.69589" lon="5.9761">
        <ele>935.5</ele>
        <time>2012-02-11T07:06:42Z</time>
      </trkpt>
      <trkpt lat="45.69588" lon="5.97609">
        <ele>935.01953125</ele>
        <time>2012-02-11T07:06:47Z</time>
      </trkpt>
      <trkpt lat="45.6959" lon="5.97611">
        <ele>936.94189453125</ele>
        <time>2012-02-11T07:06:58Z</time>
      </trkpt>
      <trkpt lat="45.69591" lon="5.97608">
        <ele>938.86474609375</ele>
        <time>2012-02-11T07:07:14Z</time>
      </trkpt>
      <trkpt lat="45.69592" lon="5.97608">
        <ele>939.34521484375</ele>
        <time>2012-02-11T07:07:17Z</time>
      </trkpt>
      <trkpt lat="45.69591" lon="5.97605">
        <ele>938.38403320312</ele>
        <time>2012-02-11T07:07:25Z</time>
      </trkpt>
      <trkpt lat="45.69588" lon="5.97603">
        <ele>937.9033203125</ele>
        <time>2012-02-11T07:07:30Z</time>
      </trkpt>
      <trkpt lat="45.69585" lon="5.97601">
        <ele>935.5</ele>
        <time>2012-02-11T07:07:36Z</time>
      </trkpt>
      <trkpt lat="45.69582" lon="5.97598">
        <ele>933.57739257812</ele>
        <time>2012-02-11T07:07:42Z</time>
      </trkpt>
      <trkpt lat="45.69582" lon="5.97597">
        <ele>934.05810546875</ele>
        <time>2012-02-11T07:07:46Z</time>
      </trkpt>
      <trkpt lat="45.69582" lon="5.97596">
        <ele>935.01953125</ele>
        <time>2012-02-11T07:07:55Z</time>
      </trkpt>
      <trkpt lat="45.6958" lon="5.97596">
        <ele>935.01953125</ele>
        <time>2012-02-11T07:08:04Z</time>
      </trkpt>
      <trkpt lat="45.69578" lon="5.97594">
        <ele>936.46142578125</ele>
        <time>2012-02-11T07:08:11Z</time>
      </trkpt>
      <trkpt lat="45.69572" lon="5.97592">
        <ele>933.0966796875</ele>
        <time>2012-02-11T07:08:21Z</time>
      </trkpt>
      <trkpt lat="45.69569" lon="5.9759">
        <ele>934.53881835938</ele>
        <time>2012-02-11T07:08:27Z</time>
      </trkpt>
      <trkpt lat="45.69569" lon="5.9759">
        <ele>936.46142578125</ele>
        <time>2012-02-11T07:08:30Z</time>
      </trkpt>
      <trkpt lat="45.69566" lon="5.97587">
        <ele>937.9033203125</ele>
        <time>2012-02-11T07:08:36Z</time>
      </trkpt>
      <trkpt lat="45.69562" lon="5.97586">
        <ele>938.38403320312</ele>
        <time>2012-02-11T07:08:42Z</time>
      </trkpt>
      <trkpt lat="45.69561" lon="5.97585">
        <ele>939.82592773438</ele>
        <time>2012-02-11T07:08:46Z</time>
      </trkpt>
      <trkpt lat="45.69563" lon="5.97586">
        <ele>943.67138671875</ele>
        <time>2012-02-11T07:08:56Z</time>
      </trkpt>
      <trkpt lat="45.69563" lon="5.97587">
        <ele>942.2294921875</ele>
        <time>2012-02-11T07:09:04Z</time>
      </trkpt>
      <trkpt lat="45.69561" lon="5.97587">
        <ele>942.2294921875</ele>
        <time>2012-02-11T07:09:09Z</time>
      </trkpt>
      <trkpt lat="45.69561" lon="5.97587">
        <ele>941.74877929688</ele>
        <time>2012-02-11T07:09:17Z</time>
      </trkpt>
      <trkpt lat="45.69561" lon="5.97586">
        <ele>942.2294921875</ele>
        <time>2012-02-11T07:09:29Z</time>
      </trkpt>
      <trkpt lat="45.69562" lon="5.97586">
        <ele>942.2294921875</ele>
        <time>2012-02-11T07:09:36Z</time>
      </trkpt>
      <trkpt lat="45.69561" lon="5.97586">
        <ele>941.74877929688</ele>
        <time>2012-02-11T07:09:41Z</time>
      </trkpt>
      <trkpt lat="45.69561" lon="5.97586">
        <ele>939.82592773438</ele>
        <time>2012-02-11T07:09:45Z</time>
      </trkpt>
      <trkpt lat="45.69559" lon="5.97586">
        <ele>937.42260742188</ele>
        <time>2012-02-11T07:09:55Z</time>
      </trkpt>
      <trkpt lat="45.69558" lon="5.97585">
        <ele>936.94189453125</ele>
        <time>2012-02-11T07:09:59Z</time>
      </trkpt>
      <trkpt lat="45.69554" lon="5.97585">
        <ele>936.46142578125</ele>
        <time>2012-02-11T07:10:04Z</time>
      </trkpt>
      <trkpt lat="45.69551" lon="5.97584">
        <ele>934.53881835938</ele>
        <time>2012-02-11T07:10:10Z</time>
      </trkpt>
      <trkpt lat="45.69548" lon="5.97582">
        <ele>934.53881835938</ele>
        <time>2012-02-11T07:10:15Z</time>
      </trkpt>
      <trkpt lat="45.69541" lon="5.97582">
        <ele>934.53881835938</ele>
        <time>2012-02-11T07:10:23Z</time>
      </trkpt>
      <trkpt lat="45.69537" lon="5.97583">
        <ele>933.57739257812</ele>
        <time>2012-02-11T07:10:27Z</time>
      </trkpt>
      <trkpt lat="45.69535" lon="5.97582">
        <ele>934.53881835938</ele>
        <time>2012-02-11T07:10:31Z</time>
      </trkpt>
      <trkpt lat="45.69531" lon="5.97582">
        <ele>934.53881835938</ele>
        <time>2012-02-11T07:10:37Z</time>
      </trkpt>
      <trkpt lat="45.69527" lon="5.97582">
        <ele>934.05810546875</ele>
        <time>2012-02-11T07:10:42Z</time>
      </trkpt>
      <trkpt lat="45.69523" lon="5.97582">
        <ele>935.01953125</ele>
        <time>2012-02-11T07:10:48Z</time>
      </trkpt>
      <trkpt lat="45.69519" lon="5.97582">
        <ele>935.5</ele>
        <time>2012-02-11T07:10:53Z</time>
      </trkpt>
      <trkpt lat="45.69516" lon="5.97583">
        <ele>936.46142578125</ele>
        <time>2012-02-11T07:10:58Z</time>
      </trkpt>
      <trkpt lat="45.69512" lon="5.97583">
        <ele>938.38403320312</ele>
        <time>2012-02-11T07:11:03Z</time>
      </trkpt>
      <trkpt lat="45.6951" lon="5.97583">
        <ele>945.59399414062</ele>
        <time>2012-02-11T07:11:13Z</time>
      </trkpt>
      <trkpt lat="45.69506" lon="5.97583">
        <ele>945.59399414062</ele>
        <time>2012-02-11T07:11:18Z</time>
      </trkpt>
      <trkpt lat="45.69502" lon="5.97584">
        <ele>943.19067382812</ele>
        <time>2012-02-11T07:11:23Z</time>
      </trkpt>
      <trkpt lat="45.69497" lon="5.97584">
        <ele>942.2294921875</ele>
        <time>2012-02-11T07:11:28Z</time>
      </trkpt>
      <trkpt lat="45.69493" lon="5.97584">
        <ele>941.74877929688</ele>
        <time>2012-02-11T07:11:33Z</time>
      </trkpt>
      <trkpt lat="45.6949" lon="5.97584">
        <ele>940.78735351562</ele>
        <time>2012-02-11T07:11:39Z</time>
      </trkpt>
      <trkpt lat="45.69489" lon="5.97584">
        <ele>939.82592773438</ele>
        <time>2012-02-11T07:11:43Z</time>
      </trkpt>
      <trkpt lat="45.69487" lon="5.97582">
        <ele>941.26806640625</ele>
        <time>2012-02-11T07:11:47Z</time>
      </trkpt>
      <trkpt lat="45.69484" lon="5.9758">
        <ele>941.26806640625</ele>
        <time>2012-02-11T07:11:51Z</time>
      </trkpt>
      <trkpt lat="45.69482" lon="5.97578">
        <ele>941.74877929688</ele>
        <time>2012-02-11T07:11:55Z</time>
      </trkpt>
      <trkpt lat="45.69477" lon="5.97576">
        <ele>940.78735351562</ele>
        <time>2012-02-11T07:12:00Z</time>
      </trkpt>
      <trkpt lat="45.69475" lon="5.97573">
        <ele>943.67138671875</ele>
        <time>2012-02-11T07:12:06Z</time>
      </trkpt>
      <trkpt lat="45.69473" lon="5.97573">
        <ele>946.07470703125</ele>
        <time>2012-02-11T07:12:15Z</time>
      </trkpt>
      <trkpt lat="45.69473" lon="5.97574">
        <ele>946.07470703125</ele>
        <time>2012-02-11T07:12:26Z</time>
      </trkpt>
      <trkpt lat="45.69473" lon="5.97574">
        <ele>945.59399414062</ele>
        <time>2012-02-11T07:12:31Z</time>
      </trkpt>
      <trkpt lat="45.69471" lon="5.97573">
        <ele>945.59399414062</ele>
        <time>2012-02-11T07:12:34Z</time>
      </trkpt>
      <trkpt lat="45.6947" lon="5.97573">
        <ele>945.11328125</ele>
        <time>2012-02-11T07:12:35Z</time>
      </trkpt>
      <trkpt lat="45.69467" lon="5.97571">
        <ele>946.55541992188</ele>
        <time>2012-02-11T07:12:40Z</time>
      </trkpt>
      <trkpt lat="45.69462" lon="5.9757">
        <ele>946.07470703125</ele>
        <time>2012-02-11T07:12:45Z</time>
      </trkpt>
      <trkpt lat="45.6946" lon="5.9757">
        <ele>945.59399414062</ele>
        <time>2012-02-11T07:12:49Z</time>
      </trkpt>
      <trkpt lat="45.69459" lon="5.97569">
        <ele>946.07470703125</ele>
        <time>2012-02-11T07:12:51Z</time>
      </trkpt>
      <trkpt lat="45.69452" lon="5.97571">
        <ele>944.63256835938</ele>
        <time>2012-02-11T07:12:57Z</time>
      </trkpt>
      <trkpt lat="45.69449" lon="5.97569">
        <ele>944.15209960938</ele>
        <time>2012-02-11T07:13:02Z</time>
      </trkpt>
      <trkpt lat="45.69443" lon="5.97562">
        <ele>943.19067382812</ele>
        <time>2012-02-11T07:13:11Z</time>
      </trkpt>
      <trkpt lat="45.69438" lon="5.97554">
        <ele>943.67138671875</ele>
        <time>2012-02-11T07:13:19Z</time>
      </trkpt>
      <trkpt lat="45.69436" lon="5.97548">
        <ele>943.67138671875</ele>
        <time>2012-02-11T07:13:25Z</time>
      </trkpt>
      <trkpt lat="45.69436" lon="5.9754">
        <ele>944.63256835938</ele>
        <time>2012-02-11T07:13:32Z</time>
      </trkpt>
      <trkpt lat="45.69437" lon="5.97535">
        <ele>943.67138671875</ele>
        <time>2012-02-11T07:13:37Z</time>
      </trkpt>
      <trkpt lat="45.69438" lon="5.97529">
        <ele>943.67138671875</ele>
        <time>2012-02-11T07:13:43Z</time>
      </trkpt>
      <trkpt lat="45.69437" lon="5.97528">
        <ele>944.15209960938</ele>
        <time>2012-02-11T07:13:49Z</time>
      </trkpt>
      <trkpt lat="45.69435" lon="5.97527">
        <ele>944.63256835938</ele>
        <time>2012-02-11T07:13:57Z</time>
      </trkpt>
      <trkpt lat="45.69433" lon="5.97528">
        <ele>946.55541992188</ele>
        <time>2012-02-11T07:14:07Z</time>
      </trkpt>
      <trkpt lat="45.69435" lon="5.97528">
        <ele>947.03588867188</ele>
        <time>2012-02-11T07:14:16Z</time>
      </trkpt>
      <trkpt lat="45.69436" lon="5.97529">
        <ele>945.11328125</ele>
        <time>2012-02-11T07:14:27Z</time>
      </trkpt>
      <trkpt lat="45.69435" lon="5.97526">
        <ele>941.74877929688</ele>
        <time>2012-02-11T07:14:42Z</time>
      </trkpt>
      <trkpt lat="45.69434" lon="5.97517">
        <ele>939.82592773438</ele>
        <time>2012-02-11T07:14:50Z</time>
      </trkpt>
      <trkpt lat="45.69432" lon="5.97509">
        <ele>939.82592773438</ele>
        <time>2012-02-11T07:14:56Z</time>
      </trkpt>
      <trkpt lat="45.69432" lon="5.97504">
        <ele>940.30688476562</ele>
        <time>2012-02-11T07:15:02Z</time>
      </trkpt>
      <trkpt lat="45.69433" lon="5.97505">
        <ele>944.15209960938</ele>
        <time>2012-02-11T07:15:11Z</time>
      </trkpt>
      <trkpt lat="45.69434" lon="5.97507">
        <ele>947.03588867188</ele>
        <time>2012-02-11T07:15:20Z</time>
      </trkpt>
      <trkpt lat="45.69434" lon="5.97509">
        <ele>951.36181640625</ele>
        <time>2012-02-11T07:15:33Z</time>
      </trkpt>
      <trkpt lat="45.69435" lon="5.97508">
        <ele>952.8037109375</ele>
        <time>2012-02-11T07:15:44Z</time>
      </trkpt>
      <trkpt lat="45.69436" lon="5.97504">
        <ele>953.28442382812</ele>
        <time>2012-02-11T07:15:48Z</time>
      </trkpt>
      <trkpt lat="45.69436" lon="5.97502">
        <ele>952.8037109375</ele>
        <time>2012-02-11T07:15:54Z</time>
      </trkpt>
      <trkpt lat="45.69439" lon="5.97497">
        <ele>950.40063476562</ele>
        <time>2012-02-11T07:15:59Z</time>
      </trkpt>
      <trkpt lat="45.69442" lon="5.9749">
        <ele>948.95849609375</ele>
        <time>2012-02-11T07:16:04Z</time>
      </trkpt>
      <trkpt lat="45.69442" lon="5.97489">
        <ele>948.95849609375</ele>
        <time>2012-02-11T07:16:05Z</time>
      </trkpt>
      <trkpt lat="45.69446" lon="5.97485">
        <ele>947.5166015625</ele>
        <time>2012-02-11T07:16:10Z</time>
      </trkpt>
      <trkpt lat="45.69451" lon="5.97478">
        <ele>947.03588867188</ele>
        <time>2012-02-11T07:16:16Z</time>
      </trkpt>
      <trkpt lat="45.69456" lon="5.97473">
        <ele>946.55541992188</ele>
        <time>2012-02-11T07:16:22Z</time>
      </trkpt>
      <trkpt lat="45.69458" lon="5.97475">
        <ele>946.07470703125</ele>
        <time>2012-02-11T07:16:27Z</time>
      </trkpt>
      <trkpt lat="45.69458" lon="5.97475">
        <ele>945.59399414062</ele>
        <time>2012-02-11T07:16:35Z</time>
      </trkpt>
      <trkpt lat="45.69459" lon="5.97477">
        <ele>943.67138671875</ele>
        <time>2012-02-11T07:16:55Z</time>
      </trkpt>
      <trkpt lat="45.69459" lon="5.97477">
        <ele>945.11328125</ele>
        <time>2012-02-11T07:17:04Z</time>
      </trkpt>
      <trkpt lat="45.69458" lon="5.97476">
        <ele>944.63256835938</ele>
        <time>2012-02-11T07:17:08Z</time>
      </trkpt>
      <trkpt lat="45.69458" lon="5.97476">
        <ele>944.63256835938</ele>
        <time>2012-02-11T07:17:09Z</time>
      </trkpt>
      <trkpt lat="45.69459" lon="5.97476">
        <ele>945.11328125</ele>
        <time>2012-02-11T07:17:14Z</time>
      </trkpt>
      <trkpt lat="45.69459" lon="5.97476">
        <ele>945.11328125</ele>
        <time>2012-02-11T07:17:17Z</time>
      </trkpt>
      <trkpt lat="45.69459" lon="5.97476">
        <ele>945.11328125</ele>
        <time>2012-02-11T07:17:18Z</time>
      </trkpt>
      <trkpt lat="45.6946" lon="5.97475">
        <ele>947.03588867188</ele>
        <time>2012-02-11T07:17:34Z</time>
      </trkpt>
      <trkpt lat="45.6946" lon="5.97473">
        <ele>947.99731445312</ele>
        <time>2012-02-11T07:17:52Z</time>
      </trkpt>
      <trkpt lat="45.6946" lon="5.97473">
        <ele>947.99731445312</ele>
        <time>2012-02-11T07:18:02Z</time>
      </trkpt>
      <trkpt lat="45.6946" lon="5.97473">
        <ele>947.03588867188</ele>
        <time>2012-02-11T07:18:11Z</time>
      </trkpt>
      <trkpt lat="45.69458" lon="5.97472">
        <ele>947.03588867188</ele>
        <time>2012-02-11T07:18:26Z</time>
      </trkpt>
      <trkpt lat="45.69457" lon="5.97472">
        <ele>947.99731445312</ele>
        <time>2012-02-11T07:18:33Z</time>
      </trkpt>
      <trkpt lat="45.69458" lon="5.97471">
        <ele>948.95849609375</ele>
        <time>2012-02-11T07:18:43Z</time>
      </trkpt>
      <trkpt lat="45.69459" lon="5.97471">
        <ele>948.47778320312</ele>
        <time>2012-02-11T07:18:49Z</time>
      </trkpt>
      <trkpt lat="45.69459" lon="5.97471">
        <ele>948.95849609375</ele>
        <time>2012-02-11T07:18:54Z</time>
      </trkpt>
      <trkpt lat="45.69459" lon="5.97471">
        <ele>948.47778320312</ele>
        <time>2012-02-11T07:19:00Z</time>
      </trkpt>
      <trkpt lat="45.6946" lon="5.97471">
        <ele>947.99731445312</ele>
        <time>2012-02-11T07:19:03Z</time>
      </trkpt>
      <trkpt lat="45.6946" lon="5.97471">
        <ele>947.5166015625</ele>
        <time>2012-02-11T07:19:04Z</time>
      </trkpt>
      <trkpt lat="45.6946" lon="5.97469">
        <ele>946.07470703125</ele>
        <time>2012-02-11T07:19:12Z</time>
      </trkpt>
      <trkpt lat="45.69461" lon="5.97469">
        <ele>946.55541992188</ele>
        <time>2012-02-11T07:19:21Z</time>
      </trkpt>
      <trkpt lat="45.69462" lon="5.97468">
        <ele>948.95849609375</ele>
        <time>2012-02-11T07:19:30Z</time>
      </trkpt>
      <trkpt lat="45.69462" lon="5.97469">
        <ele>949.43920898438</ele>
        <time>2012-02-11T07:19:37Z</time>
      </trkpt>
      <trkpt lat="45.69463" lon="5.97469">
        <ele>949.43920898438</ele>
        <time>2012-02-11T07:19:42Z</time>
      </trkpt>
      <trkpt lat="45.69463" lon="5.97469">
        <ele>949.43920898438</ele>
        <time>2012-02-11T07:19:44Z</time>
      </trkpt>
      <trkpt lat="45.69464" lon="5.97471">
        <ele>949.43920898438</ele>
        <time>2012-02-11T07:20:00Z</time>
      </trkpt>
      <trkpt lat="45.69463" lon="5.9747">
        <ele>949.919921875</ele>
        <time>2012-02-11T07:20:03Z</time>
      </trkpt>
      <trkpt lat="45.69463" lon="5.9747">
        <ele>949.43920898438</ele>
        <time>2012-02-11T07:20:04Z</time>
      </trkpt>
      <trkpt lat="45.69462" lon="5.97471">
        <ele>948.95849609375</ele>
        <time>2012-02-11T07:20:07Z</time>
      </trkpt>
      <trkpt lat="45.69461" lon="5.97471">
        <ele>949.919921875</ele>
        <time>2012-02-11T07:20:20Z</time>
      </trkpt>
      <trkpt lat="45.69462" lon="5.97472">
        <ele>950.88110351562</ele>
        <time>2012-02-11T07:20:28Z</time>
      </trkpt>
      <trkpt lat="45.69462" lon="5.97472">
        <ele>950.40063476562</ele>
        <time>2012-02-11T07:20:45Z</time>
      </trkpt>
      <trkpt lat="45.69461" lon="5.97472">
        <ele>949.919921875</ele>
        <time>2012-02-11T07:20:58Z</time>
      </trkpt>
      <trkpt lat="45.6946" lon="5.97472">
        <ele>950.40063476562</ele>
        <time>2012-02-11T07:21:18Z</time>
      </trkpt>
      <trkpt lat="45.69464" lon="5.97471">
        <ele>949.919921875</ele>
        <time>2012-02-11T07:21:27Z</time>
      </trkpt>
      <trkpt lat="45.69464" lon="5.97473">
        <ele>948.47778320312</ele>
        <time>2012-02-11T07:21:44Z</time>
      </trkpt>
      <trkpt lat="45.69463" lon="5.97473">
        <ele>948.95849609375</ele>
        <time>2012-02-11T07:21:53Z</time>
      </trkpt>
      <trkpt lat="45.69464" lon="5.97471">
        <ele>947.99731445312</ele>
        <time>2012-02-11T07:22:10Z</time>
      </trkpt>
      <trkpt lat="45.69464" lon="5.97471">
        <ele>947.99731445312</ele>
        <time>2012-02-11T07:22:18Z</time>
      </trkpt>
      <trkpt lat="45.69464" lon="5.97471">
        <ele>947.99731445312</ele>
        <time>2012-02-11T07:22:32Z</time>
      </trkpt>
      <trkpt lat="45.69463" lon="5.97471">
        <ele>947.99731445312</ele>
        <time>2012-02-11T07:22:39Z</time>
      </trkpt>
      <trkpt lat="45.69463" lon="5.97472">
        <ele>947.99731445312</ele>
        <time>2012-02-11T07:22:50Z</time>
      </trkpt>
      <trkpt lat="45.69463" lon="5.97471">
        <ele>948.95849609375</ele>
        <time>2012-02-11T07:22:59Z</time>
      </trkpt>
      <trkpt lat="45.69464" lon="5.97471">
        <ele>949.919921875</ele>
        <time>2012-02-11T07:23:04Z</time>
      </trkpt>
      <trkpt lat="45.69464" lon="5.97471">
        <ele>950.40063476562</ele>
        <time>2012-02-11T07:23:05Z</time>
      </trkpt>
      <trkpt lat="45.69465" lon="5.9747">
        <ele>951.36181640625</ele>
        <time>2012-02-11T07:23:14Z</time>
      </trkpt>
      <trkpt lat="45.69465" lon="5.9747">
        <ele>951.84252929688</ele>
        <time>2012-02-11T07:23:15Z</time>
      </trkpt>
      <trkpt lat="45.69465" lon="5.9747">
        <ele>951.36181640625</ele>
        <time>2012-02-11T07:23:16Z</time>
      </trkpt>
      <trkpt lat="45.69465" lon="5.97471">
        <ele>951.84252929688</ele>
        <time>2012-02-11T07:23:25Z</time>
      </trkpt>
      <trkpt lat="45.69464" lon="5.97471">
        <ele>951.84252929688</ele>
        <time>2012-02-11T07:23:27Z</time>
      </trkpt>
      <trkpt lat="45.69464" lon="5.97471">
        <ele>951.36181640625</ele>
        <time>2012-02-11T07:23:34Z</time>
      </trkpt>
      <trkpt lat="45.69466" lon="5.97471">
        <ele>951.84252929688</ele>
        <time>2012-02-11T07:23:46Z</time>
      </trkpt>
      <trkpt lat="45.69466" lon="5.97473">
        <ele>952.32299804688</ele>
        <time>2012-02-11T07:23:54Z</time>
      </trkpt>
      <trkpt lat="45.69465" lon="5.97474">
        <ele>952.8037109375</ele>
        <time>2012-02-11T07:24:02Z</time>
      </trkpt>
      <trkpt lat="45.69463" lon="5.97474">
        <ele>952.32299804688</ele>
        <time>2012-02-11T07:24:12Z</time>
      </trkpt>
      <trkpt lat="45.69462" lon="5.97474">
        <ele>952.32299804688</ele>
        <time>2012-02-11T07:24:17Z</time>
      </trkpt>
      <trkpt lat="45.69463" lon="5.97474">
        <ele>951.36181640625</ele>
        <time>2012-02-11T07:24:27Z</time>
      </trkpt>
      <trkpt lat="45.69463" lon="5.97474">
        <ele>950.40063476562</ele>
        <time>2012-02-11T07:24:34Z</time>
      </trkpt>
      <trkpt lat="45.69464" lon="5.97474">
        <ele>950.88110351562</ele>
        <time>2012-02-11T07:24:49Z</time>
      </trkpt>
      <trkpt lat="45.69462" lon="5.97475">
        <ele>951.36181640625</ele>
        <time>2012-02-11T07:25:01Z</time>
      </trkpt>
      <trkpt lat="45.69462" lon="5.97474">
        <ele>951.84252929688</ele>
        <time>2012-02-11T07:25:09Z</time>
      </trkpt>
      <trkpt lat="45.69462" lon="5.97474">
        <ele>951.84252929688</ele>
        <time>2012-02-11T07:25:17Z</time>
      </trkpt>
      <trkpt lat="45.6946" lon="5.97474">
        <ele>951.84252929688</ele>
        <time>2012-02-11T07:25:24Z</time>
      </trkpt>
      <trkpt lat="45.6946" lon="5.97474">
        <ele>951.84252929688</ele>
        <time>2012-02-11T07:25:32Z</time>
      </trkpt>
      <trkpt lat="45.6946" lon="5.97474">
        <ele>951.36181640625</ele>
        <time>2012-02-11T07:25:52Z</time>
      </trkpt>
      <trkpt lat="45.69461" lon="5.97475">
        <ele>949.919921875</ele>
        <time>2012-02-11T07:26:03Z</time>
      </trkpt>
      <trkpt lat="45.69461" lon="5.97475">
        <ele>949.919921875</ele>
        <time>2012-02-11T07:26:07Z</time>
      </trkpt>
      <trkpt lat="45.69461" lon="5.97475">
        <ele>949.919921875</ele>
        <time>2012-02-11T07:26:08Z</time>
      </trkpt>
      <trkpt lat="45.69462" lon="5.97476">
        <ele>950.40063476562</ele>
        <time>2012-02-11T07:26:11Z</time>
      </trkpt>
      <trkpt lat="45.6946" lon="5.97475">
        <ele>950.88110351562</ele>
        <time>2012-02-11T07:26:25Z</time>
      </trkpt>
      <trkpt lat="45.69459" lon="5.97476">
        <ele>950.40063476562</ele>
        <time>2012-02-11T07:26:36Z</time>
      </trkpt>
      <trkpt lat="45.6946" lon="5.97476">
        <ele>950.88110351562</ele>
        <time>2012-02-11T07:26:54Z</time>
      </trkpt>
      <trkpt lat="45.6946" lon="5.97475">
        <ele>951.36181640625</ele>
        <time>2012-02-11T07:26:59Z</time>
      </trkpt>
      <trkpt lat="45.69461" lon="5.97475">
        <ele>951.84252929688</ele>
        <time>2012-02-11T07:27:06Z</time>
      </trkpt>
      <trkpt lat="45.69463" lon="5.97474">
        <ele>951.84252929688</ele>
        <time>2012-02-11T07:27:13Z</time>
      </trkpt>
      <trkpt lat="45.69471" lon="5.97468">
        <ele>955.20703125</ele>
        <time>2012-02-11T07:27:40Z</time>
      </trkpt>
      <trkpt lat="45.69465" lon="5.97469">
        <ele>953.76513671875</ele>
        <time>2012-02-11T07:28:00Z</time>
      </trkpt>
      <trkpt lat="45.69464" lon="5.97469">
        <ele>953.28442382812</ele>
        <time>2012-02-11T07:28:09Z</time>
      </trkpt>
      <trkpt lat="45.69464" lon="5.97469">
        <ele>953.28442382812</ele>
        <time>2012-02-11T07:28:11Z</time>
      </trkpt>
      <trkpt lat="45.69465" lon="5.97469">
        <ele>953.28442382812</ele>
        <time>2012-02-11T07:28:12Z</time>
      </trkpt>
      <trkpt lat="45.69464" lon="5.97469">
        <ele>953.28442382812</ele>
        <time>2012-02-11T07:28:13Z</time>
      </trkpt>
      <trkpt lat="45.69464" lon="5.97469">
        <ele>952.8037109375</ele>
        <time>2012-02-11T07:28:18Z</time>
      </trkpt>
      <trkpt lat="45.69466" lon="5.97469">
        <ele>954.24584960938</ele>
        <time>2012-02-11T07:28:23Z</time>
      </trkpt>
      <trkpt lat="45.69466" lon="5.97469">
        <ele>953.76513671875</ele>
        <time>2012-02-11T07:28:26Z</time>
      </trkpt>
      <trkpt lat="45.69466" lon="5.97469">
        <ele>953.76513671875</ele>
        <time>2012-02-11T07:28:27Z</time>
      </trkpt>
      <trkpt lat="45.69464" lon="5.9747">
        <ele>951.84252929688</ele>
        <time>2012-02-11T07:28:32Z</time>
      </trkpt>
      <trkpt lat="45.69465" lon="5.9747">
        <ele>951.84252929688</ele>
        <time>2012-02-11T07:28:38Z</time>
      </trkpt>
      <trkpt lat="45.69463" lon="5.97471">
        <ele>948.95849609375</ele>
        <time>2012-02-11T07:28:51Z</time>
      </trkpt>
      <trkpt lat="45.69462" lon="5.97473">
        <ele>947.5166015625</ele>
        <time>2012-02-11T07:29:05Z</time>
      </trkpt>
      <trkpt lat="45.69461" lon="5.97473">
        <ele>947.03588867188</ele>
        <time>2012-02-11T07:29:10Z</time>
      </trkpt>
      <trkpt lat="45.69462" lon="5.97473">
        <ele>947.5166015625</ele>
        <time>2012-02-11T07:29:24Z</time>
      </trkpt>
      <trkpt lat="45.69461" lon="5.97472">
        <ele>947.99731445312</ele>
        <time>2012-02-11T07:29:35Z</time>
      </trkpt>
      <trkpt lat="45.69461" lon="5.97472">
        <ele>948.47778320312</ele>
        <time>2012-02-11T07:29:40Z</time>
      </trkpt>
      <trkpt lat="45.69461" lon="5.97472">
        <ele>948.47778320312</ele>
        <time>2012-02-11T07:29:47Z</time>
      </trkpt>
      <trkpt lat="45.69463" lon="5.97472">
        <ele>950.40063476562</ele>
        <time>2012-02-11T07:30:02Z</time>
      </trkpt>
      <trkpt lat="45.69463" lon="5.97472">
        <ele>950.40063476562</ele>
        <time>2012-02-11T07:30:04Z</time>
      </trkpt>
      <trkpt lat="45.69464" lon="5.97472">
        <ele>952.32299804688</ele>
        <time>2012-02-11T07:30:22Z</time>
      </trkpt>
      <trkpt lat="45.69464" lon="5.97471">
        <ele>952.32299804688</ele>
        <time>2012-02-11T07:30:32Z</time>
      </trkpt>
      <trkpt lat="45.69466" lon="5.9747">
        <ele>953.76513671875</ele>
        <time>2012-02-11T07:30:49Z</time>
      </trkpt>
      <trkpt lat="45.69465" lon="5.9747">
        <ele>952.8037109375</ele>
        <time>2012-02-11T07:31:03Z</time>
      </trkpt>
      <trkpt lat="45.69463" lon="5.97471">
        <ele>950.88110351562</ele>
        <time>2012-02-11T07:31:54Z</time>
      </trkpt>
      <trkpt lat="45.69464" lon="5.9747">
        <ele>952.8037109375</ele>
        <time>2012-02-11T07:32:15Z</time>
      </trkpt>
      <trkpt lat="45.69458" lon="5.97471">
        <ele>946.55541992188</ele>
        <time>2012-02-11T07:32:36Z</time>
      </trkpt>
      <trkpt lat="45.69455" lon="5.97472">
        <ele>943.19067382812</ele>
        <time>2012-02-11T07:32:59Z</time>
      </trkpt>
      <trkpt lat="45.69456" lon="5.97472">
        <ele>945.11328125</ele>
        <time>2012-02-11T07:33:25Z</time>
      </trkpt>
      <trkpt lat="45.69458" lon="5.97471">
        <ele>947.5166015625</ele>
        <time>2012-02-11T07:33:35Z</time>
      </trkpt>
      <trkpt lat="45.69458" lon="5.97471">
        <ele>947.5166015625</ele>
        <time>2012-02-11T07:33:39Z</time>
      </trkpt>
      <trkpt lat="45.69458" lon="5.97472">
        <ele>947.03588867188</ele>
        <time>2012-02-11T07:33:46Z</time>
      </trkpt>
      <trkpt lat="45.69458" lon="5.97471">
        <ele>946.55541992188</ele>
        <time>2012-02-11T07:33:54Z</time>
      </trkpt>
      <trkpt lat="45.6946" lon="5.97471">
        <ele>947.99731445312</ele>
        <time>2012-02-11T07:34:03Z</time>
      </trkpt>
      <trkpt lat="45.69461" lon="5.97471">
        <ele>948.95849609375</ele>
        <time>2012-02-11T07:34:10Z</time>
      </trkpt>
      <trkpt lat="45.6946" lon="5.97472">
        <ele>947.5166015625</ele>
        <time>2012-02-11T07:34:41Z</time>
      </trkpt>
      <trkpt lat="45.69458" lon="5.97469">
        <ele>944.15209960938</ele>
        <time>2012-02-11T07:34:54Z</time>
      </trkpt>
      <trkpt lat="45.69458" lon="5.97469">
        <ele>944.15209960938</ele>
        <time>2012-02-11T07:35:00Z</time>
      </trkpt>
      <trkpt lat="45.69459" lon="5.97469">
        <ele>945.11328125</ele>
        <time>2012-02-11T07:35:10Z</time>
      </trkpt>
      <trkpt lat="45.69459" lon="5.97469">
        <ele>945.59399414062</ele>
        <time>2012-02-11T07:35:21Z</time>
      </trkpt>
      <trkpt lat="45.69461" lon="5.9747">
        <ele>948.47778320312</ele>
        <time>2012-02-11T07:35:34Z</time>
      </trkpt>
      <trkpt lat="45.69462" lon="5.97471">
        <ele>949.43920898438</ele>
        <time>2012-02-11T07:35:42Z</time>
      </trkpt>
      <trkpt lat="45.69462" lon="5.97471">
        <ele>949.919921875</ele>
        <time>2012-02-11T07:35:47Z</time>
      </trkpt>
      <trkpt lat="45.69462" lon="5.97472">
        <ele>948.95849609375</ele>
        <time>2012-02-11T07:35:58Z</time>
      </trkpt>
      <trkpt lat="45.69461" lon="5.97473">
        <ele>948.47778320312</ele>
        <time>2012-02-11T07:36:06Z</time>
      </trkpt>
      <trkpt lat="45.69462" lon="5.97472">
        <ele>949.43920898438</ele>
        <time>2012-02-11T07:36:11Z</time>
      </trkpt>
      <trkpt lat="45.69463" lon="5.97473">
        <ele>950.40063476562</ele>
        <time>2012-02-11T07:36:20Z</time>
      </trkpt>
      <trkpt lat="45.69463" lon="5.97473">
        <ele>950.88110351562</ele>
        <time>2012-02-11T07:36:25Z</time>
      </trkpt>
      <trkpt lat="45.69463" lon="5.97474">
        <ele>951.36181640625</ele>
        <time>2012-02-11T07:36:37Z</time>
      </trkpt>
      <trkpt lat="45.69463" lon="5.97474">
        <ele>951.84252929688</ele>
        <time>2012-02-11T07:36:39Z</time>
      </trkpt>
      <trkpt lat="45.69464" lon="5.97474">
        <ele>952.8037109375</ele>
        <time>2012-02-11T07:36:46Z</time>
      </trkpt>
      <trkpt lat="45.69466" lon="5.97473">
        <ele>954.72631835938</ele>
        <time>2012-02-11T07:36:48Z</time>
      </trkpt>
      <trkpt lat="45.69463" lon="5.97474">
        <ele>952.8037109375</ele>
        <time>2012-02-11T07:36:57Z</time>
      </trkpt>
      <trkpt lat="45.69461" lon="5.97474">
        <ele>950.40063476562</ele>
        <time>2012-02-11T07:37:06Z</time>
      </trkpt>
      <trkpt lat="45.69461" lon="5.97473">
        <ele>948.95849609375</ele>
        <time>2012-02-11T07:37:13Z</time>
      </trkpt>
      <trkpt lat="45.6946" lon="5.97473">
        <ele>946.55541992188</ele>
        <time>2012-02-11T07:37:21Z</time>
      </trkpt>
      <trkpt lat="45.6946" lon="5.97473">
        <ele>946.07470703125</ele>
        <time>2012-02-11T07:37:26Z</time>
      </trkpt>
      <trkpt lat="45.6946" lon="5.97474">
        <ele>945.11328125</ele>
        <time>2012-02-11T07:37:29Z</time>
      </trkpt>
      <trkpt lat="45.69461" lon="5.97474">
        <ele>945.11328125</ele>
        <time>2012-02-11T07:37:35Z</time>
      </trkpt>
      <trkpt lat="45.69461" lon="5.97474">
        <ele>942.71020507812</ele>
        <time>2012-02-11T07:37:48Z</time>
      </trkpt>
      <trkpt lat="45.69461" lon="5.97474">
        <ele>943.67138671875</ele>
        <time>2012-02-11T07:37:58Z</time>
      </trkpt>
      <trkpt lat="45.69461" lon="5.97474">
        <ele>943.67138671875</ele>
        <time>2012-02-11T07:38:05Z</time>
      </trkpt>
      <trkpt lat="45.69461" lon="5.97475">
        <ele>944.15209960938</ele>
        <time>2012-02-11T07:38:10Z</time>
      </trkpt>
      <trkpt lat="45.69461" lon="5.97475">
        <ele>946.07470703125</ele>
        <time>2012-02-11T07:38:19Z</time>
      </trkpt>
      <trkpt lat="45.69461" lon="5.97475">
        <ele>945.59399414062</ele>
        <time>2012-02-11T07:38:28Z</time>
      </trkpt>
      <trkpt lat="45.6946" lon="5.97475">
        <ele>945.59399414062</ele>
        <time>2012-02-11T07:38:36Z</time>
      </trkpt>
      <trkpt lat="45.6946" lon="5.97476">
        <ele>944.63256835938</ele>
        <time>2012-02-11T07:38:49Z</time>
      </trkpt>
      <trkpt lat="45.69459" lon="5.97475">
        <ele>943.67138671875</ele>
        <time>2012-02-11T07:39:02Z</time>
      </trkpt>
      <trkpt lat="45.6946" lon="5.97475">
        <ele>945.11328125</ele>
        <time>2012-02-11T07:39:14Z</time>
      </trkpt>
      <trkpt lat="45.69461" lon="5.97474">
        <ele>946.07470703125</ele>
        <time>2012-02-11T07:39:23Z</time>
      </trkpt>
      <trkpt lat="45.6946" lon="5.97475">
        <ele>946.07470703125</ele>
        <time>2012-02-11T07:39:37Z</time>
      </trkpt>
      <trkpt lat="45.6946" lon="5.97475">
        <ele>946.07470703125</ele>
        <time>2012-02-11T07:39:42Z</time>
      </trkpt>
      <trkpt lat="45.69458" lon="5.97478">
        <ele>946.55541992188</ele>
        <time>2012-02-11T07:39:47Z</time>
      </trkpt>
      <trkpt lat="45.69458" lon="5.97478">
        <ele>946.55541992188</ele>
        <time>2012-02-11T07:39:55Z</time>
      </trkpt>
      <trkpt lat="45.69457" lon="5.97477">
        <ele>946.55541992188</ele>
        <time>2012-02-11T07:40:02Z</time>
      </trkpt>
      <trkpt lat="45.69456" lon="5.97481">
        <ele>946.55541992188</ele>
        <time>2012-02-11T07:40:10Z</time>
      </trkpt>
      <trkpt lat="45.69455" lon="5.97484">
        <ele>947.5166015625</ele>
        <time>2012-02-11T07:40:15Z</time>
      </trkpt>
      <trkpt lat="45.69453" lon="5.97487">
        <ele>948.95849609375</ele>
        <time>2012-02-11T07:40:20Z</time>
      </trkpt>
      <trkpt lat="45.69453" lon="5.97487">
        <ele>949.43920898438</ele>
        <time>2012-02-11T07:40:21Z</time>
      </trkpt>
      <trkpt lat="45.69453" lon="5.97488">
        <ele>949.43920898438</ele>
        <time>2012-02-11T07:40:32Z</time>
      </trkpt>
      <trkpt lat="45.69452" lon="5.97493">
        <ele>948.95849609375</ele>
        <time>2012-02-11T07:40:39Z</time>
      </trkpt>
      <trkpt lat="45.69452" lon="5.97498">
        <ele>948.95849609375</ele>
        <time>2012-02-11T07:40:44Z</time>
      </trkpt>
      <trkpt lat="45.69452" lon="5.97502">
        <ele>948.95849609375</ele>
        <time>2012-02-11T07:40:48Z</time>
      </trkpt>
      <trkpt lat="45.69452" lon="5.97506">
        <ele>948.95849609375</ele>
        <time>2012-02-11T07:40:52Z</time>
      </trkpt>
      <trkpt lat="45.69451" lon="5.97512">
        <ele>949.919921875</ele>
        <time>2012-02-11T07:40:58Z</time>
      </trkpt>
      <trkpt lat="45.6945" lon="5.97516">
        <ele>950.88110351562</ele>
        <time>2012-02-11T07:41:04Z</time>
      </trkpt>
      <trkpt lat="45.6945" lon="5.97519">
        <ele>950.88110351562</ele>
        <time>2012-02-11T07:41:11Z</time>
      </trkpt>
      <trkpt lat="45.69451" lon="5.97522">
        <ele>951.84252929688</ele>
        <time>2012-02-11T07:41:15Z</time>
      </trkpt>
      <trkpt lat="45.69452" lon="5.97525">
        <ele>951.84252929688</ele>
        <time>2012-02-11T07:41:20Z</time>
      </trkpt>
      <trkpt lat="45.6945" lon="5.9753">
        <ele>950.88110351562</ele>
        <time>2012-02-11T07:41:26Z</time>
      </trkpt>
      <trkpt lat="45.6945" lon="5.97535">
        <ele>951.36181640625</ele>
        <time>2012-02-11T07:41:32Z</time>
      </trkpt>
      <trkpt lat="45.6945" lon="5.9754">
        <ele>952.8037109375</ele>
        <time>2012-02-11T07:41:38Z</time>
      </trkpt>
      <trkpt lat="45.6945" lon="5.97546">
        <ele>953.76513671875</ele>
        <time>2012-02-11T07:41:44Z</time>
      </trkpt>
      <trkpt lat="45.69451" lon="5.97551">
        <ele>954.24584960938</ele>
        <time>2012-02-11T07:41:49Z</time>
      </trkpt>
      <trkpt lat="45.69452" lon="5.97556">
        <ele>955.20703125</ele>
        <time>2012-02-11T07:41:54Z</time>
      </trkpt>
      <trkpt lat="45.69452" lon="5.97561">
        <ele>955.68774414062</ele>
        <time>2012-02-11T07:41:59Z</time>
      </trkpt>
      <trkpt lat="45.69453" lon="5.97566">
        <ele>956.16845703125</ele>
        <time>2012-02-11T07:42:04Z</time>
      </trkpt>
      <trkpt lat="45.69454" lon="5.9757">
        <ele>956.16845703125</ele>
        <time>2012-02-11T07:42:09Z</time>
      </trkpt>
      <trkpt lat="45.69455" lon="5.97575">
        <ele>956.64916992188</ele>
        <time>2012-02-11T07:42:14Z</time>
      </trkpt>
      <trkpt lat="45.69456" lon="5.9758">
        <ele>956.64916992188</ele>
        <time>2012-02-11T07:42:19Z</time>
      </trkpt>
      <trkpt lat="45.69457" lon="5.97585">
        <ele>956.64916992188</ele>
        <time>2012-02-11T07:42:24Z</time>
      </trkpt>
      <trkpt lat="45.69457" lon="5.97587">
        <ele>956.64916992188</ele>
        <time>2012-02-11T07:42:29Z</time>
      </trkpt>
      <trkpt lat="45.69459" lon="5.97594">
        <ele>958.09130859375</ele>
        <time>2012-02-11T07:42:37Z</time>
      </trkpt>
      <trkpt lat="45.69461" lon="5.97599">
        <ele>959.533203125</ele>
        <time>2012-02-11T07:42:43Z</time>
      </trkpt>
      <trkpt lat="45.69463" lon="5.97602">
        <ele>960.49438476562</ele>
        <time>2012-02-11T07:42:48Z</time>
      </trkpt>
      <trkpt lat="45.69466" lon="5.97605">
        <ele>962.4169921875</ele>
        <time>2012-02-11T07:42:54Z</time>
      </trkpt>
      <trkpt lat="45.69469" lon="5.97605">
        <ele>966.26220703125</ele>
        <time>2012-02-11T07:43:05Z</time>
      </trkpt>
      <trkpt lat="45.6947" lon="5.97606">
        <ele>967.2236328125</ele>
        <time>2012-02-11T07:43:11Z</time>
      </trkpt>
      <trkpt lat="45.69471" lon="5.97606">
        <ele>968.66552734375</ele>
        <time>2012-02-11T07:43:16Z</time>
      </trkpt>
      <trkpt lat="45.69471" lon="5.97606">
        <ele>967.7041015625</ele>
        <time>2012-02-11T07:43:20Z</time>
      </trkpt>
      <trkpt lat="45.69471" lon="5.97607">
        <ele>967.2236328125</ele>
        <time>2012-02-11T07:43:27Z</time>
      </trkpt>
      <trkpt lat="45.69471" lon="5.97607">
        <ele>967.2236328125</ele>
        <time>2012-02-11T07:43:30Z</time>
      </trkpt>
      <trkpt lat="45.69469" lon="5.97606">
        <ele>966.26220703125</ele>
        <time>2012-02-11T07:43:34Z</time>
      </trkpt>
      <trkpt lat="45.69468" lon="5.97607">
        <ele>963.85888671875</ele>
        <time>2012-02-11T07:43:40Z</time>
      </trkpt>
      <trkpt lat="45.69468" lon="5.97607">
        <ele>962.4169921875</ele>
        <time>2012-02-11T07:43:52Z</time>
      </trkpt>
      <trkpt lat="45.69468" lon="5.97607">
        <ele>962.4169921875</ele>
        <time>2012-02-11T07:43:58Z</time>
      </trkpt>
      <trkpt lat="45.69468" lon="5.97611">
        <ele>961.45581054688</ele>
        <time>2012-02-11T07:44:04Z</time>
      </trkpt>
      <trkpt lat="45.69469" lon="5.97615">
        <ele>962.4169921875</ele>
        <time>2012-02-11T07:44:09Z</time>
      </trkpt>
      <trkpt lat="45.69472" lon="5.9762">
        <ele>963.85888671875</ele>
        <time>2012-02-11T07:44:16Z</time>
      </trkpt>
      <trkpt lat="45.69474" lon="5.97626">
        <ele>965.30102539062</ele>
        <time>2012-02-11T07:44:22Z</time>
      </trkpt>
      <trkpt lat="45.69476" lon="5.9763">
        <ele>966.26220703125</ele>
        <time>2012-02-11T07:44:26Z</time>
      </trkpt>
      <trkpt lat="45.69477" lon="5.97633">
        <ele>966.74291992188</ele>
        <time>2012-02-11T07:44:30Z</time>
      </trkpt>
      <trkpt lat="45.69478" lon="5.97631">
        <ele>964.33959960938</ele>
        <time>2012-02-11T07:44:38Z</time>
      </trkpt>
      <trkpt lat="45.69479" lon="5.9763">
        <ele>964.33959960938</ele>
        <time>2012-02-11T07:44:46Z</time>
      </trkpt>
      <trkpt lat="45.69479" lon="5.97632">
        <ele>965.30102539062</ele>
        <time>2012-02-11T07:44:58Z</time>
      </trkpt>
      <trkpt lat="45.69481" lon="5.97638">
        <ele>965.78173828125</ele>
        <time>2012-02-11T07:45:04Z</time>
      </trkpt>
      <trkpt lat="45.69481" lon="5.97641">
        <ele>965.78173828125</ele>
        <time>2012-02-11T07:45:07Z</time>
      </trkpt>
      <trkpt lat="45.69481" lon="5.97644">
        <ele>965.30102539062</ele>
        <time>2012-02-11T07:45:11Z</time>
      </trkpt>
      <trkpt lat="45.69484" lon="5.97648">
        <ele>965.30102539062</ele>
        <time>2012-02-11T07:45:16Z</time>
      </trkpt>
      <trkpt lat="45.69486" lon="5.97652">
        <ele>964.8203125</ele>
        <time>2012-02-11T07:45:21Z</time>
      </trkpt>
      <trkpt lat="45.69488" lon="5.97655">
        <ele>966.26220703125</ele>
        <time>2012-02-11T07:45:25Z</time>
      </trkpt>
      <trkpt lat="45.6949" lon="5.9766">
        <ele>967.7041015625</ele>
        <time>2012-02-11T07:45:30Z</time>
      </trkpt>
      <trkpt lat="45.69491" lon="5.97664">
        <ele>967.7041015625</ele>
        <time>2012-02-11T07:45:35Z</time>
      </trkpt>
      <trkpt lat="45.69493" lon="5.97669">
        <ele>967.7041015625</ele>
        <time>2012-02-11T07:45:38Z</time>
      </trkpt>
      <trkpt lat="45.69495" lon="5.97674">
        <ele>967.2236328125</ele>
        <time>2012-02-11T07:45:42Z</time>
      </trkpt>
      <trkpt lat="45.69495" lon="5.97675">
        <ele>966.74291992188</ele>
        <time>2012-02-11T07:45:43Z</time>
      </trkpt>
      <trkpt lat="45.69497" lon="5.97681">
        <ele>968.66552734375</ele>
        <time>2012-02-11T07:45:49Z</time>
      </trkpt>
      <trkpt lat="45.69499" lon="5.97684">
        <ele>970.107421875</ele>
        <time>2012-02-11T07:45:52Z</time>
      </trkpt>
      <trkpt lat="45.69502" lon="5.97688">
        <ele>972.0302734375</ele>
        <time>2012-02-11T07:45:57Z</time>
      </trkpt>
      <trkpt lat="45.69503" lon="5.97692">
        <ele>972.0302734375</ele>
        <time>2012-02-11T07:46:02Z</time>
      </trkpt>
      <trkpt lat="45.69503" lon="5.97698">
        <ele>972.51098632812</ele>
        <time>2012-02-11T07:46:08Z</time>
      </trkpt>
      <trkpt lat="45.69505" lon="5.97701">
        <ele>972.99169921875</ele>
        <time>2012-02-11T07:46:13Z</time>
      </trkpt>
      <trkpt lat="45.69505" lon="5.97706">
        <ele>975.87548828125</ele>
        <time>2012-02-11T07:46:18Z</time>
      </trkpt>
      <trkpt lat="45.69506" lon="5.97709">
        <ele>977.31762695312</ele>
        <time>2012-02-11T07:46:22Z</time>
      </trkpt>
      <trkpt lat="45.69507" lon="5.97713">
        <ele>977.79809570312</ele>
        <time>2012-02-11T07:46:27Z</time>
      </trkpt>
      <trkpt lat="45.69509" lon="5.97715">
        <ele>979.23999023438</ele>
        <time>2012-02-11T07:46:33Z</time>
      </trkpt>
      <trkpt lat="45.69511" lon="5.97715">
        <ele>982.60473632812</ele>
        <time>2012-02-11T07:46:40Z</time>
      </trkpt>
      <trkpt lat="45.69512" lon="5.97716">
        <ele>984.52734375</ele>
        <time>2012-02-11T07:46:46Z</time>
      </trkpt>
      <trkpt lat="45.69512" lon="5.97719">
        <ele>985.48852539062</ele>
        <time>2012-02-11T07:46:52Z</time>
      </trkpt>
      <trkpt lat="45.69513" lon="5.97726">
        <ele>985.00805664062</ele>
        <time>2012-02-11T07:46:58Z</time>
      </trkpt>
      <trkpt lat="45.69514" lon="5.97733">
        <ele>985.96923828125</ele>
        <time>2012-02-11T07:47:05Z</time>
      </trkpt>
      <trkpt lat="45.69515" lon="5.97738">
        <ele>986.44995117188</ele>
        <time>2012-02-11T07:47:10Z</time>
      </trkpt>
      <trkpt lat="45.69513" lon="5.97738">
        <ele>985.00805664062</ele>
        <time>2012-02-11T07:47:20Z</time>
      </trkpt>
      <trkpt lat="45.69514" lon="5.97738">
        <ele>985.96923828125</ele>
        <time>2012-02-11T07:47:29Z</time>
      </trkpt>
      <trkpt lat="45.69513" lon="5.9774">
        <ele>985.96923828125</ele>
        <time>2012-02-11T07:47:35Z</time>
      </trkpt>
      <trkpt lat="45.69513" lon="5.97746">
        <ele>985.48852539062</ele>
        <time>2012-02-11T07:47:41Z</time>
      </trkpt>
      <trkpt lat="45.69513" lon="5.97749">
        <ele>985.96923828125</ele>
        <time>2012-02-11T07:47:45Z</time>
      </trkpt>
      <trkpt lat="45.69514" lon="5.97752">
        <ele>985.48852539062</ele>
        <time>2012-02-11T07:47:50Z</time>
      </trkpt>
      <trkpt lat="45.69516" lon="5.97754">
        <ele>986.44995117188</ele>
        <time>2012-02-11T07:48:01Z</time>
      </trkpt>
      <trkpt lat="45.69517" lon="5.9776">
        <ele>987.89184570312</ele>
        <time>2012-02-11T07:48:06Z</time>
      </trkpt>
      <trkpt lat="45.69518" lon="5.97764">
        <ele>988.853515625</ele>
        <time>2012-02-11T07:48:10Z</time>
      </trkpt>
      <trkpt lat="45.69519" lon="5.9777">
        <ele>987.89184570312</ele>
        <time>2012-02-11T07:48:15Z</time>
      </trkpt>
      <trkpt lat="45.6952" lon="5.97774">
        <ele>988.37280273438</ele>
        <time>2012-02-11T07:48:19Z</time>
      </trkpt>
      <trkpt lat="45.6952" lon="5.97779">
        <ele>987.89184570312</ele>
        <time>2012-02-11T07:48:24Z</time>
      </trkpt>
      <trkpt lat="45.69524" lon="5.97784">
        <ele>990.29541015625</ele>
        <time>2012-02-11T07:48:29Z</time>
      </trkpt>
      <trkpt lat="45.6953" lon="5.97783">
        <ele>1002.7922363281</ele>
        <time>2012-02-11T07:48:52Z</time>
      </trkpt>
      <trkpt lat="45.69532" lon="5.97783">
        <ele>1005.6765136719</ele>
        <time>2012-02-11T07:48:57Z</time>
      </trkpt>
      <trkpt lat="45.69532" lon="5.97781">
        <ele>1005.6765136719</ele>
        <time>2012-02-11T07:49:02Z</time>
      </trkpt>
      <trkpt lat="45.69533" lon="5.9778">
        <ele>1005.6765136719</ele>
        <time>2012-02-11T07:49:04Z</time>
      </trkpt>
      <trkpt lat="45.69528" lon="5.97783">
        <ele>1001.8310546875</ele>
        <time>2012-02-11T07:49:13Z</time>
      </trkpt>
      <trkpt lat="45.69527" lon="5.97787">
        <ele>1000.3891601562</ele>
        <time>2012-02-11T07:49:18Z</time>
      </trkpt>
      <trkpt lat="45.69527" lon="5.97791">
        <ele>998.94702148438</ele>
        <time>2012-02-11T07:49:23Z</time>
      </trkpt>
      <trkpt lat="45.69526" lon="5.97798">
        <ele>999.427734375</ele>
        <time>2012-02-11T07:49:31Z</time>
      </trkpt>
      <trkpt lat="45.69526" lon="5.97801">
        <ele>999.427734375</ele>
        <time>2012-02-11T07:49:34Z</time>
      </trkpt>
      <trkpt lat="45.69527" lon="5.97807">
        <ele>997.98583984375</ele>
        <time>2012-02-11T07:49:41Z</time>
      </trkpt>
      <trkpt lat="45.69529" lon="5.9781">
        <ele>999.427734375</ele>
        <time>2012-02-11T07:49:46Z</time>
      </trkpt>
      <trkpt lat="45.69528" lon="5.97819">
        <ele>997.50512695312</ele>
        <time>2012-02-11T07:49:54Z</time>
      </trkpt>
      <trkpt lat="45.6953" lon="5.97823">
        <ele>999.427734375</ele>
        <time>2012-02-11T07:50:00Z</time>
      </trkpt>
      <trkpt lat="45.69532" lon="5.97829">
        <ele>1003.7536621094</ele>
        <time>2012-02-11T07:50:07Z</time>
      </trkpt>
      <trkpt lat="45.69534" lon="5.97834">
        <ele>1005.6765136719</ele>
        <time>2012-02-11T07:50:12Z</time>
      </trkpt>
      <trkpt lat="45.69531" lon="5.97843">
        <ele>1008.5603027344</ele>
        <time>2012-02-11T07:50:40Z</time>
      </trkpt>
      <trkpt lat="45.6953" lon="5.97842">
        <ele>1007.5991210938</ele>
        <time>2012-02-11T07:50:44Z</time>
      </trkpt>
      <trkpt lat="45.69532" lon="5.97843">
        <ele>1007.5991210938</ele>
        <time>2012-02-11T07:50:48Z</time>
      </trkpt>
      <trkpt lat="45.69534" lon="5.97846">
        <ele>1008.5603027344</ele>
        <time>2012-02-11T07:50:55Z</time>
      </trkpt>
      <trkpt lat="45.69533" lon="5.97846">
        <ele>1008.0798339844</ele>
        <time>2012-02-11T07:51:03Z</time>
      </trkpt>
      <trkpt lat="45.69536" lon="5.97849">
        <ele>1009.5217285156</ele>
        <time>2012-02-11T07:51:12Z</time>
      </trkpt>
      <trkpt lat="45.69535" lon="5.97853">
        <ele>1009.041015625</ele>
        <time>2012-02-11T07:51:24Z</time>
      </trkpt>
      <trkpt lat="45.69539" lon="5.97857">
        <ele>1011.9250488281</ele>
        <time>2012-02-11T07:51:37Z</time>
      </trkpt>
      <trkpt lat="45.69536" lon="5.97862">
        <ele>1012.4055175781</ele>
        <time>2012-02-11T07:51:42Z</time>
      </trkpt>
      <trkpt lat="45.69536" lon="5.97866">
        <ele>1012.4055175781</ele>
        <time>2012-02-11T07:51:47Z</time>
      </trkpt>
      <trkpt lat="45.69537" lon="5.97872">
        <ele>1012.4055175781</ele>
        <time>2012-02-11T07:51:55Z</time>
      </trkpt>
      <trkpt lat="45.69537" lon="5.9788">
        <ele>1014.328125</ele>
        <time>2012-02-11T07:52:03Z</time>
      </trkpt>
      <trkpt lat="45.69536" lon="5.97887">
        <ele>1013.8474121094</ele>
        <time>2012-02-11T07:52:10Z</time>
      </trkpt>
      <trkpt lat="45.69537" lon="5.97894">
        <ele>1015.2895507812</ele>
        <time>2012-02-11T07:52:18Z</time>
      </trkpt>
      <trkpt lat="45.69538" lon="5.979">
        <ele>1016.7314453125</ele>
        <time>2012-02-11T07:52:23Z</time>
      </trkpt>
      <trkpt lat="45.6954" lon="5.97908">
        <ele>1018.6540527344</ele>
        <time>2012-02-11T07:52:30Z</time>
      </trkpt>
      <trkpt lat="45.69542" lon="5.97915">
        <ele>1021.0576171875</ele>
        <time>2012-02-11T07:52:36Z</time>
      </trkpt>
      <trkpt lat="45.69541" lon="5.9792">
        <ele>1020.5769042969</ele>
        <time>2012-02-11T07:52:41Z</time>
      </trkpt>
      <trkpt lat="45.69541" lon="5.97925">
        <ele>1021.5380859375</ele>
        <time>2012-02-11T07:52:46Z</time>
      </trkpt>
      <trkpt lat="45.69541" lon="5.97929">
        <ele>1020.5769042969</ele>
        <time>2012-02-11T07:52:50Z</time>
      </trkpt>
      <trkpt lat="45.69539" lon="5.97933">
        <ele>1019.134765625</ele>
        <time>2012-02-11T07:52:54Z</time>
      </trkpt>
      <trkpt lat="45.6954" lon="5.97937">
        <ele>1019.134765625</ele>
        <time>2012-02-11T07:52:59Z</time>
      </trkpt>
      <trkpt lat="45.6954" lon="5.9794">
        <ele>1019.134765625</ele>
        <time>2012-02-11T07:53:03Z</time>
      </trkpt>
      <trkpt lat="45.6954" lon="5.97943">
        <ele>1020.5769042969</ele>
        <time>2012-02-11T07:53:07Z</time>
      </trkpt>
      <trkpt lat="45.69542" lon="5.97947">
        <ele>1022.4995117188</ele>
        <time>2012-02-11T07:53:11Z</time>
      </trkpt>
      <trkpt lat="45.69542" lon="5.97952">
        <ele>1022.4995117188</ele>
        <time>2012-02-11T07:53:15Z</time>
      </trkpt>
      <trkpt lat="45.6954" lon="5.97956">
        <ele>1022.9802246094</ele>
        <time>2012-02-11T07:53:19Z</time>
      </trkpt>
      <trkpt lat="45.69539" lon="5.97959">
        <ele>1022.4995117188</ele>
        <time>2012-02-11T07:53:23Z</time>
      </trkpt>
      <trkpt lat="45.69541" lon="5.97964">
        <ele>1022.9802246094</ele>
        <time>2012-02-11T07:53:29Z</time>
      </trkpt>
      <trkpt lat="45.69541" lon="5.97971">
        <ele>1022.0187988281</ele>
        <time>2012-02-11T07:53:35Z</time>
      </trkpt>
      <trkpt lat="45.69541" lon="5.97975">
        <ele>1021.5380859375</ele>
        <time>2012-02-11T07:53:39Z</time>
      </trkpt>
      <trkpt lat="45.69541" lon="5.97979">
        <ele>1021.5380859375</ele>
        <time>2012-02-11T07:53:43Z</time>
      </trkpt>
      <trkpt lat="45.6954" lon="5.97984">
        <ele>1021.5380859375</ele>
        <time>2012-02-11T07:53:48Z</time>
      </trkpt>
      <trkpt lat="45.6954" lon="5.97988">
        <ele>1022.0187988281</ele>
        <time>2012-02-11T07:53:51Z</time>
      </trkpt>
      <trkpt lat="45.69545" lon="5.97989">
        <ele>1026.8254394531</ele>
        <time>2012-02-11T07:53:56Z</time>
      </trkpt>
      <trkpt lat="45.69547" lon="5.97993">
        <ele>1029.7092285156</ele>
        <time>2012-02-11T07:54:05Z</time>
      </trkpt>
      <trkpt lat="45.69546" lon="5.97998">
        <ele>1029.228515625</ele>
        <time>2012-02-11T07:54:09Z</time>
      </trkpt>
      <trkpt lat="45.69545" lon="5.98002">
        <ele>1028.2673339844</ele>
        <time>2012-02-11T07:54:14Z</time>
      </trkpt>
      <trkpt lat="45.69545" lon="5.98009">
        <ele>1028.2673339844</ele>
        <time>2012-02-11T07:54:20Z</time>
      </trkpt>
      <trkpt lat="45.69545" lon="5.98012">
        <ele>1029.7092285156</ele>
        <time>2012-02-11T07:54:24Z</time>
      </trkpt>
      <trkpt lat="45.69545" lon="5.98016">
        <ele>1029.7092285156</ele>
        <time>2012-02-11T07:54:29Z</time>
      </trkpt>
      <trkpt lat="45.69543" lon="5.98021">
        <ele>1027.3061523438</ele>
        <time>2012-02-11T07:54:35Z</time>
      </trkpt>
      <trkpt lat="45.69545" lon="5.98025">
        <ele>1028.2673339844</ele>
        <time>2012-02-11T07:54:39Z</time>
      </trkpt>
      <trkpt lat="45.69543" lon="5.9803">
        <ele>1028.2673339844</ele>
        <time>2012-02-11T07:54:45Z</time>
      </trkpt>
      <trkpt lat="45.69545" lon="5.98035">
        <ele>1031.1513671875</ele>
        <time>2012-02-11T07:54:51Z</time>
      </trkpt>
      <trkpt lat="45.69546" lon="5.98039">
        <ele>1031.1513671875</ele>
        <time>2012-02-11T07:54:56Z</time>
      </trkpt>
      <trkpt lat="45.69544" lon="5.98041">
        <ele>1032.1125488281</ele>
        <time>2012-02-11T07:55:01Z</time>
      </trkpt>
      <trkpt lat="45.6954" lon="5.98035">
        <ele>1033.5544433594</ele>
        <time>2012-02-11T07:55:12Z</time>
      </trkpt>
      <trkpt lat="45.69547" lon="5.98031">
        <ele>1035.4770507812</ele>
        <time>2012-02-11T07:55:19Z</time>
      </trkpt>
      <trkpt lat="45.69546" lon="5.98032">
        <ele>1034.03515625</ele>
        <time>2012-02-11T07:55:25Z</time>
      </trkpt>
      <trkpt lat="45.69549" lon="5.98038">
        <ele>1040.7644042969</ele>
        <time>2012-02-11T07:55:31Z</time>
      </trkpt>
      <trkpt lat="45.69555" lon="5.98042">
        <ele>1033.5544433594</ele>
        <time>2012-02-11T07:55:36Z</time>
      </trkpt>
      <trkpt lat="45.69555" lon="5.98043">
        <ele>1031.1513671875</ele>
        <time>2012-02-11T07:55:39Z</time>
      </trkpt>
      <trkpt lat="45.69556" lon="5.98047">
        <ele>1028.748046875</ele>
        <time>2012-02-11T07:55:41Z</time>
      </trkpt>
      <trkpt lat="45.6957" lon="5.98049">
        <ele>1031.1513671875</ele>
        <time>2012-02-11T07:55:48Z</time>
      </trkpt>
      <trkpt lat="45.69572" lon="5.98074">
        <ele>1031.6318359375</ele>
        <time>2012-02-11T07:55:55Z</time>
      </trkpt>
      <trkpt lat="45.69577" lon="5.98081">
        <ele>1041.2451171875</ele>
        <time>2012-02-11T07:55:59Z</time>
      </trkpt>
      <trkpt lat="45.69564" lon="5.98101">
        <ele>1047.4936523438</ele>
        <time>2012-02-11T07:56:06Z</time>
      </trkpt>
      <trkpt lat="45.69554" lon="5.98122">
        <ele>1049.8969726562</ele>
        <time>2012-02-11T07:56:12Z</time>
      </trkpt>
      <trkpt lat="45.69547" lon="5.981">
        <ele>1045.0903320312</ele>
        <time>2012-02-11T07:56:17Z</time>
      </trkpt>
      <trkpt lat="45.6954" lon="5.98102">
        <ele>1045.0903320312</ele>
        <time>2012-02-11T07:56:24Z</time>
      </trkpt>
      <trkpt lat="45.69529" lon="5.98105">
        <ele>1044.1291503906</ele>
        <time>2012-02-11T07:56:34Z</time>
      </trkpt>
      <trkpt lat="45.69558" lon="5.98077">
        <ele>1046.5324707031</ele>
        <time>2012-02-11T07:56:39Z</time>
      </trkpt>
      <trkpt lat="45.69569" lon="5.98091">
        <ele>1066.2392578125</ele>
        <time>2012-02-11T07:56:51Z</time>
      </trkpt>
      <trkpt lat="45.69569" lon="5.98091">
        <ele>1067.2006835938</ele>
        <time>2012-02-11T07:56:52Z</time>
      </trkpt>
      <trkpt lat="45.69566" lon="5.98099">
        <ele>1074.4106445312</ele>
        <time>2012-02-11T07:56:59Z</time>
      </trkpt>
      <trkpt lat="45.69563" lon="5.98102">
        <ele>1073.4494628906</ele>
        <time>2012-02-11T07:57:03Z</time>
      </trkpt>
      <trkpt lat="45.69564" lon="5.981">
        <ele>1070.0847167969</ele>
        <time>2012-02-11T07:57:07Z</time>
      </trkpt>
      <trkpt lat="45.69564" lon="5.981">
        <ele>1069.6042480469</ele>
        <time>2012-02-11T07:57:08Z</time>
      </trkpt>
      <trkpt lat="45.69556" lon="5.98104">
        <ele>1061.4328613281</ele>
        <time>2012-02-11T07:57:16Z</time>
      </trkpt>
      <trkpt lat="45.69558" lon="5.98102">
        <ele>1055.6650390625</ele>
        <time>2012-02-11T07:57:25Z</time>
      </trkpt>
      <trkpt lat="45.69553" lon="5.98096">
        <ele>1045.5710449219</ele>
        <time>2012-02-11T07:57:32Z</time>
      </trkpt>
      <trkpt lat="45.69553" lon="5.98096">
        <ele>1045.5710449219</ele>
        <time>2012-02-11T07:57:38Z</time>
      </trkpt>
      <trkpt lat="45.69553" lon="5.98093">
        <ele>1041.2451171875</ele>
        <time>2012-02-11T07:57:43Z</time>
      </trkpt>
      <trkpt lat="45.69551" lon="5.98094">
        <ele>1037.8806152344</ele>
        <time>2012-02-11T07:57:51Z</time>
      </trkpt>
      <trkpt lat="45.69551" lon="5.98093">
        <ele>1037.3999023438</ele>
        <time>2012-02-11T07:57:57Z</time>
      </trkpt>
      <trkpt lat="45.69552" lon="5.98095">
        <ele>1041.7258300781</ele>
        <time>2012-02-11T07:58:06Z</time>
      </trkpt>
      <trkpt lat="45.69554" lon="5.98095">
        <ele>1043.6484375</ele>
        <time>2012-02-11T07:58:13Z</time>
      </trkpt>
      <trkpt lat="45.69555" lon="5.98094">
        <ele>1043.6484375</ele>
        <time>2012-02-11T07:58:22Z</time>
      </trkpt>
      <trkpt lat="45.69554" lon="5.98094">
        <ele>1042.6872558594</ele>
        <time>2012-02-11T07:58:31Z</time>
      </trkpt>
      <trkpt lat="45.69551" lon="5.98093">
        <ele>1040.7644042969</ele>
        <time>2012-02-11T07:58:39Z</time>
      </trkpt>
      <trkpt lat="45.69553" lon="5.98096">
        <ele>1042.2065429688</ele>
        <time>2012-02-11T07:58:50Z</time>
      </trkpt>
      <trkpt lat="45.69553" lon="5.98102">
        <ele>1042.6872558594</ele>
        <time>2012-02-11T07:58:55Z</time>
      </trkpt>
      <trkpt lat="45.69554" lon="5.98107">
        <ele>1043.6484375</ele>
        <time>2012-02-11T07:59:00Z</time>
      </trkpt>
      <trkpt lat="45.69555" lon="5.98108">
        <ele>1044.6096191406</ele>
        <time>2012-02-11T07:59:07Z</time>
      </trkpt>
      <trkpt lat="45.69559" lon="5.98111">
        <ele>1044.6096191406</ele>
        <time>2012-02-11T07:59:22Z</time>
      </trkpt>
      <trkpt lat="45.69558" lon="5.98118">
        <ele>1044.1291503906</ele>
        <time>2012-02-11T07:59:28Z</time>
      </trkpt>
      <trkpt lat="45.69558" lon="5.98128">
        <ele>1042.6872558594</ele>
        <time>2012-02-11T07:59:35Z</time>
      </trkpt>
      <trkpt lat="45.69558" lon="5.98131">
        <ele>1042.6872558594</ele>
        <time>2012-02-11T07:59:38Z</time>
      </trkpt>
      <trkpt lat="45.69561" lon="5.98141">
        <ele>1045.5710449219</ele>
        <time>2012-02-11T07:59:46Z</time>
      </trkpt>
      <trkpt lat="45.69562" lon="5.98146">
        <ele>1046.0517578125</ele>
        <time>2012-02-11T07:59:52Z</time>
      </trkpt>
      <trkpt lat="45.69562" lon="5.98146">
        <ele>1046.5324707031</ele>
        <time>2012-02-11T07:59:58Z</time>
      </trkpt>
      <trkpt lat="45.69563" lon="5.9815">
        <ele>1045.0903320312</ele>
        <time>2012-02-11T08:00:07Z</time>
      </trkpt>
      <trkpt lat="45.69564" lon="5.98154">
        <ele>1044.6096191406</ele>
        <time>2012-02-11T08:00:11Z</time>
      </trkpt>
      <trkpt lat="45.69562" lon="5.98155">
        <ele>1044.1291503906</ele>
        <time>2012-02-11T08:00:17Z</time>
      </trkpt>
      <trkpt lat="45.69559" lon="5.98154">
        <ele>1045.0903320312</ele>
        <time>2012-02-11T08:00:24Z</time>
      </trkpt>
      <trkpt lat="45.69556" lon="5.98154">
        <ele>1046.0517578125</ele>
        <time>2012-02-11T08:00:28Z</time>
      </trkpt>
      <trkpt lat="45.69555" lon="5.98154">
        <ele>1046.5324707031</ele>
        <time>2012-02-11T08:00:36Z</time>
      </trkpt>
      <trkpt lat="45.69556" lon="5.98152">
        <ele>1045.5710449219</ele>
        <time>2012-02-11T08:00:43Z</time>
      </trkpt>
      <trkpt lat="45.6956" lon="5.98152">
        <ele>1044.6096191406</ele>
        <time>2012-02-11T08:00:47Z</time>
      </trkpt>
      <trkpt lat="45.69562" lon="5.98156">
        <ele>1044.1291503906</ele>
        <time>2012-02-11T08:00:52Z</time>
      </trkpt>
      <trkpt lat="45.69563" lon="5.98162">
        <ele>1042.6872558594</ele>
        <time>2012-02-11T08:00:58Z</time>
      </trkpt>
      <trkpt lat="45.69564" lon="5.98168">
        <ele>1042.2065429688</ele>
        <time>2012-02-11T08:01:03Z</time>
      </trkpt>
      <trkpt lat="45.69564" lon="5.98171">
        <ele>1043.1677246094</ele>
        <time>2012-02-11T08:01:08Z</time>
      </trkpt>
      <trkpt lat="45.69566" lon="5.98175">
        <ele>1043.1677246094</ele>
        <time>2012-02-11T08:01:13Z</time>
      </trkpt>
      <trkpt lat="45.69568" lon="5.98181">
        <ele>1045.0903320312</ele>
        <time>2012-02-11T08:01:18Z</time>
      </trkpt>
      <trkpt lat="45.6957" lon="5.98186">
        <ele>1044.6096191406</ele>
        <time>2012-02-11T08:01:23Z</time>
      </trkpt>
      <trkpt lat="45.69571" lon="5.98191">
        <ele>1044.6096191406</ele>
        <time>2012-02-11T08:01:28Z</time>
      </trkpt>
      <trkpt lat="45.69572" lon="5.98192">
        <ele>1045.5710449219</ele>
        <time>2012-02-11T08:01:35Z</time>
      </trkpt>
      <trkpt lat="45.69574" lon="5.98192">
        <ele>1046.5324707031</ele>
        <time>2012-02-11T08:01:41Z</time>
      </trkpt>
      <trkpt lat="45.69574" lon="5.98192">
        <ele>1046.5324707031</ele>
        <time>2012-02-11T08:01:47Z</time>
      </trkpt>
      <trkpt lat="45.69575" lon="5.98192">
        <ele>1049.4162597656</ele>
        <time>2012-02-11T08:01:54Z</time>
      </trkpt>
      <trkpt lat="45.69575" lon="5.98192">
        <ele>1048.935546875</ele>
        <time>2012-02-11T08:01:59Z</time>
      </trkpt>
      <trkpt lat="45.69574" lon="5.98192">
        <ele>1048.4548339844</ele>
        <time>2012-02-11T08:02:11Z</time>
      </trkpt>
      <trkpt lat="45.69574" lon="5.9819">
        <ele>1049.4162597656</ele>
        <time>2012-02-11T08:02:17Z</time>
      </trkpt>
      <trkpt lat="45.69574" lon="5.98189">
        <ele>1049.8969726562</ele>
        <time>2012-02-11T08:02:26Z</time>
      </trkpt>
      <trkpt lat="45.69575" lon="5.98188">
        <ele>1051.8195800781</ele>
        <time>2012-02-11T08:02:45Z</time>
      </trkpt>
      <trkpt lat="45.69574" lon="5.98193">
        <ele>1051.3388671875</ele>
        <time>2012-02-11T08:02:52Z</time>
      </trkpt>
      <trkpt lat="45.69575" lon="5.98201">
        <ele>1050.3776855469</ele>
        <time>2012-02-11T08:02:58Z</time>
      </trkpt>
      <trkpt lat="45.69576" lon="5.98206">
        <ele>1048.935546875</ele>
        <time>2012-02-11T08:03:02Z</time>
      </trkpt>
      <trkpt lat="45.69578" lon="5.98211">
        <ele>1046.5324707031</ele>
        <time>2012-02-11T08:03:07Z</time>
      </trkpt>
      <trkpt lat="45.69581" lon="5.98217">
        <ele>1047.9743652344</ele>
        <time>2012-02-11T08:03:13Z</time>
      </trkpt>
      <trkpt lat="45.69585" lon="5.98223">
        <ele>1051.8195800781</ele>
        <time>2012-02-11T08:03:19Z</time>
      </trkpt>
      <trkpt lat="45.69587" lon="5.9823">
        <ele>1054.7036132812</ele>
        <time>2012-02-11T08:03:25Z</time>
      </trkpt>
      <trkpt lat="45.6959" lon="5.98236">
        <ele>1056.6262207031</ele>
        <time>2012-02-11T08:03:30Z</time>
      </trkpt>
      <trkpt lat="45.6959" lon="5.98239">
        <ele>1056.1455078125</ele>
        <time>2012-02-11T08:03:35Z</time>
      </trkpt>
      <trkpt lat="45.6959" lon="5.98244">
        <ele>1054.7036132812</ele>
        <time>2012-02-11T08:03:47Z</time>
      </trkpt>
      <trkpt lat="45.69591" lon="5.98246">
        <ele>1055.6650390625</ele>
        <time>2012-02-11T08:03:51Z</time>
      </trkpt>
      <trkpt lat="45.69596" lon="5.98245">
        <ele>1059.5102539062</ele>
        <time>2012-02-11T08:04:03Z</time>
      </trkpt>
      <trkpt lat="45.69595" lon="5.98245">
        <ele>1057.5876464844</ele>
        <time>2012-02-11T08:04:09Z</time>
      </trkpt>
      <trkpt lat="45.69591" lon="5.98246">
        <ele>1051.3388671875</ele>
        <time>2012-02-11T08:04:18Z</time>
      </trkpt>
      <trkpt lat="45.69592" lon="5.98245">
        <ele>1052.7810058594</ele>
        <time>2012-02-11T08:04:25Z</time>
      </trkpt>
      <trkpt lat="45.69592" lon="5.98246">
        <ele>1051.3388671875</ele>
        <time>2012-02-11T08:04:35Z</time>
      </trkpt>
      <trkpt lat="45.69592" lon="5.98247">
        <ele>1050.3776855469</ele>
        <time>2012-02-11T08:04:39Z</time>
      </trkpt>
      <trkpt lat="45.69592" lon="5.98247">
        <ele>1050.8581542969</ele>
        <time>2012-02-11T08:04:44Z</time>
      </trkpt>
      <trkpt lat="45.69593" lon="5.98247">
        <ele>1051.3388671875</ele>
        <time>2012-02-11T08:04:46Z</time>
      </trkpt>
      <trkpt lat="45.69592" lon="5.98248">
        <ele>1049.4162597656</ele>
        <time>2012-02-11T08:04:54Z</time>
      </trkpt>
      <trkpt lat="45.69592" lon="5.98248">
        <ele>1050.3776855469</ele>
        <time>2012-02-11T08:04:59Z</time>
      </trkpt>
      <trkpt lat="45.69592" lon="5.98249">
        <ele>1049.4162597656</ele>
        <time>2012-02-11T08:05:04Z</time>
      </trkpt>
      <trkpt lat="45.69592" lon="5.98253">
        <ele>1050.3776855469</ele>
        <time>2012-02-11T08:05:08Z</time>
      </trkpt>
      <trkpt lat="45.69595" lon="5.98255">
        <ele>1051.8195800781</ele>
        <time>2012-02-11T08:05:12Z</time>
      </trkpt>
      <trkpt lat="45.69596" lon="5.98259">
        <ele>1052.7810058594</ele>
        <time>2012-02-11T08:05:16Z</time>
      </trkpt>
      <trkpt lat="45.69597" lon="5.98264">
        <ele>1052.7810058594</ele>
        <time>2012-02-11T08:05:21Z</time>
      </trkpt>
      <trkpt lat="45.69598" lon="5.98267">
        <ele>1052.3002929688</ele>
        <time>2012-02-11T08:05:25Z</time>
      </trkpt>
      <trkpt lat="45.69595" lon="5.98266">
        <ele>1051.8195800781</ele>
        <time>2012-02-11T08:05:30Z</time>
      </trkpt>
      <trkpt lat="45.69594" lon="5.98264">
        <ele>1053.7424316406</ele>
        <time>2012-02-11T08:05:40Z</time>
      </trkpt>
      <trkpt lat="45.69596" lon="5.98267">
        <ele>1055.1843261719</ele>
        <time>2012-02-11T08:05:45Z</time>
      </trkpt>
      <trkpt lat="45.69598" lon="5.98274">
        <ele>1056.6262207031</ele>
        <time>2012-02-11T08:05:51Z</time>
      </trkpt>
      <trkpt lat="45.69601" lon="5.98278">
        <ele>1055.1843261719</ele>
        <time>2012-02-11T08:05:56Z</time>
      </trkpt>
      <trkpt lat="45.69604" lon="5.98284">
        <ele>1054.2231445312</ele>
        <time>2012-02-11T08:06:01Z</time>
      </trkpt>
      <trkpt lat="45.69606" lon="5.9829">
        <ele>1059.5102539062</ele>
        <time>2012-02-11T08:06:06Z</time>
      </trkpt>
      <trkpt lat="45.69606" lon="5.98294">
        <ele>1059.5102539062</ele>
        <time>2012-02-11T08:06:10Z</time>
      </trkpt>
      <trkpt lat="45.69606" lon="5.98299">
        <ele>1059.0295410156</ele>
        <time>2012-02-11T08:06:15Z</time>
      </trkpt>
      <trkpt lat="45.69606" lon="5.98301">
        <ele>1058.548828125</ele>
        <time>2012-02-11T08:06:18Z</time>
      </trkpt>
      <trkpt lat="45.69608" lon="5.98306">
        <ele>1058.548828125</ele>
        <time>2012-02-11T08:06:23Z</time>
      </trkpt>
      <trkpt lat="45.69609" lon="5.9831">
        <ele>1058.548828125</ele>
        <time>2012-02-11T08:06:27Z</time>
      </trkpt>
      <trkpt lat="45.69609" lon="5.98313">
        <ele>1059.5102539062</ele>
        <time>2012-02-11T08:06:31Z</time>
      </trkpt>
      <trkpt lat="45.69608" lon="5.98317">
        <ele>1059.0295410156</ele>
        <time>2012-02-11T08:06:35Z</time>
      </trkpt>
      <trkpt lat="45.69607" lon="5.98321">
        <ele>1059.5102539062</ele>
        <time>2012-02-11T08:06:39Z</time>
      </trkpt>
      <trkpt lat="45.69606" lon="5.98325">
        <ele>1060.4714355469</ele>
        <time>2012-02-11T08:06:43Z</time>
      </trkpt>
      <trkpt lat="45.69607" lon="5.98326">
        <ele>1062.3940429688</ele>
        <time>2012-02-11T08:06:52Z</time>
      </trkpt>
      <trkpt lat="45.69608" lon="5.98327">
        <ele>1061.9135742188</ele>
        <time>2012-02-11T08:06:59Z</time>
      </trkpt>
      <trkpt lat="45.69607" lon="5.98327">
        <ele>1061.9135742188</ele>
        <time>2012-02-11T08:07:06Z</time>
      </trkpt>
      <trkpt lat="45.69605" lon="5.98329">
        <ele>1061.9135742188</ele>
        <time>2012-02-11T08:07:11Z</time>
      </trkpt>
      <trkpt lat="45.69604" lon="5.9833">
        <ele>1060.9521484375</ele>
        <time>2012-02-11T08:07:15Z</time>
      </trkpt>
      <trkpt lat="45.69603" lon="5.98334">
        <ele>1061.4328613281</ele>
        <time>2012-02-11T08:07:20Z</time>
      </trkpt>
      <trkpt lat="45.69602" lon="5.98339">
        <ele>1062.8747558594</ele>
        <time>2012-02-11T08:07:26Z</time>
      </trkpt>
      <trkpt lat="45.696" lon="5.98342">
        <ele>1062.8747558594</ele>
        <time>2012-02-11T08:07:33Z</time>
      </trkpt>
      <trkpt lat="45.69597" lon="5.98347">
        <ele>1062.8747558594</ele>
        <time>2012-02-11T08:07:40Z</time>
      </trkpt>
      <trkpt lat="45.69598" lon="5.98351">
        <ele>1063.8359375</ele>
        <time>2012-02-11T08:07:44Z</time>
      </trkpt>
      <trkpt lat="45.69598" lon="5.98356">
        <ele>1064.7973632812</ele>
        <time>2012-02-11T08:07:49Z</time>
      </trkpt>
      <trkpt lat="45.69597" lon="5.9836">
        <ele>1064.7973632812</ele>
        <time>2012-02-11T08:07:54Z</time>
      </trkpt>
      <trkpt lat="45.69597" lon="5.98361">
        <ele>1064.3166503906</ele>
        <time>2012-02-11T08:08:01Z</time>
      </trkpt>
      <trkpt lat="45.69594" lon="5.98363">
        <ele>1064.3166503906</ele>
        <time>2012-02-11T08:08:11Z</time>
      </trkpt>
      <trkpt lat="45.69595" lon="5.98365">
        <ele>1066.2392578125</ele>
        <time>2012-02-11T08:08:18Z</time>
      </trkpt>
      <trkpt lat="45.69593" lon="5.98368">
        <ele>1066.2392578125</ele>
        <time>2012-02-11T08:08:23Z</time>
      </trkpt>
      <trkpt lat="45.69593" lon="5.9837">
        <ele>1067.2006835938</ele>
        <time>2012-02-11T08:08:29Z</time>
      </trkpt>
      <trkpt lat="45.69592" lon="5.98372">
        <ele>1066.7199707031</ele>
        <time>2012-02-11T08:08:33Z</time>
      </trkpt>
      <trkpt lat="45.69591" lon="5.98375">
        <ele>1068.162109375</ele>
        <time>2012-02-11T08:08:38Z</time>
      </trkpt>
      <trkpt lat="45.69589" lon="5.98376">
        <ele>1069.1235351562</ele>
        <time>2012-02-11T08:08:43Z</time>
      </trkpt>
      <trkpt lat="45.69588" lon="5.98374">
        <ele>1071.0461425781</ele>
        <time>2012-02-11T08:08:48Z</time>
      </trkpt>
      <trkpt lat="45.6959" lon="5.98369">
        <ele>1073.4494628906</ele>
        <time>2012-02-11T08:08:54Z</time>
      </trkpt>
      <trkpt lat="45.69593" lon="5.98364">
        <ele>1073.4494628906</ele>
        <time>2012-02-11T08:09:00Z</time>
      </trkpt>
      <trkpt lat="45.69594" lon="5.98358">
        <ele>1072.0073242188</ele>
        <time>2012-02-11T08:09:06Z</time>
      </trkpt>
      <trkpt lat="45.69595" lon="5.98352">
        <ele>1071.0461425781</ele>
        <time>2012-02-11T08:09:12Z</time>
      </trkpt>
      <trkpt lat="45.69592" lon="5.98352">
        <ele>1067.2006835938</ele>
        <time>2012-02-11T08:09:28Z</time>
      </trkpt>
      <trkpt lat="45.69592" lon="5.98349">
        <ele>1067.6811523438</ele>
        <time>2012-02-11T08:09:33Z</time>
      </trkpt>
      <trkpt lat="45.69592" lon="5.98344">
        <ele>1067.2006835938</ele>
        <time>2012-02-11T08:09:37Z</time>
      </trkpt>
      <trkpt lat="45.69593" lon="5.9834">
        <ele>1066.2392578125</ele>
        <time>2012-02-11T08:09:40Z</time>
      </trkpt>
      <trkpt lat="45.69593" lon="5.98339">
        <ele>1065.7587890625</ele>
        <time>2012-02-11T08:09:41Z</time>
      </trkpt>
      <trkpt lat="45.69593" lon="5.98335">
        <ele>1065.7587890625</ele>
        <time>2012-02-11T08:09:43Z</time>
      </trkpt>
      <trkpt lat="45.69593" lon="5.98329">
        <ele>1066.7199707031</ele>
        <time>2012-02-11T08:09:47Z</time>
      </trkpt>
      <trkpt lat="45.69589" lon="5.98319">
        <ele>1063.8359375</ele>
        <time>2012-02-11T08:09:54Z</time>
      </trkpt>
      <trkpt lat="45.69586" lon="5.98312">
        <ele>1065.2780761719</ele>
        <time>2012-02-11T08:10:01Z</time>
      </trkpt>
      <trkpt lat="45.69584" lon="5.98306">
        <ele>1065.7587890625</ele>
        <time>2012-02-11T08:10:06Z</time>
      </trkpt>
      <trkpt lat="45.69581" lon="5.98304">
        <ele>1065.2780761719</ele>
        <time>2012-02-11T08:10:12Z</time>
      </trkpt>
      <trkpt lat="45.69578" lon="5.983">
        <ele>1065.7587890625</ele>
        <time>2012-02-11T08:10:18Z</time>
      </trkpt>
      <trkpt lat="45.69576" lon="5.98295">
        <ele>1066.2392578125</ele>
        <time>2012-02-11T08:10:22Z</time>
      </trkpt>
      <trkpt lat="45.69573" lon="5.9829">
        <ele>1066.2392578125</ele>
        <time>2012-02-11T08:10:28Z</time>
      </trkpt>
      <trkpt lat="45.69571" lon="5.98286">
        <ele>1066.7199707031</ele>
        <time>2012-02-11T08:10:33Z</time>
      </trkpt>
      <trkpt lat="45.69569" lon="5.98281">
        <ele>1066.7199707031</ele>
        <time>2012-02-11T08:10:38Z</time>
      </trkpt>
      <trkpt lat="45.69567" lon="5.98276">
        <ele>1067.6811523438</ele>
        <time>2012-02-11T08:10:43Z</time>
      </trkpt>
      <trkpt lat="45.69565" lon="5.98272">
        <ele>1069.1235351562</ele>
        <time>2012-02-11T08:10:48Z</time>
      </trkpt>
      <trkpt lat="45.69562" lon="5.98266">
        <ele>1067.6811523438</ele>
        <time>2012-02-11T08:10:54Z</time>
      </trkpt>
      <trkpt lat="45.6956" lon="5.98261">
        <ele>1068.162109375</ele>
        <time>2012-02-11T08:11:01Z</time>
      </trkpt>
      <trkpt lat="45.69558" lon="5.98257">
        <ele>1067.6811523438</ele>
        <time>2012-02-11T08:11:10Z</time>
      </trkpt>
      <trkpt lat="45.69559" lon="5.98258">
        <ele>1068.162109375</ele>
        <time>2012-02-11T08:11:16Z</time>
      </trkpt>
      <trkpt lat="45.69562" lon="5.98258">
        <ele>1067.6811523438</ele>
        <time>2012-02-11T08:11:26Z</time>
      </trkpt>
      <trkpt lat="45.69563" lon="5.98259">
        <ele>1067.2006835938</ele>
        <time>2012-02-11T08:11:30Z</time>
      </trkpt>
      <trkpt lat="45.69563" lon="5.9826">
        <ele>1066.7199707031</ele>
        <time>2012-02-11T08:11:36Z</time>
      </trkpt>
      <trkpt lat="45.69562" lon="5.9826">
        <ele>1066.2392578125</ele>
        <time>2012-02-11T08:11:39Z</time>
      </trkpt>
      <trkpt lat="45.69563" lon="5.98258">
        <ele>1067.2006835938</ele>
        <time>2012-02-11T08:11:44Z</time>
      </trkpt>
      <trkpt lat="45.69558" lon="5.98249">
        <ele>1065.2780761719</ele>
        <time>2012-02-11T08:12:04Z</time>
      </trkpt>
      <trkpt lat="45.69563" lon="5.98258">
        <ele>1066.7199707031</ele>
        <time>2012-02-11T08:12:19Z</time>
      </trkpt>
      <trkpt lat="45.69566" lon="5.98263">
        <ele>1070.5654296875</ele>
        <time>2012-02-11T08:12:30Z</time>
      </trkpt>
      <trkpt lat="45.69563" lon="5.98262">
        <ele>1068.6428222656</ele>
        <time>2012-02-11T08:12:35Z</time>
      </trkpt>
      <trkpt lat="45.69563" lon="5.98263">
        <ele>1069.1235351562</ele>
        <time>2012-02-11T08:12:37Z</time>
      </trkpt>
      <trkpt lat="45.69563" lon="5.98263">
        <ele>1068.6428222656</ele>
        <time>2012-02-11T08:12:38Z</time>
      </trkpt>
      <trkpt lat="45.69563" lon="5.98262">
        <ele>1068.6428222656</ele>
        <time>2012-02-11T08:12:41Z</time>
      </trkpt>
      <trkpt lat="45.69563" lon="5.9826">
        <ele>1068.162109375</ele>
        <time>2012-02-11T08:12:45Z</time>
      </trkpt>
      <trkpt lat="45.69563" lon="5.98261">
        <ele>1066.7199707031</ele>
        <time>2012-02-11T08:12:52Z</time>
      </trkpt>
      <trkpt lat="45.69561" lon="5.98258">
        <ele>1069.6042480469</ele>
        <time>2012-02-11T08:13:18Z</time>
      </trkpt>
      <trkpt lat="45.69562" lon="5.98264">
        <ele>1065.7587890625</ele>
        <time>2012-02-11T08:13:42Z</time>
      </trkpt>
      <trkpt lat="45.69564" lon="5.98271">
        <ele>1062.8747558594</ele>
        <time>2012-02-11T08:13:47Z</time>
      </trkpt>
      <trkpt lat="45.69564" lon="5.98272">
        <ele>1062.3940429688</ele>
        <time>2012-02-11T08:13:48Z</time>
      </trkpt>
      <trkpt lat="45.69568" lon="5.98281">
        <ele>1064.3166503906</ele>
        <time>2012-02-11T08:13:55Z</time>
      </trkpt>
      <trkpt lat="45.69569" lon="5.98279">
        <ele>1070.0847167969</ele>
        <time>2012-02-11T08:14:04Z</time>
      </trkpt>
      <trkpt lat="45.69573" lon="5.98283">
        <ele>1076.8139648438</ele>
        <time>2012-02-11T08:14:17Z</time>
      </trkpt>
      <trkpt lat="45.69574" lon="5.98287">
        <ele>1077.2946777344</ele>
        <time>2012-02-11T08:14:29Z</time>
      </trkpt>
      <trkpt lat="45.69573" lon="5.98284">
        <ele>1074.8913574219</ele>
        <time>2012-02-11T08:14:40Z</time>
      </trkpt>
      <trkpt lat="45.69571" lon="5.98277">
        <ele>1072.4880371094</ele>
        <time>2012-02-11T08:14:46Z</time>
      </trkpt>
      <trkpt lat="45.69573" lon="5.98272">
        <ele>1072.96875</ele>
        <time>2012-02-11T08:14:52Z</time>
      </trkpt>
      <trkpt lat="45.69573" lon="5.98272">
        <ele>1073.4494628906</ele>
        <time>2012-02-11T08:14:57Z</time>
      </trkpt>
      <trkpt lat="45.69576" lon="5.98273">
        <ele>1072.0073242188</ele>
        <time>2012-02-11T08:15:02Z</time>
      </trkpt>
      <trkpt lat="45.69575" lon="5.98275">
        <ele>1069.6042480469</ele>
        <time>2012-02-11T08:15:06Z</time>
      </trkpt>
      <trkpt lat="45.69577" lon="5.98275">
        <ele>1068.6428222656</ele>
        <time>2012-02-11T08:15:14Z</time>
      </trkpt>
      <trkpt lat="45.69574" lon="5.98276">
        <ele>1066.7199707031</ele>
        <time>2012-02-11T08:15:28Z</time>
      </trkpt>
      <trkpt lat="45.69575" lon="5.98275">
        <ele>1056.6262207031</ele>
        <time>2012-02-11T08:15:33Z</time>
      </trkpt>
      <trkpt lat="45.69577" lon="5.98269">
        <ele>1052.3002929688</ele>
        <time>2012-02-11T08:15:43Z</time>
      </trkpt>
      <trkpt lat="45.69572" lon="5.98272">
        <ele>1043.1677246094</ele>
        <time>2012-02-11T08:15:51Z</time>
      </trkpt>
      <trkpt lat="45.69574" lon="5.98278">
        <ele>1064.3166503906</ele>
        <time>2012-02-11T08:16:08Z</time>
      </trkpt>
      <trkpt lat="45.69575" lon="5.98279">
        <ele>1071.5266113281</ele>
        <time>2012-02-11T08:16:15Z</time>
      </trkpt>
      <trkpt lat="45.69579" lon="5.98278">
        <ele>1073.4494628906</ele>
        <time>2012-02-11T08:16:18Z</time>
      </trkpt>
      <trkpt lat="45.6959" lon="5.98276">
        <ele>1074.8913574219</ele>
        <time>2012-02-11T08:16:24Z</time>
      </trkpt>
      <trkpt lat="45.69585" lon="5.98275">
        <ele>1073.4494628906</ele>
        <time>2012-02-11T08:16:30Z</time>
      </trkpt>
      <trkpt lat="45.69582" lon="5.98276">
        <ele>1075.3718261719</ele>
        <time>2012-02-11T08:16:36Z</time>
      </trkpt>
      <trkpt lat="45.69576" lon="5.98274">
        <ele>1070.5654296875</ele>
        <time>2012-02-11T08:16:42Z</time>
      </trkpt>
      <trkpt lat="45.69574" lon="5.98276">
        <ele>1061.9135742188</ele>
        <time>2012-02-11T08:16:50Z</time>
      </trkpt>
      <trkpt lat="45.69574" lon="5.98277">
        <ele>1061.9135742188</ele>
        <time>2012-02-11T08:17:02Z</time>
      </trkpt>
      <trkpt lat="45.69573" lon="5.98273">
        <ele>1054.7036132812</ele>
        <time>2012-02-11T08:17:13Z</time>
      </trkpt>
      <trkpt lat="45.69566" lon="5.98271">
        <ele>1055.6650390625</ele>
        <time>2012-02-11T08:17:37Z</time>
      </trkpt>
      <trkpt lat="45.69568" lon="5.98269">
        <ele>1059.5102539062</ele>
        <time>2012-02-11T08:17:38Z</time>
      </trkpt>
      <trkpt lat="45.69577" lon="5.98271">
        <ele>1061.4328613281</ele>
        <time>2012-02-11T08:17:45Z</time>
      </trkpt>
      <trkpt lat="45.69579" lon="5.98271">
        <ele>1064.3166503906</ele>
        <time>2012-02-11T08:17:48Z</time>
      </trkpt>
      <trkpt lat="45.69576" lon="5.98272">
        <ele>1062.8747558594</ele>
        <time>2012-02-11T08:17:55Z</time>
      </trkpt>
      <trkpt lat="45.69579" lon="5.98276">
        <ele>1072.0073242188</ele>
        <time>2012-02-11T08:18:02Z</time>
      </trkpt>
      <trkpt lat="45.6958" lon="5.98277">
        <ele>1078.255859375</ele>
        <time>2012-02-11T08:18:11Z</time>
      </trkpt>
      <trkpt lat="45.6958" lon="5.98279">
        <ele>1070.0847167969</ele>
        <time>2012-02-11T08:18:17Z</time>
      </trkpt>
      <trkpt lat="45.69578" lon="5.98274">
        <ele>1062.3940429688</ele>
        <time>2012-02-11T08:18:32Z</time>
      </trkpt>
      <trkpt lat="45.6958" lon="5.98273">
        <ele>1066.7199707031</ele>
        <time>2012-02-11T08:18:36Z</time>
      </trkpt>
      <trkpt lat="45.69582" lon="5.98274">
        <ele>1063.8359375</ele>
        <time>2012-02-11T08:18:43Z</time>
      </trkpt>
      <trkpt lat="45.69581" lon="5.98274">
        <ele>1063.8359375</ele>
        <time>2012-02-11T08:18:45Z</time>
      </trkpt>
      <trkpt lat="45.69578" lon="5.98272">
        <ele>1067.6811523438</ele>
        <time>2012-02-11T08:18:58Z</time>
      </trkpt>
      <trkpt lat="45.69579" lon="5.98274">
        <ele>1075.3718261719</ele>
        <time>2012-02-11T08:19:12Z</time>
      </trkpt>
      <trkpt lat="45.69578" lon="5.98276">
        <ele>1075.8525390625</ele>
        <time>2012-02-11T08:19:17Z</time>
      </trkpt>
      <trkpt lat="45.69575" lon="5.98277">
        <ele>1071.5266113281</ele>
        <time>2012-02-11T08:19:23Z</time>
      </trkpt>
      <trkpt lat="45.69575" lon="5.98278">
        <ele>1072.96875</ele>
        <time>2012-02-11T08:19:28Z</time>
      </trkpt>
      <trkpt lat="45.69573" lon="5.98281">
        <ele>1071.5266113281</ele>
        <time>2012-02-11T08:19:47Z</time>
      </trkpt>
      <trkpt lat="45.69572" lon="5.98281">
        <ele>1073.9299316406</ele>
        <time>2012-02-11T08:19:53Z</time>
      </trkpt>
      <trkpt lat="45.69575" lon="5.98285">
        <ele>1084.9853515625</ele>
        <time>2012-02-11T08:20:07Z</time>
      </trkpt>
      <trkpt lat="45.69574" lon="5.98283">
        <ele>1083.54296875</ele>
        <time>2012-02-11T08:20:21Z</time>
      </trkpt>
      <trkpt lat="45.69571" lon="5.98285">
        <ele>1080.6591796875</ele>
        <time>2012-02-11T08:20:27Z</time>
      </trkpt>
      <trkpt lat="45.69569" lon="5.98284">
        <ele>1073.9299316406</ele>
        <time>2012-02-11T08:20:40Z</time>
      </trkpt>
      <trkpt lat="45.6957" lon="5.98288">
        <ele>1071.0461425781</ele>
        <time>2012-02-11T08:20:45Z</time>
      </trkpt>
      <trkpt lat="45.69571" lon="5.9829">
        <ele>1070.0847167969</ele>
        <time>2012-02-11T08:20:50Z</time>
      </trkpt>
      <trkpt lat="45.69577" lon="5.98289">
        <ele>1071.5266113281</ele>
        <time>2012-02-11T08:21:00Z</time>
      </trkpt>
      <trkpt lat="45.69582" lon="5.98287">
        <ele>1078.7365722656</ele>
        <time>2012-02-11T08:21:08Z</time>
      </trkpt>
      <trkpt lat="45.6958" lon="5.98287">
        <ele>1075.3718261719</ele>
        <time>2012-02-11T08:21:10Z</time>
      </trkpt>
      <trkpt lat="45.6958" lon="5.98289">
        <ele>1080.1784667969</ele>
        <time>2012-02-11T08:21:13Z</time>
      </trkpt>
      <trkpt lat="45.6958" lon="5.98291">
        <ele>1072.96875</ele>
        <time>2012-02-11T08:21:19Z</time>
      </trkpt>
      <trkpt lat="45.6958" lon="5.98292">
        <ele>1072.96875</ele>
        <time>2012-02-11T08:21:23Z</time>
      </trkpt>
      <trkpt lat="45.6958" lon="5.98293">
        <ele>1072.4880371094</ele>
        <time>2012-02-11T08:21:26Z</time>
      </trkpt>
      <trkpt lat="45.6958" lon="5.98298">
        <ele>1072.0073242188</ele>
        <time>2012-02-11T08:21:31Z</time>
      </trkpt>
      <trkpt lat="45.69583" lon="5.98303">
        <ele>1073.4494628906</ele>
        <time>2012-02-11T08:21:37Z</time>
      </trkpt>
      <trkpt lat="45.69586" lon="5.98307">
        <ele>1072.0073242188</ele>
        <time>2012-02-11T08:21:42Z</time>
      </trkpt>
      <trkpt lat="45.69587" lon="5.98311">
        <ele>1070.0847167969</ele>
        <time>2012-02-11T08:21:47Z</time>
      </trkpt>
      <trkpt lat="45.6959" lon="5.98317">
        <ele>1070.0847167969</ele>
        <time>2012-02-11T08:21:52Z</time>
      </trkpt>
      <trkpt lat="45.69591" lon="5.9832">
        <ele>1066.7199707031</ele>
        <time>2012-02-11T08:21:56Z</time>
      </trkpt>
      <trkpt lat="45.69592" lon="5.98325">
        <ele>1067.2006835938</ele>
        <time>2012-02-11T08:22:02Z</time>
      </trkpt>
      <trkpt lat="45.6959" lon="5.98327">
        <ele>1069.6042480469</ele>
        <time>2012-02-11T08:22:18Z</time>
      </trkpt>
      <trkpt lat="45.69589" lon="5.98325">
        <ele>1070.5654296875</ele>
        <time>2012-02-11T08:22:24Z</time>
      </trkpt>
      <trkpt lat="45.6959" lon="5.98326">
        <ele>1072.96875</ele>
        <time>2012-02-11T08:22:28Z</time>
      </trkpt>
      <trkpt lat="45.6959" lon="5.98327">
        <ele>1074.8913574219</ele>
        <time>2012-02-11T08:22:35Z</time>
      </trkpt>
      <trkpt lat="45.69591" lon="5.98328">
        <ele>1074.8913574219</ele>
        <time>2012-02-11T08:22:40Z</time>
      </trkpt>
      <trkpt lat="45.69592" lon="5.98333">
        <ele>1074.4106445312</ele>
        <time>2012-02-11T08:22:45Z</time>
      </trkpt>
      <trkpt lat="45.69592" lon="5.98338">
        <ele>1073.9299316406</ele>
        <time>2012-02-11T08:22:50Z</time>
      </trkpt>
      <trkpt lat="45.69592" lon="5.98343">
        <ele>1072.96875</ele>
        <time>2012-02-11T08:22:55Z</time>
      </trkpt>
      <trkpt lat="45.69591" lon="5.98348">
        <ele>1072.4880371094</ele>
        <time>2012-02-11T08:23:00Z</time>
      </trkpt>
      <trkpt lat="45.69591" lon="5.98353">
        <ele>1072.0073242188</ele>
        <time>2012-02-11T08:23:05Z</time>
      </trkpt>
      <trkpt lat="45.69591" lon="5.98357">
        <ele>1069.6042480469</ele>
        <time>2012-02-11T08:23:09Z</time>
      </trkpt>
      <trkpt lat="45.6959" lon="5.9836">
        <ele>1070.0847167969</ele>
        <time>2012-02-11T08:23:13Z</time>
      </trkpt>
      <trkpt lat="45.6959" lon="5.98365">
        <ele>1069.6042480469</ele>
        <time>2012-02-11T08:23:18Z</time>
      </trkpt>
      <trkpt lat="45.69589" lon="5.98371">
        <ele>1071.0461425781</ele>
        <time>2012-02-11T08:23:23Z</time>
      </trkpt>
      <trkpt lat="45.69587" lon="5.98375">
        <ele>1072.0073242188</ele>
        <time>2012-02-11T08:23:28Z</time>
      </trkpt>
      <trkpt lat="45.69588" lon="5.98379">
        <ele>1071.0461425781</ele>
        <time>2012-02-11T08:23:32Z</time>
      </trkpt>
      <trkpt lat="45.69587" lon="5.98376">
        <ele>1071.5266113281</ele>
        <time>2012-02-11T08:23:41Z</time>
      </trkpt>
      <trkpt lat="45.69588" lon="5.98372">
        <ele>1068.6428222656</ele>
        <time>2012-02-11T08:23:45Z</time>
      </trkpt>
      <trkpt lat="45.69589" lon="5.98367">
        <ele>1068.162109375</ele>
        <time>2012-02-11T08:23:49Z</time>
      </trkpt>
      <trkpt lat="45.6959" lon="5.98363">
        <ele>1067.2006835938</ele>
        <time>2012-02-11T08:23:53Z</time>
      </trkpt>
      <trkpt lat="45.69591" lon="5.98355">
        <ele>1067.6811523438</ele>
        <time>2012-02-11T08:23:59Z</time>
      </trkpt>
      <trkpt lat="45.69593" lon="5.98349">
        <ele>1067.6811523438</ele>
        <time>2012-02-11T08:24:04Z</time>
      </trkpt>
      <trkpt lat="45.69593" lon="5.9834">
        <ele>1066.2392578125</ele>
        <time>2012-02-11T08:24:09Z</time>
      </trkpt>
      <trkpt lat="45.69591" lon="5.98334">
        <ele>1066.7199707031</ele>
        <time>2012-02-11T08:24:13Z</time>
      </trkpt>
      <trkpt lat="45.69592" lon="5.98331">
        <ele>1067.6811523438</ele>
        <time>2012-02-11T08:24:15Z</time>
      </trkpt>
      <trkpt lat="45.69589" lon="5.98322">
        <ele>1066.7199707031</ele>
        <time>2012-02-11T08:24:21Z</time>
      </trkpt>
      <trkpt lat="45.69588" lon="5.9832">
        <ele>1066.7199707031</ele>
        <time>2012-02-11T08:24:22Z</time>
      </trkpt>
      <trkpt lat="45.69585" lon="5.98315">
        <ele>1066.7199707031</ele>
        <time>2012-02-11T08:24:26Z</time>
      </trkpt>
      <trkpt lat="45.69584" lon="5.98311">
        <ele>1066.7199707031</ele>
        <time>2012-02-11T08:24:29Z</time>
      </trkpt>
      <trkpt lat="45.69579" lon="5.98305">
        <ele>1068.162109375</ele>
        <time>2012-02-11T08:24:33Z</time>
      </trkpt>
      <trkpt lat="45.69577" lon="5.98302">
        <ele>1067.6811523438</ele>
        <time>2012-02-11T08:24:36Z</time>
      </trkpt>
      <trkpt lat="45.69575" lon="5.98293">
        <ele>1069.1235351562</ele>
        <time>2012-02-11T08:24:41Z</time>
      </trkpt>
      <trkpt lat="45.69574" lon="5.98291">
        <ele>1069.6042480469</ele>
        <time>2012-02-11T08:24:42Z</time>
      </trkpt>
      <trkpt lat="45.69569" lon="5.98284">
        <ele>1072.0073242188</ele>
        <time>2012-02-11T08:24:48Z</time>
      </trkpt>
      <trkpt lat="45.69567" lon="5.98281">
        <ele>1072.0073242188</ele>
        <time>2012-02-11T08:24:50Z</time>
      </trkpt>
      <trkpt lat="45.69566" lon="5.98278">
        <ele>1071.5266113281</ele>
        <time>2012-02-11T08:24:52Z</time>
      </trkpt>
      <trkpt lat="45.69569" lon="5.98272">
        <ele>1071.0461425781</ele>
        <time>2012-02-11T08:24:57Z</time>
      </trkpt>
      <trkpt lat="45.69571" lon="5.98274">
        <ele>1071.0461425781</ele>
        <time>2012-02-11T08:25:07Z</time>
      </trkpt>
      <trkpt lat="45.69573" lon="5.98275">
        <ele>1072.4880371094</ele>
        <time>2012-02-11T08:25:09Z</time>
      </trkpt>
      <trkpt lat="45.69572" lon="5.98281">
        <ele>1071.0461425781</ele>
        <time>2012-02-11T08:25:16Z</time>
      </trkpt>
      <trkpt lat="45.69568" lon="5.9828">
        <ele>1066.7199707031</ele>
        <time>2012-02-11T08:25:25Z</time>
      </trkpt>
      <trkpt lat="45.69569" lon="5.98281">
        <ele>1063.8359375</ele>
        <time>2012-02-11T08:25:30Z</time>
      </trkpt>
      <trkpt lat="45.69572" lon="5.98287">
        <ele>1066.7199707031</ele>
        <time>2012-02-11T08:25:36Z</time>
      </trkpt>
      <trkpt lat="45.69572" lon="5.9829">
        <ele>1068.6428222656</ele>
        <time>2012-02-11T08:25:39Z</time>
      </trkpt>
      <trkpt lat="45.69575" lon="5.98295">
        <ele>1069.6042480469</ele>
        <time>2012-02-11T08:25:43Z</time>
      </trkpt>
      <trkpt lat="45.69576" lon="5.983">
        <ele>1069.1235351562</ele>
        <time>2012-02-11T08:25:48Z</time>
      </trkpt>
      <trkpt lat="45.69581" lon="5.98306">
        <ele>1071.0461425781</ele>
        <time>2012-02-11T08:25:54Z</time>
      </trkpt>
      <trkpt lat="45.69585" lon="5.98311">
        <ele>1071.0461425781</ele>
        <time>2012-02-11T08:26:01Z</time>
      </trkpt>
      <trkpt lat="45.69586" lon="5.98312">
        <ele>1070.0847167969</ele>
        <time>2012-02-11T08:26:02Z</time>
      </trkpt>
      <trkpt lat="45.69593" lon="5.98319">
        <ele>1070.0847167969</ele>
        <time>2012-02-11T08:26:10Z</time>
      </trkpt>
      <trkpt lat="45.69594" lon="5.9832">
        <ele>1071.0461425781</ele>
        <time>2012-02-11T08:26:11Z</time>
      </trkpt>
      <trkpt lat="45.69596" lon="5.98323">
        <ele>1074.8913574219</ele>
        <time>2012-02-11T08:26:19Z</time>
      </trkpt>
      <trkpt lat="45.696" lon="5.98321">
        <ele>1083.0622558594</ele>
        <time>2012-02-11T08:26:34Z</time>
      </trkpt>
      <trkpt lat="45.69602" lon="5.98321">
        <ele>1086.4272460938</ele>
        <time>2012-02-11T08:26:41Z</time>
      </trkpt>
      <trkpt lat="45.69602" lon="5.9833">
        <ele>1082.5817871094</ele>
        <time>2012-02-11T08:26:49Z</time>
      </trkpt>
      <trkpt lat="45.69602" lon="5.98338">
        <ele>1080.1784667969</ele>
        <time>2012-02-11T08:26:56Z</time>
      </trkpt>
      <trkpt lat="45.696" lon="5.98346">
        <ele>1076.8139648438</ele>
        <time>2012-02-11T08:27:05Z</time>
      </trkpt>
      <trkpt lat="45.69597" lon="5.98346">
        <ele>1072.4880371094</ele>
        <time>2012-02-11T08:27:13Z</time>
      </trkpt>
      <trkpt lat="45.69595" lon="5.98345">
        <ele>1068.6428222656</ele>
        <time>2012-02-11T08:27:27Z</time>
      </trkpt>
      <trkpt lat="45.69597" lon="5.98349">
        <ele>1069.1235351562</ele>
        <time>2012-02-11T08:27:36Z</time>
      </trkpt>
      <trkpt lat="45.69595" lon="5.98356">
        <ele>1069.6042480469</ele>
        <time>2012-02-11T08:27:41Z</time>
      </trkpt>
      <trkpt lat="45.69594" lon="5.98362">
        <ele>1071.0461425781</ele>
        <time>2012-02-11T08:27:46Z</time>
      </trkpt>
      <trkpt lat="45.69592" lon="5.98365">
        <ele>1071.0461425781</ele>
        <time>2012-02-11T08:27:48Z</time>
      </trkpt>
      <trkpt lat="45.69591" lon="5.98371">
        <ele>1072.0073242188</ele>
        <time>2012-02-11T08:27:53Z</time>
      </trkpt>
      <trkpt lat="45.6959" lon="5.98379">
        <ele>1070.5654296875</ele>
        <time>2012-02-11T08:27:59Z</time>
      </trkpt>
      <trkpt lat="45.69589" lon="5.98383">
        <ele>1070.0847167969</ele>
        <time>2012-02-11T08:28:02Z</time>
      </trkpt>
      <trkpt lat="45.69585" lon="5.98388">
        <ele>1069.6042480469</ele>
        <time>2012-02-11T08:28:08Z</time>
      </trkpt>
      <trkpt lat="45.69584" lon="5.98392">
        <ele>1071.0461425781</ele>
        <time>2012-02-11T08:28:12Z</time>
      </trkpt>
      <trkpt lat="45.6958" lon="5.98395">
        <ele>1073.4494628906</ele>
        <time>2012-02-11T08:28:17Z</time>
      </trkpt>
      <trkpt lat="45.69578" lon="5.98398">
        <ele>1073.4494628906</ele>
        <time>2012-02-11T08:28:21Z</time>
      </trkpt>
      <trkpt lat="45.69577" lon="5.98397">
        <ele>1074.4106445312</ele>
        <time>2012-02-11T08:28:30Z</time>
      </trkpt>
      <trkpt lat="45.69574" lon="5.984">
        <ele>1072.96875</ele>
        <time>2012-02-11T08:28:36Z</time>
      </trkpt>
      <trkpt lat="45.69573" lon="5.98403">
        <ele>1073.9299316406</ele>
        <time>2012-02-11T08:28:43Z</time>
      </trkpt>
      <trkpt lat="45.69571" lon="5.98407">
        <ele>1074.8913574219</ele>
        <time>2012-02-11T08:28:48Z</time>
      </trkpt>
      <trkpt lat="45.69569" lon="5.98412">
        <ele>1075.8525390625</ele>
        <time>2012-02-11T08:28:53Z</time>
      </trkpt>
      <trkpt lat="45.69568" lon="5.98415">
        <ele>1076.8139648438</ele>
        <time>2012-02-11T08:28:57Z</time>
      </trkpt>
      <trkpt lat="45.69566" lon="5.98418">
        <ele>1079.2170410156</ele>
        <time>2012-02-11T08:29:02Z</time>
      </trkpt>
      <trkpt lat="45.69566" lon="5.98421">
        <ele>1082.5817871094</ele>
        <time>2012-02-11T08:29:06Z</time>
      </trkpt>
      <trkpt lat="45.69564" lon="5.98423">
        <ele>1084.9853515625</ele>
        <time>2012-02-11T08:29:11Z</time>
      </trkpt>
      <trkpt lat="45.69562" lon="5.98426">
        <ele>1084.0239257812</ele>
        <time>2012-02-11T08:29:15Z</time>
      </trkpt>
      <trkpt lat="45.69559" lon="5.98425">
        <ele>1081.6203613281</ele>
        <time>2012-02-11T08:29:20Z</time>
      </trkpt>
      <trkpt lat="45.69558" lon="5.98428">
        <ele>1081.1398925781</ele>
        <time>2012-02-11T08:29:25Z</time>
      </trkpt>
      <trkpt lat="45.69556" lon="5.98432">
        <ele>1081.1398925781</ele>
        <time>2012-02-11T08:29:29Z</time>
      </trkpt>
      <trkpt lat="45.69555" lon="5.98436">
        <ele>1082.1010742188</ele>
        <time>2012-02-11T08:29:33Z</time>
      </trkpt>
      <trkpt lat="45.69554" lon="5.98439">
        <ele>1082.1010742188</ele>
        <time>2012-02-11T08:29:37Z</time>
      </trkpt>
      <trkpt lat="45.69551" lon="5.98444">
        <ele>1083.54296875</ele>
        <time>2012-02-11T08:29:43Z</time>
      </trkpt>
      <trkpt lat="45.69549" lon="5.98449">
        <ele>1084.0239257812</ele>
        <time>2012-02-11T08:29:49Z</time>
      </trkpt>
      <trkpt lat="45.69548" lon="5.98453">
        <ele>1086.9077148438</ele>
        <time>2012-02-11T08:29:53Z</time>
      </trkpt>
      <trkpt lat="45.69547" lon="5.98458">
        <ele>1085.9465332031</ele>
        <time>2012-02-11T08:29:58Z</time>
      </trkpt>
      <trkpt lat="45.69547" lon="5.98464">
        <ele>1085.4658203125</ele>
        <time>2012-02-11T08:30:03Z</time>
      </trkpt>
      <trkpt lat="45.69545" lon="5.98466">
        <ele>1084.0239257812</ele>
        <time>2012-02-11T08:30:06Z</time>
      </trkpt>
      <trkpt lat="45.69545" lon="5.98471">
        <ele>1084.5046386719</ele>
        <time>2012-02-11T08:30:11Z</time>
      </trkpt>
      <trkpt lat="45.69545" lon="5.98478">
        <ele>1084.9853515625</ele>
        <time>2012-02-11T08:30:16Z</time>
      </trkpt>
      <trkpt lat="45.69543" lon="5.98481">
        <ele>1086.4272460938</ele>
        <time>2012-02-11T08:30:20Z</time>
      </trkpt>
      <trkpt lat="45.69543" lon="5.98485">
        <ele>1090.2724609375</ele>
        <time>2012-02-11T08:30:24Z</time>
      </trkpt>
      <trkpt lat="45.69542" lon="5.9849">
        <ele>1093.15625</ele>
        <time>2012-02-11T08:30:28Z</time>
      </trkpt>
      <trkpt lat="45.69543" lon="5.98493">
        <ele>1094.5981445312</ele>
        <time>2012-02-11T08:30:31Z</time>
      </trkpt>
      <trkpt lat="45.69544" lon="5.98498">
        <ele>1096.0402832031</ele>
        <time>2012-02-11T08:30:35Z</time>
      </trkpt>
      <trkpt lat="45.69544" lon="5.98502">
        <ele>1096.0402832031</ele>
        <time>2012-02-11T08:30:39Z</time>
      </trkpt>
      <trkpt lat="45.69542" lon="5.98505">
        <ele>1095.5595703125</ele>
        <time>2012-02-11T08:30:43Z</time>
      </trkpt>
      <trkpt lat="45.69539" lon="5.98507">
        <ele>1093.6369628906</ele>
        <time>2012-02-11T08:30:47Z</time>
      </trkpt>
      <trkpt lat="45.6954" lon="5.98511">
        <ele>1090.2724609375</ele>
        <time>2012-02-11T08:30:56Z</time>
      </trkpt>
      <trkpt lat="45.6954" lon="5.98516">
        <ele>1092.1950683594</ele>
        <time>2012-02-11T08:31:01Z</time>
      </trkpt>
      <trkpt lat="45.6954" lon="5.98521">
        <ele>1094.5981445312</ele>
        <time>2012-02-11T08:31:05Z</time>
      </trkpt>
      <trkpt lat="45.69539" lon="5.98524">
        <ele>1095.0788574219</ele>
        <time>2012-02-11T08:31:09Z</time>
      </trkpt>
      <trkpt lat="45.69538" lon="5.98529">
        <ele>1094.5981445312</ele>
        <time>2012-02-11T08:31:14Z</time>
      </trkpt>
      <trkpt lat="45.6954" lon="5.98533">
        <ele>1096.5209960938</ele>
        <time>2012-02-11T08:31:18Z</time>
      </trkpt>
      <trkpt lat="45.6954" lon="5.98536">
        <ele>1097.0014648438</ele>
        <time>2012-02-11T08:31:22Z</time>
      </trkpt>
      <trkpt lat="45.6954" lon="5.98541">
        <ele>1098.443359375</ele>
        <time>2012-02-11T08:31:26Z</time>
      </trkpt>
      <trkpt lat="45.69539" lon="5.98544">
        <ele>1099.4047851562</ele>
        <time>2012-02-11T08:31:30Z</time>
      </trkpt>
      <trkpt lat="45.69538" lon="5.98549">
        <ele>1101.3276367188</ele>
        <time>2012-02-11T08:31:35Z</time>
      </trkpt>
      <trkpt lat="45.69539" lon="5.98553">
        <ele>1103.7309570312</ele>
        <time>2012-02-11T08:31:38Z</time>
      </trkpt>
      <trkpt lat="45.6954" lon="5.98559">
        <ele>1107.576171875</ele>
        <time>2012-02-11T08:31:44Z</time>
      </trkpt>
      <trkpt lat="45.6954" lon="5.98555">
        <ele>1105.1728515625</ele>
        <time>2012-02-11T08:31:52Z</time>
      </trkpt>
      <trkpt lat="45.69542" lon="5.98556">
        <ele>1105.6535644531</ele>
        <time>2012-02-11T08:31:58Z</time>
      </trkpt>
      <trkpt lat="45.69546" lon="5.98557">
        <ele>1112.86328125</ele>
        <time>2012-02-11T08:32:15Z</time>
      </trkpt>
      <trkpt lat="45.69544" lon="5.98554">
        <ele>1112.86328125</ele>
        <time>2012-02-11T08:32:28Z</time>
      </trkpt>
      <trkpt lat="45.69545" lon="5.98555">
        <ele>1109.9792480469</ele>
        <time>2012-02-11T08:32:37Z</time>
      </trkpt>
      <trkpt lat="45.69548" lon="5.98555">
        <ele>1111.4213867188</ele>
        <time>2012-02-11T08:32:42Z</time>
      </trkpt>
      <trkpt lat="45.69547" lon="5.98556">
        <ele>1110.9406738281</ele>
        <time>2012-02-11T08:32:44Z</time>
      </trkpt>
      <trkpt lat="45.69547" lon="5.98556">
        <ele>1110.9406738281</ele>
        <time>2012-02-11T08:32:45Z</time>
      </trkpt>
      <trkpt lat="45.69545" lon="5.98559">
        <ele>1109.4987792969</ele>
        <time>2012-02-11T08:32:49Z</time>
      </trkpt>
      <trkpt lat="45.69542" lon="5.98563">
        <ele>1108.0568847656</ele>
        <time>2012-02-11T08:32:53Z</time>
      </trkpt>
      <trkpt lat="45.6954" lon="5.98567">
        <ele>1105.6535644531</ele>
        <time>2012-02-11T08:32:57Z</time>
      </trkpt>
      <trkpt lat="45.6954" lon="5.98569">
        <ele>1105.1728515625</ele>
        <time>2012-02-11T08:32:58Z</time>
      </trkpt>
      <trkpt lat="45.69538" lon="5.98575">
        <ele>1108.0568847656</ele>
        <time>2012-02-11T08:33:03Z</time>
      </trkpt>
      <trkpt lat="45.69537" lon="5.9858">
        <ele>1108.0568847656</ele>
        <time>2012-02-11T08:33:09Z</time>
      </trkpt>
      <trkpt lat="45.69536" lon="5.98581">
        <ele>1107.576171875</ele>
        <time>2012-02-11T08:33:13Z</time>
      </trkpt>
      <trkpt lat="45.6953" lon="5.98578">
        <ele>1108.5373535156</ele>
        <time>2012-02-11T08:33:40Z</time>
      </trkpt>
      <trkpt lat="45.6953" lon="5.98579">
        <ele>1108.0568847656</ele>
        <time>2012-02-11T08:33:54Z</time>
      </trkpt>
      <trkpt lat="45.69529" lon="5.98579">
        <ele>1104.2116699219</ele>
        <time>2012-02-11T08:33:59Z</time>
      </trkpt>
      <trkpt lat="45.69528" lon="5.98579">
        <ele>1102.2888183594</ele>
        <time>2012-02-11T08:34:02Z</time>
      </trkpt>
      <trkpt lat="45.69531" lon="5.98583">
        <ele>1112.86328125</ele>
        <time>2012-02-11T08:34:19Z</time>
      </trkpt>
      <trkpt lat="45.6953" lon="5.98587">
        <ele>1113.3439941406</ele>
        <time>2012-02-11T08:34:26Z</time>
      </trkpt>
      <trkpt lat="45.69532" lon="5.9859">
        <ele>1115.2666015625</ele>
        <time>2012-02-11T08:34:29Z</time>
      </trkpt>
      <trkpt lat="45.69531" lon="5.98593">
        <ele>1114.3051757812</ele>
        <time>2012-02-11T08:34:34Z</time>
      </trkpt>
      <trkpt lat="45.6953" lon="5.98598">
        <ele>1116.2280273438</ele>
        <time>2012-02-11T08:34:39Z</time>
      </trkpt>
      <trkpt lat="45.69529" lon="5.986">
        <ele>1111.4213867188</ele>
        <time>2012-02-11T08:34:44Z</time>
      </trkpt>
      <trkpt lat="45.69529" lon="5.98605">
        <ele>1109.4987792969</ele>
        <time>2012-02-11T08:34:49Z</time>
      </trkpt>
      <trkpt lat="45.69529" lon="5.98611">
        <ele>1111.9020996094</ele>
        <time>2012-02-11T08:34:54Z</time>
      </trkpt>
      <trkpt lat="45.69526" lon="5.98615">
        <ele>1112.3825683594</ele>
        <time>2012-02-11T08:34:57Z</time>
      </trkpt>
      <trkpt lat="45.69524" lon="5.98617">
        <ele>1110.4599609375</ele>
        <time>2012-02-11T08:35:00Z</time>
      </trkpt>
      <trkpt lat="45.69523" lon="5.98621">
        <ele>1108.5373535156</ele>
        <time>2012-02-11T08:35:04Z</time>
      </trkpt>
      <trkpt lat="45.69522" lon="5.98624">
        <ele>1109.0180664062</ele>
        <time>2012-02-11T08:35:08Z</time>
      </trkpt>
      <trkpt lat="45.6952" lon="5.98628">
        <ele>1108.0568847656</ele>
        <time>2012-02-11T08:35:12Z</time>
      </trkpt>
      <trkpt lat="45.69518" lon="5.9863">
        <ele>1109.9792480469</ele>
        <time>2012-02-11T08:35:16Z</time>
      </trkpt>
      <trkpt lat="45.69515" lon="5.98635">
        <ele>1109.4987792969</ele>
        <time>2012-02-11T08:35:21Z</time>
      </trkpt>
      <trkpt lat="45.69513" lon="5.98638">
        <ele>1108.0568847656</ele>
        <time>2012-02-11T08:35:26Z</time>
      </trkpt>
      <trkpt lat="45.69513" lon="5.98645">
        <ele>1111.4213867188</ele>
        <time>2012-02-11T08:35:31Z</time>
      </trkpt>
      <trkpt lat="45.69513" lon="5.98649">
        <ele>1111.9020996094</ele>
        <time>2012-02-11T08:35:35Z</time>
      </trkpt>
      <trkpt lat="45.69512" lon="5.98652">
        <ele>1113.8244628906</ele>
        <time>2012-02-11T08:35:39Z</time>
      </trkpt>
      <trkpt lat="45.69512" lon="5.98657">
        <ele>1116.7087402344</ele>
        <time>2012-02-11T08:35:44Z</time>
      </trkpt>
      <trkpt lat="45.69511" lon="5.98661">
        <ele>1114.7858886719</ele>
        <time>2012-02-11T08:35:49Z</time>
      </trkpt>
      <trkpt lat="45.69509" lon="5.98665">
        <ele>1113.8244628906</ele>
        <time>2012-02-11T08:35:53Z</time>
      </trkpt>
      <trkpt lat="45.69509" lon="5.98669">
        <ele>1115.2666015625</ele>
        <time>2012-02-11T08:35:57Z</time>
      </trkpt>
      <trkpt lat="45.69507" lon="5.98673">
        <ele>1115.7473144531</ele>
        <time>2012-02-11T08:36:02Z</time>
      </trkpt>
      <trkpt lat="45.69508" lon="5.98676">
        <ele>1117.669921875</ele>
        <time>2012-02-11T08:36:06Z</time>
      </trkpt>
      <trkpt lat="45.69506" lon="5.98681">
        <ele>1119.5927734375</ele>
        <time>2012-02-11T08:36:11Z</time>
      </trkpt>
      <trkpt lat="45.69508" lon="5.98686">
        <ele>1121.0346679688</ele>
        <time>2012-02-11T08:36:15Z</time>
      </trkpt>
      <trkpt lat="45.69505" lon="5.98691">
        <ele>1119.5927734375</ele>
        <time>2012-02-11T08:36:20Z</time>
      </trkpt>
      <trkpt lat="45.69503" lon="5.98696">
        <ele>1116.7087402344</ele>
        <time>2012-02-11T08:36:25Z</time>
      </trkpt>
      <trkpt lat="45.69502" lon="5.987">
        <ele>1116.2280273438</ele>
        <time>2012-02-11T08:36:29Z</time>
      </trkpt>
      <trkpt lat="45.69502" lon="5.98703">
        <ele>1115.2666015625</ele>
        <time>2012-02-11T08:36:32Z</time>
      </trkpt>
      <trkpt lat="45.69502" lon="5.98706">
        <ele>1115.2666015625</ele>
        <time>2012-02-11T08:36:36Z</time>
      </trkpt>
      <trkpt lat="45.69501" lon="5.98709">
        <ele>1114.7858886719</ele>
        <time>2012-02-11T08:36:39Z</time>
      </trkpt>
      <trkpt lat="45.69501" lon="5.98712">
        <ele>1115.7473144531</ele>
        <time>2012-02-11T08:36:43Z</time>
      </trkpt>
      <trkpt lat="45.69501" lon="5.98716">
        <ele>1116.2280273438</ele>
        <time>2012-02-11T08:36:46Z</time>
      </trkpt>
      <trkpt lat="45.69501" lon="5.9872">
        <ele>1117.669921875</ele>
        <time>2012-02-11T08:36:50Z</time>
      </trkpt>
      <trkpt lat="45.695" lon="5.98724">
        <ele>1119.1120605469</ele>
        <time>2012-02-11T08:36:53Z</time>
      </trkpt>
      <trkpt lat="45.69499" lon="5.98726">
        <ele>1119.1120605469</ele>
        <time>2012-02-11T08:36:56Z</time>
      </trkpt>
      <trkpt lat="45.695" lon="5.9873">
        <ele>1120.5539550781</ele>
        <time>2012-02-11T08:37:00Z</time>
      </trkpt>
      <trkpt lat="45.69501" lon="5.98734">
        <ele>1122.4765625</ele>
        <time>2012-02-11T08:37:04Z</time>
      </trkpt>
      <trkpt lat="45.69502" lon="5.98738">
        <ele>1124.8798828125</ele>
        <time>2012-02-11T08:37:08Z</time>
      </trkpt>
      <trkpt lat="45.69502" lon="5.98742">
        <ele>1125.3603515625</ele>
        <time>2012-02-11T08:37:12Z</time>
      </trkpt>
      <trkpt lat="45.69503" lon="5.98747">
        <ele>1125.3603515625</ele>
        <time>2012-02-11T08:37:16Z</time>
      </trkpt>
      <trkpt lat="45.69504" lon="5.98752">
        <ele>1126.3217773438</ele>
        <time>2012-02-11T08:37:21Z</time>
      </trkpt>
      <trkpt lat="45.69505" lon="5.98756">
        <ele>1126.3217773438</ele>
        <time>2012-02-11T08:37:25Z</time>
      </trkpt>
      <trkpt lat="45.69506" lon="5.98758">
        <ele>1124.3991699219</ele>
        <time>2012-02-11T08:37:28Z</time>
      </trkpt>
      <trkpt lat="45.69509" lon="5.98762">
        <ele>1123.4379882812</ele>
        <time>2012-02-11T08:37:33Z</time>
      </trkpt>
      <trkpt lat="45.69511" lon="5.98766">
        <ele>1123.9184570312</ele>
        <time>2012-02-11T08:37:37Z</time>
      </trkpt>
      <trkpt lat="45.69512" lon="5.98769">
        <ele>1124.3991699219</ele>
        <time>2012-02-11T08:37:40Z</time>
      </trkpt>
      <trkpt lat="45.69513" lon="5.98773">
        <ele>1125.3603515625</ele>
        <time>2012-02-11T08:37:45Z</time>
      </trkpt>
      <trkpt lat="45.69513" lon="5.98777">
        <ele>1122.9572753906</ele>
        <time>2012-02-11T08:37:48Z</time>
      </trkpt>
      <trkpt lat="45.69513" lon="5.98778">
        <ele>1123.4379882812</ele>
        <time>2012-02-11T08:37:50Z</time>
      </trkpt>
      <trkpt lat="45.69514" lon="5.98782">
        <ele>1124.3991699219</ele>
        <time>2012-02-11T08:37:55Z</time>
      </trkpt>
      <trkpt lat="45.69514" lon="5.98786">
        <ele>1123.4379882812</ele>
        <time>2012-02-11T08:37:59Z</time>
      </trkpt>
      <trkpt lat="45.69515" lon="5.98791">
        <ele>1125.3603515625</ele>
        <time>2012-02-11T08:38:03Z</time>
      </trkpt>
      <trkpt lat="45.69516" lon="5.98793">
        <ele>1126.3217773438</ele>
        <time>2012-02-11T08:38:07Z</time>
      </trkpt>
      <trkpt lat="45.69518" lon="5.98798">
        <ele>1127.283203125</ele>
        <time>2012-02-11T08:38:13Z</time>
      </trkpt>
      <trkpt lat="45.69519" lon="5.98801">
        <ele>1127.283203125</ele>
        <time>2012-02-11T08:38:17Z</time>
      </trkpt>
      <trkpt lat="45.69522" lon="5.98805">
        <ele>1129.2055664062</ele>
        <time>2012-02-11T08:38:21Z</time>
      </trkpt>
      <trkpt lat="45.69523" lon="5.98808">
        <ele>1129.6862792969</ele>
        <time>2012-02-11T08:38:24Z</time>
      </trkpt>
      <trkpt lat="45.69524" lon="5.98812">
        <ele>1130.6477050781</ele>
        <time>2012-02-11T08:38:28Z</time>
      </trkpt>
      <trkpt lat="45.69526" lon="5.98817">
        <ele>1131.6088867188</ele>
        <time>2012-02-11T08:38:32Z</time>
      </trkpt>
      <trkpt lat="45.69527" lon="5.9882">
        <ele>1131.1284179688</ele>
        <time>2012-02-11T08:38:36Z</time>
      </trkpt>
      <trkpt lat="45.69529" lon="5.98824">
        <ele>1130.6477050781</ele>
        <time>2012-02-11T08:38:40Z</time>
      </trkpt>
      <trkpt lat="45.69533" lon="5.98828">
        <ele>1131.6088867188</ele>
        <time>2012-02-11T08:38:44Z</time>
      </trkpt>
      <trkpt lat="45.69533" lon="5.98829">
        <ele>1130.6477050781</ele>
        <time>2012-02-11T08:38:48Z</time>
      </trkpt>
      <trkpt lat="45.69533" lon="5.98831">
        <ele>1136.8962402344</ele>
        <time>2012-02-11T08:39:01Z</time>
      </trkpt>
      <trkpt lat="45.69535" lon="5.98835">
        <ele>1142.18359375</ele>
        <time>2012-02-11T08:39:15Z</time>
      </trkpt>
      <trkpt lat="45.69533" lon="5.98835">
        <ele>1137.8576660156</ele>
        <time>2012-02-11T08:39:20Z</time>
      </trkpt>
      <trkpt lat="45.69531" lon="5.98834">
        <ele>1134.9738769531</ele>
        <time>2012-02-11T08:39:27Z</time>
      </trkpt>
      <trkpt lat="45.69532" lon="5.98833">
        <ele>1135.9350585938</ele>
        <time>2012-02-11T08:39:31Z</time>
      </trkpt>
      <trkpt lat="45.69532" lon="5.98831">
        <ele>1136.8962402344</ele>
        <time>2012-02-11T08:39:37Z</time>
      </trkpt>
      <trkpt lat="45.69532" lon="5.98831">
        <ele>1138.8190917969</ele>
        <time>2012-02-11T08:39:43Z</time>
      </trkpt>
      <trkpt lat="45.69532" lon="5.98828">
        <ele>1139.2995605469</ele>
        <time>2012-02-11T08:39:59Z</time>
      </trkpt>
      <trkpt lat="45.6953" lon="5.98827">
        <ele>1138.8190917969</ele>
        <time>2012-02-11T08:40:16Z</time>
      </trkpt>
      <trkpt lat="45.69533" lon="5.98829">
        <ele>1139.7802734375</ele>
        <time>2012-02-11T08:40:21Z</time>
      </trkpt>
      <trkpt lat="45.69536" lon="5.98832">
        <ele>1133.5317382812</ele>
        <time>2012-02-11T08:40:31Z</time>
      </trkpt>
      <trkpt lat="45.69535" lon="5.98835">
        <ele>1133.5317382812</ele>
        <time>2012-02-11T08:40:37Z</time>
      </trkpt>
      <trkpt lat="45.69532" lon="5.98837">
        <ele>1129.2055664062</ele>
        <time>2012-02-11T08:40:47Z</time>
      </trkpt>
      <trkpt lat="45.69532" lon="5.98839">
        <ele>1129.2055664062</ele>
        <time>2012-02-11T08:40:53Z</time>
      </trkpt>
      <trkpt lat="45.69533" lon="5.98843">
        <ele>1130.6477050781</ele>
        <time>2012-02-11T08:40:59Z</time>
      </trkpt>
      <trkpt lat="45.69534" lon="5.98845">
        <ele>1130.6477050781</ele>
        <time>2012-02-11T08:41:03Z</time>
      </trkpt>
      <trkpt lat="45.69536" lon="5.98847">
        <ele>1130.6477050781</ele>
        <time>2012-02-11T08:41:07Z</time>
      </trkpt>
      <trkpt lat="45.6954" lon="5.9885">
        <ele>1134.0124511719</ele>
        <time>2012-02-11T08:41:11Z</time>
      </trkpt>
      <trkpt lat="45.69541" lon="5.98854">
        <ele>1136.4157714844</ele>
        <time>2012-02-11T08:41:15Z</time>
      </trkpt>
      <trkpt lat="45.69542" lon="5.98855">
        <ele>1138.3383789062</ele>
        <time>2012-02-11T08:41:18Z</time>
      </trkpt>
      <trkpt lat="45.69544" lon="5.98857">
        <ele>1140.7414550781</ele>
        <time>2012-02-11T08:41:24Z</time>
      </trkpt>
      <trkpt lat="45.69544" lon="5.98857">
        <ele>1140.2609863281</ele>
        <time>2012-02-11T08:41:32Z</time>
      </trkpt>
      <trkpt lat="45.69546" lon="5.98859">
        <ele>1141.2221679688</ele>
        <time>2012-02-11T08:41:38Z</time>
      </trkpt>
      <trkpt lat="45.69547" lon="5.9886">
        <ele>1141.7028808594</ele>
        <time>2012-02-11T08:41:44Z</time>
      </trkpt>
      <trkpt lat="45.69547" lon="5.98864">
        <ele>1141.2221679688</ele>
        <time>2012-02-11T08:41:49Z</time>
      </trkpt>
      <trkpt lat="45.69548" lon="5.98868">
        <ele>1143.6254882812</ele>
        <time>2012-02-11T08:41:56Z</time>
      </trkpt>
      <trkpt lat="45.6955" lon="5.98873">
        <ele>1145.5480957031</ele>
        <time>2012-02-11T08:42:02Z</time>
      </trkpt>
      <trkpt lat="45.69551" lon="5.98876">
        <ele>1144.5866699219</ele>
        <time>2012-02-11T08:42:08Z</time>
      </trkpt>
      <trkpt lat="45.69553" lon="5.98879">
        <ele>1144.1062011719</ele>
        <time>2012-02-11T08:42:12Z</time>
      </trkpt>
      <trkpt lat="45.69556" lon="5.98885">
        <ele>1143.6254882812</ele>
        <time>2012-02-11T08:42:18Z</time>
      </trkpt>
      <trkpt lat="45.69558" lon="5.98888">
        <ele>1142.6643066406</ele>
        <time>2012-02-11T08:42:22Z</time>
      </trkpt>
      <trkpt lat="45.69559" lon="5.98891">
        <ele>1143.1447753906</ele>
        <time>2012-02-11T08:42:26Z</time>
      </trkpt>
      <trkpt lat="45.69559" lon="5.98895">
        <ele>1144.1062011719</ele>
        <time>2012-02-11T08:42:31Z</time>
      </trkpt>
      <trkpt lat="45.69561" lon="5.98898">
        <ele>1143.6254882812</ele>
        <time>2012-02-11T08:42:37Z</time>
      </trkpt>
      <trkpt lat="45.69563" lon="5.98903">
        <ele>1144.1062011719</ele>
        <time>2012-02-11T08:42:43Z</time>
      </trkpt>
      <trkpt lat="45.69564" lon="5.98907">
        <ele>1142.6643066406</ele>
        <time>2012-02-11T08:42:48Z</time>
      </trkpt>
      <trkpt lat="45.69566" lon="5.98911">
        <ele>1143.6254882812</ele>
        <time>2012-02-11T08:42:53Z</time>
      </trkpt>
      <trkpt lat="45.69569" lon="5.98915">
        <ele>1144.5866699219</ele>
        <time>2012-02-11T08:42:59Z</time>
      </trkpt>
      <trkpt lat="45.69571" lon="5.9892">
        <ele>1146.9899902344</ele>
        <time>2012-02-11T08:43:03Z</time>
      </trkpt>
      <trkpt lat="45.69572" lon="5.98924">
        <ele>1149.3935546875</ele>
        <time>2012-02-11T08:43:07Z</time>
      </trkpt>
      <trkpt lat="45.69572" lon="5.98927">
        <ele>1152.27734375</ele>
        <time>2012-02-11T08:43:12Z</time>
      </trkpt>
      <trkpt lat="45.69574" lon="5.9893">
        <ele>1153.2387695312</ele>
        <time>2012-02-11T08:43:19Z</time>
      </trkpt>
      <trkpt lat="45.69576" lon="5.98934">
        <ele>1152.7580566406</ele>
        <time>2012-02-11T08:43:23Z</time>
      </trkpt>
      <trkpt lat="45.69576" lon="5.98936">
        <ele>1154.6806640625</ele>
        <time>2012-02-11T08:43:28Z</time>
      </trkpt>
      <trkpt lat="45.69577" lon="5.98938">
        <ele>1155.1613769531</ele>
        <time>2012-02-11T08:43:42Z</time>
      </trkpt>
      <trkpt lat="45.69577" lon="5.98937">
        <ele>1154.2001953125</ele>
        <time>2012-02-11T08:43:48Z</time>
      </trkpt>
      <trkpt lat="45.69578" lon="5.98937">
        <ele>1156.1225585938</ele>
        <time>2012-02-11T08:43:54Z</time>
      </trkpt>
      <trkpt lat="45.6958" lon="5.98945">
        <ele>1157.5646972656</ele>
        <time>2012-02-11T08:44:01Z</time>
      </trkpt>
      <trkpt lat="45.6958" lon="5.98949">
        <ele>1159.0065917969</ele>
        <time>2012-02-11T08:44:06Z</time>
      </trkpt>
      <trkpt lat="45.69582" lon="5.98953">
        <ele>1159.9677734375</ele>
        <time>2012-02-11T08:44:19Z</time>
      </trkpt>
      <trkpt lat="45.6958" lon="5.98956">
        <ele>1162.8518066406</ele>
        <time>2012-02-11T08:44:28Z</time>
      </trkpt>
      <trkpt lat="45.69582" lon="5.98953">
        <ele>1159.0065917969</ele>
        <time>2012-02-11T08:44:35Z</time>
      </trkpt>
      <trkpt lat="45.69582" lon="5.98952">
        <ele>1157.5646972656</ele>
        <time>2012-02-11T08:44:38Z</time>
      </trkpt>
      <trkpt lat="45.69582" lon="5.98952">
        <ele>1157.083984375</ele>
        <time>2012-02-11T08:44:39Z</time>
      </trkpt>
      <trkpt lat="45.69583" lon="5.98952">
        <ele>1156.6032714844</ele>
        <time>2012-02-11T08:44:40Z</time>
      </trkpt>
      <trkpt lat="45.69583" lon="5.98949">
        <ele>1154.6806640625</ele>
        <time>2012-02-11T08:44:48Z</time>
      </trkpt>
      <trkpt lat="45.69585" lon="5.9895">
        <ele>1158.0454101562</ele>
        <time>2012-02-11T08:44:58Z</time>
      </trkpt>
      <trkpt lat="45.69585" lon="5.98953">
        <ele>1160.9291992188</ele>
        <time>2012-02-11T08:45:04Z</time>
      </trkpt>
      <trkpt lat="45.69584" lon="5.98955">
        <ele>1159.4873046875</ele>
        <time>2012-02-11T08:45:09Z</time>
      </trkpt>
      <trkpt lat="45.69586" lon="5.98958">
        <ele>1159.0065917969</ele>
        <time>2012-02-11T08:45:13Z</time>
      </trkpt>
      <trkpt lat="45.69586" lon="5.98964">
        <ele>1160.4484863281</ele>
        <time>2012-02-11T08:45:18Z</time>
      </trkpt>
      <trkpt lat="45.69586" lon="5.98968">
        <ele>1162.37109375</ele>
        <time>2012-02-11T08:45:23Z</time>
      </trkpt>
      <trkpt lat="45.69588" lon="5.98972">
        <ele>1168.1391601562</ele>
        <time>2012-02-11T08:45:27Z</time>
      </trkpt>
      <trkpt lat="45.69589" lon="5.98973">
        <ele>1169.5812988281</ele>
        <time>2012-02-11T08:45:28Z</time>
      </trkpt>
      <trkpt lat="45.6959" lon="5.98978">
        <ele>1170.5424804688</ele>
        <time>2012-02-11T08:45:33Z</time>
      </trkpt>
      <trkpt lat="45.69591" lon="5.9898">
        <ele>1169.1005859375</ele>
        <time>2012-02-11T08:45:38Z</time>
      </trkpt>
      <trkpt lat="45.69593" lon="5.9898">
        <ele>1169.1005859375</ele>
        <time>2012-02-11T08:45:42Z</time>
      </trkpt>
      <trkpt lat="45.69595" lon="5.98981">
        <ele>1168.1391601562</ele>
        <time>2012-02-11T08:45:48Z</time>
      </trkpt>
      <trkpt lat="45.69598" lon="5.98984">
        <ele>1170.0617675781</ele>
        <time>2012-02-11T08:45:54Z</time>
      </trkpt>
      <trkpt lat="45.69598" lon="5.98986">
        <ele>1171.0231933594</ele>
        <time>2012-02-11T08:45:59Z</time>
      </trkpt>
      <trkpt lat="45.696" lon="5.98987">
        <ele>1172.9458007812</ele>
        <time>2012-02-11T08:46:04Z</time>
      </trkpt>
      <trkpt lat="45.69602" lon="5.9899">
        <ele>1175.8295898438</ele>
        <time>2012-02-11T08:46:10Z</time>
      </trkpt>
      <trkpt lat="45.69603" lon="5.98991">
        <ele>1176.791015625</ele>
        <time>2012-02-11T08:46:12Z</time>
      </trkpt>
      <trkpt lat="45.69609" lon="5.99005">
        <ele>1169.1005859375</ele>
        <time>2012-02-11T08:46:18Z</time>
      </trkpt>
      <trkpt lat="45.69612" lon="5.9901">
        <ele>1169.1005859375</ele>
        <time>2012-02-11T08:46:23Z</time>
      </trkpt>
      <trkpt lat="45.69613" lon="5.99011">
        <ele>1169.5812988281</ele>
        <time>2012-02-11T08:46:24Z</time>
      </trkpt>
      <trkpt lat="45.69617" lon="5.99013">
        <ele>1171.984375</ele>
        <time>2012-02-11T08:46:30Z</time>
      </trkpt>
      <trkpt lat="45.69619" lon="5.99016">
        <ele>1171.0231933594</ele>
        <time>2012-02-11T08:46:31Z</time>
      </trkpt>
      <trkpt lat="45.69623" lon="5.99017">
        <ele>1173.4265136719</ele>
        <time>2012-02-11T08:46:37Z</time>
      </trkpt>
      <trkpt lat="45.69624" lon="5.99017">
        <ele>1173.9069824219</ele>
        <time>2012-02-11T08:46:39Z</time>
      </trkpt>
      <trkpt lat="45.69627" lon="5.99022">
        <ele>1174.3876953125</ele>
        <time>2012-02-11T08:46:44Z</time>
      </trkpt>
      <trkpt lat="45.69629" lon="5.99021">
        <ele>1175.8295898438</ele>
        <time>2012-02-11T08:46:49Z</time>
      </trkpt>
      <trkpt lat="45.69633" lon="5.99024">
        <ele>1178.7136230469</ele>
        <time>2012-02-11T08:46:55Z</time>
      </trkpt>
      <trkpt lat="45.69638" lon="5.99029">
        <ele>1180.6364746094</ele>
        <time>2012-02-11T08:47:03Z</time>
      </trkpt>
      <trkpt lat="45.69641" lon="5.99032">
        <ele>1181.1171875</ele>
        <time>2012-02-11T08:47:09Z</time>
      </trkpt>
      <trkpt lat="45.69641" lon="5.99037">
        <ele>1179.6748046875</ele>
        <time>2012-02-11T08:47:16Z</time>
      </trkpt>
      <trkpt lat="45.69643" lon="5.99035">
        <ele>1178.7136230469</ele>
        <time>2012-02-11T08:47:22Z</time>
      </trkpt>
      <trkpt lat="45.69643" lon="5.99035">
        <ele>1181.1171875</ele>
        <time>2012-02-11T08:47:28Z</time>
      </trkpt>
      <trkpt lat="45.69644" lon="5.99033">
        <ele>1178.7136230469</ele>
        <time>2012-02-11T08:47:35Z</time>
      </trkpt>
      <trkpt lat="45.69646" lon="5.99035">
        <ele>1179.1940917969</ele>
        <time>2012-02-11T08:47:40Z</time>
      </trkpt>
      <trkpt lat="45.69648" lon="5.99037">
        <ele>1178.2329101562</ele>
        <time>2012-02-11T08:47:48Z</time>
      </trkpt>
      <trkpt lat="45.6965" lon="5.99038">
        <ele>1178.2329101562</ele>
        <time>2012-02-11T08:47:52Z</time>
      </trkpt>
      <trkpt lat="45.69653" lon="5.99039">
        <ele>1178.7136230469</ele>
        <time>2012-02-11T08:47:59Z</time>
      </trkpt>
      <trkpt lat="45.69655" lon="5.9904">
        <ele>1179.6748046875</ele>
        <time>2012-02-11T08:48:04Z</time>
      </trkpt>
      <trkpt lat="45.69659" lon="5.99041">
        <ele>1181.1171875</ele>
        <time>2012-02-11T08:48:09Z</time>
      </trkpt>
      <trkpt lat="45.69662" lon="5.99042">
        <ele>1183.0395507812</ele>
        <time>2012-02-11T08:48:14Z</time>
      </trkpt>
      <trkpt lat="45.69663" lon="5.99039">
        <ele>1183.5202636719</ele>
        <time>2012-02-11T08:48:22Z</time>
      </trkpt>
      <trkpt lat="45.69667" lon="5.99041">
        <ele>1184.0009765625</ele>
        <time>2012-02-11T08:48:29Z</time>
      </trkpt>
      <trkpt lat="45.69668" lon="5.99046">
        <ele>1182.5590820312</ele>
        <time>2012-02-11T08:48:35Z</time>
      </trkpt>
      <trkpt lat="45.69671" lon="5.99051">
        <ele>1179.6748046875</ele>
        <time>2012-02-11T08:48:39Z</time>
      </trkpt>
      <trkpt lat="45.69673" lon="5.99056">
        <ele>1182.0783691406</ele>
        <time>2012-02-11T08:48:46Z</time>
      </trkpt>
      <trkpt lat="45.69675" lon="5.99055">
        <ele>1183.5202636719</ele>
        <time>2012-02-11T08:48:57Z</time>
      </trkpt>
      <trkpt lat="45.6968" lon="5.99059">
        <ele>1184.9624023438</ele>
        <time>2012-02-11T08:49:04Z</time>
      </trkpt>
      <trkpt lat="45.69681" lon="5.99061">
        <ele>1184.9624023438</ele>
        <time>2012-02-11T08:49:10Z</time>
      </trkpt>
      <trkpt lat="45.69685" lon="5.99064">
        <ele>1185.4428710938</ele>
        <time>2012-02-11T08:49:17Z</time>
      </trkpt>
      <trkpt lat="45.69688" lon="5.99067">
        <ele>1185.4428710938</ele>
        <time>2012-02-11T08:49:23Z</time>
      </trkpt>
      <trkpt lat="45.69691" lon="5.99069">
        <ele>1185.4428710938</ele>
        <time>2012-02-11T08:49:27Z</time>
      </trkpt>
      <trkpt lat="45.69695" lon="5.99072">
        <ele>1186.404296875</ele>
        <time>2012-02-11T08:49:32Z</time>
      </trkpt>
      <trkpt lat="45.69697" lon="5.99075">
        <ele>1187.3654785156</ele>
        <time>2012-02-11T08:49:37Z</time>
      </trkpt>
      <trkpt lat="45.69699" lon="5.99076">
        <ele>1189.2880859375</ele>
        <time>2012-02-11T08:49:41Z</time>
      </trkpt>
      <trkpt lat="45.69702" lon="5.99081">
        <ele>1188.8076171875</ele>
        <time>2012-02-11T08:49:45Z</time>
      </trkpt>
      <trkpt lat="45.69707" lon="5.9908">
        <ele>1188.8076171875</ele>
        <time>2012-02-11T08:49:50Z</time>
      </trkpt>
      <trkpt lat="45.69712" lon="5.99082">
        <ele>1189.7687988281</ele>
        <time>2012-02-11T08:49:56Z</time>
      </trkpt>
      <trkpt lat="45.69717" lon="5.99087">
        <ele>1189.7687988281</ele>
        <time>2012-02-11T08:50:01Z</time>
      </trkpt>
      <trkpt lat="45.6972" lon="5.99089">
        <ele>1188.3269042969</ele>
        <time>2012-02-11T08:50:05Z</time>
      </trkpt>
      <trkpt lat="45.69722" lon="5.9909">
        <ele>1190.7299804688</ele>
        <time>2012-02-11T08:50:10Z</time>
      </trkpt>
      <trkpt lat="45.69723" lon="5.99092">
        <ele>1191.2106933594</ele>
        <time>2012-02-11T08:50:17Z</time>
      </trkpt>
      <trkpt lat="45.69726" lon="5.99093">
        <ele>1190.2495117188</ele>
        <time>2012-02-11T08:50:21Z</time>
      </trkpt>
      <trkpt lat="45.6973" lon="5.99094">
        <ele>1188.3269042969</ele>
        <time>2012-02-11T08:50:26Z</time>
      </trkpt>
      <trkpt lat="45.69735" lon="5.99093">
        <ele>1186.884765625</ele>
        <time>2012-02-11T08:50:31Z</time>
      </trkpt>
      <trkpt lat="45.69738" lon="5.99093">
        <ele>1185.9235839844</ele>
        <time>2012-02-11T08:50:36Z</time>
      </trkpt>
      <trkpt lat="45.69742" lon="5.99093">
        <ele>1186.884765625</ele>
        <time>2012-02-11T08:50:41Z</time>
      </trkpt>
      <trkpt lat="45.69747" lon="5.99092">
        <ele>1186.884765625</ele>
        <time>2012-02-11T08:50:46Z</time>
      </trkpt>
      <trkpt lat="45.69751" lon="5.99092">
        <ele>1186.884765625</ele>
        <time>2012-02-11T08:50:51Z</time>
      </trkpt>
      <trkpt lat="45.69752" lon="5.99094">
        <ele>1185.9235839844</ele>
        <time>2012-02-11T08:50:58Z</time>
      </trkpt>
      <trkpt lat="45.69754" lon="5.99094">
        <ele>1185.4428710938</ele>
        <time>2012-02-11T08:51:06Z</time>
      </trkpt>
      <trkpt lat="45.69754" lon="5.9909">
        <ele>1187.3654785156</ele>
        <time>2012-02-11T08:51:19Z</time>
      </trkpt>
      <trkpt lat="45.69753" lon="5.9909">
        <ele>1186.884765625</ele>
        <time>2012-02-11T08:51:24Z</time>
      </trkpt>
      <trkpt lat="45.69753" lon="5.9909">
        <ele>1186.404296875</ele>
        <time>2012-02-11T08:51:25Z</time>
      </trkpt>
      <trkpt lat="45.69755" lon="5.99092">
        <ele>1185.9235839844</ele>
        <time>2012-02-11T08:51:58Z</time>
      </trkpt>
      <trkpt lat="45.69756" lon="5.99091">
        <ele>1185.9235839844</ele>
        <time>2012-02-11T08:52:04Z</time>
      </trkpt>
      <trkpt lat="45.69756" lon="5.99091">
        <ele>1186.404296875</ele>
        <time>2012-02-11T08:52:12Z</time>
      </trkpt>
      <trkpt lat="45.69756" lon="5.9909">
        <ele>1186.884765625</ele>
        <time>2012-02-11T08:52:18Z</time>
      </trkpt>
      <trkpt lat="45.69761" lon="5.99091">
        <ele>1187.3654785156</ele>
        <time>2012-02-11T08:52:25Z</time>
      </trkpt>
      <trkpt lat="45.69763" lon="5.99091">
        <ele>1186.884765625</ele>
        <time>2012-02-11T08:52:29Z</time>
      </trkpt>
      <trkpt lat="45.69765" lon="5.99091">
        <ele>1189.2880859375</ele>
        <time>2012-02-11T08:52:36Z</time>
      </trkpt>
      <trkpt lat="45.69769" lon="5.99091">
        <ele>1191.2106933594</ele>
        <time>2012-02-11T08:52:45Z</time>
      </trkpt>
      <trkpt lat="45.69772" lon="5.9909">
        <ele>1188.8076171875</ele>
        <time>2012-02-11T08:52:52Z</time>
      </trkpt>
      <trkpt lat="45.69775" lon="5.99091">
        <ele>1187.8461914062</ele>
        <time>2012-02-11T08:52:57Z</time>
      </trkpt>
      <trkpt lat="45.69778" lon="5.9909">
        <ele>1188.8076171875</ele>
        <time>2012-02-11T08:53:02Z</time>
      </trkpt>
      <trkpt lat="45.6978" lon="5.9909">
        <ele>1188.8076171875</ele>
        <time>2012-02-11T08:53:06Z</time>
      </trkpt>
      <trkpt lat="45.69784" lon="5.99088">
        <ele>1188.3269042969</ele>
        <time>2012-02-11T08:53:11Z</time>
      </trkpt>
      <trkpt lat="45.69788" lon="5.99089">
        <ele>1188.3269042969</ele>
        <time>2012-02-11T08:53:17Z</time>
      </trkpt>
      <trkpt lat="45.69793" lon="5.99088">
        <ele>1188.3269042969</ele>
        <time>2012-02-11T08:53:23Z</time>
      </trkpt>
      <trkpt lat="45.69796" lon="5.99088">
        <ele>1188.3269042969</ele>
        <time>2012-02-11T08:53:29Z</time>
      </trkpt>
      <trkpt lat="45.69801" lon="5.99091">
        <ele>1188.8076171875</ele>
        <time>2012-02-11T08:53:36Z</time>
      </trkpt>
      <trkpt lat="45.69805" lon="5.99093">
        <ele>1189.7687988281</ele>
        <time>2012-02-11T08:53:41Z</time>
      </trkpt>
      <trkpt lat="45.69809" lon="5.99095">
        <ele>1190.2495117188</ele>
        <time>2012-02-11T08:53:47Z</time>
      </trkpt>
      <trkpt lat="45.69814" lon="5.99098">
        <ele>1190.7299804688</ele>
        <time>2012-02-11T08:53:54Z</time>
      </trkpt>
      <trkpt lat="45.69817" lon="5.99101">
        <ele>1191.69140625</ele>
        <time>2012-02-11T08:54:00Z</time>
      </trkpt>
      <trkpt lat="45.6982" lon="5.99103">
        <ele>1192.1721191406</ele>
        <time>2012-02-11T08:54:05Z</time>
      </trkpt>
      <trkpt lat="45.69823" lon="5.99107">
        <ele>1191.69140625</ele>
        <time>2012-02-11T08:54:11Z</time>
      </trkpt>
      <trkpt lat="45.69829" lon="5.99112">
        <ele>1191.2106933594</ele>
        <time>2012-02-11T08:54:19Z</time>
      </trkpt>
      <trkpt lat="45.69832" lon="5.99117">
        <ele>1191.2106933594</ele>
        <time>2012-02-11T08:54:25Z</time>
      </trkpt>
      <trkpt lat="45.69836" lon="5.99122">
        <ele>1190.7299804688</ele>
        <time>2012-02-11T08:54:32Z</time>
      </trkpt>
      <trkpt lat="45.69839" lon="5.99129">
        <ele>1191.2106933594</ele>
        <time>2012-02-11T08:54:38Z</time>
      </trkpt>
      <trkpt lat="45.69842" lon="5.99133">
        <ele>1191.69140625</ele>
        <time>2012-02-11T08:54:44Z</time>
      </trkpt>
      <trkpt lat="45.69844" lon="5.9914">
        <ele>1193.1333007812</ele>
        <time>2012-02-11T08:54:50Z</time>
      </trkpt>
      <trkpt lat="45.69846" lon="5.99145">
        <ele>1194.0947265625</ele>
        <time>2012-02-11T08:54:55Z</time>
      </trkpt>
      <trkpt lat="45.69846" lon="5.99151">
        <ele>1193.6140136719</ele>
        <time>2012-02-11T08:55:02Z</time>
      </trkpt>
      <trkpt lat="45.69848" lon="5.99153">
        <ele>1197.4594726562</ele>
        <time>2012-02-11T08:55:13Z</time>
      </trkpt>
      <trkpt lat="45.69852" lon="5.99155">
        <ele>1199.8627929688</ele>
        <time>2012-02-11T08:55:20Z</time>
      </trkpt>
      <trkpt lat="45.69852" lon="5.99157">
        <ele>1197.9401855469</ele>
        <time>2012-02-11T08:55:27Z</time>
      </trkpt>
      <trkpt lat="45.69852" lon="5.99161">
        <ele>1196.9787597656</ele>
        <time>2012-02-11T08:55:31Z</time>
      </trkpt>
      <trkpt lat="45.69852" lon="5.99165">
        <ele>1196.017578125</ele>
        <time>2012-02-11T08:55:35Z</time>
      </trkpt>
      <trkpt lat="45.69852" lon="5.99171">
        <ele>1195.5366210938</ele>
        <time>2012-02-11T08:55:41Z</time>
      </trkpt>
      <trkpt lat="45.69851" lon="5.99178">
        <ele>1195.5366210938</ele>
        <time>2012-02-11T08:55:46Z</time>
      </trkpt>
      <trkpt lat="45.69852" lon="5.99185">
        <ele>1196.017578125</ele>
        <time>2012-02-11T08:55:54Z</time>
      </trkpt>
      <trkpt lat="45.69852" lon="5.99191">
        <ele>1196.4982910156</ele>
        <time>2012-02-11T08:55:59Z</time>
      </trkpt>
      <trkpt lat="45.69852" lon="5.99195">
        <ele>1195.5366210938</ele>
        <time>2012-02-11T08:56:05Z</time>
      </trkpt>
      <trkpt lat="45.6985" lon="5.992">
        <ele>1194.0947265625</ele>
        <time>2012-02-11T08:56:09Z</time>
      </trkpt>
      <trkpt lat="45.69847" lon="5.99204">
        <ele>1192.1721191406</ele>
        <time>2012-02-11T08:56:14Z</time>
      </trkpt>
      <trkpt lat="45.69848" lon="5.99206">
        <ele>1195.0559082031</ele>
        <time>2012-02-11T08:56:21Z</time>
      </trkpt>
      <trkpt lat="45.69847" lon="5.9921">
        <ele>1194.0947265625</ele>
        <time>2012-02-11T08:56:26Z</time>
      </trkpt>
      <trkpt lat="45.69847" lon="5.99213">
        <ele>1192.1721191406</ele>
        <time>2012-02-11T08:56:31Z</time>
      </trkpt>
      <trkpt lat="45.69847" lon="5.99217">
        <ele>1197.4594726562</ele>
        <time>2012-02-11T08:56:38Z</time>
      </trkpt>
      <trkpt lat="45.69846" lon="5.9922">
        <ele>1198.9013671875</ele>
        <time>2012-02-11T08:56:43Z</time>
      </trkpt>
      <trkpt lat="45.69843" lon="5.99225">
        <ele>1198.4206542969</ele>
        <time>2012-02-11T08:56:49Z</time>
      </trkpt>
      <trkpt lat="45.69843" lon="5.99228">
        <ele>1198.9013671875</ele>
        <time>2012-02-11T08:56:54Z</time>
      </trkpt>
      <trkpt lat="45.69841" lon="5.99232">
        <ele>1199.3820800781</ele>
        <time>2012-02-11T08:56:59Z</time>
      </trkpt>
      <trkpt lat="45.69841" lon="5.99235">
        <ele>1202.7465820312</ele>
        <time>2012-02-11T08:57:07Z</time>
      </trkpt>
      <trkpt lat="45.69841" lon="5.99236">
        <ele>1198.9013671875</ele>
        <time>2012-02-11T08:57:18Z</time>
      </trkpt>
      <trkpt lat="45.69842" lon="5.99237">
        <ele>1197.9401855469</ele>
        <time>2012-02-11T08:57:21Z</time>
      </trkpt>
      <trkpt lat="45.69839" lon="5.9924">
        <ele>1194.0947265625</ele>
        <time>2012-02-11T08:57:31Z</time>
      </trkpt>
      <trkpt lat="45.69838" lon="5.99241">
        <ele>1193.6140136719</ele>
        <time>2012-02-11T08:57:35Z</time>
      </trkpt>
      <trkpt lat="45.69839" lon="5.99242">
        <ele>1199.8627929688</ele>
        <time>2012-02-11T08:57:47Z</time>
      </trkpt>
      <trkpt lat="45.69841" lon="5.99242">
        <ele>1201.3046875</ele>
        <time>2012-02-11T08:57:57Z</time>
      </trkpt>
      <trkpt lat="45.69841" lon="5.99242">
        <ele>1201.3046875</ele>
        <time>2012-02-11T08:58:03Z</time>
      </trkpt>
      <trkpt lat="45.69839" lon="5.99236">
        <ele>1198.9013671875</ele>
        <time>2012-02-11T08:58:40Z</time>
      </trkpt>
      <trkpt lat="45.69838" lon="5.99238">
        <ele>1202.7465820312</ele>
        <time>2012-02-11T08:58:50Z</time>
      </trkpt>
      <trkpt lat="45.69837" lon="5.99239">
        <ele>1207.5532226562</ele>
        <time>2012-02-11T08:59:03Z</time>
      </trkpt>
      <trkpt lat="45.6984" lon="5.99241">
        <ele>1208.5144042969</ele>
        <time>2012-02-11T08:59:21Z</time>
      </trkpt>
      <trkpt lat="45.69841" lon="5.99241">
        <ele>1208.0339355469</ele>
        <time>2012-02-11T08:59:28Z</time>
      </trkpt>
      <trkpt lat="45.69841" lon="5.99239">
        <ele>1204.1887207031</ele>
        <time>2012-02-11T08:59:34Z</time>
      </trkpt>
      <trkpt lat="45.6984" lon="5.99237">
        <ele>1202.7465820312</ele>
        <time>2012-02-11T08:59:45Z</time>
      </trkpt>
      <trkpt lat="45.69839" lon="5.99238">
        <ele>1203.2272949219</ele>
        <time>2012-02-11T08:59:48Z</time>
      </trkpt>
      <trkpt lat="45.69834" lon="5.9924">
        <ele>1203.7080078125</ele>
        <time>2012-02-11T08:59:55Z</time>
      </trkpt>
      <trkpt lat="45.69832" lon="5.99246">
        <ele>1203.7080078125</ele>
        <time>2012-02-11T09:00:01Z</time>
      </trkpt>
      <trkpt lat="45.69834" lon="5.99249">
        <ele>1206.591796875</ele>
        <time>2012-02-11T09:00:06Z</time>
      </trkpt>
      <trkpt lat="45.69834" lon="5.99249">
        <ele>1206.1110839844</ele>
        <time>2012-02-11T09:00:10Z</time>
      </trkpt>
      <trkpt lat="45.69831" lon="5.99255">
        <ele>1208.9951171875</ele>
        <time>2012-02-11T09:00:20Z</time>
      </trkpt>
      <trkpt lat="45.6983" lon="5.99256">
        <ele>1206.1110839844</ele>
        <time>2012-02-11T09:00:29Z</time>
      </trkpt>
      <trkpt lat="45.69829" lon="5.99258">
        <ele>1206.591796875</ele>
        <time>2012-02-11T09:00:35Z</time>
      </trkpt>
      <trkpt lat="45.69827" lon="5.99261">
        <ele>1206.1110839844</ele>
        <time>2012-02-11T09:00:41Z</time>
      </trkpt>
      <trkpt lat="45.69825" lon="5.99265">
        <ele>1206.591796875</ele>
        <time>2012-02-11T09:00:47Z</time>
      </trkpt>
      <trkpt lat="45.69823" lon="5.99267">
        <ele>1206.591796875</ele>
        <time>2012-02-11T09:00:52Z</time>
      </trkpt>
      <trkpt lat="45.6982" lon="5.9927">
        <ele>1208.0339355469</ele>
        <time>2012-02-11T09:00:59Z</time>
      </trkpt>
      <trkpt lat="45.69817" lon="5.99271">
        <ele>1210.9177246094</ele>
        <time>2012-02-11T09:01:05Z</time>
      </trkpt>
      <trkpt lat="45.69812" lon="5.99274">
        <ele>1213.3212890625</ele>
        <time>2012-02-11T09:01:10Z</time>
      </trkpt>
      <trkpt lat="45.69809" lon="5.99275">
        <ele>1215.724609375</ele>
        <time>2012-02-11T09:01:16Z</time>
      </trkpt>
      <trkpt lat="45.69812" lon="5.99277">
        <ele>1218.1276855469</ele>
        <time>2012-02-11T09:01:23Z</time>
      </trkpt>
      <trkpt lat="45.69815" lon="5.99281">
        <ele>1217.6469726562</ele>
        <time>2012-02-11T09:01:27Z</time>
      </trkpt>
      <trkpt lat="45.69822" lon="5.99283">
        <ele>1210.4370117188</ele>
        <time>2012-02-11T09:01:31Z</time>
      </trkpt>
      <trkpt lat="45.69822" lon="5.99281">
        <ele>1213.8017578125</ele>
        <time>2012-02-11T09:01:36Z</time>
      </trkpt>
      <trkpt lat="45.69826" lon="5.99279">
        <ele>1218.6083984375</ele>
        <time>2012-02-11T09:01:41Z</time>
      </trkpt>
      <trkpt lat="45.69833" lon="5.99287">
        <ele>1217.1665039062</ele>
        <time>2012-02-11T09:01:48Z</time>
      </trkpt>
      <trkpt lat="45.69846" lon="5.99306">
        <ele>1216.6857910156</ele>
        <time>2012-02-11T09:02:01Z</time>
      </trkpt>
      <trkpt lat="45.6963" lon="5.99173">
        <ele>1325.3146972656</ele>
        <time>2012-02-11T09:05:59Z</time>
      </trkpt>
      <trkpt lat="45.69635" lon="5.9918">
        <ele>1312.3369140625</ele>
        <time>2012-02-11T09:06:00Z</time>
      </trkpt>
      <trkpt lat="45.69645" lon="5.99188">
        <ele>1309.453125</ele>
        <time>2012-02-11T09:06:04Z</time>
      </trkpt>
      <trkpt lat="45.69668" lon="5.992">
        <ele>1263.7902832031</ele>
        <time>2012-02-11T09:06:08Z</time>
      </trkpt>
      <trkpt lat="45.69674" lon="5.99192">
        <ele>1261.8679199219</ele>
        <time>2012-02-11T09:06:11Z</time>
      </trkpt>
      <trkpt lat="45.69678" lon="5.99192">
        <ele>1256.5803222656</ele>
        <time>2012-02-11T09:06:14Z</time>
      </trkpt>
      <trkpt lat="45.69675" lon="5.9919">
        <ele>1253.6965332031</ele>
        <time>2012-02-11T09:06:20Z</time>
      </trkpt>
      <trkpt lat="45.69673" lon="5.99196">
        <ele>1239.7573242188</ele>
        <time>2012-02-11T09:06:24Z</time>
      </trkpt>
      <trkpt lat="45.6968" lon="5.99188">
        <ele>1223.8955078125</ele>
        <time>2012-02-11T09:06:33Z</time>
      </trkpt>
      <trkpt lat="45.69696" lon="5.99187">
        <ele>1234.9509277344</ele>
        <time>2012-02-11T09:06:38Z</time>
      </trkpt>
      <trkpt lat="45.69697" lon="5.99202">
        <ele>1226.7795410156</ele>
        <time>2012-02-11T09:06:43Z</time>
      </trkpt>
      <trkpt lat="45.69698" lon="5.99218">
        <ele>1226.298828125</ele>
        <time>2012-02-11T09:06:49Z</time>
      </trkpt>
      <trkpt lat="45.69702" lon="5.99208">
        <ele>1245.0446777344</ele>
        <time>2012-02-11T09:06:56Z</time>
      </trkpt>
      <trkpt lat="45.69703" lon="5.99205">
        <ele>1248.8898925781</ele>
        <time>2012-02-11T09:07:00Z</time>
      </trkpt>
      <trkpt lat="45.697" lon="5.99199">
        <ele>1263.3098144531</ele>
        <time>2012-02-11T09:07:07Z</time>
      </trkpt>
      <trkpt lat="45.69706" lon="5.992">
        <ele>1262.3483886719</ele>
        <time>2012-02-11T09:07:15Z</time>
      </trkpt>
      <trkpt lat="45.69702" lon="5.99208">
        <ele>1253.6965332031</ele>
        <time>2012-02-11T09:07:22Z</time>
      </trkpt>
      <trkpt lat="45.697" lon="5.99209">
        <ele>1247.4479980469</ele>
        <time>2012-02-11T09:07:27Z</time>
      </trkpt>
      <trkpt lat="45.69701" lon="5.99211">
        <ele>1248.8898925781</ele>
        <time>2012-02-11T09:07:40Z</time>
      </trkpt>
      <trkpt lat="45.69701" lon="5.99212">
        <ele>1248.8898925781</ele>
        <time>2012-02-11T09:07:44Z</time>
      </trkpt>
      <trkpt lat="45.697" lon="5.99212">
        <ele>1248.4091796875</ele>
        <time>2012-02-11T09:07:49Z</time>
      </trkpt>
      <trkpt lat="45.69699" lon="5.9921">
        <ele>1248.4091796875</ele>
        <time>2012-02-11T09:07:53Z</time>
      </trkpt>
      <trkpt lat="45.69697" lon="5.9921">
        <ele>1246.4868164062</ele>
        <time>2012-02-11T09:07:57Z</time>
      </trkpt>
      <trkpt lat="45.69697" lon="5.99215">
        <ele>1244.5639648438</ele>
        <time>2012-02-11T09:08:06Z</time>
      </trkpt>
      <trkpt lat="45.69697" lon="5.99215">
        <ele>1245.0446777344</ele>
        <time>2012-02-11T09:08:11Z</time>
      </trkpt>
      <trkpt lat="45.69694" lon="5.99214">
        <ele>1244.5639648438</ele>
        <time>2012-02-11T09:08:21Z</time>
      </trkpt>
      <trkpt lat="45.69691" lon="5.99214">
        <ele>1244.5639648438</ele>
        <time>2012-02-11T09:08:26Z</time>
      </trkpt>
      <trkpt lat="45.69689" lon="5.99213">
        <ele>1244.0834960938</ele>
        <time>2012-02-11T09:08:31Z</time>
      </trkpt>
      <trkpt lat="45.69687" lon="5.99212">
        <ele>1244.0834960938</ele>
        <time>2012-02-11T09:08:36Z</time>
      </trkpt>
      <trkpt lat="45.69683" lon="5.99213">
        <ele>1244.0834960938</ele>
        <time>2012-02-11T09:08:40Z</time>
      </trkpt>
      <trkpt lat="45.69681" lon="5.99212">
        <ele>1244.5639648438</ele>
        <time>2012-02-11T09:08:44Z</time>
      </trkpt>
      <trkpt lat="45.69678" lon="5.99212">
        <ele>1244.5639648438</ele>
        <time>2012-02-11T09:08:49Z</time>
      </trkpt>
      <trkpt lat="45.69675" lon="5.9921">
        <ele>1245.525390625</ele>
        <time>2012-02-11T09:08:53Z</time>
      </trkpt>
      <trkpt lat="45.69671" lon="5.99211">
        <ele>1245.0446777344</ele>
        <time>2012-02-11T09:08:58Z</time>
      </trkpt>
      <trkpt lat="45.69669" lon="5.99212">
        <ele>1245.0446777344</ele>
        <time>2012-02-11T09:09:02Z</time>
      </trkpt>
      <trkpt lat="45.69669" lon="5.99212">
        <ele>1247.9287109375</ele>
        <time>2012-02-11T09:09:11Z</time>
      </trkpt>
      <trkpt lat="45.69667" lon="5.99213">
        <ele>1248.8898925781</ele>
        <time>2012-02-11T09:09:18Z</time>
      </trkpt>
      <trkpt lat="45.69664" lon="5.99214">
        <ele>1248.4091796875</ele>
        <time>2012-02-11T09:09:22Z</time>
      </trkpt>
      <trkpt lat="45.69661" lon="5.99214">
        <ele>1248.4091796875</ele>
        <time>2012-02-11T09:09:26Z</time>
      </trkpt>
      <trkpt lat="45.69658" lon="5.99215">
        <ele>1249.3706054688</ele>
        <time>2012-02-11T09:09:32Z</time>
      </trkpt>
      <trkpt lat="45.69657" lon="5.99215">
        <ele>1252.2543945312</ele>
        <time>2012-02-11T09:09:36Z</time>
      </trkpt>
      <trkpt lat="45.69653" lon="5.99217">
        <ele>1253.2158203125</ele>
        <time>2012-02-11T09:09:40Z</time>
      </trkpt>
      <trkpt lat="45.69649" lon="5.99217">
        <ele>1251.7739257812</ele>
        <time>2012-02-11T09:09:45Z</time>
      </trkpt>
      <trkpt lat="45.69645" lon="5.9922">
        <ele>1252.7351074219</ele>
        <time>2012-02-11T09:09:49Z</time>
      </trkpt>
      <trkpt lat="45.69643" lon="5.9922">
        <ele>1252.2543945312</ele>
        <time>2012-02-11T09:09:53Z</time>
      </trkpt>
      <trkpt lat="45.6964" lon="5.99221">
        <ele>1253.2158203125</ele>
        <time>2012-02-11T09:09:57Z</time>
      </trkpt>
      <trkpt lat="45.69635" lon="5.99218">
        <ele>1254.1772460938</ele>
        <time>2012-02-11T09:10:02Z</time>
      </trkpt>
      <trkpt lat="45.69633" lon="5.99219">
        <ele>1254.6577148438</ele>
        <time>2012-02-11T09:10:06Z</time>
      </trkpt>
      <trkpt lat="45.6963" lon="5.99219">
        <ele>1256.099609375</ele>
        <time>2012-02-11T09:10:10Z</time>
      </trkpt>
      <trkpt lat="45.69625" lon="5.9922">
        <ele>1257.0610351562</ele>
        <time>2012-02-11T09:10:15Z</time>
      </trkpt>
      <trkpt lat="45.69623" lon="5.99222">
        <ele>1256.5803222656</ele>
        <time>2012-02-11T09:10:18Z</time>
      </trkpt>
      <trkpt lat="45.6962" lon="5.99224">
        <ele>1255.1384277344</ele>
        <time>2012-02-11T09:10:22Z</time>
      </trkpt>
      <trkpt lat="45.69617" lon="5.99227">
        <ele>1255.1384277344</ele>
        <time>2012-02-11T09:10:26Z</time>
      </trkpt>
      <trkpt lat="45.69616" lon="5.99229">
        <ele>1254.6577148438</ele>
        <time>2012-02-11T09:10:31Z</time>
      </trkpt>
      <trkpt lat="45.69617" lon="5.99229">
        <ele>1254.1772460938</ele>
        <time>2012-02-11T09:10:37Z</time>
      </trkpt>
      <trkpt lat="45.69618" lon="5.9923">
        <ele>1254.1772460938</ele>
        <time>2012-02-11T09:10:42Z</time>
      </trkpt>
      <trkpt lat="45.69618" lon="5.9923">
        <ele>1254.6577148438</ele>
        <time>2012-02-11T09:10:53Z</time>
      </trkpt>
      <trkpt lat="45.69619" lon="5.99231">
        <ele>1253.6965332031</ele>
        <time>2012-02-11T09:11:01Z</time>
      </trkpt>
      <trkpt lat="45.69619" lon="5.99231">
        <ele>1251.7739257812</ele>
        <time>2012-02-11T09:11:10Z</time>
      </trkpt>
      <trkpt lat="45.69619" lon="5.99233">
        <ele>1247.9287109375</ele>
        <time>2012-02-11T09:11:22Z</time>
      </trkpt>
      <trkpt lat="45.69619" lon="5.99234">
        <ele>1247.9287109375</ele>
        <time>2012-02-11T09:11:25Z</time>
      </trkpt>
      <trkpt lat="45.69621" lon="5.99233">
        <ele>1252.7351074219</ele>
        <time>2012-02-11T09:11:34Z</time>
      </trkpt>
      <trkpt lat="45.69621" lon="5.99232">
        <ele>1256.5803222656</ele>
        <time>2012-02-11T09:11:41Z</time>
      </trkpt>
      <trkpt lat="45.69621" lon="5.99231">
        <ele>1256.5803222656</ele>
        <time>2012-02-11T09:11:45Z</time>
      </trkpt>
      <trkpt lat="45.69622" lon="5.99231">
        <ele>1256.5803222656</ele>
        <time>2012-02-11T09:11:47Z</time>
      </trkpt>
      <trkpt lat="45.69622" lon="5.99232">
        <ele>1262.8291015625</ele>
        <time>2012-02-11T09:11:55Z</time>
      </trkpt>
      <trkpt lat="45.69621" lon="5.99231">
        <ele>1266.6743164062</ele>
        <time>2012-02-11T09:12:04Z</time>
      </trkpt>
      <trkpt lat="45.69621" lon="5.99238">
        <ele>1261.3872070312</ele>
        <time>2012-02-11T09:12:17Z</time>
      </trkpt>
      <trkpt lat="45.69623" lon="5.99239">
        <ele>1257.5417480469</ele>
        <time>2012-02-11T09:12:28Z</time>
      </trkpt>
      <trkpt lat="45.69622" lon="5.99235">
        <ele>1258.0224609375</ele>
        <time>2012-02-11T09:12:51Z</time>
      </trkpt>
      <trkpt lat="45.6962" lon="5.99229">
        <ele>1257.5417480469</ele>
        <time>2012-02-11T09:13:10Z</time>
      </trkpt>
      <trkpt lat="45.6962" lon="5.9923">
        <ele>1256.099609375</ele>
        <time>2012-02-11T09:13:28Z</time>
      </trkpt>
      <trkpt lat="45.69616" lon="5.99227">
        <ele>1264.7517089844</ele>
        <time>2012-02-11T09:14:01Z</time>
      </trkpt>
      <trkpt lat="45.69617" lon="5.99226">
        <ele>1263.3098144531</ele>
        <time>2012-02-11T09:14:17Z</time>
      </trkpt>
      <trkpt lat="45.69618" lon="5.99226">
        <ele>1261.8679199219</ele>
        <time>2012-02-11T09:14:26Z</time>
      </trkpt>
      <trkpt lat="45.69619" lon="5.99226">
        <ele>1258.9836425781</ele>
        <time>2012-02-11T09:14:34Z</time>
      </trkpt>
      <trkpt lat="45.69619" lon="5.99226">
        <ele>1258.9836425781</ele>
        <time>2012-02-11T09:14:48Z</time>
      </trkpt>
      <trkpt lat="45.69619" lon="5.99226">
        <ele>1257.5417480469</ele>
        <time>2012-02-11T09:14:52Z</time>
      </trkpt>
      <trkpt lat="45.69619" lon="5.99226">
        <ele>1258.0224609375</ele>
        <time>2012-02-11T09:15:05Z</time>
      </trkpt>
      <trkpt lat="45.69617" lon="5.99228">
        <ele>1258.9836425781</ele>
        <time>2012-02-11T09:15:22Z</time>
      </trkpt>
      <trkpt lat="45.69617" lon="5.99228">
        <ele>1261.3872070312</ele>
        <time>2012-02-11T09:15:30Z</time>
      </trkpt>
      <trkpt lat="45.69617" lon="5.99228">
        <ele>1261.8679199219</ele>
        <time>2012-02-11T09:15:42Z</time>
      </trkpt>
      <trkpt lat="45.69621" lon="5.99224">
        <ele>1257.0610351562</ele>
        <time>2012-02-11T09:16:05Z</time>
      </trkpt>
      <trkpt lat="45.6962" lon="5.99227">
        <ele>1251.7739257812</ele>
        <time>2012-02-11T09:16:25Z</time>
      </trkpt>
      <trkpt lat="45.69622" lon="5.9923">
        <ele>1248.8898925781</ele>
        <time>2012-02-11T09:16:46Z</time>
      </trkpt>
      <trkpt lat="45.69617" lon="5.99227">
        <ele>1262.3483886719</ele>
        <time>2012-02-11T09:17:09Z</time>
      </trkpt>
      <trkpt lat="45.69617" lon="5.99227">
        <ele>1264.7517089844</ele>
        <time>2012-02-11T09:17:19Z</time>
      </trkpt>
      <trkpt lat="45.69617" lon="5.99226">
        <ele>1262.8291015625</ele>
        <time>2012-02-11T09:17:24Z</time>
      </trkpt>
      <trkpt lat="45.69617" lon="5.99226">
        <ele>1263.3098144531</ele>
        <time>2012-02-11T09:17:45Z</time>
      </trkpt>
      <trkpt lat="45.69617" lon="5.99228">
        <ele>1265.7131347656</ele>
        <time>2012-02-11T09:17:52Z</time>
      </trkpt>
      <trkpt lat="45.69616" lon="5.99231">
        <ele>1271.9614257812</ele>
        <time>2012-02-11T09:18:01Z</time>
      </trkpt>
      <trkpt lat="45.69616" lon="5.99229">
        <ele>1272.9228515625</ele>
        <time>2012-02-11T09:18:11Z</time>
      </trkpt>
      <trkpt lat="45.69615" lon="5.9923">
        <ele>1270.0388183594</ele>
        <time>2012-02-11T09:18:21Z</time>
      </trkpt>
      <trkpt lat="45.69615" lon="5.99232">
        <ele>1267.1550292969</ele>
        <time>2012-02-11T09:18:38Z</time>
      </trkpt>
      <trkpt lat="45.69617" lon="5.9923">
        <ele>1269.5583496094</ele>
        <time>2012-02-11T09:18:56Z</time>
      </trkpt>
      <trkpt lat="45.69617" lon="5.99233">
        <ele>1273.8840332031</ele>
        <time>2012-02-11T09:19:04Z</time>
      </trkpt>
      <trkpt lat="45.69617" lon="5.99232">
        <ele>1272.9228515625</ele>
        <time>2012-02-11T09:19:15Z</time>
      </trkpt>
      <trkpt lat="45.6962" lon="5.99236">
        <ele>1269.5583496094</ele>
        <time>2012-02-11T09:19:27Z</time>
      </trkpt>
      <trkpt lat="45.69615" lon="5.99229">
        <ele>1277.7294921875</ele>
        <time>2012-02-11T09:19:35Z</time>
      </trkpt>
      <trkpt lat="45.69613" lon="5.99225">
        <ele>1279.1713867188</ele>
        <time>2012-02-11T09:19:45Z</time>
      </trkpt>
      <trkpt lat="45.69612" lon="5.99223">
        <ele>1274.8454589844</ele>
        <time>2012-02-11T09:19:54Z</time>
      </trkpt>
      <trkpt lat="45.69616" lon="5.99231">
        <ele>1267.1550292969</ele>
        <time>2012-02-11T09:20:12Z</time>
      </trkpt>
      <trkpt lat="45.69616" lon="5.99231">
        <ele>1262.8291015625</ele>
        <time>2012-02-11T09:20:23Z</time>
      </trkpt>
      <trkpt lat="45.69616" lon="5.99232">
        <ele>1261.8679199219</ele>
        <time>2012-02-11T09:20:55Z</time>
      </trkpt>
      <trkpt lat="45.69616" lon="5.99233">
        <ele>1263.7902832031</ele>
        <time>2012-02-11T09:21:14Z</time>
      </trkpt>
      <trkpt lat="45.69616" lon="5.99235">
        <ele>1267.6354980469</ele>
        <time>2012-02-11T09:21:21Z</time>
      </trkpt>
      <trkpt lat="45.69616" lon="5.99235">
        <ele>1268.5969238281</ele>
        <time>2012-02-11T09:21:28Z</time>
      </trkpt>
      <trkpt lat="45.69614" lon="5.99235">
        <ele>1273.4035644531</ele>
        <time>2012-02-11T09:21:35Z</time>
      </trkpt>
      <trkpt lat="45.69614" lon="5.99235">
        <ele>1274.3647460938</ele>
        <time>2012-02-11T09:21:58Z</time>
      </trkpt>
      <trkpt lat="45.69619" lon="5.99235">
        <ele>1263.7902832031</ele>
        <time>2012-02-11T09:22:20Z</time>
      </trkpt>
      <trkpt lat="45.69616" lon="5.99232">
        <ele>1266.6743164062</ele>
        <time>2012-02-11T09:22:55Z</time>
      </trkpt>
      <trkpt lat="45.69617" lon="5.99232">
        <ele>1265.7131347656</ele>
        <time>2012-02-11T09:23:00Z</time>
      </trkpt>
      <trkpt lat="45.69617" lon="5.99231">
        <ele>1263.7902832031</ele>
        <time>2012-02-11T09:23:08Z</time>
      </trkpt>
      <trkpt lat="45.69618" lon="5.9923">
        <ele>1262.3483886719</ele>
        <time>2012-02-11T09:23:17Z</time>
      </trkpt>
      <trkpt lat="45.69619" lon="5.99229">
        <ele>1261.8679199219</ele>
        <time>2012-02-11T09:23:21Z</time>
      </trkpt>
      <trkpt lat="45.69621" lon="5.99231">
        <ele>1256.5803222656</ele>
        <time>2012-02-11T09:23:52Z</time>
      </trkpt>
      <trkpt lat="45.6962" lon="5.99232">
        <ele>1255.619140625</ele>
        <time>2012-02-11T09:23:55Z</time>
      </trkpt>
      <trkpt lat="45.6962" lon="5.99232">
        <ele>1254.6577148438</ele>
        <time>2012-02-11T09:23:57Z</time>
      </trkpt>
      <trkpt lat="45.6962" lon="5.99237">
        <ele>1247.9287109375</ele>
        <time>2012-02-11T09:24:26Z</time>
      </trkpt>
      <trkpt lat="45.6962" lon="5.99237">
        <ele>1246.9672851562</ele>
        <time>2012-02-11T09:24:43Z</time>
      </trkpt>
      <trkpt lat="45.69619" lon="5.99238">
        <ele>1246.9672851562</ele>
        <time>2012-02-11T09:25:14Z</time>
      </trkpt>
      <trkpt lat="45.69618" lon="5.99238">
        <ele>1247.4479980469</ele>
        <time>2012-02-11T09:25:19Z</time>
      </trkpt>
      <trkpt lat="45.69618" lon="5.99237">
        <ele>1247.9287109375</ele>
        <time>2012-02-11T09:25:26Z</time>
      </trkpt>
      <trkpt lat="45.69618" lon="5.99237">
        <ele>1248.4091796875</ele>
        <time>2012-02-11T09:25:37Z</time>
      </trkpt>
      <trkpt lat="45.69617" lon="5.99237">
        <ele>1248.4091796875</ele>
        <time>2012-02-11T09:25:42Z</time>
      </trkpt>
      <trkpt lat="45.69617" lon="5.99236">
        <ele>1248.8898925781</ele>
        <time>2012-02-11T09:25:48Z</time>
      </trkpt>
      <trkpt lat="45.69617" lon="5.99235">
        <ele>1249.3706054688</ele>
        <time>2012-02-11T09:25:53Z</time>
      </trkpt>
      <trkpt lat="45.69616" lon="5.99235">
        <ele>1248.4091796875</ele>
        <time>2012-02-11T09:26:14Z</time>
      </trkpt>
      <trkpt lat="45.69615" lon="5.99234">
        <ele>1248.8898925781</ele>
        <time>2012-02-11T09:26:20Z</time>
      </trkpt>
      <trkpt lat="45.69614" lon="5.99234">
        <ele>1250.33203125</ele>
        <time>2012-02-11T09:26:29Z</time>
      </trkpt>
      <trkpt lat="45.69613" lon="5.99234">
        <ele>1250.8125</ele>
        <time>2012-02-11T09:26:35Z</time>
      </trkpt>
      <trkpt lat="45.69611" lon="5.99234">
        <ele>1251.7739257812</ele>
        <time>2012-02-11T09:26:37Z</time>
      </trkpt>
      <trkpt lat="45.69609" lon="5.99234">
        <ele>1251.7739257812</ele>
        <time>2012-02-11T09:26:40Z</time>
      </trkpt>
      <trkpt lat="45.69604" lon="5.99235">
        <ele>1253.6965332031</ele>
        <time>2012-02-11T09:26:45Z</time>
      </trkpt>
      <trkpt lat="45.69603" lon="5.99235">
        <ele>1254.6577148438</ele>
        <time>2012-02-11T09:26:48Z</time>
      </trkpt>
      <trkpt lat="45.69601" lon="5.99235">
        <ele>1254.6577148438</ele>
        <time>2012-02-11T09:26:50Z</time>
      </trkpt>
      <trkpt lat="45.696" lon="5.99235">
        <ele>1254.6577148438</ele>
        <time>2012-02-11T09:26:51Z</time>
      </trkpt>
      <trkpt lat="45.69597" lon="5.99236">
        <ele>1254.1772460938</ele>
        <time>2012-02-11T09:26:55Z</time>
      </trkpt>
      <trkpt lat="45.69595" lon="5.99237">
        <ele>1254.1772460938</ele>
        <time>2012-02-11T09:26:59Z</time>
      </trkpt>
      <trkpt lat="45.69592" lon="5.99238">
        <ele>1253.2158203125</ele>
        <time>2012-02-11T09:27:05Z</time>
      </trkpt>
      <trkpt lat="45.6959" lon="5.99239">
        <ele>1253.6965332031</ele>
        <time>2012-02-11T09:27:09Z</time>
      </trkpt>
      <trkpt lat="45.69587" lon="5.99239">
        <ele>1254.6577148438</ele>
        <time>2012-02-11T09:27:13Z</time>
      </trkpt>
      <trkpt lat="45.69584" lon="5.9924">
        <ele>1255.1384277344</ele>
        <time>2012-02-11T09:27:17Z</time>
      </trkpt>
      <trkpt lat="45.69582" lon="5.99241">
        <ele>1256.099609375</ele>
        <time>2012-02-11T09:27:21Z</time>
      </trkpt>
      <trkpt lat="45.69577" lon="5.9924">
        <ele>1256.5803222656</ele>
        <time>2012-02-11T09:27:26Z</time>
      </trkpt>
      <trkpt lat="45.69574" lon="5.99241">
        <ele>1256.5803222656</ele>
        <time>2012-02-11T09:27:30Z</time>
      </trkpt>
      <trkpt lat="45.69572" lon="5.99239">
        <ele>1262.3483886719</ele>
        <time>2012-02-11T09:27:36Z</time>
      </trkpt>
      <trkpt lat="45.6957" lon="5.99239">
        <ele>1270.51953125</ele>
        <time>2012-02-11T09:27:57Z</time>
      </trkpt>
      <trkpt lat="45.69566" lon="5.99239">
        <ele>1268.5969238281</ele>
        <time>2012-02-11T09:28:04Z</time>
      </trkpt>
      <trkpt lat="45.69563" lon="5.99239">
        <ele>1269.0776367188</ele>
        <time>2012-02-11T09:28:09Z</time>
      </trkpt>
      <trkpt lat="45.69558" lon="5.99237">
        <ele>1267.6354980469</ele>
        <time>2012-02-11T09:28:16Z</time>
      </trkpt>
      <trkpt lat="45.69553" lon="5.99237">
        <ele>1264.7517089844</ele>
        <time>2012-02-11T09:28:23Z</time>
      </trkpt>
      <trkpt lat="45.6955" lon="5.99238">
        <ele>1264.7517089844</ele>
        <time>2012-02-11T09:28:30Z</time>
      </trkpt>
      <trkpt lat="45.69546" lon="5.99237">
        <ele>1266.1936035156</ele>
        <time>2012-02-11T09:28:36Z</time>
      </trkpt>
      <trkpt lat="45.69542" lon="5.99236">
        <ele>1266.1936035156</ele>
        <time>2012-02-11T09:28:43Z</time>
      </trkpt>
      <trkpt lat="45.69539" lon="5.99234">
        <ele>1266.1936035156</ele>
        <time>2012-02-11T09:28:49Z</time>
      </trkpt>
      <trkpt lat="45.69536" lon="5.99233">
        <ele>1266.6743164062</ele>
        <time>2012-02-11T09:28:56Z</time>
      </trkpt>
      <trkpt lat="45.69529" lon="5.99234">
        <ele>1265.232421875</ele>
        <time>2012-02-11T09:29:03Z</time>
      </trkpt>
      <trkpt lat="45.69526" lon="5.99231">
        <ele>1267.6354980469</ele>
        <time>2012-02-11T09:29:10Z</time>
      </trkpt>
      <trkpt lat="45.69524" lon="5.99228">
        <ele>1269.5583496094</ele>
        <time>2012-02-11T09:29:16Z</time>
      </trkpt>
      <trkpt lat="45.69522" lon="5.99227">
        <ele>1271.0002441406</ele>
        <time>2012-02-11T09:29:23Z</time>
      </trkpt>
      <trkpt lat="45.69521" lon="5.99227">
        <ele>1271.9614257812</ele>
        <time>2012-02-11T09:29:27Z</time>
      </trkpt>
      <trkpt lat="45.69518" lon="5.99225">
        <ele>1273.8840332031</ele>
        <time>2012-02-11T09:29:33Z</time>
      </trkpt>
      <trkpt lat="45.69513" lon="5.99221">
        <ele>1275.3259277344</ele>
        <time>2012-02-11T09:29:40Z</time>
      </trkpt>
      <trkpt lat="45.6951" lon="5.99219">
        <ele>1276.7683105469</ele>
        <time>2012-02-11T09:29:46Z</time>
      </trkpt>
      <trkpt lat="45.69506" lon="5.99217">
        <ele>1279.1713867188</ele>
        <time>2012-02-11T09:29:52Z</time>
      </trkpt>
      <trkpt lat="45.69501" lon="5.9921">
        <ele>1285.9006347656</ele>
        <time>2012-02-11T09:29:59Z</time>
      </trkpt>
      <trkpt lat="45.69497" lon="5.99209">
        <ele>1285.9006347656</ele>
        <time>2012-02-11T09:30:07Z</time>
      </trkpt>
      <trkpt lat="45.69494" lon="5.99207">
        <ele>1284.939453125</ele>
        <time>2012-02-11T09:30:14Z</time>
      </trkpt>
      <trkpt lat="45.69488" lon="5.99203">
        <ele>1284.939453125</ele>
        <time>2012-02-11T09:30:23Z</time>
      </trkpt>
      <trkpt lat="45.69483" lon="5.992">
        <ele>1283.0166015625</ele>
        <time>2012-02-11T09:30:33Z</time>
      </trkpt>
      <trkpt lat="45.69481" lon="5.99196">
        <ele>1283.4973144531</ele>
        <time>2012-02-11T09:30:41Z</time>
      </trkpt>
      <trkpt lat="45.69477" lon="5.9919">
        <ele>1285.9006347656</ele>
        <time>2012-02-11T09:30:47Z</time>
      </trkpt>
      <trkpt lat="45.69473" lon="5.99188">
        <ele>1285.419921875</ele>
        <time>2012-02-11T09:30:54Z</time>
      </trkpt>
      <trkpt lat="45.69469" lon="5.99186">
        <ele>1283.9780273438</ele>
        <time>2012-02-11T09:30:59Z</time>
      </trkpt>
      <trkpt lat="45.69466" lon="5.99182">
        <ele>1284.4587402344</ele>
        <time>2012-02-11T09:31:05Z</time>
      </trkpt>
      <trkpt lat="45.69463" lon="5.99181">
        <ele>1284.939453125</ele>
        <time>2012-02-11T09:31:09Z</time>
      </trkpt>
      <trkpt lat="45.69461" lon="5.9918">
        <ele>1285.419921875</ele>
        <time>2012-02-11T09:31:12Z</time>
      </trkpt>
      <trkpt lat="45.69458" lon="5.99178">
        <ele>1284.939453125</ele>
        <time>2012-02-11T09:31:16Z</time>
      </trkpt>
      <trkpt lat="45.69456" lon="5.99177">
        <ele>1285.9006347656</ele>
        <time>2012-02-11T09:31:20Z</time>
      </trkpt>
      <trkpt lat="45.69453" lon="5.99177">
        <ele>1285.419921875</ele>
        <time>2012-02-11T09:31:22Z</time>
      </trkpt>
      <trkpt lat="45.6945" lon="5.99176">
        <ele>1285.9006347656</ele>
        <time>2012-02-11T09:31:27Z</time>
      </trkpt>
      <trkpt lat="45.6945" lon="5.99174">
        <ele>1288.3039550781</ele>
        <time>2012-02-11T09:31:29Z</time>
      </trkpt>
      <trkpt lat="45.69453" lon="5.9917">
        <ele>1294.0720214844</ele>
        <time>2012-02-11T09:31:37Z</time>
      </trkpt>
      <trkpt lat="45.69453" lon="5.99169">
        <ele>1295.5139160156</ele>
        <time>2012-02-11T09:31:48Z</time>
      </trkpt>
      <trkpt lat="45.69453" lon="5.9917">
        <ele>1295.9946289062</ele>
        <time>2012-02-11T09:31:52Z</time>
      </trkpt>
      <trkpt lat="45.69453" lon="5.99171">
        <ele>1295.9946289062</ele>
        <time>2012-02-11T09:31:55Z</time>
      </trkpt>
      <trkpt lat="45.69453" lon="5.99172">
        <ele>1296.4753417969</ele>
        <time>2012-02-11T09:32:01Z</time>
      </trkpt>
      <trkpt lat="45.69452" lon="5.99172">
        <ele>1296.4753417969</ele>
        <time>2012-02-11T09:32:05Z</time>
      </trkpt>
      <trkpt lat="45.69452" lon="5.99172">
        <ele>1296.4753417969</ele>
        <time>2012-02-11T09:32:07Z</time>
      </trkpt>
      <trkpt lat="45.69448" lon="5.99167">
        <ele>1295.9946289062</ele>
        <time>2012-02-11T09:32:19Z</time>
      </trkpt>
      <trkpt lat="45.69445" lon="5.99166">
        <ele>1294.5524902344</ele>
        <time>2012-02-11T09:32:24Z</time>
      </trkpt>
      <trkpt lat="45.69442" lon="5.99165">
        <ele>1294.0720214844</ele>
        <time>2012-02-11T09:32:29Z</time>
      </trkpt>
      <trkpt lat="45.6944" lon="5.99164">
        <ele>1292.6301269531</ele>
        <time>2012-02-11T09:32:33Z</time>
      </trkpt>
      <trkpt lat="45.69436" lon="5.99163">
        <ele>1293.5913085938</ele>
        <time>2012-02-11T09:32:38Z</time>
      </trkpt>
      <trkpt lat="45.69434" lon="5.99161">
        <ele>1294.5524902344</ele>
        <time>2012-02-11T09:32:42Z</time>
      </trkpt>
      <trkpt lat="45.69429" lon="5.99162">
        <ele>1295.5139160156</ele>
        <time>2012-02-11T09:32:46Z</time>
      </trkpt>
      <trkpt lat="45.69428" lon="5.9916">
        <ele>1294.5524902344</ele>
        <time>2012-02-11T09:32:50Z</time>
      </trkpt>
      <trkpt lat="45.69424" lon="5.99159">
        <ele>1293.1105957031</ele>
        <time>2012-02-11T09:32:54Z</time>
      </trkpt>
      <trkpt lat="45.69421" lon="5.99156">
        <ele>1292.6301269531</ele>
        <time>2012-02-11T09:32:58Z</time>
      </trkpt>
      <trkpt lat="45.69419" lon="5.99154">
        <ele>1293.5913085938</ele>
        <time>2012-02-11T09:33:02Z</time>
      </trkpt>
      <trkpt lat="45.69417" lon="5.99152">
        <ele>1295.033203125</ele>
        <time>2012-02-11T09:33:06Z</time>
      </trkpt>
      <trkpt lat="45.69415" lon="5.99151">
        <ele>1294.5524902344</ele>
        <time>2012-02-11T09:33:10Z</time>
      </trkpt>
      <trkpt lat="45.69412" lon="5.99148">
        <ele>1295.5139160156</ele>
        <time>2012-02-11T09:33:15Z</time>
      </trkpt>
      <trkpt lat="45.6941" lon="5.99147">
        <ele>1295.9946289062</ele>
        <time>2012-02-11T09:33:19Z</time>
      </trkpt>
      <trkpt lat="45.69407" lon="5.99146">
        <ele>1295.9946289062</ele>
        <time>2012-02-11T09:33:23Z</time>
      </trkpt>
      <trkpt lat="45.69403" lon="5.99144">
        <ele>1295.5139160156</ele>
        <time>2012-02-11T09:33:27Z</time>
      </trkpt>
      <trkpt lat="45.69401" lon="5.99142">
        <ele>1295.9946289062</ele>
        <time>2012-02-11T09:33:31Z</time>
      </trkpt>
      <trkpt lat="45.69399" lon="5.99141">
        <ele>1296.4753417969</ele>
        <time>2012-02-11T09:33:35Z</time>
      </trkpt>
      <trkpt lat="45.69397" lon="5.99139">
        <ele>1296.4753417969</ele>
        <time>2012-02-11T09:33:39Z</time>
      </trkpt>
      <trkpt lat="45.69395" lon="5.99138">
        <ele>1296.4753417969</ele>
        <time>2012-02-11T09:33:42Z</time>
      </trkpt>
      <trkpt lat="45.69393" lon="5.99137">
        <ele>1296.4753417969</ele>
        <time>2012-02-11T09:33:46Z</time>
      </trkpt>
      <trkpt lat="45.69392" lon="5.99137">
        <ele>1297.4365234375</ele>
        <time>2012-02-11T09:33:50Z</time>
      </trkpt>
      <trkpt lat="45.6939" lon="5.99135">
        <ele>1298.3977050781</ele>
        <time>2012-02-11T09:33:55Z</time>
      </trkpt>
      <trkpt lat="45.69387" lon="5.99131">
        <ele>1300.3205566406</ele>
        <time>2012-02-11T09:34:00Z</time>
      </trkpt>
      <trkpt lat="45.69384" lon="5.99129">
        <ele>1300.8010253906</ele>
        <time>2012-02-11T09:34:06Z</time>
      </trkpt>
      <trkpt lat="45.69381" lon="5.99125">
        <ele>1304.6462402344</ele>
        <time>2012-02-11T09:34:10Z</time>
      </trkpt>
      <trkpt lat="45.69377" lon="5.99122">
        <ele>1305.126953125</ele>
        <time>2012-02-11T09:34:15Z</time>
      </trkpt>
      <trkpt lat="45.69375" lon="5.99119">
        <ele>1306.5688476562</ele>
        <time>2012-02-11T09:34:19Z</time>
      </trkpt>
      <trkpt lat="45.69374" lon="5.99115">
        <ele>1309.93359375</ele>
        <time>2012-02-11T09:34:23Z</time>
      </trkpt>
      <trkpt lat="45.69371" lon="5.99113">
        <ele>1310.8950195312</ele>
        <time>2012-02-11T09:34:28Z</time>
      </trkpt>
      <trkpt lat="45.69369" lon="5.9911">
        <ele>1311.3757324219</ele>
        <time>2012-02-11T09:34:31Z</time>
      </trkpt>
      <trkpt lat="45.69366" lon="5.99109">
        <ele>1311.8564453125</ele>
        <time>2012-02-11T09:34:35Z</time>
      </trkpt>
      <trkpt lat="45.69364" lon="5.99109">
        <ele>1312.3369140625</ele>
        <time>2012-02-11T09:34:39Z</time>
      </trkpt>
      <trkpt lat="45.6936" lon="5.99109">
        <ele>1310.8950195312</ele>
        <time>2012-02-11T09:34:44Z</time>
      </trkpt>
      <trkpt lat="45.69357" lon="5.99106">
        <ele>1310.4143066406</ele>
        <time>2012-02-11T09:34:48Z</time>
      </trkpt>
      <trkpt lat="45.69352" lon="5.99106">
        <ele>1309.93359375</ele>
        <time>2012-02-11T09:34:53Z</time>
      </trkpt>
      <trkpt lat="45.69351" lon="5.99105">
        <ele>1311.3757324219</ele>
        <time>2012-02-11T09:34:55Z</time>
      </trkpt>
      <trkpt lat="45.69348" lon="5.99102">
        <ele>1312.8176269531</ele>
        <time>2012-02-11T09:35:01Z</time>
      </trkpt>
      <trkpt lat="45.69344" lon="5.99101">
        <ele>1311.3757324219</ele>
        <time>2012-02-11T09:35:06Z</time>
      </trkpt>
      <trkpt lat="45.69341" lon="5.99098">
        <ele>1313.7788085938</ele>
        <time>2012-02-11T09:35:10Z</time>
      </trkpt>
      <trkpt lat="45.69339" lon="5.99098">
        <ele>1313.2983398438</ele>
        <time>2012-02-11T09:35:14Z</time>
      </trkpt>
      <trkpt lat="45.69338" lon="5.9909">
        <ele>1317.6240234375</ele>
        <time>2012-02-11T09:35:26Z</time>
      </trkpt>
      <trkpt lat="45.69333" lon="5.99093">
        <ele>1316.1821289062</ele>
        <time>2012-02-11T09:35:36Z</time>
      </trkpt>
      <trkpt lat="45.69333" lon="5.99092">
        <ele>1315.7016601562</ele>
        <time>2012-02-11T09:35:40Z</time>
      </trkpt>
      <trkpt lat="45.69332" lon="5.99094">
        <ele>1315.7016601562</ele>
        <time>2012-02-11T09:35:47Z</time>
      </trkpt>
      <trkpt lat="45.69334" lon="5.99094">
        <ele>1316.6628417969</ele>
        <time>2012-02-11T09:35:50Z</time>
      </trkpt>
      <trkpt lat="45.69337" lon="5.99093">
        <ele>1320.9887695312</ele>
        <time>2012-02-11T09:35:54Z</time>
      </trkpt>
      <trkpt lat="45.69336" lon="5.99092">
        <ele>1321.4692382812</ele>
        <time>2012-02-11T09:36:06Z</time>
      </trkpt>
      <trkpt lat="45.69333" lon="5.99091">
        <ele>1320.02734375</ele>
        <time>2012-02-11T09:36:12Z</time>
      </trkpt>
      <trkpt lat="45.69331" lon="5.99088">
        <ele>1319.0661621094</ele>
        <time>2012-02-11T09:36:16Z</time>
      </trkpt>
      <trkpt lat="45.6933" lon="5.99086">
        <ele>1320.02734375</ele>
        <time>2012-02-11T09:36:19Z</time>
      </trkpt>
      <trkpt lat="45.69327" lon="5.99084">
        <ele>1318.5854492188</ele>
        <time>2012-02-11T09:36:24Z</time>
      </trkpt>
      <trkpt lat="45.69325" lon="5.99082">
        <ele>1318.5854492188</ele>
        <time>2012-02-11T09:36:29Z</time>
      </trkpt>
      <trkpt lat="45.69323" lon="5.9908">
        <ele>1318.5854492188</ele>
        <time>2012-02-11T09:36:33Z</time>
      </trkpt>
      <trkpt lat="45.69321" lon="5.99074">
        <ele>1320.02734375</ele>
        <time>2012-02-11T09:36:40Z</time>
      </trkpt>
      <trkpt lat="45.69319" lon="5.99072">
        <ele>1320.9887695312</ele>
        <time>2012-02-11T09:36:44Z</time>
      </trkpt>
      <trkpt lat="45.69317" lon="5.9907">
        <ele>1321.4692382812</ele>
        <time>2012-02-11T09:36:48Z</time>
      </trkpt>
      <trkpt lat="45.69315" lon="5.99069">
        <ele>1320.9887695312</ele>
        <time>2012-02-11T09:36:51Z</time>
      </trkpt>
      <trkpt lat="45.69313" lon="5.99066">
        <ele>1321.9499511719</ele>
        <time>2012-02-11T09:36:55Z</time>
      </trkpt>
      <trkpt lat="45.69312" lon="5.99064">
        <ele>1322.9113769531</ele>
        <time>2012-02-11T09:36:59Z</time>
      </trkpt>
      <trkpt lat="45.69308" lon="5.99061">
        <ele>1322.9113769531</ele>
        <time>2012-02-11T09:37:05Z</time>
      </trkpt>
      <trkpt lat="45.69306" lon="5.9906">
        <ele>1322.9113769531</ele>
        <time>2012-02-11T09:37:10Z</time>
      </trkpt>
      <trkpt lat="45.69304" lon="5.99055">
        <ele>1323.3920898438</ele>
        <time>2012-02-11T09:37:15Z</time>
      </trkpt>
      <trkpt lat="45.69301" lon="5.99052">
        <ele>1323.3920898438</ele>
        <time>2012-02-11T09:37:20Z</time>
      </trkpt>
      <trkpt lat="45.693" lon="5.99048">
        <ele>1325.3146972656</ele>
        <time>2012-02-11T09:37:24Z</time>
      </trkpt>
      <trkpt lat="45.69298" lon="5.99046">
        <ele>1325.3146972656</ele>
        <time>2012-02-11T09:37:29Z</time>
      </trkpt>
      <trkpt lat="45.69296" lon="5.99042">
        <ele>1326.7568359375</ele>
        <time>2012-02-11T09:37:34Z</time>
      </trkpt>
      <trkpt lat="45.69297" lon="5.99039">
        <ele>1329.1599121094</ele>
        <time>2012-02-11T09:37:37Z</time>
      </trkpt>
      <trkpt lat="45.69295" lon="5.99036">
        <ele>1330.1213378906</ele>
        <time>2012-02-11T09:37:40Z</time>
      </trkpt>
      <trkpt lat="45.69292" lon="5.99035">
        <ele>1329.640625</ele>
        <time>2012-02-11T09:37:44Z</time>
      </trkpt>
      <trkpt lat="45.69288" lon="5.9903">
        <ele>1332.5246582031</ele>
        <time>2012-02-11T09:37:50Z</time>
      </trkpt>
      <trkpt lat="45.69285" lon="5.99026">
        <ele>1333.0051269531</ele>
        <time>2012-02-11T09:37:56Z</time>
      </trkpt>
      <trkpt lat="45.69282" lon="5.99024">
        <ele>1332.0439453125</ele>
        <time>2012-02-11T09:38:00Z</time>
      </trkpt>
      <trkpt lat="45.69281" lon="5.99022">
        <ele>1333.0051269531</ele>
        <time>2012-02-11T09:38:04Z</time>
      </trkpt>
      <trkpt lat="45.6928" lon="5.99018">
        <ele>1334.447265625</ele>
        <time>2012-02-11T09:38:09Z</time>
      </trkpt>
      <trkpt lat="45.69275" lon="5.99011">
        <ele>1337.8117675781</ele>
        <time>2012-02-11T09:38:15Z</time>
      </trkpt>
      <trkpt lat="45.69273" lon="5.99009">
        <ele>1337.8117675781</ele>
        <time>2012-02-11T09:38:19Z</time>
      </trkpt>
      <trkpt lat="45.6927" lon="5.99006">
        <ele>1338.2924804688</ele>
        <time>2012-02-11T09:38:23Z</time>
      </trkpt>
      <trkpt lat="45.69268" lon="5.99005">
        <ele>1336.8503417969</ele>
        <time>2012-02-11T09:38:26Z</time>
      </trkpt>
      <trkpt lat="45.69265" lon="5.99002">
        <ele>1336.3698730469</ele>
        <time>2012-02-11T09:38:30Z</time>
      </trkpt>
      <trkpt lat="45.69263" lon="5.98998">
        <ele>1337.3310546875</ele>
        <time>2012-02-11T09:38:34Z</time>
      </trkpt>
      <trkpt lat="45.69262" lon="5.98997">
        <ele>1337.8117675781</ele>
        <time>2012-02-11T09:38:39Z</time>
      </trkpt>
      <trkpt lat="45.69262" lon="5.98995">
        <ele>1338.7731933594</ele>
        <time>2012-02-11T09:38:45Z</time>
      </trkpt>
      <trkpt lat="45.69261" lon="5.98995">
        <ele>1338.2924804688</ele>
        <time>2012-02-11T09:38:52Z</time>
      </trkpt>
      <trkpt lat="45.6926" lon="5.98993">
        <ele>1335.8891601562</ele>
        <time>2012-02-11T09:39:02Z</time>
      </trkpt>
      <trkpt lat="45.69258" lon="5.98992">
        <ele>1336.3698730469</ele>
        <time>2012-02-11T09:39:06Z</time>
      </trkpt>
      <trkpt lat="45.69257" lon="5.9899">
        <ele>1336.3698730469</ele>
        <time>2012-02-11T09:39:10Z</time>
      </trkpt>
      <trkpt lat="45.69255" lon="5.98986">
        <ele>1337.8117675781</ele>
        <time>2012-02-11T09:39:14Z</time>
      </trkpt>
      <trkpt lat="45.69254" lon="5.98983">
        <ele>1337.8117675781</ele>
        <time>2012-02-11T09:39:17Z</time>
      </trkpt>
      <trkpt lat="45.69252" lon="5.9898">
        <ele>1338.2924804688</ele>
        <time>2012-02-11T09:39:22Z</time>
      </trkpt>
      <trkpt lat="45.6925" lon="5.98979">
        <ele>1338.2924804688</ele>
        <time>2012-02-11T09:39:25Z</time>
      </trkpt>
      <trkpt lat="45.69249" lon="5.98976">
        <ele>1339.734375</ele>
        <time>2012-02-11T09:39:29Z</time>
      </trkpt>
      <trkpt lat="45.69247" lon="5.98973">
        <ele>1340.6958007812</ele>
        <time>2012-02-11T09:39:33Z</time>
      </trkpt>
      <trkpt lat="45.69245" lon="5.98969">
        <ele>1340.6958007812</ele>
        <time>2012-02-11T09:39:37Z</time>
      </trkpt>
      <trkpt lat="45.69244" lon="5.98966">
        <ele>1341.1765136719</ele>
        <time>2012-02-11T09:39:40Z</time>
      </trkpt>
      <trkpt lat="45.69242" lon="5.98963">
        <ele>1341.6572265625</ele>
        <time>2012-02-11T09:39:43Z</time>
      </trkpt>
      <trkpt lat="45.69241" lon="5.9896">
        <ele>1343.0991210938</ele>
        <time>2012-02-11T09:39:47Z</time>
      </trkpt>
      <trkpt lat="45.69238" lon="5.98959">
        <ele>1342.1379394531</ele>
        <time>2012-02-11T09:39:50Z</time>
      </trkpt>
      <trkpt lat="45.69237" lon="5.98956">
        <ele>1343.5798339844</ele>
        <time>2012-02-11T09:39:54Z</time>
      </trkpt>
      <trkpt lat="45.69234" lon="5.98954">
        <ele>1343.5798339844</ele>
        <time>2012-02-11T09:39:58Z</time>
      </trkpt>
      <trkpt lat="45.6923" lon="5.9895">
        <ele>1343.5798339844</ele>
        <time>2012-02-11T09:40:05Z</time>
      </trkpt>
      <trkpt lat="45.69228" lon="5.98947">
        <ele>1344.541015625</ele>
        <time>2012-02-11T09:40:09Z</time>
      </trkpt>
      <trkpt lat="45.69226" lon="5.98941">
        <ele>1347.9057617188</ele>
        <time>2012-02-11T09:40:13Z</time>
      </trkpt>
      <trkpt lat="45.69223" lon="5.98935">
        <ele>1349.34765625</ele>
        <time>2012-02-11T09:40:22Z</time>
      </trkpt>
      <trkpt lat="45.69221" lon="5.98932">
        <ele>1349.34765625</ele>
        <time>2012-02-11T09:40:26Z</time>
      </trkpt>
      <trkpt lat="45.6922" lon="5.9893">
        <ele>1349.34765625</ele>
        <time>2012-02-11T09:40:29Z</time>
      </trkpt>
      <trkpt lat="45.69218" lon="5.98927">
        <ele>1349.34765625</ele>
        <time>2012-02-11T09:40:34Z</time>
      </trkpt>
      <trkpt lat="45.69217" lon="5.98925">
        <ele>1348.3862304688</ele>
        <time>2012-02-11T09:40:38Z</time>
      </trkpt>
      <trkpt lat="45.69215" lon="5.98923">
        <ele>1348.3862304688</ele>
        <time>2012-02-11T09:40:41Z</time>
      </trkpt>
      <trkpt lat="45.69213" lon="5.98917">
        <ele>1348.8669433594</ele>
        <time>2012-02-11T09:40:46Z</time>
      </trkpt>
      <trkpt lat="45.69212" lon="5.98915">
        <ele>1349.34765625</ele>
        <time>2012-02-11T09:40:49Z</time>
      </trkpt>
      <trkpt lat="45.69211" lon="5.98912">
        <ele>1349.8283691406</ele>
        <time>2012-02-11T09:40:52Z</time>
      </trkpt>
      <trkpt lat="45.69209" lon="5.98909">
        <ele>1351.2702636719</ele>
        <time>2012-02-11T09:40:56Z</time>
      </trkpt>
      <trkpt lat="45.69206" lon="5.98907">
        <ele>1351.2702636719</ele>
        <time>2012-02-11T09:40:59Z</time>
      </trkpt>
      <trkpt lat="45.69204" lon="5.98905">
        <ele>1351.7509765625</ele>
        <time>2012-02-11T09:41:03Z</time>
      </trkpt>
      <trkpt lat="45.69202" lon="5.98903">
        <ele>1352.7121582031</ele>
        <time>2012-02-11T09:41:06Z</time>
      </trkpt>
      <trkpt lat="45.69199" lon="5.98898">
        <ele>1354.154296875</ele>
        <time>2012-02-11T09:41:12Z</time>
      </trkpt>
      <trkpt lat="45.69197" lon="5.98895">
        <ele>1353.6735839844</ele>
        <time>2012-02-11T09:41:18Z</time>
      </trkpt>
      <trkpt lat="45.69198" lon="5.98893">
        <ele>1354.634765625</ele>
        <time>2012-02-11T09:41:38Z</time>
      </trkpt>
      <trkpt lat="45.69199" lon="5.98892">
        <ele>1354.634765625</ele>
        <time>2012-02-11T09:41:43Z</time>
      </trkpt>
      <trkpt lat="45.69199" lon="5.98892">
        <ele>1355.1154785156</ele>
        <time>2012-02-11T09:41:44Z</time>
      </trkpt>
      <trkpt lat="45.69197" lon="5.98894">
        <ele>1355.1154785156</ele>
        <time>2012-02-11T09:41:48Z</time>
      </trkpt>
      <trkpt lat="45.69195" lon="5.9889">
        <ele>1357.0383300781</ele>
        <time>2012-02-11T09:41:55Z</time>
      </trkpt>
      <trkpt lat="45.69193" lon="5.98888">
        <ele>1357.5190429688</ele>
        <time>2012-02-11T09:41:59Z</time>
      </trkpt>
      <trkpt lat="45.69191" lon="5.98885">
        <ele>1357.0383300781</ele>
        <time>2012-02-11T09:42:03Z</time>
      </trkpt>
      <trkpt lat="45.69189" lon="5.98883">
        <ele>1357.0383300781</ele>
        <time>2012-02-11T09:42:07Z</time>
      </trkpt>
      <trkpt lat="45.69189" lon="5.98879">
        <ele>1357.9997558594</ele>
        <time>2012-02-11T09:42:12Z</time>
      </trkpt>
      <trkpt lat="45.69189" lon="5.98876">
        <ele>1359.9221191406</ele>
        <time>2012-02-11T09:42:15Z</time>
      </trkpt>
      <trkpt lat="45.69186" lon="5.98872">
        <ele>1360.4028320312</ele>
        <time>2012-02-11T09:42:19Z</time>
      </trkpt>
      <trkpt lat="45.69186" lon="5.98869">
        <ele>1360.4028320312</ele>
        <time>2012-02-11T09:42:23Z</time>
      </trkpt>
      <trkpt lat="45.69182" lon="5.98863">
        <ele>1360.4028320312</ele>
        <time>2012-02-11T09:42:30Z</time>
      </trkpt>
      <trkpt lat="45.6918" lon="5.98857">
        <ele>1362.8061523438</ele>
        <time>2012-02-11T09:42:40Z</time>
      </trkpt>
      <trkpt lat="45.69177" lon="5.98855">
        <ele>1361.3642578125</ele>
        <time>2012-02-11T09:42:43Z</time>
      </trkpt>
      <trkpt lat="45.69175" lon="5.98852">
        <ele>1362.3254394531</ele>
        <time>2012-02-11T09:42:47Z</time>
      </trkpt>
      <trkpt lat="45.69174" lon="5.98848">
        <ele>1364.248046875</ele>
        <time>2012-02-11T09:42:53Z</time>
      </trkpt>
      <trkpt lat="45.69172" lon="5.98846">
        <ele>1364.248046875</ele>
        <time>2012-02-11T09:42:56Z</time>
      </trkpt>
      <trkpt lat="45.6917" lon="5.98842">
        <ele>1366.1706542969</ele>
        <time>2012-02-11T09:43:01Z</time>
      </trkpt>
      <trkpt lat="45.69167" lon="5.98838">
        <ele>1367.1320800781</ele>
        <time>2012-02-11T09:43:05Z</time>
      </trkpt>
      <trkpt lat="45.69165" lon="5.98837">
        <ele>1366.6513671875</ele>
        <time>2012-02-11T09:43:08Z</time>
      </trkpt>
      <trkpt lat="45.69165" lon="5.98834">
        <ele>1367.6125488281</ele>
        <time>2012-02-11T09:43:11Z</time>
      </trkpt>
      <trkpt lat="45.69164" lon="5.98831">
        <ele>1367.6125488281</ele>
        <time>2012-02-11T09:43:14Z</time>
      </trkpt>
      <trkpt lat="45.69162" lon="5.98827">
        <ele>1368.5739746094</ele>
        <time>2012-02-11T09:43:18Z</time>
      </trkpt>
      <trkpt lat="45.69161" lon="5.98824">
        <ele>1369.0546875</ele>
        <time>2012-02-11T09:43:21Z</time>
      </trkpt>
      <trkpt lat="45.69159" lon="5.9882">
        <ele>1369.5354003906</ele>
        <time>2012-02-11T09:43:25Z</time>
      </trkpt>
      <trkpt lat="45.69158" lon="5.98818">
        <ele>1368.5739746094</ele>
        <time>2012-02-11T09:43:28Z</time>
      </trkpt>
      <trkpt lat="45.69156" lon="5.98811">
        <ele>1369.0546875</ele>
        <time>2012-02-11T09:43:35Z</time>
      </trkpt>
      <trkpt lat="45.69153" lon="5.98808">
        <ele>1367.6125488281</ele>
        <time>2012-02-11T09:43:38Z</time>
      </trkpt>
      <trkpt lat="45.69152" lon="5.98806">
        <ele>1368.5739746094</ele>
        <time>2012-02-11T09:43:42Z</time>
      </trkpt>
      <trkpt lat="45.6915" lon="5.98802">
        <ele>1370.4965820312</ele>
        <time>2012-02-11T09:43:47Z</time>
      </trkpt>
      <trkpt lat="45.69151" lon="5.98799">
        <ele>1372.4194335938</ele>
        <time>2012-02-11T09:43:55Z</time>
      </trkpt>
      <trkpt lat="45.69151" lon="5.98798">
        <ele>1371.4577636719</ele>
        <time>2012-02-11T09:44:02Z</time>
      </trkpt>
      <trkpt lat="45.69151" lon="5.98797">
        <ele>1370.9772949219</ele>
        <time>2012-02-11T09:44:11Z</time>
      </trkpt>
      <trkpt lat="45.69151" lon="5.98797">
        <ele>1371.4577636719</ele>
        <time>2012-02-11T09:44:16Z</time>
      </trkpt>
      <trkpt lat="45.69151" lon="5.98797">
        <ele>1371.9384765625</ele>
        <time>2012-02-11T09:44:20Z</time>
      </trkpt>
      <trkpt lat="45.69151" lon="5.98797">
        <ele>1371.4577636719</ele>
        <time>2012-02-11T09:44:27Z</time>
      </trkpt>
      <trkpt lat="45.69148" lon="5.98794">
        <ele>1370.9772949219</ele>
        <time>2012-02-11T09:44:33Z</time>
      </trkpt>
      <trkpt lat="45.69148" lon="5.98791">
        <ele>1372.4194335938</ele>
        <time>2012-02-11T09:44:38Z</time>
      </trkpt>
      <trkpt lat="45.69146" lon="5.98785">
        <ele>1375.3032226562</ele>
        <time>2012-02-11T09:44:45Z</time>
      </trkpt>
      <trkpt lat="45.69144" lon="5.98782">
        <ele>1375.7839355469</ele>
        <time>2012-02-11T09:44:49Z</time>
      </trkpt>
      <trkpt lat="45.69143" lon="5.98778">
        <ele>1376.2646484375</ele>
        <time>2012-02-11T09:44:53Z</time>
      </trkpt>
      <trkpt lat="45.69142" lon="5.98775">
        <ele>1378.66796875</ele>
        <time>2012-02-11T09:45:07Z</time>
      </trkpt>
      <trkpt lat="45.69141" lon="5.98775">
        <ele>1378.66796875</ele>
        <time>2012-02-11T09:45:17Z</time>
      </trkpt>
      <trkpt lat="45.6914" lon="5.98778">
        <ele>1376.2646484375</ele>
        <time>2012-02-11T09:45:25Z</time>
      </trkpt>
      <trkpt lat="45.69136" lon="5.98774">
        <ele>1375.7839355469</ele>
        <time>2012-02-11T09:45:33Z</time>
      </trkpt>
      <trkpt lat="45.69136" lon="5.98772">
        <ele>1376.2646484375</ele>
        <time>2012-02-11T09:45:36Z</time>
      </trkpt>
      <trkpt lat="45.69132" lon="5.98767">
        <ele>1375.7839355469</ele>
        <time>2012-02-11T09:45:44Z</time>
      </trkpt>
      <trkpt lat="45.6913" lon="5.98766">
        <ele>1375.7839355469</ele>
        <time>2012-02-11T09:45:48Z</time>
      </trkpt>
      <trkpt lat="45.69128" lon="5.98759">
        <ele>1379.6291503906</ele>
        <time>2012-02-11T09:45:56Z</time>
      </trkpt>
      <trkpt lat="45.69125" lon="5.98757">
        <ele>1379.1484375</ele>
        <time>2012-02-11T09:46:00Z</time>
      </trkpt>
      <trkpt lat="45.69122" lon="5.98753">
        <ele>1380.5905761719</ele>
        <time>2012-02-11T09:46:04Z</time>
      </trkpt>
      <trkpt lat="45.6912" lon="5.9875">
        <ele>1383.4743652344</ele>
        <time>2012-02-11T09:46:09Z</time>
      </trkpt>
      <trkpt lat="45.69117" lon="5.98744">
        <ele>1383.955078125</ele>
        <time>2012-02-11T09:46:17Z</time>
      </trkpt>
      <trkpt lat="45.69115" lon="5.98742">
        <ele>1383.4743652344</ele>
        <time>2012-02-11T09:46:22Z</time>
      </trkpt>
      <trkpt lat="45.69114" lon="5.9874">
        <ele>1382.9936523438</ele>
        <time>2012-02-11T09:46:30Z</time>
      </trkpt>
      <trkpt lat="45.69114" lon="5.9874">
        <ele>1383.955078125</ele>
        <time>2012-02-11T09:46:40Z</time>
      </trkpt>
      <trkpt lat="45.69113" lon="5.9874">
        <ele>1384.9165039062</ele>
        <time>2012-02-11T09:46:44Z</time>
      </trkpt>
      <trkpt lat="45.69113" lon="5.9874">
        <ele>1384.4357910156</ele>
        <time>2012-02-11T09:46:51Z</time>
      </trkpt>
      <trkpt lat="45.69114" lon="5.9874">
        <ele>1382.9936523438</ele>
        <time>2012-02-11T09:47:00Z</time>
      </trkpt>
      <trkpt lat="45.69114" lon="5.9874">
        <ele>1382.5131835938</ele>
        <time>2012-02-11T09:47:06Z</time>
      </trkpt>
      <trkpt lat="45.69114" lon="5.98741">
        <ele>1382.9936523438</ele>
        <time>2012-02-11T09:47:16Z</time>
      </trkpt>
      <trkpt lat="45.69112" lon="5.98741">
        <ele>1382.0324707031</ele>
        <time>2012-02-11T09:47:21Z</time>
      </trkpt>
      <trkpt lat="45.69113" lon="5.98739">
        <ele>1384.4357910156</ele>
        <time>2012-02-11T09:47:28Z</time>
      </trkpt>
      <trkpt lat="45.69113" lon="5.98739">
        <ele>1384.9165039062</ele>
        <time>2012-02-11T09:47:30Z</time>
      </trkpt>
      <trkpt lat="45.69115" lon="5.98739">
        <ele>1386.8388671875</ele>
        <time>2012-02-11T09:47:42Z</time>
      </trkpt>
      <trkpt lat="45.69111" lon="5.98739">
        <ele>1387.3195800781</ele>
        <time>2012-02-11T09:47:51Z</time>
      </trkpt>
      <trkpt lat="45.69108" lon="5.98737">
        <ele>1386.8388671875</ele>
        <time>2012-02-11T09:47:55Z</time>
      </trkpt>
      <trkpt lat="45.69106" lon="5.98736">
        <ele>1385.8776855469</ele>
        <time>2012-02-11T09:47:59Z</time>
      </trkpt>
      <trkpt lat="45.69104" lon="5.98734">
        <ele>1386.3583984375</ele>
        <time>2012-02-11T09:48:04Z</time>
      </trkpt>
      <trkpt lat="45.69101" lon="5.98732">
        <ele>1385.8776855469</ele>
        <time>2012-02-11T09:48:08Z</time>
      </trkpt>
      <trkpt lat="45.69098" lon="5.98731">
        <ele>1385.3969726562</ele>
        <time>2012-02-11T09:48:11Z</time>
      </trkpt>
      <trkpt lat="45.69096" lon="5.98729">
        <ele>1385.8776855469</ele>
        <time>2012-02-11T09:48:15Z</time>
      </trkpt>
      <trkpt lat="45.69094" lon="5.98728">
        <ele>1385.8776855469</ele>
        <time>2012-02-11T09:48:19Z</time>
      </trkpt>
      <trkpt lat="45.69092" lon="5.98726">
        <ele>1385.3969726562</ele>
        <time>2012-02-11T09:48:23Z</time>
      </trkpt>
      <trkpt lat="45.69088" lon="5.98723">
        <ele>1385.3969726562</ele>
        <time>2012-02-11T09:48:28Z</time>
      </trkpt>
      <trkpt lat="45.69084" lon="5.98722">
        <ele>1386.8388671875</ele>
        <time>2012-02-11T09:48:32Z</time>
      </trkpt>
      <trkpt lat="45.69082" lon="5.9872">
        <ele>1387.8002929688</ele>
        <time>2012-02-11T09:48:36Z</time>
      </trkpt>
      <trkpt lat="45.69078" lon="5.98716">
        <ele>1388.7619628906</ele>
        <time>2012-02-11T09:48:41Z</time>
      </trkpt>
      <trkpt lat="45.69076" lon="5.98713">
        <ele>1389.7231445312</ele>
        <time>2012-02-11T09:48:44Z</time>
      </trkpt>
      <trkpt lat="45.69074" lon="5.9871">
        <ele>1391.6457519531</ele>
        <time>2012-02-11T09:48:49Z</time>
      </trkpt>
      <trkpt lat="45.69072" lon="5.98707">
        <ele>1393.0876464844</ele>
        <time>2012-02-11T09:48:53Z</time>
      </trkpt>
      <trkpt lat="45.69071" lon="5.98704">
        <ele>1394.0490722656</ele>
        <time>2012-02-11T09:48:57Z</time>
      </trkpt>
      <trkpt lat="45.6907" lon="5.987">
        <ele>1395.0102539062</ele>
        <time>2012-02-11T09:49:01Z</time>
      </trkpt>
      <trkpt lat="45.69068" lon="5.98697">
        <ele>1395.0102539062</ele>
        <time>2012-02-11T09:49:05Z</time>
      </trkpt>
      <trkpt lat="45.69066" lon="5.98695">
        <ele>1395.0102539062</ele>
        <time>2012-02-11T09:49:09Z</time>
      </trkpt>
      <trkpt lat="45.69064" lon="5.98692">
        <ele>1395.4909667969</ele>
        <time>2012-02-11T09:49:12Z</time>
      </trkpt>
      <trkpt lat="45.69062" lon="5.98688">
        <ele>1397.8942871094</ele>
        <time>2012-02-11T09:49:16Z</time>
      </trkpt>
      <trkpt lat="45.69059" lon="5.98685">
        <ele>1396.4523925781</ele>
        <time>2012-02-11T09:49:22Z</time>
      </trkpt>
      <trkpt lat="45.69055" lon="5.98682">
        <ele>1395.4909667969</ele>
        <time>2012-02-11T09:49:26Z</time>
      </trkpt>
      <trkpt lat="45.69052" lon="5.9868">
        <ele>1395.0102539062</ele>
        <time>2012-02-11T09:49:30Z</time>
      </trkpt>
      <trkpt lat="45.69049" lon="5.98678">
        <ele>1395.0102539062</ele>
        <time>2012-02-11T09:49:33Z</time>
      </trkpt>
      <trkpt lat="45.69044" lon="5.98673">
        <ele>1395.9716796875</ele>
        <time>2012-02-11T09:49:38Z</time>
      </trkpt>
      <trkpt lat="45.69043" lon="5.98671">
        <ele>1397.4135742188</ele>
        <time>2012-02-11T09:49:42Z</time>
      </trkpt>
      <trkpt lat="45.69042" lon="5.98669">
        <ele>1398.85546875</ele>
        <time>2012-02-11T09:49:46Z</time>
      </trkpt>
      <trkpt lat="45.6904" lon="5.98664">
        <ele>1401.2587890625</ele>
        <time>2012-02-11T09:49:50Z</time>
      </trkpt>
      <trkpt lat="45.69038" lon="5.98662">
        <ele>1401.7395019531</ele>
        <time>2012-02-11T09:49:52Z</time>
      </trkpt>
      <trkpt lat="45.69038" lon="5.98657">
        <ele>1403.662109375</ele>
        <time>2012-02-11T09:49:58Z</time>
      </trkpt>
      <trkpt lat="45.69035" lon="5.98654">
        <ele>1405.5849609375</ele>
        <time>2012-02-11T09:50:03Z</time>
      </trkpt>
      <trkpt lat="45.69032" lon="5.98651">
        <ele>1405.5849609375</ele>
        <time>2012-02-11T09:50:07Z</time>
      </trkpt>
      <trkpt lat="45.69032" lon="5.9865">
        <ele>1405.1042480469</ele>
        <time>2012-02-11T09:50:13Z</time>
      </trkpt>
      <trkpt lat="45.69031" lon="5.98645">
        <ele>1405.1042480469</ele>
        <time>2012-02-11T09:50:19Z</time>
      </trkpt>
      <trkpt lat="45.6903" lon="5.98641">
        <ele>1406.0654296875</ele>
        <time>2012-02-11T09:50:23Z</time>
      </trkpt>
      <trkpt lat="45.69025" lon="5.98636">
        <ele>1406.5461425781</ele>
        <time>2012-02-11T09:50:29Z</time>
      </trkpt>
      <trkpt lat="45.69022" lon="5.98633">
        <ele>1407.5075683594</ele>
        <time>2012-02-11T09:50:33Z</time>
      </trkpt>
      <trkpt lat="45.69021" lon="5.98631">
        <ele>1407.98828125</ele>
        <time>2012-02-11T09:50:35Z</time>
      </trkpt>
      <trkpt lat="45.69017" lon="5.98626">
        <ele>1408.46875</ele>
        <time>2012-02-11T09:50:40Z</time>
      </trkpt>
      <trkpt lat="45.69015" lon="5.98624">
        <ele>1407.98828125</ele>
        <time>2012-02-11T09:50:43Z</time>
      </trkpt>
      <trkpt lat="45.69012" lon="5.98623">
        <ele>1406.5461425781</ele>
        <time>2012-02-11T09:50:47Z</time>
      </trkpt>
      <trkpt lat="45.69007" lon="5.98622">
        <ele>1405.1042480469</ele>
        <time>2012-02-11T09:51:09Z</time>
      </trkpt>
      <trkpt lat="45.69005" lon="5.98619">
        <ele>1404.6235351562</ele>
        <time>2012-02-11T09:51:14Z</time>
      </trkpt>
      <trkpt lat="45.69003" lon="5.98616">
        <ele>1405.1042480469</ele>
        <time>2012-02-11T09:51:17Z</time>
      </trkpt>
      <trkpt lat="45.69002" lon="5.98612">
        <ele>1406.0654296875</ele>
        <time>2012-02-11T09:51:22Z</time>
      </trkpt>
      <trkpt lat="45.69001" lon="5.98608">
        <ele>1407.0268554688</ele>
        <time>2012-02-11T09:51:28Z</time>
      </trkpt>
      <trkpt lat="45.69001" lon="5.98609">
        <ele>1407.98828125</ele>
        <time>2012-02-11T09:51:44Z</time>
      </trkpt>
      <trkpt lat="45.69001" lon="5.98609">
        <ele>1407.98828125</ele>
        <time>2012-02-11T09:51:50Z</time>
      </trkpt>
      <trkpt lat="45.69001" lon="5.98606">
        <ele>1408.46875</ele>
        <time>2012-02-11T09:51:58Z</time>
      </trkpt>
      <trkpt lat="45.68999" lon="5.98601">
        <ele>1409.4301757812</ele>
        <time>2012-02-11T09:52:04Z</time>
      </trkpt>
      <trkpt lat="45.68999" lon="5.98596">
        <ele>1410.3913574219</ele>
        <time>2012-02-11T09:52:09Z</time>
      </trkpt>
      <trkpt lat="45.68999" lon="5.98592">
        <ele>1410.8720703125</ele>
        <time>2012-02-11T09:52:13Z</time>
      </trkpt>
      <trkpt lat="45.68999" lon="5.98588">
        <ele>1413.275390625</ele>
        <time>2012-02-11T09:52:23Z</time>
      </trkpt>
      <trkpt lat="45.69" lon="5.98589">
        <ele>1412.7946777344</ele>
        <time>2012-02-11T09:52:31Z</time>
      </trkpt>
      <trkpt lat="45.69" lon="5.9859">
        <ele>1412.3139648438</ele>
        <time>2012-02-11T09:52:38Z</time>
      </trkpt>
      <trkpt lat="45.68999" lon="5.98592">
        <ele>1410.8720703125</ele>
        <time>2012-02-11T09:52:47Z</time>
      </trkpt>
      <trkpt lat="45.69" lon="5.98594">
        <ele>1412.3139648438</ele>
        <time>2012-02-11T09:53:05Z</time>
      </trkpt>
      <trkpt lat="45.69" lon="5.98594">
        <ele>1412.7946777344</ele>
        <time>2012-02-11T09:53:12Z</time>
      </trkpt>
      <trkpt lat="45.68995" lon="5.98592">
        <ele>1414.2365722656</ele>
        <time>2012-02-11T09:53:19Z</time>
      </trkpt>
      <trkpt lat="45.68993" lon="5.9859">
        <ele>1415.1979980469</ele>
        <time>2012-02-11T09:53:22Z</time>
      </trkpt>
      <trkpt lat="45.68991" lon="5.98585">
        <ele>1415.6787109375</ele>
        <time>2012-02-11T09:53:29Z</time>
      </trkpt>
      <trkpt lat="45.68992" lon="5.98585">
        <ele>1417.1206054688</ele>
        <time>2012-02-11T09:53:34Z</time>
      </trkpt>
      <trkpt lat="45.68992" lon="5.98584">
        <ele>1417.1206054688</ele>
        <time>2012-02-11T09:53:40Z</time>
      </trkpt>
      <trkpt lat="45.68988" lon="5.98591">
        <ele>1421.9272460938</ele>
        <time>2012-02-11T09:54:04Z</time>
      </trkpt>
      <trkpt lat="45.68988" lon="5.98591">
        <ele>1422.4079589844</ele>
        <time>2012-02-11T09:54:06Z</time>
      </trkpt>
      <trkpt lat="45.68989" lon="5.9859">
        <ele>1422.4079589844</ele>
        <time>2012-02-11T09:54:07Z</time>
      </trkpt>
      <trkpt lat="45.68989" lon="5.98586">
        <ele>1419.5239257812</ele>
        <time>2012-02-11T09:54:22Z</time>
      </trkpt>
      <trkpt lat="45.68989" lon="5.98581">
        <ele>1418.0817871094</ele>
        <time>2012-02-11T09:54:28Z</time>
      </trkpt>
      <trkpt lat="45.68989" lon="5.98581">
        <ele>1418.0817871094</ele>
        <time>2012-02-11T09:54:54Z</time>
      </trkpt>
      <trkpt lat="45.68989" lon="5.98581">
        <ele>1418.5625</ele>
        <time>2012-02-11T09:55:02Z</time>
      </trkpt>
      <trkpt lat="45.68991" lon="5.98579">
        <ele>1421.9272460938</ele>
        <time>2012-02-11T09:55:20Z</time>
      </trkpt>
      <trkpt lat="45.68989" lon="5.98578">
        <ele>1420.0046386719</ele>
        <time>2012-02-11T09:55:34Z</time>
      </trkpt>
      <trkpt lat="45.68989" lon="5.9858">
        <ele>1420.0046386719</ele>
        <time>2012-02-11T09:56:08Z</time>
      </trkpt>
      <trkpt lat="45.68987" lon="5.98578">
        <ele>1419.0432128906</ele>
        <time>2012-02-11T09:56:15Z</time>
      </trkpt>
      <trkpt lat="45.68986" lon="5.98575">
        <ele>1419.0432128906</ele>
        <time>2012-02-11T09:56:18Z</time>
      </trkpt>
      <trkpt lat="45.68985" lon="5.98575">
        <ele>1418.5625</ele>
        <time>2012-02-11T09:56:19Z</time>
      </trkpt>
      <trkpt lat="45.68983" lon="5.98571">
        <ele>1419.0432128906</ele>
        <time>2012-02-11T09:56:23Z</time>
      </trkpt>
      <trkpt lat="45.6898" lon="5.98568">
        <ele>1417.6010742188</ele>
        <time>2012-02-11T09:56:35Z</time>
      </trkpt>
      <trkpt lat="45.68979" lon="5.98564">
        <ele>1418.0817871094</ele>
        <time>2012-02-11T09:56:38Z</time>
      </trkpt>
      <trkpt lat="45.68977" lon="5.98561">
        <ele>1419.0432128906</ele>
        <time>2012-02-11T09:56:41Z</time>
      </trkpt>
      <trkpt lat="45.68979" lon="5.98559">
        <ele>1420.9660644531</ele>
        <time>2012-02-11T09:57:07Z</time>
      </trkpt>
      <trkpt lat="45.68979" lon="5.98559">
        <ele>1421.9272460938</ele>
        <time>2012-02-11T09:57:14Z</time>
      </trkpt>
      <trkpt lat="45.68978" lon="5.98559">
        <ele>1422.4079589844</ele>
        <time>2012-02-11T09:57:15Z</time>
      </trkpt>
      <trkpt lat="45.68978" lon="5.98558">
        <ele>1422.888671875</ele>
        <time>2012-02-11T09:57:20Z</time>
      </trkpt>
      <trkpt lat="45.68977" lon="5.98559">
        <ele>1421.9272460938</ele>
        <time>2012-02-11T09:57:25Z</time>
      </trkpt>
      <trkpt lat="45.68974" lon="5.98558">
        <ele>1420.9660644531</ele>
        <time>2012-02-11T09:57:39Z</time>
      </trkpt>
      <trkpt lat="45.68974" lon="5.98556">
        <ele>1420.9660644531</ele>
        <time>2012-02-11T09:57:49Z</time>
      </trkpt>
      <trkpt lat="45.68974" lon="5.98555">
        <ele>1420.9660644531</ele>
        <time>2012-02-11T09:57:59Z</time>
      </trkpt>
      <trkpt lat="45.68972" lon="5.98552">
        <ele>1420.4853515625</ele>
        <time>2012-02-11T09:58:07Z</time>
      </trkpt>
      <trkpt lat="45.68971" lon="5.98551">
        <ele>1420.9660644531</ele>
        <time>2012-02-11T09:58:11Z</time>
      </trkpt>
      <trkpt lat="45.68971" lon="5.98548">
        <ele>1421.4465332031</ele>
        <time>2012-02-11T09:58:19Z</time>
      </trkpt>
      <trkpt lat="45.6897" lon="5.98546">
        <ele>1421.9272460938</ele>
        <time>2012-02-11T09:58:22Z</time>
      </trkpt>
      <trkpt lat="45.68967" lon="5.98541">
        <ele>1422.4079589844</ele>
        <time>2012-02-11T09:58:26Z</time>
      </trkpt>
      <trkpt lat="45.68966" lon="5.98538">
        <ele>1423.8498535156</ele>
        <time>2012-02-11T09:58:29Z</time>
      </trkpt>
      <trkpt lat="45.68965" lon="5.98538">
        <ele>1424.3305664062</ele>
        <time>2012-02-11T09:58:35Z</time>
      </trkpt>
      <trkpt lat="45.68963" lon="5.98536">
        <ele>1423.3693847656</ele>
        <time>2012-02-11T09:58:44Z</time>
      </trkpt>
      <trkpt lat="45.68961" lon="5.98533">
        <ele>1423.3693847656</ele>
        <time>2012-02-11T09:58:48Z</time>
      </trkpt>
      <trkpt lat="45.68959" lon="5.98529">
        <ele>1423.8498535156</ele>
        <time>2012-02-11T09:58:52Z</time>
      </trkpt>
      <trkpt lat="45.68958" lon="5.98523">
        <ele>1425.2917480469</ele>
        <time>2012-02-11T09:58:58Z</time>
      </trkpt>
      <trkpt lat="45.68956" lon="5.98521">
        <ele>1425.7724609375</ele>
        <time>2012-02-11T09:59:02Z</time>
      </trkpt>
      <trkpt lat="45.68954" lon="5.98518">
        <ele>1425.2917480469</ele>
        <time>2012-02-11T09:59:06Z</time>
      </trkpt>
      <trkpt lat="45.68953" lon="5.98515">
        <ele>1426.7338867188</ele>
        <time>2012-02-11T09:59:10Z</time>
      </trkpt>
      <trkpt lat="45.68951" lon="5.98512">
        <ele>1427.6950683594</ele>
        <time>2012-02-11T09:59:14Z</time>
      </trkpt>
      <trkpt lat="45.68949" lon="5.9851">
        <ele>1427.6950683594</ele>
        <time>2012-02-11T09:59:18Z</time>
      </trkpt>
      <trkpt lat="45.68947" lon="5.98507">
        <ele>1428.6564941406</ele>
        <time>2012-02-11T09:59:23Z</time>
      </trkpt>
      <trkpt lat="45.68943" lon="5.98504">
        <ele>1429.1369628906</ele>
        <time>2012-02-11T09:59:27Z</time>
      </trkpt>
      <trkpt lat="45.68942" lon="5.98501">
        <ele>1430.5791015625</ele>
        <time>2012-02-11T09:59:30Z</time>
      </trkpt>
      <trkpt lat="45.6894" lon="5.98498">
        <ele>1433.462890625</ele>
        <time>2012-02-11T09:59:35Z</time>
      </trkpt>
      <trkpt lat="45.68939" lon="5.98495">
        <ele>1434.9050292969</ele>
        <time>2012-02-11T09:59:38Z</time>
      </trkpt>
      <trkpt lat="45.68937" lon="5.98493">
        <ele>1435.3854980469</ele>
        <time>2012-02-11T09:59:43Z</time>
      </trkpt>
      <trkpt lat="45.68935" lon="5.9849">
        <ele>1436.3471679688</ele>
        <time>2012-02-11T09:59:47Z</time>
      </trkpt>
      <trkpt lat="45.68933" lon="5.98488">
        <ele>1437.3083496094</ele>
        <time>2012-02-11T09:59:50Z</time>
      </trkpt>
      <trkpt lat="45.68931" lon="5.98485">
        <ele>1438.2697753906</ele>
        <time>2012-02-11T09:59:54Z</time>
      </trkpt>
      <trkpt lat="45.6893" lon="5.98482">
        <ele>1438.7504882812</ele>
        <time>2012-02-11T09:59:57Z</time>
      </trkpt>
      <trkpt lat="45.68927" lon="5.98479">
        <ele>1438.2697753906</ele>
        <time>2012-02-11T10:00:01Z</time>
      </trkpt>
      <trkpt lat="45.68924" lon="5.98478">
        <ele>1437.3083496094</ele>
        <time>2012-02-11T10:00:08Z</time>
      </trkpt>
      <trkpt lat="45.68921" lon="5.98475">
        <ele>1437.7890625</ele>
        <time>2012-02-11T10:00:12Z</time>
      </trkpt>
      <trkpt lat="45.68919" lon="5.98472">
        <ele>1437.7890625</ele>
        <time>2012-02-11T10:00:16Z</time>
      </trkpt>
      <trkpt lat="45.68917" lon="5.98469">
        <ele>1438.7504882812</ele>
        <time>2012-02-11T10:00:20Z</time>
      </trkpt>
      <trkpt lat="45.68913" lon="5.98467">
        <ele>1439.2309570312</ele>
        <time>2012-02-11T10:00:24Z</time>
      </trkpt>
      <trkpt lat="45.68911" lon="5.98464">
        <ele>1440.6728515625</ele>
        <time>2012-02-11T10:00:28Z</time>
      </trkpt>
      <trkpt lat="45.68909" lon="5.98463">
        <ele>1440.6728515625</ele>
        <time>2012-02-11T10:00:31Z</time>
      </trkpt>
      <trkpt lat="45.68907" lon="5.98458">
        <ele>1443.076171875</ele>
        <time>2012-02-11T10:00:36Z</time>
      </trkpt>
      <trkpt lat="45.68906" lon="5.98455">
        <ele>1443.5568847656</ele>
        <time>2012-02-11T10:00:40Z</time>
      </trkpt>
      <trkpt lat="45.68904" lon="5.98451">
        <ele>1445.4794921875</ele>
        <time>2012-02-11T10:00:44Z</time>
      </trkpt>
      <trkpt lat="45.68902" lon="5.98446">
        <ele>1446.4409179688</ele>
        <time>2012-02-11T10:00:49Z</time>
      </trkpt>
      <trkpt lat="45.689" lon="5.98442">
        <ele>1447.4020996094</ele>
        <time>2012-02-11T10:00:54Z</time>
      </trkpt>
      <trkpt lat="45.68896" lon="5.98437">
        <ele>1445.4794921875</ele>
        <time>2012-02-11T10:01:02Z</time>
      </trkpt>
      <trkpt lat="45.68893" lon="5.98434">
        <ele>1444.9987792969</ele>
        <time>2012-02-11T10:01:07Z</time>
      </trkpt>
      <trkpt lat="45.6889" lon="5.98431">
        <ele>1445.9602050781</ele>
        <time>2012-02-11T10:01:11Z</time>
      </trkpt>
      <trkpt lat="45.6889" lon="5.98426">
        <ele>1446.9213867188</ele>
        <time>2012-02-11T10:01:17Z</time>
      </trkpt>
      <trkpt lat="45.68888" lon="5.98423">
        <ele>1446.9213867188</ele>
        <time>2012-02-11T10:01:22Z</time>
      </trkpt>
      <trkpt lat="45.68887" lon="5.9842">
        <ele>1447.4020996094</ele>
        <time>2012-02-11T10:01:26Z</time>
      </trkpt>
      <trkpt lat="45.68885" lon="5.98416">
        <ele>1448.36328125</ele>
        <time>2012-02-11T10:01:30Z</time>
      </trkpt>
      <trkpt lat="45.68884" lon="5.98414">
        <ele>1449.3247070312</ele>
        <time>2012-02-11T10:01:34Z</time>
      </trkpt>
      <trkpt lat="45.68883" lon="5.9841">
        <ele>1451.2473144531</ele>
        <time>2012-02-11T10:01:38Z</time>
      </trkpt>
      <trkpt lat="45.68881" lon="5.98404">
        <ele>1452.689453125</ele>
        <time>2012-02-11T10:01:43Z</time>
      </trkpt>
      <trkpt lat="45.6888" lon="5.98402">
        <ele>1453.1701660156</ele>
        <time>2012-02-11T10:01:47Z</time>
      </trkpt>
      <trkpt lat="45.6888" lon="5.98403">
        <ele>1451.7280273438</ele>
        <time>2012-02-11T10:01:54Z</time>
      </trkpt>
      <trkpt lat="45.6888" lon="5.98404">
        <ele>1451.2473144531</ele>
        <time>2012-02-11T10:02:01Z</time>
      </trkpt>
      <trkpt lat="45.68879" lon="5.98405">
        <ele>1450.7666015625</ele>
        <time>2012-02-11T10:02:07Z</time>
      </trkpt>
      <trkpt lat="45.68879" lon="5.98405">
        <ele>1452.2087402344</ele>
        <time>2012-02-11T10:02:14Z</time>
      </trkpt>
      <trkpt lat="45.68879" lon="5.98402">
        <ele>1453.6508789062</ele>
        <time>2012-02-11T10:02:20Z</time>
      </trkpt>
      <trkpt lat="45.68879" lon="5.98403">
        <ele>1455.0927734375</ele>
        <time>2012-02-11T10:02:23Z</time>
      </trkpt>
      <trkpt lat="45.68878" lon="5.98403">
        <ele>1457.0153808594</ele>
        <time>2012-02-11T10:02:28Z</time>
      </trkpt>
      <trkpt lat="45.68877" lon="5.98403">
        <ele>1457.49609375</ele>
        <time>2012-02-11T10:02:31Z</time>
      </trkpt>
      <trkpt lat="45.68874" lon="5.98398">
        <ele>1455.0927734375</ele>
        <time>2012-02-11T10:02:42Z</time>
      </trkpt>
      <trkpt lat="45.68872" lon="5.98394">
        <ele>1454.1315917969</ele>
        <time>2012-02-11T10:02:47Z</time>
      </trkpt>
      <trkpt lat="45.68871" lon="5.98389">
        <ele>1454.6120605469</ele>
        <time>2012-02-11T10:02:52Z</time>
      </trkpt>
      <trkpt lat="45.6887" lon="5.98386">
        <ele>1455.0927734375</ele>
        <time>2012-02-11T10:02:57Z</time>
      </trkpt>
      <trkpt lat="45.68868" lon="5.98382">
        <ele>1455.5734863281</ele>
        <time>2012-02-11T10:03:02Z</time>
      </trkpt>
      <trkpt lat="45.68866" lon="5.98378">
        <ele>1455.0927734375</ele>
        <time>2012-02-11T10:03:08Z</time>
      </trkpt>
      <trkpt lat="45.68862" lon="5.98374">
        <ele>1454.6120605469</ele>
        <time>2012-02-11T10:03:14Z</time>
      </trkpt>
      <trkpt lat="45.68861" lon="5.98372">
        <ele>1454.1315917969</ele>
        <time>2012-02-11T10:03:19Z</time>
      </trkpt>
      <trkpt lat="45.68862" lon="5.98371">
        <ele>1453.6508789062</ele>
        <time>2012-02-11T10:03:29Z</time>
      </trkpt>
      <trkpt lat="45.68864" lon="5.9837">
        <ele>1454.1315917969</ele>
        <time>2012-02-11T10:03:38Z</time>
      </trkpt>
      <trkpt lat="45.68863" lon="5.98369">
        <ele>1453.1701660156</ele>
        <time>2012-02-11T10:03:51Z</time>
      </trkpt>
      <trkpt lat="45.68861" lon="5.98367">
        <ele>1453.6508789062</ele>
        <time>2012-02-11T10:03:57Z</time>
      </trkpt>
      <trkpt lat="45.68861" lon="5.98367">
        <ele>1453.1701660156</ele>
        <time>2012-02-11T10:04:03Z</time>
      </trkpt>
      <trkpt lat="45.68859" lon="5.98366">
        <ele>1453.6508789062</ele>
        <time>2012-02-11T10:04:08Z</time>
      </trkpt>
      <trkpt lat="45.68859" lon="5.98367">
        <ele>1453.6508789062</ele>
        <time>2012-02-11T10:04:16Z</time>
      </trkpt>
      <trkpt lat="45.68856" lon="5.98368">
        <ele>1456.0539550781</ele>
        <time>2012-02-11T10:04:27Z</time>
      </trkpt>
      <trkpt lat="45.68856" lon="5.98367">
        <ele>1459.4187011719</ele>
        <time>2012-02-11T10:04:35Z</time>
      </trkpt>
      <trkpt lat="45.68853" lon="5.98368">
        <ele>1457.9768066406</ele>
        <time>2012-02-11T10:04:44Z</time>
      </trkpt>
      <trkpt lat="45.68851" lon="5.98366">
        <ele>1457.49609375</ele>
        <time>2012-02-11T10:04:48Z</time>
      </trkpt>
      <trkpt lat="45.68849" lon="5.98362">
        <ele>1457.9768066406</ele>
        <time>2012-02-11T10:04:53Z</time>
      </trkpt>
      <trkpt lat="45.68848" lon="5.9836">
        <ele>1458.9379882812</ele>
        <time>2012-02-11T10:04:58Z</time>
      </trkpt>
      <trkpt lat="45.68848" lon="5.98361">
        <ele>1458.9379882812</ele>
        <time>2012-02-11T10:05:04Z</time>
      </trkpt>
      <trkpt lat="45.68847" lon="5.98362">
        <ele>1460.8605957031</ele>
        <time>2012-02-11T10:05:22Z</time>
      </trkpt>
      <trkpt lat="45.68845" lon="5.9836">
        <ele>1460.8605957031</ele>
        <time>2012-02-11T10:05:36Z</time>
      </trkpt>
      <trkpt lat="45.68841" lon="5.98358">
        <ele>1459.8991699219</ele>
        <time>2012-02-11T10:05:42Z</time>
      </trkpt>
      <trkpt lat="45.6884" lon="5.98356">
        <ele>1458.9379882812</ele>
        <time>2012-02-11T10:05:48Z</time>
      </trkpt>
      <trkpt lat="45.68836" lon="5.98352">
        <ele>1459.4187011719</ele>
        <time>2012-02-11T10:05:54Z</time>
      </trkpt>
      <trkpt lat="45.68837" lon="5.98351">
        <ele>1460.3798828125</ele>
        <time>2012-02-11T10:06:03Z</time>
      </trkpt>
      <trkpt lat="45.68835" lon="5.98349">
        <ele>1459.4187011719</ele>
        <time>2012-02-11T10:06:12Z</time>
      </trkpt>
      <trkpt lat="45.68833" lon="5.98347">
        <ele>1459.8991699219</ele>
        <time>2012-02-11T10:06:16Z</time>
      </trkpt>
      <trkpt lat="45.6883" lon="5.98344">
        <ele>1460.8605957031</ele>
        <time>2012-02-11T10:06:20Z</time>
      </trkpt>
      <trkpt lat="45.68827" lon="5.98343">
        <ele>1461.8220214844</ele>
        <time>2012-02-11T10:06:24Z</time>
      </trkpt>
      <trkpt lat="45.68825" lon="5.98341">
        <ele>1461.3413085938</ele>
        <time>2012-02-11T10:06:29Z</time>
      </trkpt>
      <trkpt lat="45.68822" lon="5.98338">
        <ele>1461.8220214844</ele>
        <time>2012-02-11T10:06:34Z</time>
      </trkpt>
      <trkpt lat="45.68822" lon="5.98336">
        <ele>1462.783203125</ele>
        <time>2012-02-11T10:06:41Z</time>
      </trkpt>
      <trkpt lat="45.68821" lon="5.98336">
        <ele>1463.2639160156</ele>
        <time>2012-02-11T10:06:52Z</time>
      </trkpt>
      <trkpt lat="45.68818" lon="5.98334">
        <ele>1462.783203125</ele>
        <time>2012-02-11T10:06:57Z</time>
      </trkpt>
      <trkpt lat="45.68817" lon="5.98334">
        <ele>1463.7443847656</ele>
        <time>2012-02-11T10:07:01Z</time>
      </trkpt>
      <trkpt lat="45.68815" lon="5.98332">
        <ele>1464.2250976562</ele>
        <time>2012-02-11T10:07:05Z</time>
      </trkpt>
      <trkpt lat="45.68812" lon="5.98329">
        <ele>1465.6672363281</ele>
        <time>2012-02-11T10:07:09Z</time>
      </trkpt>
      <trkpt lat="45.6881" lon="5.98328">
        <ele>1466.1477050781</ele>
        <time>2012-02-11T10:07:13Z</time>
      </trkpt>
      <trkpt lat="45.68807" lon="5.98326">
        <ele>1466.6284179688</ele>
        <time>2012-02-11T10:07:17Z</time>
      </trkpt>
      <trkpt lat="45.68805" lon="5.98323">
        <ele>1466.6284179688</ele>
        <time>2012-02-11T10:07:21Z</time>
      </trkpt>
      <trkpt lat="45.68803" lon="5.98322">
        <ele>1466.1477050781</ele>
        <time>2012-02-11T10:07:25Z</time>
      </trkpt>
      <trkpt lat="45.688" lon="5.98319">
        <ele>1467.5895996094</ele>
        <time>2012-02-11T10:07:30Z</time>
      </trkpt>
      <trkpt lat="45.68799" lon="5.98319">
        <ele>1468.0705566406</ele>
        <time>2012-02-11T10:07:34Z</time>
      </trkpt>
      <trkpt lat="45.68798" lon="5.98316">
        <ele>1469.5126953125</ele>
        <time>2012-02-11T10:07:38Z</time>
      </trkpt>
      <trkpt lat="45.68796" lon="5.98315">
        <ele>1469.9931640625</ele>
        <time>2012-02-11T10:07:41Z</time>
      </trkpt>
      <trkpt lat="45.68793" lon="5.98312">
        <ele>1470.4738769531</ele>
        <time>2012-02-11T10:07:45Z</time>
      </trkpt>
      <trkpt lat="45.68791" lon="5.98311">
        <ele>1471.4350585938</ele>
        <time>2012-02-11T10:07:49Z</time>
      </trkpt>
      <trkpt lat="45.68789" lon="5.98312">
        <ele>1469.0319824219</ele>
        <time>2012-02-11T10:07:56Z</time>
      </trkpt>
      <trkpt lat="45.68789" lon="5.98311">
        <ele>1469.5126953125</ele>
        <time>2012-02-11T10:08:05Z</time>
      </trkpt>
      <trkpt lat="45.6879" lon="5.98312">
        <ele>1469.5126953125</ele>
        <time>2012-02-11T10:08:14Z</time>
      </trkpt>
      <trkpt lat="45.6879" lon="5.98312">
        <ele>1468.0705566406</ele>
        <time>2012-02-11T10:08:17Z</time>
      </trkpt>
      <trkpt lat="45.6879" lon="5.98313">
        <ele>1468.0705566406</ele>
        <time>2012-02-11T10:08:21Z</time>
      </trkpt>
      <trkpt lat="45.6879" lon="5.98313">
        <ele>1469.5126953125</ele>
        <time>2012-02-11T10:08:27Z</time>
      </trkpt>
      <trkpt lat="45.68789" lon="5.98314">
        <ele>1470.9545898438</ele>
        <time>2012-02-11T10:08:36Z</time>
      </trkpt>
      <trkpt lat="45.68787" lon="5.98312">
        <ele>1470.9545898438</ele>
        <time>2012-02-11T10:08:42Z</time>
      </trkpt>
      <trkpt lat="45.68784" lon="5.98309">
        <ele>1470.4738769531</ele>
        <time>2012-02-11T10:08:46Z</time>
      </trkpt>
      <trkpt lat="45.68782" lon="5.98307">
        <ele>1471.4350585938</ele>
        <time>2012-02-11T10:08:50Z</time>
      </trkpt>
      <trkpt lat="45.6878" lon="5.98304">
        <ele>1471.4350585938</ele>
        <time>2012-02-11T10:08:54Z</time>
      </trkpt>
      <trkpt lat="45.68777" lon="5.983">
        <ele>1472.396484375</ele>
        <time>2012-02-11T10:08:59Z</time>
      </trkpt>
      <trkpt lat="45.68773" lon="5.98299">
        <ele>1474.3190917969</ele>
        <time>2012-02-11T10:09:03Z</time>
      </trkpt>
      <trkpt lat="45.68771" lon="5.98297">
        <ele>1475.2802734375</ele>
        <time>2012-02-11T10:09:07Z</time>
      </trkpt>
      <trkpt lat="45.68767" lon="5.98295">
        <ele>1476.2416992188</ele>
        <time>2012-02-11T10:09:11Z</time>
      </trkpt>
      <trkpt lat="45.68763" lon="5.98294">
        <ele>1475.7609863281</ele>
        <time>2012-02-11T10:09:16Z</time>
      </trkpt>
      <trkpt lat="45.6876" lon="5.98291">
        <ele>1475.7609863281</ele>
        <time>2012-02-11T10:09:20Z</time>
      </trkpt>
      <trkpt lat="45.68755" lon="5.98289">
        <ele>1476.2416992188</ele>
        <time>2012-02-11T10:09:26Z</time>
      </trkpt>
      <trkpt lat="45.68753" lon="5.98288">
        <ele>1476.7224121094</ele>
        <time>2012-02-11T10:09:28Z</time>
      </trkpt>
      <trkpt lat="45.68747" lon="5.98287">
        <ele>1477.203125</ele>
        <time>2012-02-11T10:09:34Z</time>
      </trkpt>
      <trkpt lat="45.68741" lon="5.98288">
        <ele>1478.6450195312</ele>
        <time>2012-02-11T10:09:39Z</time>
      </trkpt>
      <trkpt lat="45.68736" lon="5.98287">
        <ele>1479.1254882812</ele>
        <time>2012-02-11T10:09:45Z</time>
      </trkpt>
      <trkpt lat="45.68738" lon="5.98288">
        <ele>1478.1643066406</ele>
        <time>2012-02-11T10:09:50Z</time>
      </trkpt>
      <trkpt lat="45.68739" lon="5.98288">
        <ele>1480.0869140625</ele>
        <time>2012-02-11T10:09:58Z</time>
      </trkpt>
      <trkpt lat="45.68739" lon="5.9829">
        <ele>1481.0483398438</ele>
        <time>2012-02-11T10:10:13Z</time>
      </trkpt>
      <trkpt lat="45.68734" lon="5.9829">
        <ele>1480.0869140625</ele>
        <time>2012-02-11T10:10:17Z</time>
      </trkpt>
      <trkpt lat="45.68731" lon="5.98289">
        <ele>1479.6062011719</ele>
        <time>2012-02-11T10:10:22Z</time>
      </trkpt>
      <trkpt lat="45.68727" lon="5.98288">
        <ele>1478.6450195312</ele>
        <time>2012-02-11T10:10:28Z</time>
      </trkpt>
      <trkpt lat="45.68723" lon="5.98288">
        <ele>1478.6450195312</ele>
        <time>2012-02-11T10:10:33Z</time>
      </trkpt>
      <trkpt lat="45.6872" lon="5.98288">
        <ele>1479.1254882812</ele>
        <time>2012-02-11T10:10:37Z</time>
      </trkpt>
      <trkpt lat="45.68715" lon="5.98285">
        <ele>1480.0869140625</ele>
        <time>2012-02-11T10:10:43Z</time>
      </trkpt>
      <trkpt lat="45.68711" lon="5.98286">
        <ele>1480.5676269531</ele>
        <time>2012-02-11T10:10:48Z</time>
      </trkpt>
      <trkpt lat="45.68705" lon="5.98284">
        <ele>1482.490234375</ele>
        <time>2012-02-11T10:10:54Z</time>
      </trkpt>
      <trkpt lat="45.68702" lon="5.98283">
        <ele>1483.4514160156</ele>
        <time>2012-02-11T10:10:59Z</time>
      </trkpt>
      <trkpt lat="45.68698" lon="5.98282">
        <ele>1482.970703125</ele>
        <time>2012-02-11T10:11:04Z</time>
      </trkpt>
      <trkpt lat="45.68695" lon="5.98281">
        <ele>1482.970703125</ele>
        <time>2012-02-11T10:11:08Z</time>
      </trkpt>
      <trkpt lat="45.68694" lon="5.98282">
        <ele>1483.9321289062</ele>
        <time>2012-02-11T10:11:15Z</time>
      </trkpt>
      <trkpt lat="45.68693" lon="5.98281">
        <ele>1487.296875</ele>
        <time>2012-02-11T10:11:27Z</time>
      </trkpt>
      <trkpt lat="45.68691" lon="5.9828">
        <ele>1490.6613769531</ele>
        <time>2012-02-11T10:11:35Z</time>
      </trkpt>
      <trkpt lat="45.6869" lon="5.98281">
        <ele>1492.103515625</ele>
        <time>2012-02-11T10:11:42Z</time>
      </trkpt>
      <trkpt lat="45.68687" lon="5.9828">
        <ele>1492.103515625</ele>
        <time>2012-02-11T10:11:48Z</time>
      </trkpt>
      <trkpt lat="45.68682" lon="5.9828">
        <ele>1492.5842285156</ele>
        <time>2012-02-11T10:11:54Z</time>
      </trkpt>
      <trkpt lat="45.68681" lon="5.98279">
        <ele>1493.0646972656</ele>
        <time>2012-02-11T10:11:59Z</time>
      </trkpt>
      <trkpt lat="45.6868" lon="5.98278">
        <ele>1492.5842285156</ele>
        <time>2012-02-11T10:12:04Z</time>
      </trkpt>
      <trkpt lat="45.68681" lon="5.9828">
        <ele>1490.6613769531</ele>
        <time>2012-02-11T10:12:14Z</time>
      </trkpt>
      <trkpt lat="45.68681" lon="5.9828">
        <ele>1489.7001953125</ele>
        <time>2012-02-11T10:12:21Z</time>
      </trkpt>
      <trkpt lat="45.68679" lon="5.98282">
        <ele>1490.1809082031</ele>
        <time>2012-02-11T10:12:32Z</time>
      </trkpt>
      <trkpt lat="45.68676" lon="5.98282">
        <ele>1491.6228027344</ele>
        <time>2012-02-11T10:12:40Z</time>
      </trkpt>
      <trkpt lat="45.68674" lon="5.98282">
        <ele>1490.6613769531</ele>
        <time>2012-02-11T10:12:47Z</time>
      </trkpt>
      <trkpt lat="45.68669" lon="5.98281">
        <ele>1490.6613769531</ele>
        <time>2012-02-11T10:12:52Z</time>
      </trkpt>
      <trkpt lat="45.68665" lon="5.9828">
        <ele>1490.6613769531</ele>
        <time>2012-02-11T10:12:57Z</time>
      </trkpt>
      <trkpt lat="45.6866" lon="5.98281">
        <ele>1491.1420898438</ele>
        <time>2012-02-11T10:13:03Z</time>
      </trkpt>
      <trkpt lat="45.68656" lon="5.98282">
        <ele>1490.1809082031</ele>
        <time>2012-02-11T10:13:07Z</time>
      </trkpt>
      <trkpt lat="45.68653" lon="5.98282">
        <ele>1489.7001953125</ele>
        <time>2012-02-11T10:13:11Z</time>
      </trkpt>
      <trkpt lat="45.6865" lon="5.98282">
        <ele>1489.2194824219</ele>
        <time>2012-02-11T10:13:17Z</time>
      </trkpt>
      <trkpt lat="45.68648" lon="5.98284">
        <ele>1491.1420898438</ele>
        <time>2012-02-11T10:13:25Z</time>
      </trkpt>
      <trkpt lat="45.68644" lon="5.98285">
        <ele>1491.1420898438</ele>
        <time>2012-02-11T10:13:30Z</time>
      </trkpt>
      <trkpt lat="45.68641" lon="5.98285">
        <ele>1490.6613769531</ele>
        <time>2012-02-11T10:13:34Z</time>
      </trkpt>
      <trkpt lat="45.68637" lon="5.98286">
        <ele>1490.6613769531</ele>
        <time>2012-02-11T10:13:38Z</time>
      </trkpt>
      <trkpt lat="45.68631" lon="5.98288">
        <ele>1490.1809082031</ele>
        <time>2012-02-11T10:13:44Z</time>
      </trkpt>
      <trkpt lat="45.68627" lon="5.98289">
        <ele>1489.2194824219</ele>
        <time>2012-02-11T10:13:49Z</time>
      </trkpt>
      <trkpt lat="45.68623" lon="5.98292">
        <ele>1487.296875</ele>
        <time>2012-02-11T10:13:53Z</time>
      </trkpt>
      <trkpt lat="45.6862" lon="5.98294">
        <ele>1488.2583007812</ele>
        <time>2012-02-11T10:13:56Z</time>
      </trkpt>
      <trkpt lat="45.68616" lon="5.98296">
        <ele>1487.296875</ele>
        <time>2012-02-11T10:14:01Z</time>
      </trkpt>
      <trkpt lat="45.68613" lon="5.98299">
        <ele>1486.8161621094</ele>
        <time>2012-02-11T10:14:06Z</time>
      </trkpt>
      <trkpt lat="45.68607" lon="5.98301">
        <ele>1488.7390136719</ele>
        <time>2012-02-11T10:14:13Z</time>
      </trkpt>
      <trkpt lat="45.68604" lon="5.98304">
        <ele>1488.7390136719</ele>
        <time>2012-02-11T10:14:18Z</time>
      </trkpt>
      <trkpt lat="45.686" lon="5.98308">
        <ele>1490.1809082031</ele>
        <time>2012-02-11T10:14:23Z</time>
      </trkpt>
      <trkpt lat="45.68597" lon="5.98312">
        <ele>1489.2194824219</ele>
        <time>2012-02-11T10:14:28Z</time>
      </trkpt>
      <trkpt lat="45.68594" lon="5.98318">
        <ele>1488.7390136719</ele>
        <time>2012-02-11T10:14:33Z</time>
      </trkpt>
      <trkpt lat="45.68591" lon="5.98322">
        <ele>1488.7390136719</ele>
        <time>2012-02-11T10:14:37Z</time>
      </trkpt>
      <trkpt lat="45.68588" lon="5.98326">
        <ele>1487.296875</ele>
        <time>2012-02-11T10:14:43Z</time>
      </trkpt>
      <trkpt lat="45.68584" lon="5.98328">
        <ele>1487.7775878906</ele>
        <time>2012-02-11T10:14:48Z</time>
      </trkpt>
      <trkpt lat="45.68583" lon="5.98327">
        <ele>1491.1420898438</ele>
        <time>2012-02-11T10:14:56Z</time>
      </trkpt>
      <trkpt lat="45.68579" lon="5.98328">
        <ele>1490.6613769531</ele>
        <time>2012-02-11T10:15:00Z</time>
      </trkpt>
      <trkpt lat="45.68575" lon="5.98327">
        <ele>1491.1420898438</ele>
        <time>2012-02-11T10:15:05Z</time>
      </trkpt>
      <trkpt lat="45.68571" lon="5.98324">
        <ele>1491.1420898438</ele>
        <time>2012-02-11T10:15:11Z</time>
      </trkpt>
      <trkpt lat="45.68566" lon="5.98323">
        <ele>1490.1809082031</ele>
        <time>2012-02-11T10:15:16Z</time>
      </trkpt>
      <trkpt lat="45.68561" lon="5.98325">
        <ele>1489.2194824219</ele>
        <time>2012-02-11T10:15:22Z</time>
      </trkpt>
      <trkpt lat="45.68557" lon="5.98326">
        <ele>1488.2583007812</ele>
        <time>2012-02-11T10:15:27Z</time>
      </trkpt>
      <trkpt lat="45.68555" lon="5.98322">
        <ele>1486.3356933594</ele>
        <time>2012-02-11T10:15:32Z</time>
      </trkpt>
      <trkpt lat="45.68553" lon="5.98315">
        <ele>1486.3356933594</ele>
        <time>2012-02-11T10:15:38Z</time>
      </trkpt>
      <trkpt lat="45.68548" lon="5.98308">
        <ele>1486.8161621094</ele>
        <time>2012-02-11T10:15:45Z</time>
      </trkpt>
      <trkpt lat="45.68543" lon="5.98304">
        <ele>1486.8161621094</ele>
        <time>2012-02-11T10:15:52Z</time>
      </trkpt>
      <trkpt lat="45.68544" lon="5.98305">
        <ele>1486.3356933594</ele>
        <time>2012-02-11T10:15:58Z</time>
      </trkpt>
      <trkpt lat="45.68543" lon="5.98306">
        <ele>1486.3356933594</ele>
        <time>2012-02-11T10:16:10Z</time>
      </trkpt>
      <trkpt lat="45.68544" lon="5.98306">
        <ele>1486.3356933594</ele>
        <time>2012-02-11T10:16:17Z</time>
      </trkpt>
      <trkpt lat="45.68547" lon="5.98308">
        <ele>1487.296875</ele>
        <time>2012-02-11T10:16:23Z</time>
      </trkpt>
      <trkpt lat="45.68545" lon="5.98306">
        <ele>1491.6228027344</ele>
        <time>2012-02-11T10:16:28Z</time>
      </trkpt>
      <trkpt lat="45.68543" lon="5.98307">
        <ele>1492.103515625</ele>
        <time>2012-02-11T10:16:30Z</time>
      </trkpt>
      <trkpt lat="45.68542" lon="5.98307">
        <ele>1491.6228027344</ele>
        <time>2012-02-11T10:16:31Z</time>
      </trkpt>
      <trkpt lat="45.68538" lon="5.98302">
        <ele>1490.6613769531</ele>
        <time>2012-02-11T10:16:37Z</time>
      </trkpt>
      <trkpt lat="45.68533" lon="5.98298">
        <ele>1491.1420898438</ele>
        <time>2012-02-11T10:16:44Z</time>
      </trkpt>
      <trkpt lat="45.68533" lon="5.98297">
        <ele>1492.5842285156</ele>
        <time>2012-02-11T10:16:49Z</time>
      </trkpt>
      <trkpt lat="45.68531" lon="5.98296">
        <ele>1494.0261230469</ele>
        <time>2012-02-11T10:17:02Z</time>
      </trkpt>
      <trkpt lat="45.68531" lon="5.98295">
        <ele>1495.4680175781</ele>
        <time>2012-02-11T10:17:07Z</time>
      </trkpt>
      <trkpt lat="45.6853" lon="5.98294">
        <ele>1496.4294433594</ele>
        <time>2012-02-11T10:17:11Z</time>
      </trkpt>
      <trkpt lat="45.6853" lon="5.98295">
        <ele>1498.3518066406</ele>
        <time>2012-02-11T10:17:15Z</time>
      </trkpt>
      <trkpt lat="45.6853" lon="5.98295">
        <ele>1499.3132324219</ele>
        <time>2012-02-11T10:17:23Z</time>
      </trkpt>
      <trkpt lat="45.6853" lon="5.98297">
        <ele>1499.3132324219</ele>
        <time>2012-02-11T10:17:28Z</time>
      </trkpt>
      <trkpt lat="45.6853" lon="5.98297">
        <ele>1499.3132324219</ele>
        <time>2012-02-11T10:17:31Z</time>
      </trkpt>
      <trkpt lat="45.6853" lon="5.98297">
        <ele>1499.7939453125</ele>
        <time>2012-02-11T10:17:39Z</time>
      </trkpt>
      <trkpt lat="45.68531" lon="5.98301">
        <ele>1500.2749023438</ele>
        <time>2012-02-11T10:18:15Z</time>
      </trkpt>
      <trkpt lat="45.68536" lon="5.98301">
        <ele>1499.7939453125</ele>
        <time>2012-02-11T10:18:21Z</time>
      </trkpt>
      <trkpt lat="45.68538" lon="5.98302">
        <ele>1499.3132324219</ele>
        <time>2012-02-11T10:18:23Z</time>
      </trkpt>
      <trkpt lat="45.68541" lon="5.98303">
        <ele>1498.8325195312</ele>
        <time>2012-02-11T10:18:29Z</time>
      </trkpt>
      <trkpt lat="45.68541" lon="5.98304">
        <ele>1501.2360839844</ele>
        <time>2012-02-11T10:18:42Z</time>
      </trkpt>
      <trkpt lat="45.68539" lon="5.98305">
        <ele>1502.197265625</ele>
        <time>2012-02-11T10:18:51Z</time>
      </trkpt>
      <trkpt lat="45.6854" lon="5.98303">
        <ele>1499.7939453125</ele>
        <time>2012-02-11T10:19:14Z</time>
      </trkpt>
      <trkpt lat="45.68542" lon="5.98305">
        <ele>1498.8325195312</ele>
        <time>2012-02-11T10:19:19Z</time>
      </trkpt>
      <trkpt lat="45.68542" lon="5.98304">
        <ele>1498.3518066406</ele>
        <time>2012-02-11T10:19:24Z</time>
      </trkpt>
      <trkpt lat="45.68542" lon="5.98301">
        <ele>1497.390625</ele>
        <time>2012-02-11T10:19:29Z</time>
      </trkpt>
      <trkpt lat="45.68542" lon="5.983">
        <ele>1498.3518066406</ele>
        <time>2012-02-11T10:19:32Z</time>
      </trkpt>
      <trkpt lat="45.68542" lon="5.98301">
        <ele>1498.3518066406</ele>
        <time>2012-02-11T10:19:35Z</time>
      </trkpt>
      <trkpt lat="45.68542" lon="5.98296">
        <ele>1496.9099121094</ele>
        <time>2012-02-11T10:19:40Z</time>
      </trkpt>
      <trkpt lat="45.68542" lon="5.98294">
        <ele>1496.4294433594</ele>
        <time>2012-02-11T10:19:41Z</time>
      </trkpt>
      <trkpt lat="45.68542" lon="5.98288">
        <ele>1494.5065917969</ele>
        <time>2012-02-11T10:19:45Z</time>
      </trkpt>
      <trkpt lat="45.68543" lon="5.98284">
        <ele>1493.5454101562</ele>
        <time>2012-02-11T10:19:48Z</time>
      </trkpt>
      <trkpt lat="45.68542" lon="5.98276">
        <ele>1493.5454101562</ele>
        <time>2012-02-11T10:19:54Z</time>
      </trkpt>
      <trkpt lat="45.68542" lon="5.98269">
        <ele>1494.5065917969</ele>
        <time>2012-02-11T10:20:00Z</time>
      </trkpt>
      <trkpt lat="45.68542" lon="5.98268">
        <ele>1495.4680175781</ele>
        <time>2012-02-11T10:20:09Z</time>
      </trkpt>
      <trkpt lat="45.68542" lon="5.98266">
        <ele>1495.9487304688</ele>
        <time>2012-02-11T10:20:15Z</time>
      </trkpt>
      <trkpt lat="45.6854" lon="5.98261">
        <ele>1496.4294433594</ele>
        <time>2012-02-11T10:20:21Z</time>
      </trkpt>
      <trkpt lat="45.68539" lon="5.98257">
        <ele>1496.4294433594</ele>
        <time>2012-02-11T10:20:26Z</time>
      </trkpt>
      <trkpt lat="45.68538" lon="5.98251">
        <ele>1496.9099121094</ele>
        <time>2012-02-11T10:20:31Z</time>
      </trkpt>
      <trkpt lat="45.68536" lon="5.98245">
        <ele>1497.390625</ele>
        <time>2012-02-11T10:20:36Z</time>
      </trkpt>
      <trkpt lat="45.68533" lon="5.98241">
        <ele>1497.390625</ele>
        <time>2012-02-11T10:20:42Z</time>
      </trkpt>
      <trkpt lat="45.68531" lon="5.9824">
        <ele>1498.8325195312</ele>
        <time>2012-02-11T10:20:48Z</time>
      </trkpt>
      <trkpt lat="45.68529" lon="5.98236">
        <ele>1498.3518066406</ele>
        <time>2012-02-11T10:20:53Z</time>
      </trkpt>
      <trkpt lat="45.68528" lon="5.98232">
        <ele>1497.390625</ele>
        <time>2012-02-11T10:20:58Z</time>
      </trkpt>
      <trkpt lat="45.68529" lon="5.98233">
        <ele>1498.3518066406</ele>
        <time>2012-02-11T10:21:05Z</time>
      </trkpt>
      <trkpt lat="45.68527" lon="5.98228">
        <ele>1497.390625</ele>
        <time>2012-02-11T10:21:13Z</time>
      </trkpt>
      <trkpt lat="45.68526" lon="5.98224">
        <ele>1496.4294433594</ele>
        <time>2012-02-11T10:21:19Z</time>
      </trkpt>
      <trkpt lat="45.68526" lon="5.98219">
        <ele>1495.9487304688</ele>
        <time>2012-02-11T10:21:25Z</time>
      </trkpt>
      <trkpt lat="45.68525" lon="5.98212">
        <ele>1496.4294433594</ele>
        <time>2012-02-11T10:21:32Z</time>
      </trkpt>
      <trkpt lat="45.68522" lon="5.98206">
        <ele>1497.390625</ele>
        <time>2012-02-11T10:21:40Z</time>
      </trkpt>
      <trkpt lat="45.68521" lon="5.982">
        <ele>1498.3518066406</ele>
        <time>2012-02-11T10:21:47Z</time>
      </trkpt>
      <trkpt lat="45.68521" lon="5.98196">
        <ele>1499.7939453125</ele>
        <time>2012-02-11T10:21:54Z</time>
      </trkpt>
      <trkpt lat="45.68522" lon="5.9819">
        <ele>1501.2360839844</ele>
        <time>2012-02-11T10:22:05Z</time>
      </trkpt>
      <trkpt lat="45.68523" lon="5.98185">
        <ele>1499.3132324219</ele>
        <time>2012-02-11T10:22:12Z</time>
      </trkpt>
      <trkpt lat="45.68523" lon="5.98178">
        <ele>1499.3132324219</ele>
        <time>2012-02-11T10:22:19Z</time>
      </trkpt>
      <trkpt lat="45.68522" lon="5.98169">
        <ele>1504.1201171875</ele>
        <time>2012-02-11T10:22:26Z</time>
      </trkpt>
      <trkpt lat="45.68521" lon="5.98166">
        <ele>1505.5620117188</ele>
        <time>2012-02-11T10:22:31Z</time>
      </trkpt>
      <trkpt lat="45.68519" lon="5.98162">
        <ele>1507.4846191406</ele>
        <time>2012-02-11T10:22:36Z</time>
      </trkpt>
      <trkpt lat="45.68517" lon="5.98161">
        <ele>1510.3684082031</ele>
        <time>2012-02-11T10:22:41Z</time>
      </trkpt>
      <trkpt lat="45.68513" lon="5.98157">
        <ele>1512.291015625</ele>
        <time>2012-02-11T10:22:47Z</time>
      </trkpt>
      <trkpt lat="45.6851" lon="5.98154">
        <ele>1511.810546875</ele>
        <time>2012-02-11T10:22:53Z</time>
      </trkpt>
      <trkpt lat="45.68509" lon="5.98149">
        <ele>1513.2524414062</ele>
        <time>2012-02-11T10:22:58Z</time>
      </trkpt>
      <trkpt lat="45.68508" lon="5.98144">
        <ele>1513.7329101562</ele>
        <time>2012-02-11T10:23:03Z</time>
      </trkpt>
      <trkpt lat="45.68508" lon="5.98138">
        <ele>1512.7717285156</ele>
        <time>2012-02-11T10:23:09Z</time>
      </trkpt>
      <trkpt lat="45.6851" lon="5.98135">
        <ele>1513.2524414062</ele>
        <time>2012-02-11T10:23:13Z</time>
      </trkpt>
      <trkpt lat="45.6851" lon="5.98134">
        <ele>1518.5397949219</ele>
        <time>2012-02-11T10:23:32Z</time>
      </trkpt>
      <trkpt lat="45.68512" lon="5.9813">
        <ele>1516.1364746094</ele>
        <time>2012-02-11T10:23:38Z</time>
      </trkpt>
      <trkpt lat="45.68514" lon="5.98126">
        <ele>1514.2136230469</ele>
        <time>2012-02-11T10:23:43Z</time>
      </trkpt>
      <trkpt lat="45.68517" lon="5.98121">
        <ele>1512.291015625</ele>
        <time>2012-02-11T10:23:49Z</time>
      </trkpt>
      <trkpt lat="45.6852" lon="5.98115">
        <ele>1511.810546875</ele>
        <time>2012-02-11T10:23:57Z</time>
      </trkpt>
      <trkpt lat="45.68522" lon="5.9811">
        <ele>1511.810546875</ele>
        <time>2012-02-11T10:24:03Z</time>
      </trkpt>
      <trkpt lat="45.68525" lon="5.98106">
        <ele>1511.3298339844</ele>
        <time>2012-02-11T10:24:10Z</time>
      </trkpt>
      <trkpt lat="45.68527" lon="5.98103">
        <ele>1510.3684082031</ele>
        <time>2012-02-11T10:24:17Z</time>
      </trkpt>
      <trkpt lat="45.6853" lon="5.981">
        <ele>1509.4072265625</ele>
        <time>2012-02-11T10:24:22Z</time>
      </trkpt>
      <trkpt lat="45.68534" lon="5.98095">
        <ele>1507.00390625</ele>
        <time>2012-02-11T10:24:29Z</time>
      </trkpt>
      <trkpt lat="45.68537" lon="5.9809">
        <ele>1504.6005859375</ele>
        <time>2012-02-11T10:24:35Z</time>
      </trkpt>
      <trkpt lat="45.68542" lon="5.98085">
        <ele>1502.197265625</ele>
        <time>2012-02-11T10:24:44Z</time>
      </trkpt>
      <trkpt lat="45.68546" lon="5.9808">
        <ele>1498.8325195312</ele>
        <time>2012-02-11T10:24:51Z</time>
      </trkpt>
      <trkpt lat="45.6855" lon="5.98075">
        <ele>1495.4680175781</ele>
        <time>2012-02-11T10:24:59Z</time>
      </trkpt>
      <trkpt lat="45.68555" lon="5.98068">
        <ele>1494.5065917969</ele>
        <time>2012-02-11T10:25:07Z</time>
      </trkpt>
      <trkpt lat="45.68559" lon="5.98064">
        <ele>1493.5454101562</ele>
        <time>2012-02-11T10:25:14Z</time>
      </trkpt>
      <trkpt lat="45.6856" lon="5.98059">
        <ele>1500.2749023438</ele>
        <time>2012-02-11T10:25:20Z</time>
      </trkpt>
      <trkpt lat="45.6856" lon="5.98058">
        <ele>1503.1586914062</ele>
        <time>2012-02-11T10:25:27Z</time>
      </trkpt>
      <trkpt lat="45.68559" lon="5.98056">
        <ele>1509.8876953125</ele>
        <time>2012-02-11T10:25:40Z</time>
      </trkpt>
      <trkpt lat="45.68559" lon="5.98055">
        <ele>1513.2524414062</ele>
        <time>2012-02-11T10:25:49Z</time>
      </trkpt>
      <trkpt lat="45.68559" lon="5.98055">
        <ele>1515.6557617188</ele>
        <time>2012-02-11T10:26:02Z</time>
      </trkpt>
      <trkpt lat="45.6856" lon="5.98055">
        <ele>1518.0590820312</ele>
        <time>2012-02-11T10:26:17Z</time>
      </trkpt>
      <trkpt lat="45.68561" lon="5.98052">
        <ele>1516.6171875</ele>
        <time>2012-02-11T10:26:29Z</time>
      </trkpt>
      <trkpt lat="45.68563" lon="5.98049">
        <ele>1514.6943359375</ele>
        <time>2012-02-11T10:26:34Z</time>
      </trkpt>
      <trkpt lat="45.68565" lon="5.98047">
        <ele>1514.2136230469</ele>
        <time>2012-02-11T10:26:38Z</time>
      </trkpt>
      <trkpt lat="45.68568" lon="5.98043">
        <ele>1513.7329101562</ele>
        <time>2012-02-11T10:26:44Z</time>
      </trkpt>
      <trkpt lat="45.68573" lon="5.98039">
        <ele>1511.810546875</ele>
        <time>2012-02-11T10:26:50Z</time>
      </trkpt>
      <trkpt lat="45.68576" lon="5.98035">
        <ele>1511.810546875</ele>
        <time>2012-02-11T10:26:57Z</time>
      </trkpt>
      <trkpt lat="45.68579" lon="5.9803">
        <ele>1511.3298339844</ele>
        <time>2012-02-11T10:27:03Z</time>
      </trkpt>
      <trkpt lat="45.68582" lon="5.98026">
        <ele>1510.8491210938</ele>
        <time>2012-02-11T10:27:08Z</time>
      </trkpt>
      <trkpt lat="45.68586" lon="5.98021">
        <ele>1510.3684082031</ele>
        <time>2012-02-11T10:27:14Z</time>
      </trkpt>
      <trkpt lat="45.68588" lon="5.98018">
        <ele>1510.3684082031</ele>
        <time>2012-02-11T10:27:19Z</time>
      </trkpt>
      <trkpt lat="45.68589" lon="5.98018">
        <ele>1511.3298339844</ele>
        <time>2012-02-11T10:27:26Z</time>
      </trkpt>
      <trkpt lat="45.68587" lon="5.98019">
        <ele>1511.810546875</ele>
        <time>2012-02-11T10:27:44Z</time>
      </trkpt>
      <trkpt lat="45.68587" lon="5.98019">
        <ele>1512.291015625</ele>
        <time>2012-02-11T10:27:48Z</time>
      </trkpt>
      <trkpt lat="45.6859" lon="5.98018">
        <ele>1512.291015625</ele>
        <time>2012-02-11T10:27:56Z</time>
      </trkpt>
      <trkpt lat="45.68593" lon="5.98016">
        <ele>1511.3298339844</ele>
        <time>2012-02-11T10:28:02Z</time>
      </trkpt>
      <trkpt lat="45.68596" lon="5.98012">
        <ele>1512.291015625</ele>
        <time>2012-02-11T10:28:08Z</time>
      </trkpt>
      <trkpt lat="45.68599" lon="5.98006">
        <ele>1510.3684082031</ele>
        <time>2012-02-11T10:28:14Z</time>
      </trkpt>
      <trkpt lat="45.68601" lon="5.98002">
        <ele>1509.8876953125</ele>
        <time>2012-02-11T10:28:20Z</time>
      </trkpt>
      <trkpt lat="45.68602" lon="5.97998">
        <ele>1508.9265136719</ele>
        <time>2012-02-11T10:28:25Z</time>
      </trkpt>
      <trkpt lat="45.68605" lon="5.97992">
        <ele>1507.4846191406</ele>
        <time>2012-02-11T10:28:30Z</time>
      </trkpt>
      <trkpt lat="45.68606" lon="5.97989">
        <ele>1508.4458007812</ele>
        <time>2012-02-11T10:28:36Z</time>
      </trkpt>
      <trkpt lat="45.68607" lon="5.97986">
        <ele>1508.9265136719</ele>
        <time>2012-02-11T10:28:40Z</time>
      </trkpt>
      <trkpt lat="45.6861" lon="5.97981">
        <ele>1507.4846191406</ele>
        <time>2012-02-11T10:28:45Z</time>
      </trkpt>
      <trkpt lat="45.68613" lon="5.97975">
        <ele>1505.0812988281</ele>
        <time>2012-02-11T10:28:53Z</time>
      </trkpt>
      <trkpt lat="45.68617" lon="5.97969">
        <ele>1504.6005859375</ele>
        <time>2012-02-11T10:29:00Z</time>
      </trkpt>
      <trkpt lat="45.6862" lon="5.9796">
        <ele>1504.1201171875</ele>
        <time>2012-02-11T10:29:09Z</time>
      </trkpt>
      <trkpt lat="45.68624" lon="5.97952">
        <ele>1506.0424804688</ele>
        <time>2012-02-11T10:29:17Z</time>
      </trkpt>
      <trkpt lat="45.68626" lon="5.97947">
        <ele>1505.0812988281</ele>
        <time>2012-02-11T10:29:23Z</time>
      </trkpt>
      <trkpt lat="45.68628" lon="5.97939">
        <ele>1505.5620117188</ele>
        <time>2012-02-11T10:29:30Z</time>
      </trkpt>
      <trkpt lat="45.68632" lon="5.97936">
        <ele>1505.5620117188</ele>
        <time>2012-02-11T10:29:36Z</time>
      </trkpt>
      <trkpt lat="45.68631" lon="5.97934">
        <ele>1509.8876953125</ele>
        <time>2012-02-11T10:29:46Z</time>
      </trkpt>
      <trkpt lat="45.68629" lon="5.97931">
        <ele>1511.810546875</ele>
        <time>2012-02-11T10:29:52Z</time>
      </trkpt>
      <trkpt lat="45.68629" lon="5.97931">
        <ele>1510.8491210938</ele>
        <time>2012-02-11T10:29:56Z</time>
      </trkpt>
      <trkpt lat="45.68629" lon="5.97932">
        <ele>1512.291015625</ele>
        <time>2012-02-11T10:30:05Z</time>
      </trkpt>
      <trkpt lat="45.68629" lon="5.97931">
        <ele>1511.3298339844</ele>
        <time>2012-02-11T10:30:07Z</time>
      </trkpt>
      <trkpt lat="45.6863" lon="5.9793">
        <ele>1510.8491210938</ele>
        <time>2012-02-11T10:30:08Z</time>
      </trkpt>
      <trkpt lat="45.6863" lon="5.97925">
        <ele>1509.4072265625</ele>
        <time>2012-02-11T10:30:14Z</time>
      </trkpt>
      <trkpt lat="45.68629" lon="5.97922">
        <ele>1508.4458007812</ele>
        <time>2012-02-11T10:30:18Z</time>
      </trkpt>
      <trkpt lat="45.68629" lon="5.97917">
        <ele>1505.5620117188</ele>
        <time>2012-02-11T10:30:25Z</time>
      </trkpt>
      <trkpt lat="45.68628" lon="5.97915">
        <ele>1503.1586914062</ele>
        <time>2012-02-11T10:30:31Z</time>
      </trkpt>
      <trkpt lat="45.68627" lon="5.97911">
        <ele>1503.1586914062</ele>
        <time>2012-02-11T10:30:37Z</time>
      </trkpt>
      <trkpt lat="45.68625" lon="5.9791">
        <ele>1503.1586914062</ele>
        <time>2012-02-11T10:30:45Z</time>
      </trkpt>
      <trkpt lat="45.68624" lon="5.97904">
        <ele>1502.6779785156</ele>
        <time>2012-02-11T10:30:50Z</time>
      </trkpt>
      <trkpt lat="45.68622" lon="5.97896">
        <ele>1502.197265625</ele>
        <time>2012-02-11T10:30:58Z</time>
      </trkpt>
      <trkpt lat="45.6862" lon="5.9789">
        <ele>1502.197265625</ele>
        <time>2012-02-11T10:31:05Z</time>
      </trkpt>
      <trkpt lat="45.6862" lon="5.97885">
        <ele>1503.1586914062</ele>
        <time>2012-02-11T10:31:13Z</time>
      </trkpt>
      <trkpt lat="45.6862" lon="5.97883">
        <ele>1503.6394042969</ele>
        <time>2012-02-11T10:31:20Z</time>
      </trkpt>
      <trkpt lat="45.68618" lon="5.9788">
        <ele>1507.00390625</ele>
        <time>2012-02-11T10:31:29Z</time>
      </trkpt>
      <trkpt lat="45.68618" lon="5.9788">
        <ele>1507.4846191406</ele>
        <time>2012-02-11T10:31:41Z</time>
      </trkpt>
      <trkpt lat="45.68619" lon="5.97876">
        <ele>1507.00390625</ele>
        <time>2012-02-11T10:31:48Z</time>
      </trkpt>
      <trkpt lat="45.6862" lon="5.97875">
        <ele>1507.9653320312</ele>
        <time>2012-02-11T10:31:56Z</time>
      </trkpt>
      <trkpt lat="45.68619" lon="5.97875">
        <ele>1508.4458007812</ele>
        <time>2012-02-11T10:32:09Z</time>
      </trkpt>
      <trkpt lat="45.68619" lon="5.9787">
        <ele>1507.00390625</ele>
        <time>2012-02-11T10:32:14Z</time>
      </trkpt>
      <trkpt lat="45.68626" lon="5.97862">
        <ele>1505.5620117188</ele>
        <time>2012-02-11T10:32:23Z</time>
      </trkpt>
      <trkpt lat="45.68631" lon="5.97858">
        <ele>1505.0812988281</ele>
        <time>2012-02-11T10:32:30Z</time>
      </trkpt>
      <trkpt lat="45.68634" lon="5.97855">
        <ele>1505.0812988281</ele>
        <time>2012-02-11T10:32:36Z</time>
      </trkpt>
      <trkpt lat="45.68639" lon="5.97851">
        <ele>1504.6005859375</ele>
        <time>2012-02-11T10:32:44Z</time>
      </trkpt>
      <trkpt lat="45.68642" lon="5.97847">
        <ele>1504.6005859375</ele>
        <time>2012-02-11T10:32:51Z</time>
      </trkpt>
      <trkpt lat="45.68645" lon="5.97839">
        <ele>1505.0812988281</ele>
        <time>2012-02-11T10:32:59Z</time>
      </trkpt>
      <trkpt lat="45.68648" lon="5.9783">
        <ele>1505.5620117188</ele>
        <time>2012-02-11T10:33:07Z</time>
      </trkpt>
      <trkpt lat="45.68651" lon="5.97823">
        <ele>1505.5620117188</ele>
        <time>2012-02-11T10:33:14Z</time>
      </trkpt>
      <trkpt lat="45.68652" lon="5.97818">
        <ele>1505.5620117188</ele>
        <time>2012-02-11T10:33:21Z</time>
      </trkpt>
      <trkpt lat="45.68652" lon="5.97813">
        <ele>1506.5231933594</ele>
        <time>2012-02-11T10:33:29Z</time>
      </trkpt>
      <trkpt lat="45.68653" lon="5.97802">
        <ele>1506.0424804688</ele>
        <time>2012-02-11T10:33:38Z</time>
      </trkpt>
      <trkpt lat="45.68651" lon="5.97795">
        <ele>1505.5620117188</ele>
        <time>2012-02-11T10:33:45Z</time>
      </trkpt>
      <trkpt lat="45.6865" lon="5.97789">
        <ele>1505.5620117188</ele>
        <time>2012-02-11T10:33:51Z</time>
      </trkpt>
      <trkpt lat="45.6865" lon="5.97788">
        <ele>1506.5231933594</ele>
        <time>2012-02-11T10:33:56Z</time>
      </trkpt>
      <trkpt lat="45.68648" lon="5.97784">
        <ele>1506.5231933594</ele>
        <time>2012-02-11T10:34:02Z</time>
      </trkpt>
      <trkpt lat="45.68646" lon="5.97782">
        <ele>1506.5231933594</ele>
        <time>2012-02-11T10:34:05Z</time>
      </trkpt>
      <trkpt lat="45.68646" lon="5.97781">
        <ele>1506.5231933594</ele>
        <time>2012-02-11T10:34:06Z</time>
      </trkpt>
      <trkpt lat="45.68643" lon="5.97778">
        <ele>1506.0424804688</ele>
        <time>2012-02-11T10:34:13Z</time>
      </trkpt>
      <trkpt lat="45.68643" lon="5.97778">
        <ele>1506.5231933594</ele>
        <time>2012-02-11T10:34:25Z</time>
      </trkpt>
      <trkpt lat="45.68641" lon="5.97777">
        <ele>1507.4846191406</ele>
        <time>2012-02-11T10:34:30Z</time>
      </trkpt>
      <trkpt lat="45.68639" lon="5.97775">
        <ele>1507.4846191406</ele>
        <time>2012-02-11T10:34:36Z</time>
      </trkpt>
      <trkpt lat="45.68637" lon="5.97775">
        <ele>1507.4846191406</ele>
        <time>2012-02-11T10:34:47Z</time>
      </trkpt>
      <trkpt lat="45.68631" lon="5.97775">
        <ele>1507.00390625</ele>
        <time>2012-02-11T10:34:55Z</time>
      </trkpt>
      <trkpt lat="45.68627" lon="5.97777">
        <ele>1507.00390625</ele>
        <time>2012-02-11T10:35:02Z</time>
      </trkpt>
      <trkpt lat="45.68623" lon="5.97778">
        <ele>1506.5231933594</ele>
        <time>2012-02-11T10:35:08Z</time>
      </trkpt>
      <trkpt lat="45.68618" lon="5.97778">
        <ele>1507.00390625</ele>
        <time>2012-02-11T10:35:13Z</time>
      </trkpt>
      <trkpt lat="45.68613" lon="5.9778">
        <ele>1506.0424804688</ele>
        <time>2012-02-11T10:35:20Z</time>
      </trkpt>
      <trkpt lat="45.68606" lon="5.97783">
        <ele>1505.0812988281</ele>
        <time>2012-02-11T10:35:30Z</time>
      </trkpt>
      <trkpt lat="45.68601" lon="5.97785">
        <ele>1505.0812988281</ele>
        <time>2012-02-11T10:35:36Z</time>
      </trkpt>
      <trkpt lat="45.68595" lon="5.97787">
        <ele>1504.1201171875</ele>
        <time>2012-02-11T10:35:45Z</time>
      </trkpt>
      <trkpt lat="45.68593" lon="5.97788">
        <ele>1504.1201171875</ele>
        <time>2012-02-11T10:35:52Z</time>
      </trkpt>
      <trkpt lat="45.6859" lon="5.97788">
        <ele>1503.1586914062</ele>
        <time>2012-02-11T10:35:59Z</time>
      </trkpt>
      <trkpt lat="45.68586" lon="5.9779">
        <ele>1503.6394042969</ele>
        <time>2012-02-11T10:36:06Z</time>
      </trkpt>
      <trkpt lat="45.68582" lon="5.97788">
        <ele>1503.1586914062</ele>
        <time>2012-02-11T10:36:11Z</time>
      </trkpt>
      <trkpt lat="45.6858" lon="5.97789">
        <ele>1504.1201171875</ele>
        <time>2012-02-11T10:36:17Z</time>
      </trkpt>
      <trkpt lat="45.68576" lon="5.97792">
        <ele>1504.6005859375</ele>
        <time>2012-02-11T10:36:25Z</time>
      </trkpt>
      <trkpt lat="45.68572" lon="5.97796">
        <ele>1505.0812988281</ele>
        <time>2012-02-11T10:36:31Z</time>
      </trkpt>
      <trkpt lat="45.68571" lon="5.97798">
        <ele>1507.00390625</ele>
        <time>2012-02-11T10:36:35Z</time>
      </trkpt>
      <trkpt lat="45.6857" lon="5.978">
        <ele>1511.3298339844</ele>
        <time>2012-02-11T10:36:45Z</time>
      </trkpt>
      <trkpt lat="45.68569" lon="5.97801">
        <ele>1513.2524414062</ele>
        <time>2012-02-11T10:36:57Z</time>
      </trkpt>
      <trkpt lat="45.68565" lon="5.97805">
        <ele>1513.2524414062</ele>
        <time>2012-02-11T10:37:03Z</time>
      </trkpt>
      <trkpt lat="45.68561" lon="5.97808">
        <ele>1511.810546875</ele>
        <time>2012-02-11T10:37:08Z</time>
      </trkpt>
      <trkpt lat="45.68557" lon="5.97815">
        <ele>1509.8876953125</ele>
        <time>2012-02-11T10:37:16Z</time>
      </trkpt>
      <trkpt lat="45.68554" lon="5.9782">
        <ele>1508.4458007812</ele>
        <time>2012-02-11T10:37:23Z</time>
      </trkpt>
      <trkpt lat="45.68549" lon="5.97829">
        <ele>1507.9653320312</ele>
        <time>2012-02-11T10:37:32Z</time>
      </trkpt>
      <trkpt lat="45.68544" lon="5.97834">
        <ele>1508.4458007812</ele>
        <time>2012-02-11T10:37:39Z</time>
      </trkpt>
      <trkpt lat="45.68539" lon="5.97838">
        <ele>1509.8876953125</ele>
        <time>2012-02-11T10:37:45Z</time>
      </trkpt>
      <trkpt lat="45.68534" lon="5.97843">
        <ele>1510.3684082031</ele>
        <time>2012-02-11T10:37:51Z</time>
      </trkpt>
      <trkpt lat="45.68531" lon="5.97847">
        <ele>1510.8491210938</ele>
        <time>2012-02-11T10:37:56Z</time>
      </trkpt>
      <trkpt lat="45.6853" lon="5.97847">
        <ele>1509.4072265625</ele>
        <time>2012-02-11T10:37:58Z</time>
      </trkpt>
      <trkpt lat="45.68523" lon="5.9785">
        <ele>1510.8491210938</ele>
        <time>2012-02-11T10:38:04Z</time>
      </trkpt>
      <trkpt lat="45.68519" lon="5.97854">
        <ele>1511.3298339844</ele>
        <time>2012-02-11T10:38:10Z</time>
      </trkpt>
      <trkpt lat="45.68517" lon="5.97856">
        <ele>1510.3684082031</ele>
        <time>2012-02-11T10:38:13Z</time>
      </trkpt>
      <trkpt lat="45.68515" lon="5.97855">
        <ele>1510.8491210938</ele>
        <time>2012-02-11T10:38:18Z</time>
      </trkpt>
      <trkpt lat="45.68512" lon="5.97857">
        <ele>1509.4072265625</ele>
        <time>2012-02-11T10:38:23Z</time>
      </trkpt>
      <trkpt lat="45.68509" lon="5.97858">
        <ele>1508.4458007812</ele>
        <time>2012-02-11T10:38:29Z</time>
      </trkpt>
      <trkpt lat="45.68503" lon="5.97861">
        <ele>1507.00390625</ele>
        <time>2012-02-11T10:38:38Z</time>
      </trkpt>
      <trkpt lat="45.68497" lon="5.97865">
        <ele>1506.0424804688</ele>
        <time>2012-02-11T10:38:47Z</time>
      </trkpt>
      <trkpt lat="45.68491" lon="5.97869">
        <ele>1505.5620117188</ele>
        <time>2012-02-11T10:38:56Z</time>
      </trkpt>
      <trkpt lat="45.68484" lon="5.97874">
        <ele>1505.5620117188</ele>
        <time>2012-02-11T10:39:05Z</time>
      </trkpt>
      <trkpt lat="45.68478" lon="5.97877">
        <ele>1506.0424804688</ele>
        <time>2012-02-11T10:39:14Z</time>
      </trkpt>
      <trkpt lat="45.68473" lon="5.97879">
        <ele>1507.00390625</ele>
        <time>2012-02-11T10:39:21Z</time>
      </trkpt>
      <trkpt lat="45.6847" lon="5.97881">
        <ele>1506.5231933594</ele>
        <time>2012-02-11T10:39:26Z</time>
      </trkpt>
      <trkpt lat="45.68466" lon="5.97882">
        <ele>1506.5231933594</ele>
        <time>2012-02-11T10:39:30Z</time>
      </trkpt>
      <trkpt lat="45.68462" lon="5.97883">
        <ele>1506.5231933594</ele>
        <time>2012-02-11T10:39:34Z</time>
      </trkpt>
      <trkpt lat="45.68459" lon="5.97884">
        <ele>1507.00390625</ele>
        <time>2012-02-11T10:39:38Z</time>
      </trkpt>
      <trkpt lat="45.68457" lon="5.97883">
        <ele>1507.4846191406</ele>
        <time>2012-02-11T10:39:39Z</time>
      </trkpt>
      <trkpt lat="45.68454" lon="5.97883">
        <ele>1507.00390625</ele>
        <time>2012-02-11T10:39:45Z</time>
      </trkpt>
      <trkpt lat="45.6845" lon="5.97884">
        <ele>1507.4846191406</ele>
        <time>2012-02-11T10:39:49Z</time>
      </trkpt>
      <trkpt lat="45.68446" lon="5.97885">
        <ele>1507.9653320312</ele>
        <time>2012-02-11T10:39:54Z</time>
      </trkpt>
      <trkpt lat="45.68444" lon="5.97886">
        <ele>1507.9653320312</ele>
        <time>2012-02-11T10:39:58Z</time>
      </trkpt>
      <trkpt lat="45.68444" lon="5.97886">
        <ele>1507.9653320312</ele>
        <time>2012-02-11T10:40:00Z</time>
      </trkpt>
      <trkpt lat="45.68439" lon="5.97886">
        <ele>1510.3684082031</ele>
        <time>2012-02-11T10:40:06Z</time>
      </trkpt>
      <trkpt lat="45.68435" lon="5.97886">
        <ele>1511.3298339844</ele>
        <time>2012-02-11T10:40:11Z</time>
      </trkpt>
      <trkpt lat="45.68431" lon="5.97884">
        <ele>1511.810546875</ele>
        <time>2012-02-11T10:40:16Z</time>
      </trkpt>
      <trkpt lat="45.68428" lon="5.97883">
        <ele>1512.291015625</ele>
        <time>2012-02-11T10:40:22Z</time>
      </trkpt>
      <trkpt lat="45.68425" lon="5.97882">
        <ele>1511.3298339844</ele>
        <time>2012-02-11T10:40:28Z</time>
      </trkpt>
      <trkpt lat="45.68422" lon="5.97879">
        <ele>1510.8491210938</ele>
        <time>2012-02-11T10:40:35Z</time>
      </trkpt>
      <trkpt lat="45.68419" lon="5.97879">
        <ele>1510.8491210938</ele>
        <time>2012-02-11T10:40:41Z</time>
      </trkpt>
      <trkpt lat="45.68417" lon="5.97879">
        <ele>1510.8491210938</ele>
        <time>2012-02-11T10:40:47Z</time>
      </trkpt>
      <trkpt lat="45.68416" lon="5.97879">
        <ele>1511.810546875</ele>
        <time>2012-02-11T10:41:03Z</time>
      </trkpt>
      <trkpt lat="45.68416" lon="5.97879">
        <ele>1511.810546875</ele>
        <time>2012-02-11T10:41:10Z</time>
      </trkpt>
      <trkpt lat="45.68417" lon="5.97879">
        <ele>1511.3298339844</ele>
        <time>2012-02-11T10:41:18Z</time>
      </trkpt>
      <trkpt lat="45.68417" lon="5.97879">
        <ele>1511.3298339844</ele>
        <time>2012-02-11T10:41:22Z</time>
      </trkpt>
      <trkpt lat="45.68416" lon="5.9788">
        <ele>1513.2524414062</ele>
        <time>2012-02-11T10:41:27Z</time>
      </trkpt>
      <trkpt lat="45.68415" lon="5.97879">
        <ele>1514.6943359375</ele>
        <time>2012-02-11T10:41:34Z</time>
      </trkpt>
      <trkpt lat="45.68415" lon="5.97878">
        <ele>1514.6943359375</ele>
        <time>2012-02-11T10:41:41Z</time>
      </trkpt>
      <trkpt lat="45.68415" lon="5.97878">
        <ele>1514.2136230469</ele>
        <time>2012-02-11T10:41:48Z</time>
      </trkpt>
      <trkpt lat="45.68415" lon="5.97879">
        <ele>1513.7329101562</ele>
        <time>2012-02-11T10:41:56Z</time>
      </trkpt>
      <trkpt lat="45.68415" lon="5.97881">
        <ele>1513.7329101562</ele>
        <time>2012-02-11T10:42:02Z</time>
      </trkpt>
      <trkpt lat="45.68414" lon="5.97886">
        <ele>1514.2136230469</ele>
        <time>2012-02-11T10:42:07Z</time>
      </trkpt>
      <trkpt lat="45.68414" lon="5.97887">
        <ele>1514.2136230469</ele>
        <time>2012-02-11T10:42:12Z</time>
      </trkpt>
      <trkpt lat="45.68413" lon="5.97893">
        <ele>1513.7329101562</ele>
        <time>2012-02-11T10:42:18Z</time>
      </trkpt>
      <trkpt lat="45.68415" lon="5.97895">
        <ele>1513.7329101562</ele>
        <time>2012-02-11T10:42:24Z</time>
      </trkpt>
      <trkpt lat="45.68419" lon="5.97893">
        <ele>1513.2524414062</ele>
        <time>2012-02-11T10:42:31Z</time>
      </trkpt>
      <trkpt lat="45.68424" lon="5.97893">
        <ele>1512.7717285156</ele>
        <time>2012-02-11T10:42:37Z</time>
      </trkpt>
      <trkpt lat="45.68428" lon="5.97893">
        <ele>1512.291015625</ele>
        <time>2012-02-11T10:42:42Z</time>
      </trkpt>
      <trkpt lat="45.68435" lon="5.97894">
        <ele>1511.810546875</ele>
        <time>2012-02-11T10:42:50Z</time>
      </trkpt>
      <trkpt lat="45.68441" lon="5.97895">
        <ele>1512.291015625</ele>
        <time>2012-02-11T10:42:58Z</time>
      </trkpt>
      <trkpt lat="45.68447" lon="5.97896">
        <ele>1512.291015625</ele>
        <time>2012-02-11T10:43:05Z</time>
      </trkpt>
      <trkpt lat="45.68452" lon="5.97897">
        <ele>1512.291015625</ele>
        <time>2012-02-11T10:43:10Z</time>
      </trkpt>
      <trkpt lat="45.68459" lon="5.97899">
        <ele>1512.7717285156</ele>
        <time>2012-02-11T10:43:17Z</time>
      </trkpt>
      <trkpt lat="45.68462" lon="5.979">
        <ele>1513.2524414062</ele>
        <time>2012-02-11T10:43:22Z</time>
      </trkpt>
      <trkpt lat="45.68466" lon="5.97901">
        <ele>1513.7329101562</ele>
        <time>2012-02-11T10:43:27Z</time>
      </trkpt>
      <trkpt lat="45.68471" lon="5.97902">
        <ele>1513.7329101562</ele>
        <time>2012-02-11T10:43:33Z</time>
      </trkpt>
      <trkpt lat="45.68478" lon="5.97902">
        <ele>1513.2524414062</ele>
        <time>2012-02-11T10:43:42Z</time>
      </trkpt>
      <trkpt lat="45.68483" lon="5.97902">
        <ele>1513.2524414062</ele>
        <time>2012-02-11T10:43:48Z</time>
      </trkpt>
      <trkpt lat="45.68488" lon="5.97903">
        <ele>1513.7329101562</ele>
        <time>2012-02-11T10:43:54Z</time>
      </trkpt>
      <trkpt lat="45.68493" lon="5.97902">
        <ele>1514.2136230469</ele>
        <time>2012-02-11T10:44:00Z</time>
      </trkpt>
      <trkpt lat="45.68496" lon="5.979">
        <ele>1513.7329101562</ele>
        <time>2012-02-11T10:44:05Z</time>
      </trkpt>
      <trkpt lat="45.68499" lon="5.97901">
        <ele>1515.1750488281</ele>
        <time>2012-02-11T10:44:10Z</time>
      </trkpt>
      <trkpt lat="45.68504" lon="5.97902">
        <ele>1514.6943359375</ele>
        <time>2012-02-11T10:44:15Z</time>
      </trkpt>
      <trkpt lat="45.68509" lon="5.97903">
        <ele>1514.6943359375</ele>
        <time>2012-02-11T10:44:20Z</time>
      </trkpt>
      <trkpt lat="45.68513" lon="5.97904">
        <ele>1514.2136230469</ele>
        <time>2012-02-11T10:44:25Z</time>
      </trkpt>
      <trkpt lat="45.6852" lon="5.97904">
        <ele>1513.7329101562</ele>
        <time>2012-02-11T10:44:32Z</time>
      </trkpt>
      <trkpt lat="45.68525" lon="5.97906">
        <ele>1514.2136230469</ele>
        <time>2012-02-11T10:44:37Z</time>
      </trkpt>
      <trkpt lat="45.68531" lon="5.97906">
        <ele>1512.7717285156</ele>
        <time>2012-02-11T10:44:44Z</time>
      </trkpt>
      <trkpt lat="45.68538" lon="5.97907">
        <ele>1511.810546875</ele>
        <time>2012-02-11T10:44:54Z</time>
      </trkpt>
      <trkpt lat="45.68542" lon="5.97908">
        <ele>1510.8491210938</ele>
        <time>2012-02-11T10:45:01Z</time>
      </trkpt>
      <trkpt lat="45.68545" lon="5.97908">
        <ele>1510.8491210938</ele>
        <time>2012-02-11T10:45:08Z</time>
      </trkpt>
      <trkpt lat="45.6855" lon="5.97907">
        <ele>1510.8491210938</ele>
        <time>2012-02-11T10:45:14Z</time>
      </trkpt>
      <trkpt lat="45.68559" lon="5.97907">
        <ele>1512.291015625</ele>
        <time>2012-02-11T10:45:23Z</time>
      </trkpt>
      <trkpt lat="45.68571" lon="5.97905">
        <ele>1510.3684082031</ele>
        <time>2012-02-11T10:45:34Z</time>
      </trkpt>
      <trkpt lat="45.68576" lon="5.97903">
        <ele>1509.4072265625</ele>
        <time>2012-02-11T10:45:40Z</time>
      </trkpt>
      <trkpt lat="45.68581" lon="5.97901">
        <ele>1507.9653320312</ele>
        <time>2012-02-11T10:45:46Z</time>
      </trkpt>
      <trkpt lat="45.68586" lon="5.97896">
        <ele>1507.9653320312</ele>
        <time>2012-02-11T10:45:54Z</time>
      </trkpt>
      <trkpt lat="45.68587" lon="5.97895">
        <ele>1509.4072265625</ele>
        <time>2012-02-11T10:45:59Z</time>
      </trkpt>
      <trkpt lat="45.68592" lon="5.97892">
        <ele>1509.8876953125</ele>
        <time>2012-02-11T10:46:05Z</time>
      </trkpt>
      <trkpt lat="45.68591" lon="5.97889">
        <ele>1514.6943359375</ele>
        <time>2012-02-11T10:46:10Z</time>
      </trkpt>
      <trkpt lat="45.68589" lon="5.97889">
        <ele>1516.1364746094</ele>
        <time>2012-02-11T10:46:25Z</time>
      </trkpt>
      <trkpt lat="45.68588" lon="5.9789">
        <ele>1516.1364746094</ele>
        <time>2012-02-11T10:46:34Z</time>
      </trkpt>
      <trkpt lat="45.6859" lon="5.97888">
        <ele>1516.1364746094</ele>
        <time>2012-02-11T10:46:41Z</time>
      </trkpt>
      <trkpt lat="45.68596" lon="5.97884">
        <ele>1515.1750488281</ele>
        <time>2012-02-11T10:46:48Z</time>
      </trkpt>
      <trkpt lat="45.686" lon="5.97881">
        <ele>1514.6943359375</ele>
        <time>2012-02-11T10:46:53Z</time>
      </trkpt>
      <trkpt lat="45.68603" lon="5.97878">
        <ele>1513.7329101562</ele>
        <time>2012-02-11T10:46:58Z</time>
      </trkpt>
      <trkpt lat="45.68607" lon="5.97875">
        <ele>1513.2524414062</ele>
        <time>2012-02-11T10:47:03Z</time>
      </trkpt>
      <trkpt lat="45.6861" lon="5.97873">
        <ele>1513.2524414062</ele>
        <time>2012-02-11T10:47:07Z</time>
      </trkpt>
      <trkpt lat="45.68613" lon="5.9787">
        <ele>1512.7717285156</ele>
        <time>2012-02-11T10:47:12Z</time>
      </trkpt>
      <trkpt lat="45.68615" lon="5.97871">
        <ele>1512.7717285156</ele>
        <time>2012-02-11T10:47:19Z</time>
      </trkpt>
      <trkpt lat="45.68617" lon="5.9787">
        <ele>1514.6943359375</ele>
        <time>2012-02-11T10:47:29Z</time>
      </trkpt>
      <trkpt lat="45.68618" lon="5.9787">
        <ele>1513.7329101562</ele>
        <time>2012-02-11T10:47:39Z</time>
      </trkpt>
      <trkpt lat="45.68618" lon="5.9787">
        <ele>1512.7717285156</ele>
        <time>2012-02-11T10:47:46Z</time>
      </trkpt>
      <trkpt lat="45.6862" lon="5.97872">
        <ele>1512.291015625</ele>
        <time>2012-02-11T10:47:51Z</time>
      </trkpt>
      <trkpt lat="45.68619" lon="5.97874">
        <ele>1511.810546875</ele>
        <time>2012-02-11T10:47:54Z</time>
      </trkpt>
      <trkpt lat="45.68619" lon="5.97873">
        <ele>1511.810546875</ele>
        <time>2012-02-11T10:47:57Z</time>
      </trkpt>
      <trkpt lat="45.68618" lon="5.97874">
        <ele>1511.810546875</ele>
        <time>2012-02-11T10:47:59Z</time>
      </trkpt>
      <trkpt lat="45.68618" lon="5.97878">
        <ele>1510.8491210938</ele>
        <time>2012-02-11T10:48:04Z</time>
      </trkpt>
      <trkpt lat="45.68618" lon="5.97886">
        <ele>1508.9265136719</ele>
        <time>2012-02-11T10:48:11Z</time>
      </trkpt>
      <trkpt lat="45.68621" lon="5.97892">
        <ele>1509.4072265625</ele>
        <time>2012-02-11T10:48:18Z</time>
      </trkpt>
      <trkpt lat="45.68622" lon="5.97894">
        <ele>1509.4072265625</ele>
        <time>2012-02-11T10:48:24Z</time>
      </trkpt>
      <trkpt lat="45.68624" lon="5.97897">
        <ele>1508.4458007812</ele>
        <time>2012-02-11T10:48:31Z</time>
      </trkpt>
      <trkpt lat="45.68626" lon="5.97904">
        <ele>1507.4846191406</ele>
        <time>2012-02-11T10:48:38Z</time>
      </trkpt>
      <trkpt lat="45.68627" lon="5.97908">
        <ele>1507.9653320312</ele>
        <time>2012-02-11T10:48:52Z</time>
      </trkpt>
      <trkpt lat="45.68627" lon="5.97909">
        <ele>1511.3298339844</ele>
        <time>2012-02-11T10:48:59Z</time>
      </trkpt>
      <trkpt lat="45.68626" lon="5.9791">
        <ele>1514.6943359375</ele>
        <time>2012-02-11T10:49:04Z</time>
      </trkpt>
      <trkpt lat="45.68628" lon="5.97911">
        <ele>1514.6943359375</ele>
        <time>2012-02-11T10:49:11Z</time>
      </trkpt>
      <trkpt lat="45.68628" lon="5.9791">
        <ele>1513.2524414062</ele>
        <time>2012-02-11T10:49:17Z</time>
      </trkpt>
      <trkpt lat="45.68627" lon="5.97909">
        <ele>1511.810546875</ele>
        <time>2012-02-11T10:49:22Z</time>
      </trkpt>
      <trkpt lat="45.68626" lon="5.97908">
        <ele>1511.3298339844</ele>
        <time>2012-02-11T10:49:29Z</time>
      </trkpt>
      <trkpt lat="45.68625" lon="5.97906">
        <ele>1510.3684082031</ele>
        <time>2012-02-11T10:49:40Z</time>
      </trkpt>
      <trkpt lat="45.68624" lon="5.97909">
        <ele>1510.3684082031</ele>
        <time>2012-02-11T10:49:53Z</time>
      </trkpt>
      <trkpt lat="45.68625" lon="5.97906">
        <ele>1507.9653320312</ele>
        <time>2012-02-11T10:50:01Z</time>
      </trkpt>
      <trkpt lat="45.68625" lon="5.97909">
        <ele>1508.9265136719</ele>
        <time>2012-02-11T10:50:08Z</time>
      </trkpt>
      <trkpt lat="45.68625" lon="5.97908">
        <ele>1508.9265136719</ele>
        <time>2012-02-11T10:50:10Z</time>
      </trkpt>
      <trkpt lat="45.68624" lon="5.97907">
        <ele>1509.4072265625</ele>
        <time>2012-02-11T10:50:16Z</time>
      </trkpt>
      <trkpt lat="45.68623" lon="5.97908">
        <ele>1511.3298339844</ele>
        <time>2012-02-11T10:50:20Z</time>
      </trkpt>
      <trkpt lat="45.68626" lon="5.97907">
        <ele>1510.3684082031</ele>
        <time>2012-02-11T10:50:26Z</time>
      </trkpt>
      <trkpt lat="45.68628" lon="5.97905">
        <ele>1505.5620117188</ele>
        <time>2012-02-11T10:50:36Z</time>
      </trkpt>
      <trkpt lat="45.68628" lon="5.97907">
        <ele>1505.0812988281</ele>
        <time>2012-02-11T10:50:42Z</time>
      </trkpt>
      <trkpt lat="45.68627" lon="5.97906">
        <ele>1503.6394042969</ele>
        <time>2012-02-11T10:50:48Z</time>
      </trkpt>
      <trkpt lat="45.68628" lon="5.97906">
        <ele>1505.0812988281</ele>
        <time>2012-02-11T10:50:55Z</time>
      </trkpt>
      <trkpt lat="45.68627" lon="5.97907">
        <ele>1504.6005859375</ele>
        <time>2012-02-11T10:51:01Z</time>
      </trkpt>
      <trkpt lat="45.68628" lon="5.97907">
        <ele>1506.5231933594</ele>
        <time>2012-02-11T10:51:07Z</time>
      </trkpt>
      <trkpt lat="45.6863" lon="5.97905">
        <ele>1507.00390625</ele>
        <time>2012-02-11T10:51:12Z</time>
      </trkpt>
      <trkpt lat="45.6863" lon="5.97905">
        <ele>1507.00390625</ele>
        <time>2012-02-11T10:51:18Z</time>
      </trkpt>
      <trkpt lat="45.68628" lon="5.97906">
        <ele>1507.00390625</ele>
        <time>2012-02-11T10:51:24Z</time>
      </trkpt>
      <trkpt lat="45.68629" lon="5.97907">
        <ele>1507.4846191406</ele>
        <time>2012-02-11T10:51:30Z</time>
      </trkpt>
      <trkpt lat="45.68626" lon="5.97908">
        <ele>1508.9265136719</ele>
        <time>2012-02-11T10:51:36Z</time>
      </trkpt>
      <trkpt lat="45.68626" lon="5.97902">
        <ele>1506.0424804688</ele>
        <time>2012-02-11T10:51:42Z</time>
      </trkpt>
      <trkpt lat="45.68629" lon="5.97898">
        <ele>1507.4846191406</ele>
        <time>2012-02-11T10:51:49Z</time>
      </trkpt>
      <trkpt lat="45.68631" lon="5.97898">
        <ele>1506.0424804688</ele>
        <time>2012-02-11T10:51:54Z</time>
      </trkpt>
      <trkpt lat="45.68631" lon="5.97897">
        <ele>1507.4846191406</ele>
        <time>2012-02-11T10:51:55Z</time>
      </trkpt>
      <trkpt lat="45.68634" lon="5.97893">
        <ele>1509.8876953125</ele>
        <time>2012-02-11T10:52:02Z</time>
      </trkpt>
      <trkpt lat="45.68633" lon="5.97889">
        <ele>1508.9265136719</ele>
        <time>2012-02-11T10:52:09Z</time>
      </trkpt>
      <trkpt lat="45.68631" lon="5.97889">
        <ele>1507.9653320312</ele>
        <time>2012-02-11T10:52:14Z</time>
      </trkpt>
      <trkpt lat="45.68632" lon="5.9789">
        <ele>1508.4458007812</ele>
        <time>2012-02-11T10:52:16Z</time>
      </trkpt>
      <trkpt lat="45.68635" lon="5.97899">
        <ele>1507.4846191406</ele>
        <time>2012-02-11T10:52:22Z</time>
      </trkpt>
      <trkpt lat="45.68635" lon="5.979">
        <ele>1507.00390625</ele>
        <time>2012-02-11T10:52:23Z</time>
      </trkpt>
      <trkpt lat="45.68633" lon="5.97903">
        <ele>1505.0812988281</ele>
        <time>2012-02-11T10:52:29Z</time>
      </trkpt>
      <trkpt lat="45.68631" lon="5.97905">
        <ele>1505.5620117188</ele>
        <time>2012-02-11T10:52:34Z</time>
      </trkpt>
      <trkpt lat="45.68628" lon="5.97909">
        <ele>1506.5231933594</ele>
        <time>2012-02-11T10:52:42Z</time>
      </trkpt>
      <trkpt lat="45.68628" lon="5.97909">
        <ele>1506.5231933594</ele>
        <time>2012-02-11T10:52:44Z</time>
      </trkpt>
      <trkpt lat="45.68628" lon="5.97907">
        <ele>1506.5231933594</ele>
        <time>2012-02-11T10:52:49Z</time>
      </trkpt>
      <trkpt lat="45.68627" lon="5.97906">
        <ele>1506.5231933594</ele>
        <time>2012-02-11T10:52:53Z</time>
      </trkpt>
      <trkpt lat="45.68627" lon="5.97907">
        <ele>1507.00390625</ele>
        <time>2012-02-11T10:52:59Z</time>
      </trkpt>
      <trkpt lat="45.68628" lon="5.97907">
        <ele>1506.0424804688</ele>
        <time>2012-02-11T10:53:05Z</time>
      </trkpt>
      <trkpt lat="45.68627" lon="5.97907">
        <ele>1506.0424804688</ele>
        <time>2012-02-11T10:53:11Z</time>
      </trkpt>
      <trkpt lat="45.68629" lon="5.97905">
        <ele>1504.6005859375</ele>
        <time>2012-02-11T10:53:20Z</time>
      </trkpt>
      <trkpt lat="45.6863" lon="5.97906">
        <ele>1505.5620117188</ele>
        <time>2012-02-11T10:53:26Z</time>
      </trkpt>
      <trkpt lat="45.6863" lon="5.97909">
        <ele>1505.0812988281</ele>
        <time>2012-02-11T10:53:31Z</time>
      </trkpt>
      <trkpt lat="45.68629" lon="5.97905">
        <ele>1501.2360839844</ele>
        <time>2012-02-11T10:53:44Z</time>
      </trkpt>
      <trkpt lat="45.68629" lon="5.97907">
        <ele>1502.197265625</ele>
        <time>2012-02-11T10:53:49Z</time>
      </trkpt>
      <trkpt lat="45.68629" lon="5.97905">
        <ele>1500.7553710938</ele>
        <time>2012-02-11T10:53:54Z</time>
      </trkpt>
      <trkpt lat="45.68628" lon="5.97907">
        <ele>1499.7939453125</ele>
        <time>2012-02-11T10:54:03Z</time>
      </trkpt>
      <trkpt lat="45.6863" lon="5.97907">
        <ele>1500.7553710938</ele>
        <time>2012-02-11T10:54:10Z</time>
      </trkpt>
      <trkpt lat="45.68631" lon="5.97904">
        <ele>1495.9487304688</ele>
        <time>2012-02-11T10:54:17Z</time>
      </trkpt>
      <trkpt lat="45.68631" lon="5.97903">
        <ele>1496.9099121094</ele>
        <time>2012-02-11T10:54:22Z</time>
      </trkpt>
      <trkpt lat="45.68632" lon="5.97901">
        <ele>1496.9099121094</ele>
        <time>2012-02-11T10:54:30Z</time>
      </trkpt>
      <trkpt lat="45.68631" lon="5.97902">
        <ele>1498.3518066406</ele>
        <time>2012-02-11T10:54:36Z</time>
      </trkpt>
      <trkpt lat="45.68631" lon="5.97901">
        <ele>1494.0261230469</ele>
        <time>2012-02-11T10:54:51Z</time>
      </trkpt>
      <trkpt lat="45.68632" lon="5.97905">
        <ele>1497.390625</ele>
        <time>2012-02-11T10:54:57Z</time>
      </trkpt>
      <trkpt lat="45.68633" lon="5.97909">
        <ele>1506.0424804688</ele>
        <time>2012-02-11T10:55:04Z</time>
      </trkpt>
      <trkpt lat="45.6863" lon="5.97908">
        <ele>1508.4458007812</ele>
        <time>2012-02-11T10:55:17Z</time>
      </trkpt>
      <trkpt lat="45.68632" lon="5.97908">
        <ele>1506.5231933594</ele>
        <time>2012-02-11T10:55:24Z</time>
      </trkpt>
      <trkpt lat="45.6863" lon="5.97912">
        <ele>1504.6005859375</ele>
        <time>2012-02-11T10:55:34Z</time>
      </trkpt>
      <trkpt lat="45.6863" lon="5.97913">
        <ele>1506.0424804688</ele>
        <time>2012-02-11T10:55:41Z</time>
      </trkpt>
      <trkpt lat="45.68629" lon="5.97913">
        <ele>1508.4458007812</ele>
        <time>2012-02-11T10:55:52Z</time>
      </trkpt>
      <trkpt lat="45.68628" lon="5.97909">
        <ele>1511.3298339844</ele>
        <time>2012-02-11T10:56:10Z</time>
      </trkpt>
      <trkpt lat="45.68628" lon="5.97908">
        <ele>1512.291015625</ele>
        <time>2012-02-11T10:56:14Z</time>
      </trkpt>
      <trkpt lat="45.68628" lon="5.97908">
        <ele>1512.291015625</ele>
        <time>2012-02-11T10:56:15Z</time>
      </trkpt>
      <trkpt lat="45.68628" lon="5.97904">
        <ele>1509.4072265625</ele>
        <time>2012-02-11T10:56:27Z</time>
      </trkpt>
      <trkpt lat="45.68627" lon="5.97907">
        <ele>1506.0424804688</ele>
        <time>2012-02-11T10:56:38Z</time>
      </trkpt>
      <trkpt lat="45.68628" lon="5.97906">
        <ele>1504.6005859375</ele>
        <time>2012-02-11T10:56:40Z</time>
      </trkpt>
      <trkpt lat="45.68627" lon="5.97909">
        <ele>1506.0424804688</ele>
        <time>2012-02-11T10:56:47Z</time>
      </trkpt>
      <trkpt lat="45.68628" lon="5.97909">
        <ele>1507.00390625</ele>
        <time>2012-02-11T10:56:53Z</time>
      </trkpt>
      <trkpt lat="45.68628" lon="5.97909">
        <ele>1507.4846191406</ele>
        <time>2012-02-11T10:56:58Z</time>
      </trkpt>
      <trkpt lat="45.68628" lon="5.97909">
        <ele>1507.9653320312</ele>
        <time>2012-02-11T10:57:12Z</time>
      </trkpt>
      <trkpt lat="45.68627" lon="5.97908">
        <ele>1507.00390625</ele>
        <time>2012-02-11T10:57:18Z</time>
      </trkpt>
      <trkpt lat="45.68628" lon="5.9791">
        <ele>1508.4458007812</ele>
        <time>2012-02-11T10:57:29Z</time>
      </trkpt>
      <trkpt lat="45.68627" lon="5.9791">
        <ele>1508.4458007812</ele>
        <time>2012-02-11T10:57:34Z</time>
      </trkpt>
      <trkpt lat="45.68626" lon="5.9791">
        <ele>1508.9265136719</ele>
        <time>2012-02-11T10:57:41Z</time>
      </trkpt>
      <trkpt lat="45.68627" lon="5.97909">
        <ele>1507.9653320312</ele>
        <time>2012-02-11T10:57:43Z</time>
      </trkpt>
      <trkpt lat="45.68628" lon="5.97907">
        <ele>1507.9653320312</ele>
        <time>2012-02-11T10:57:49Z</time>
      </trkpt>
      <trkpt lat="45.68626" lon="5.97905">
        <ele>1512.291015625</ele>
        <time>2012-02-11T10:58:05Z</time>
      </trkpt>
      <trkpt lat="45.68626" lon="5.97906">
        <ele>1511.810546875</ele>
        <time>2012-02-11T10:58:13Z</time>
      </trkpt>
      <trkpt lat="45.68626" lon="5.97906">
        <ele>1510.8491210938</ele>
        <time>2012-02-11T10:58:17Z</time>
      </trkpt>
      <trkpt lat="45.68626" lon="5.97906">
        <ele>1510.3684082031</ele>
        <time>2012-02-11T10:58:19Z</time>
      </trkpt>
      <trkpt lat="45.68626" lon="5.97905">
        <ele>1510.8491210938</ele>
        <time>2012-02-11T10:58:20Z</time>
      </trkpt>
      <trkpt lat="45.68626" lon="5.97905">
        <ele>1512.7717285156</ele>
        <time>2012-02-11T10:58:28Z</time>
      </trkpt>
      <trkpt lat="45.68626" lon="5.97907">
        <ele>1513.2524414062</ele>
        <time>2012-02-11T10:58:31Z</time>
      </trkpt>
      <trkpt lat="45.68626" lon="5.97908">
        <ele>1508.9265136719</ele>
        <time>2012-02-11T10:58:44Z</time>
      </trkpt>
      <trkpt lat="45.68626" lon="5.9791">
        <ele>1507.00390625</ele>
        <time>2012-02-11T10:58:52Z</time>
      </trkpt>
      <trkpt lat="45.68624" lon="5.97912">
        <ele>1507.00390625</ele>
        <time>2012-02-11T10:58:55Z</time>
      </trkpt>
      <trkpt lat="45.68624" lon="5.97914">
        <ele>1508.9265136719</ele>
        <time>2012-02-11T10:59:09Z</time>
      </trkpt>
      <trkpt lat="45.68627" lon="5.97911">
        <ele>1507.9653320312</ele>
        <time>2012-02-11T10:59:17Z</time>
      </trkpt>
      <trkpt lat="45.68629" lon="5.9791">
        <ele>1507.9653320312</ele>
        <time>2012-02-11T10:59:22Z</time>
      </trkpt>
      <trkpt lat="45.68632" lon="5.97907">
        <ele>1505.5620117188</ele>
        <time>2012-02-11T10:59:28Z</time>
      </trkpt>
      <trkpt lat="45.68635" lon="5.97907">
        <ele>1509.4072265625</ele>
        <time>2012-02-11T10:59:33Z</time>
      </trkpt>
      <trkpt lat="45.68634" lon="5.97905">
        <ele>1508.9265136719</ele>
        <time>2012-02-11T10:59:44Z</time>
      </trkpt>
      <trkpt lat="45.68632" lon="5.97905">
        <ele>1510.3684082031</ele>
        <time>2012-02-11T10:59:53Z</time>
      </trkpt>
      <trkpt lat="45.68631" lon="5.97905">
        <ele>1509.4072265625</ele>
        <time>2012-02-11T10:59:56Z</time>
      </trkpt>
      <trkpt lat="45.68631" lon="5.97905">
        <ele>1508.9265136719</ele>
        <time>2012-02-11T10:59:59Z</time>
      </trkpt>
      <trkpt lat="45.68629" lon="5.97909">
        <ele>1507.9653320312</ele>
        <time>2012-02-11T11:00:05Z</time>
      </trkpt>
      <trkpt lat="45.68628" lon="5.97911">
        <ele>1503.6394042969</ele>
        <time>2012-02-11T11:00:18Z</time>
      </trkpt>
      <trkpt lat="45.68627" lon="5.9791">
        <ele>1504.1201171875</ele>
        <time>2012-02-11T11:00:24Z</time>
      </trkpt>
      <trkpt lat="45.68628" lon="5.9791">
        <ele>1506.5231933594</ele>
        <time>2012-02-11T11:00:31Z</time>
      </trkpt>
      <trkpt lat="45.68629" lon="5.97909">
        <ele>1509.8876953125</ele>
        <time>2012-02-11T11:00:44Z</time>
      </trkpt>
      <trkpt lat="45.68629" lon="5.97906">
        <ele>1508.4458007812</ele>
        <time>2012-02-11T11:00:50Z</time>
      </trkpt>
      <trkpt lat="45.68628" lon="5.97906">
        <ele>1507.9653320312</ele>
        <time>2012-02-11T11:00:58Z</time>
      </trkpt>
      <trkpt lat="45.68628" lon="5.97907">
        <ele>1508.4458007812</ele>
        <time>2012-02-11T11:00:59Z</time>
      </trkpt>
      <trkpt lat="45.68629" lon="5.97908">
        <ele>1507.00390625</ele>
        <time>2012-02-11T11:01:04Z</time>
      </trkpt>
      <trkpt lat="45.68628" lon="5.97907">
        <ele>1504.6005859375</ele>
        <time>2012-02-11T11:01:10Z</time>
      </trkpt>
      <trkpt lat="45.68631" lon="5.97907">
        <ele>1505.0812988281</ele>
        <time>2012-02-11T11:01:23Z</time>
      </trkpt>
      <trkpt lat="45.68633" lon="5.97907">
        <ele>1506.5231933594</ele>
        <time>2012-02-11T11:01:30Z</time>
      </trkpt>
      <trkpt lat="45.68634" lon="5.97907">
        <ele>1509.8876953125</ele>
        <time>2012-02-11T11:01:38Z</time>
      </trkpt>
      <trkpt lat="45.68634" lon="5.97908">
        <ele>1511.810546875</ele>
        <time>2012-02-11T11:01:42Z</time>
      </trkpt>
      <trkpt lat="45.68634" lon="5.97909">
        <ele>1513.2524414062</ele>
        <time>2012-02-11T11:01:45Z</time>
      </trkpt>
      <trkpt lat="45.68631" lon="5.97909">
        <ele>1512.291015625</ele>
        <time>2012-02-11T11:01:51Z</time>
      </trkpt>
      <trkpt lat="45.6863" lon="5.9791">
        <ele>1512.291015625</ele>
        <time>2012-02-11T11:01:54Z</time>
      </trkpt>
      <trkpt lat="45.6863" lon="5.97909">
        <ele>1511.810546875</ele>
        <time>2012-02-11T11:01:57Z</time>
      </trkpt>
      <trkpt lat="45.6863" lon="5.9791">
        <ele>1511.810546875</ele>
        <time>2012-02-11T11:01:58Z</time>
      </trkpt>
      <trkpt lat="45.68629" lon="5.97911">
        <ele>1511.810546875</ele>
        <time>2012-02-11T11:02:04Z</time>
      </trkpt>
      <trkpt lat="45.68626" lon="5.97907">
        <ele>1510.8491210938</ele>
        <time>2012-02-11T11:02:11Z</time>
      </trkpt>
      <trkpt lat="45.68627" lon="5.97906">
        <ele>1508.9265136719</ele>
        <time>2012-02-11T11:02:22Z</time>
      </trkpt>
      <trkpt lat="45.68627" lon="5.97905">
        <ele>1509.8876953125</ele>
        <time>2012-02-11T11:02:27Z</time>
      </trkpt>
      <trkpt lat="45.6863" lon="5.97906">
        <ele>1509.8876953125</ele>
        <time>2012-02-11T11:02:40Z</time>
      </trkpt>
      <trkpt lat="45.68629" lon="5.97906">
        <ele>1511.810546875</ele>
        <time>2012-02-11T11:02:46Z</time>
      </trkpt>
      <trkpt lat="45.68627" lon="5.97908">
        <ele>1511.3298339844</ele>
        <time>2012-02-11T11:03:00Z</time>
      </trkpt>
      <trkpt lat="45.68627" lon="5.9791">
        <ele>1510.8491210938</ele>
        <time>2012-02-11T11:03:06Z</time>
      </trkpt>
      <trkpt lat="45.68629" lon="5.97911">
        <ele>1510.3684082031</ele>
        <time>2012-02-11T11:03:13Z</time>
      </trkpt>
      <trkpt lat="45.68629" lon="5.9791">
        <ele>1508.9265136719</ele>
        <time>2012-02-11T11:03:21Z</time>
      </trkpt>
      <trkpt lat="45.68629" lon="5.97911">
        <ele>1507.4846191406</ele>
        <time>2012-02-11T11:03:27Z</time>
      </trkpt>
      <trkpt lat="45.68628" lon="5.97907">
        <ele>1508.4458007812</ele>
        <time>2012-02-11T11:03:33Z</time>
      </trkpt>
      <trkpt lat="45.6863" lon="5.97906">
        <ele>1509.4072265625</ele>
        <time>2012-02-11T11:03:42Z</time>
      </trkpt>
      <trkpt lat="45.68629" lon="5.97906">
        <ele>1509.4072265625</ele>
        <time>2012-02-11T11:03:50Z</time>
      </trkpt>
      <trkpt lat="45.68628" lon="5.97905">
        <ele>1508.9265136719</ele>
        <time>2012-02-11T11:03:59Z</time>
      </trkpt>
      <trkpt lat="45.68628" lon="5.97906">
        <ele>1507.00390625</ele>
        <time>2012-02-11T11:04:06Z</time>
      </trkpt>
      <trkpt lat="45.68628" lon="5.97906">
        <ele>1506.0424804688</ele>
        <time>2012-02-11T11:04:18Z</time>
      </trkpt>
      <trkpt lat="45.68628" lon="5.97908">
        <ele>1505.5620117188</ele>
        <time>2012-02-11T11:04:26Z</time>
      </trkpt>
      <trkpt lat="45.68628" lon="5.9791">
        <ele>1507.4846191406</ele>
        <time>2012-02-11T11:04:38Z</time>
      </trkpt>
      <trkpt lat="45.68629" lon="5.97909">
        <ele>1507.9653320312</ele>
        <time>2012-02-11T11:04:50Z</time>
      </trkpt>
      <trkpt lat="45.68628" lon="5.9791">
        <ele>1511.810546875</ele>
        <time>2012-02-11T11:05:01Z</time>
      </trkpt>
      <trkpt lat="45.68629" lon="5.97908">
        <ele>1520.9431152344</ele>
        <time>2012-02-11T11:05:08Z</time>
      </trkpt>
      <trkpt lat="45.6863" lon="5.97907">
        <ele>1523.3464355469</ele>
        <time>2012-02-11T11:05:18Z</time>
      </trkpt>
      <trkpt lat="45.6863" lon="5.97906">
        <ele>1517.0979003906</ele>
        <time>2012-02-11T11:05:28Z</time>
      </trkpt>
      <trkpt lat="45.6863" lon="5.97904">
        <ele>1515.6557617188</ele>
        <time>2012-02-11T11:05:36Z</time>
      </trkpt>
      <trkpt lat="45.68629" lon="5.97905">
        <ele>1516.1364746094</ele>
        <time>2012-02-11T11:05:40Z</time>
      </trkpt>
      <trkpt lat="45.68629" lon="5.97905">
        <ele>1516.1364746094</ele>
        <time>2012-02-11T11:05:45Z</time>
      </trkpt>
      <trkpt lat="45.68628" lon="5.97907">
        <ele>1519.0205078125</ele>
        <time>2012-02-11T11:05:59Z</time>
      </trkpt>
      <trkpt lat="45.68627" lon="5.97906">
        <ele>1514.2136230469</ele>
        <time>2012-02-11T11:06:12Z</time>
      </trkpt>
      <trkpt lat="45.68627" lon="5.97906">
        <ele>1506.5231933594</ele>
        <time>2012-02-11T11:06:22Z</time>
      </trkpt>
      <trkpt lat="45.68628" lon="5.97907">
        <ele>1505.5620117188</ele>
        <time>2012-02-11T11:06:28Z</time>
      </trkpt>
      <trkpt lat="45.68628" lon="5.9791">
        <ele>1507.00390625</ele>
        <time>2012-02-11T11:06:34Z</time>
      </trkpt>
      <trkpt lat="45.68628" lon="5.97912">
        <ele>1507.4846191406</ele>
        <time>2012-02-11T11:06:38Z</time>
      </trkpt>
      <trkpt lat="45.68628" lon="5.97913">
        <ele>1507.4846191406</ele>
        <time>2012-02-11T11:06:40Z</time>
      </trkpt>
      <trkpt lat="45.68628" lon="5.97913">
        <ele>1507.4846191406</ele>
        <time>2012-02-11T11:06:41Z</time>
      </trkpt>
      <trkpt lat="45.68627" lon="5.97914">
        <ele>1510.8491210938</ele>
        <time>2012-02-11T11:06:54Z</time>
      </trkpt>
      <trkpt lat="45.68628" lon="5.97912">
        <ele>1510.3684082031</ele>
        <time>2012-02-11T11:07:19Z</time>
      </trkpt>
      <trkpt lat="45.68628" lon="5.97906">
        <ele>1506.0424804688</ele>
        <time>2012-02-11T11:07:38Z</time>
      </trkpt>
      <trkpt lat="45.68626" lon="5.97908">
        <ele>1507.4846191406</ele>
        <time>2012-02-11T11:07:43Z</time>
      </trkpt>
      <trkpt lat="45.68627" lon="5.97908">
        <ele>1506.5231933594</ele>
        <time>2012-02-11T11:07:56Z</time>
      </trkpt>
      <trkpt lat="45.68628" lon="5.97906">
        <ele>1507.9653320312</ele>
        <time>2012-02-11T11:08:01Z</time>
      </trkpt>
      <trkpt lat="45.68626" lon="5.97905">
        <ele>1508.9265136719</ele>
        <time>2012-02-11T11:08:06Z</time>
      </trkpt>
      <trkpt lat="45.68626" lon="5.97905">
        <ele>1511.3298339844</ele>
        <time>2012-02-11T11:08:13Z</time>
      </trkpt>
      <trkpt lat="45.68626" lon="5.97905">
        <ele>1511.3298339844</ele>
        <time>2012-02-11T11:08:16Z</time>
      </trkpt>
      <trkpt lat="45.68623" lon="5.97907">
        <ele>1509.8876953125</ele>
        <time>2012-02-11T11:08:26Z</time>
      </trkpt>
      <trkpt lat="45.68622" lon="5.97907">
        <ele>1513.7329101562</ele>
        <time>2012-02-11T11:08:40Z</time>
      </trkpt>
      <trkpt lat="45.68623" lon="5.9791">
        <ele>1511.810546875</ele>
        <time>2012-02-11T11:08:48Z</time>
      </trkpt>
      <trkpt lat="45.68625" lon="5.9791">
        <ele>1511.3298339844</ele>
        <time>2012-02-11T11:08:55Z</time>
      </trkpt>
      <trkpt lat="45.68625" lon="5.97908">
        <ele>1510.8491210938</ele>
        <time>2012-02-11T11:09:04Z</time>
      </trkpt>
      <trkpt lat="45.68625" lon="5.97909">
        <ele>1511.810546875</ele>
        <time>2012-02-11T11:09:15Z</time>
      </trkpt>
      <trkpt lat="45.68626" lon="5.97908">
        <ele>1510.3684082031</ele>
        <time>2012-02-11T11:09:25Z</time>
      </trkpt>
      <trkpt lat="45.68626" lon="5.97909">
        <ele>1509.8876953125</ele>
        <time>2012-02-11T11:09:30Z</time>
      </trkpt>
      <trkpt lat="45.68628" lon="5.97909">
        <ele>1508.9265136719</ele>
        <time>2012-02-11T11:09:39Z</time>
      </trkpt>
      <trkpt lat="45.68627" lon="5.9791">
        <ele>1508.4458007812</ele>
        <time>2012-02-11T11:09:47Z</time>
      </trkpt>
      <trkpt lat="45.68628" lon="5.97905">
        <ele>1507.9653320312</ele>
        <time>2012-02-11T11:09:59Z</time>
      </trkpt>
      <trkpt lat="45.68627" lon="5.97904">
        <ele>1508.4458007812</ele>
        <time>2012-02-11T11:10:06Z</time>
      </trkpt>
      <trkpt lat="45.68626" lon="5.97906">
        <ele>1507.9653320312</ele>
        <time>2012-02-11T11:10:12Z</time>
      </trkpt>
      <trkpt lat="45.68627" lon="5.97907">
        <ele>1509.8876953125</ele>
        <time>2012-02-11T11:10:18Z</time>
      </trkpt>
      <trkpt lat="45.68627" lon="5.97906">
        <ele>1509.8876953125</ele>
        <time>2012-02-11T11:10:23Z</time>
      </trkpt>
      <trkpt lat="45.68627" lon="5.97907">
        <ele>1508.9265136719</ele>
        <time>2012-02-11T11:10:28Z</time>
      </trkpt>
      <trkpt lat="45.68626" lon="5.97906">
        <ele>1507.00390625</ele>
        <time>2012-02-11T11:10:35Z</time>
      </trkpt>
      <trkpt lat="45.68627" lon="5.97906">
        <ele>1507.00390625</ele>
        <time>2012-02-11T11:10:38Z</time>
      </trkpt>
      <trkpt lat="45.68628" lon="5.97906">
        <ele>1506.5231933594</ele>
        <time>2012-02-11T11:10:41Z</time>
      </trkpt>
      <trkpt lat="45.68628" lon="5.97907">
        <ele>1506.5231933594</ele>
        <time>2012-02-11T11:10:42Z</time>
      </trkpt>
      <trkpt lat="45.68626" lon="5.97908">
        <ele>1510.3684082031</ele>
        <time>2012-02-11T11:10:48Z</time>
      </trkpt>
      <trkpt lat="45.68625" lon="5.97909">
        <ele>1509.8876953125</ele>
        <time>2012-02-11T11:10:49Z</time>
      </trkpt>
      <trkpt lat="45.68626" lon="5.97909">
        <ele>1508.4458007812</ele>
        <time>2012-02-11T11:10:58Z</time>
      </trkpt>
      <trkpt lat="45.68626" lon="5.97909">
        <ele>1508.9265136719</ele>
        <time>2012-02-11T11:11:10Z</time>
      </trkpt>
      <trkpt lat="45.68628" lon="5.97906">
        <ele>1511.810546875</ele>
        <time>2012-02-11T11:11:31Z</time>
      </trkpt>
      <trkpt lat="45.68626" lon="5.97904">
        <ele>1511.3298339844</ele>
        <time>2012-02-11T11:11:42Z</time>
      </trkpt>
      <trkpt lat="45.68626" lon="5.97906">
        <ele>1509.4072265625</ele>
        <time>2012-02-11T11:11:54Z</time>
      </trkpt>
      <trkpt lat="45.68627" lon="5.97904">
        <ele>1510.3684082031</ele>
        <time>2012-02-11T11:12:06Z</time>
      </trkpt>
      <trkpt lat="45.68626" lon="5.97905">
        <ele>1511.810546875</ele>
        <time>2012-02-11T11:12:14Z</time>
      </trkpt>
      <trkpt lat="45.68626" lon="5.97907">
        <ele>1511.3298339844</ele>
        <time>2012-02-11T11:12:17Z</time>
      </trkpt>
      <trkpt lat="45.68625" lon="5.97909">
        <ele>1509.8876953125</ele>
        <time>2012-02-11T11:12:31Z</time>
      </trkpt>
      <trkpt lat="45.68626" lon="5.97908">
        <ele>1509.4072265625</ele>
        <time>2012-02-11T11:12:37Z</time>
      </trkpt>
      <trkpt lat="45.68626" lon="5.97908">
        <ele>1508.4458007812</ele>
        <time>2012-02-11T11:12:44Z</time>
      </trkpt>
      <trkpt lat="45.68626" lon="5.97909">
        <ele>1507.9653320312</ele>
        <time>2012-02-11T11:12:50Z</time>
      </trkpt>
      <trkpt lat="45.68625" lon="5.97912">
        <ele>1507.4846191406</ele>
        <time>2012-02-11T11:13:03Z</time>
      </trkpt>
      <trkpt lat="45.68626" lon="5.97909">
        <ele>1507.00390625</ele>
        <time>2012-02-11T11:13:08Z</time>
      </trkpt>
      <trkpt lat="45.68626" lon="5.97909">
        <ele>1506.5231933594</ele>
        <time>2012-02-11T11:13:14Z</time>
      </trkpt>
      <trkpt lat="45.68626" lon="5.97908">
        <ele>1506.0424804688</ele>
        <time>2012-02-11T11:13:19Z</time>
      </trkpt>
      <trkpt lat="45.68627" lon="5.97907">
        <ele>1507.4846191406</ele>
        <time>2012-02-11T11:13:25Z</time>
      </trkpt>
      <trkpt lat="45.68628" lon="5.97906">
        <ele>1507.00390625</ele>
        <time>2012-02-11T11:13:33Z</time>
      </trkpt>
      <trkpt lat="45.68628" lon="5.97908">
        <ele>1505.5620117188</ele>
        <time>2012-02-11T11:13:43Z</time>
      </trkpt>
      <trkpt lat="45.68624" lon="5.97912">
        <ele>1506.5231933594</ele>
        <time>2012-02-11T11:13:52Z</time>
      </trkpt>
      <trkpt lat="45.68623" lon="5.97913">
        <ele>1507.00390625</ele>
        <time>2012-02-11T11:14:02Z</time>
      </trkpt>
      <trkpt lat="45.68621" lon="5.97911">
        <ele>1513.2524414062</ele>
        <time>2012-02-11T11:14:10Z</time>
      </trkpt>
      <trkpt lat="45.68622" lon="5.9791">
        <ele>1510.8491210938</ele>
        <time>2012-02-11T11:14:15Z</time>
      </trkpt>
      <trkpt lat="45.68623" lon="5.97912">
        <ele>1511.3298339844</ele>
        <time>2012-02-11T11:14:26Z</time>
      </trkpt>
      <trkpt lat="45.68624" lon="5.9791">
        <ele>1512.7717285156</ele>
        <time>2012-02-11T11:14:33Z</time>
      </trkpt>
      <trkpt lat="45.68629" lon="5.97908">
        <ele>1513.7329101562</ele>
        <time>2012-02-11T11:14:43Z</time>
      </trkpt>
      <trkpt lat="45.68629" lon="5.97907">
        <ele>1514.2136230469</ele>
        <time>2012-02-11T11:14:48Z</time>
      </trkpt>
      <trkpt lat="45.68629" lon="5.97905">
        <ele>1510.3684082031</ele>
        <time>2012-02-11T11:15:00Z</time>
      </trkpt>
      <trkpt lat="45.68628" lon="5.97905">
        <ele>1510.8491210938</ele>
        <time>2012-02-11T11:15:04Z</time>
      </trkpt>
      <trkpt lat="45.68627" lon="5.97907">
        <ele>1512.291015625</ele>
        <time>2012-02-11T11:15:09Z</time>
      </trkpt>
      <trkpt lat="45.68621" lon="5.97905">
        <ele>1524.7883300781</ele>
        <time>2012-02-11T11:15:21Z</time>
      </trkpt>
      <trkpt lat="45.68621" lon="5.97906">
        <ele>1524.3076171875</ele>
        <time>2012-02-11T11:15:29Z</time>
      </trkpt>
      <trkpt lat="45.68623" lon="5.97903">
        <ele>1520.9431152344</ele>
        <time>2012-02-11T11:15:41Z</time>
      </trkpt>
      <trkpt lat="45.68623" lon="5.97908">
        <ele>1514.2136230469</ele>
        <time>2012-02-11T11:15:52Z</time>
      </trkpt>
      <trkpt lat="45.68623" lon="5.9791">
        <ele>1512.7717285156</ele>
        <time>2012-02-11T11:16:02Z</time>
      </trkpt>
      <trkpt lat="45.68621" lon="5.97911">
        <ele>1514.6943359375</ele>
        <time>2012-02-11T11:16:13Z</time>
      </trkpt>
      <trkpt lat="45.68623" lon="5.97907">
        <ele>1515.1750488281</ele>
        <time>2012-02-11T11:16:21Z</time>
      </trkpt>
      <trkpt lat="45.68623" lon="5.97908">
        <ele>1514.2136230469</ele>
        <time>2012-02-11T11:16:30Z</time>
      </trkpt>
      <trkpt lat="45.68622" lon="5.97908">
        <ele>1515.6557617188</ele>
        <time>2012-02-11T11:16:39Z</time>
      </trkpt>
      <trkpt lat="45.68622" lon="5.97908">
        <ele>1516.6171875</ele>
        <time>2012-02-11T11:16:48Z</time>
      </trkpt>
      <trkpt lat="45.68622" lon="5.97908">
        <ele>1515.6557617188</ele>
        <time>2012-02-11T11:16:53Z</time>
      </trkpt>
      <trkpt lat="45.68624" lon="5.9791">
        <ele>1513.2524414062</ele>
        <time>2012-02-11T11:17:02Z</time>
      </trkpt>
      <trkpt lat="45.68626" lon="5.97909">
        <ele>1510.8491210938</ele>
        <time>2012-02-11T11:17:13Z</time>
      </trkpt>
      <trkpt lat="45.68626" lon="5.97908">
        <ele>1509.8876953125</ele>
        <time>2012-02-11T11:17:17Z</time>
      </trkpt>
      <trkpt lat="45.68626" lon="5.97906">
        <ele>1508.4458007812</ele>
        <time>2012-02-11T11:17:27Z</time>
      </trkpt>
      <trkpt lat="45.68625" lon="5.97904">
        <ele>1507.4846191406</ele>
        <time>2012-02-11T11:17:40Z</time>
      </trkpt>
      <trkpt lat="45.68625" lon="5.97905">
        <ele>1507.00390625</ele>
        <time>2012-02-11T11:17:45Z</time>
      </trkpt>
      <trkpt lat="45.68626" lon="5.97907">
        <ele>1509.4072265625</ele>
        <time>2012-02-11T11:17:53Z</time>
      </trkpt>
      <trkpt lat="45.68627" lon="5.97909">
        <ele>1510.8491210938</ele>
        <time>2012-02-11T11:17:58Z</time>
      </trkpt>
      <trkpt lat="45.68628" lon="5.97909">
        <ele>1512.7717285156</ele>
        <time>2012-02-11T11:18:03Z</time>
      </trkpt>
      <trkpt lat="45.68629" lon="5.97908">
        <ele>1510.8491210938</ele>
        <time>2012-02-11T11:18:11Z</time>
      </trkpt>
      <trkpt lat="45.68628" lon="5.97908">
        <ele>1508.9265136719</ele>
        <time>2012-02-11T11:18:16Z</time>
      </trkpt>
      <trkpt lat="45.68628" lon="5.97907">
        <ele>1507.4846191406</ele>
        <time>2012-02-11T11:18:24Z</time>
      </trkpt>
      <trkpt lat="45.68626" lon="5.97907">
        <ele>1507.4846191406</ele>
        <time>2012-02-11T11:18:36Z</time>
      </trkpt>
      <trkpt lat="45.68625" lon="5.97905">
        <ele>1511.810546875</ele>
        <time>2012-02-11T11:18:41Z</time>
      </trkpt>
      <trkpt lat="45.68624" lon="5.97905">
        <ele>1511.3298339844</ele>
        <time>2012-02-11T11:18:43Z</time>
      </trkpt>
      <trkpt lat="45.68627" lon="5.97902">
        <ele>1510.3684082031</ele>
        <time>2012-02-11T11:18:49Z</time>
      </trkpt>
      <trkpt lat="45.68628" lon="5.97904">
        <ele>1508.9265136719</ele>
        <time>2012-02-11T11:18:54Z</time>
      </trkpt>
      <trkpt lat="45.68629" lon="5.9791">
        <ele>1508.9265136719</ele>
        <time>2012-02-11T11:19:02Z</time>
      </trkpt>
      <trkpt lat="45.68626" lon="5.9791">
        <ele>1510.3684082031</ele>
        <time>2012-02-11T11:19:12Z</time>
      </trkpt>
      <trkpt lat="45.68628" lon="5.97907">
        <ele>1510.8491210938</ele>
        <time>2012-02-11T11:19:22Z</time>
      </trkpt>
      <trkpt lat="45.68629" lon="5.97907">
        <ele>1510.3684082031</ele>
        <time>2012-02-11T11:19:34Z</time>
      </trkpt>
      <trkpt lat="45.68629" lon="5.97908">
        <ele>1511.3298339844</ele>
        <time>2012-02-11T11:19:38Z</time>
      </trkpt>
      <trkpt lat="45.68629" lon="5.97903">
        <ele>1507.9653320312</ele>
        <time>2012-02-11T11:19:47Z</time>
      </trkpt>
      <trkpt lat="45.68629" lon="5.97905">
        <ele>1507.00390625</ele>
        <time>2012-02-11T11:19:50Z</time>
      </trkpt>
      <trkpt lat="45.68626" lon="5.97906">
        <ele>1508.9265136719</ele>
        <time>2012-02-11T11:20:00Z</time>
      </trkpt>
      <trkpt lat="45.68625" lon="5.97906">
        <ele>1510.3684082031</ele>
        <time>2012-02-11T11:20:09Z</time>
      </trkpt>
      <trkpt lat="45.68627" lon="5.97907">
        <ele>1508.9265136719</ele>
        <time>2012-02-11T11:20:15Z</time>
      </trkpt>
      <trkpt lat="45.68625" lon="5.97906">
        <ele>1508.9265136719</ele>
        <time>2012-02-11T11:20:21Z</time>
      </trkpt>
      <trkpt lat="45.68626" lon="5.97906">
        <ele>1508.4458007812</ele>
        <time>2012-02-11T11:20:24Z</time>
      </trkpt>
      <trkpt lat="45.68628" lon="5.97907">
        <ele>1508.9265136719</ele>
        <time>2012-02-11T11:20:29Z</time>
      </trkpt>
      <trkpt lat="45.68628" lon="5.97907">
        <ele>1507.00390625</ele>
        <time>2012-02-11T11:20:34Z</time>
      </trkpt>
      <trkpt lat="45.68629" lon="5.97907">
        <ele>1505.5620117188</ele>
        <time>2012-02-11T11:20:38Z</time>
      </trkpt>
      <trkpt lat="45.68628" lon="5.97906">
        <ele>1503.6394042969</ele>
        <time>2012-02-11T11:20:44Z</time>
      </trkpt>
      <trkpt lat="45.68631" lon="5.97905">
        <ele>1503.6394042969</ele>
        <time>2012-02-11T11:21:00Z</time>
      </trkpt>
      <trkpt lat="45.68631" lon="5.97904">
        <ele>1503.1586914062</ele>
        <time>2012-02-11T11:21:07Z</time>
      </trkpt>
      <trkpt lat="45.6863" lon="5.97905">
        <ele>1506.0424804688</ele>
        <time>2012-02-11T11:21:21Z</time>
      </trkpt>
      <trkpt lat="45.6863" lon="5.97906">
        <ele>1505.5620117188</ele>
        <time>2012-02-11T11:21:27Z</time>
      </trkpt>
      <trkpt lat="45.6863" lon="5.97905">
        <ele>1505.5620117188</ele>
        <time>2012-02-11T11:21:33Z</time>
      </trkpt>
      <trkpt lat="45.68631" lon="5.97905">
        <ele>1505.5620117188</ele>
        <time>2012-02-11T11:21:34Z</time>
      </trkpt>
      <trkpt lat="45.68631" lon="5.97903">
        <ele>1505.5620117188</ele>
        <time>2012-02-11T11:21:41Z</time>
      </trkpt>
      <trkpt lat="45.68631" lon="5.97904">
        <ele>1504.6005859375</ele>
        <time>2012-02-11T11:21:47Z</time>
      </trkpt>
      <trkpt lat="45.68631" lon="5.97905">
        <ele>1504.6005859375</ele>
        <time>2012-02-11T11:21:51Z</time>
      </trkpt>
      <trkpt lat="45.68629" lon="5.97906">
        <ele>1504.1201171875</ele>
        <time>2012-02-11T11:22:18Z</time>
      </trkpt>
      <trkpt lat="45.68629" lon="5.97906">
        <ele>1502.6779785156</ele>
        <time>2012-02-11T11:22:23Z</time>
      </trkpt>
      <trkpt lat="45.68629" lon="5.97906">
        <ele>1504.6005859375</ele>
        <time>2012-02-11T11:22:33Z</time>
      </trkpt>
      <trkpt lat="45.68629" lon="5.97907">
        <ele>1507.00390625</ele>
        <time>2012-02-11T11:22:41Z</time>
      </trkpt>
      <trkpt lat="45.68629" lon="5.97908">
        <ele>1505.5620117188</ele>
        <time>2012-02-11T11:22:50Z</time>
      </trkpt>
      <trkpt lat="45.68628" lon="5.97908">
        <ele>1508.4458007812</ele>
        <time>2012-02-11T11:22:57Z</time>
      </trkpt>
      <trkpt lat="45.68629" lon="5.97907">
        <ele>1507.00390625</ele>
        <time>2012-02-11T11:23:04Z</time>
      </trkpt>
      <trkpt lat="45.68631" lon="5.97907">
        <ele>1499.7939453125</ele>
        <time>2012-02-11T11:23:20Z</time>
      </trkpt>
      <trkpt lat="45.68629" lon="5.97909">
        <ele>1501.2360839844</ele>
        <time>2012-02-11T11:23:21Z</time>
      </trkpt>
      <trkpt lat="45.68629" lon="5.9791">
        <ele>1502.197265625</ele>
        <time>2012-02-11T11:23:27Z</time>
      </trkpt>
      <trkpt lat="45.6863" lon="5.97908">
        <ele>1500.7553710938</ele>
        <time>2012-02-11T11:23:32Z</time>
      </trkpt>
      <trkpt lat="45.6863" lon="5.97907">
        <ele>1498.3518066406</ele>
        <time>2012-02-11T11:23:37Z</time>
      </trkpt>
      <trkpt lat="45.68628" lon="5.97912">
        <ele>1502.197265625</ele>
        <time>2012-02-11T11:23:46Z</time>
      </trkpt>
      <trkpt lat="45.68628" lon="5.97912">
        <ele>1502.6779785156</ele>
        <time>2012-02-11T11:23:53Z</time>
      </trkpt>
      <trkpt lat="45.68628" lon="5.97912">
        <ele>1503.1586914062</ele>
        <time>2012-02-11T11:24:07Z</time>
      </trkpt>
      <trkpt lat="45.68628" lon="5.9791">
        <ele>1505.0812988281</ele>
        <time>2012-02-11T11:24:11Z</time>
      </trkpt>
      <trkpt lat="45.68628" lon="5.97911">
        <ele>1507.9653320312</ele>
        <time>2012-02-11T11:24:22Z</time>
      </trkpt>
      <trkpt lat="45.68628" lon="5.97911">
        <ele>1507.4846191406</ele>
        <time>2012-02-11T11:24:29Z</time>
      </trkpt>
      <trkpt lat="45.68627" lon="5.9791">
        <ele>1507.9653320312</ele>
        <time>2012-02-11T11:24:42Z</time>
      </trkpt>
      <trkpt lat="45.68627" lon="5.97907">
        <ele>1505.5620117188</ele>
        <time>2012-02-11T11:24:58Z</time>
      </trkpt>
      <trkpt lat="45.68628" lon="5.97905">
        <ele>1503.1586914062</ele>
        <time>2012-02-11T11:25:10Z</time>
      </trkpt>
      <trkpt lat="45.68628" lon="5.97906">
        <ele>1502.197265625</ele>
        <time>2012-02-11T11:25:21Z</time>
      </trkpt>
      <trkpt lat="45.68628" lon="5.97909">
        <ele>1503.6394042969</ele>
        <time>2012-02-11T11:25:36Z</time>
      </trkpt>
      <trkpt lat="45.68627" lon="5.97911">
        <ele>1506.0424804688</ele>
        <time>2012-02-11T11:25:50Z</time>
      </trkpt>
      <trkpt lat="45.68628" lon="5.97911">
        <ele>1505.5620117188</ele>
        <time>2012-02-11T11:25:59Z</time>
      </trkpt>
      <trkpt lat="45.68629" lon="5.97909">
        <ele>1503.6394042969</ele>
        <time>2012-02-11T11:26:10Z</time>
      </trkpt>
      <trkpt lat="45.6863" lon="5.97908">
        <ele>1503.1586914062</ele>
        <time>2012-02-11T11:26:18Z</time>
      </trkpt>
      <trkpt lat="45.6863" lon="5.97909">
        <ele>1502.197265625</ele>
        <time>2012-02-11T11:26:37Z</time>
      </trkpt>
      <trkpt lat="45.6863" lon="5.97909">
        <ele>1502.6779785156</ele>
        <time>2012-02-11T11:26:43Z</time>
      </trkpt>
      <trkpt lat="45.68628" lon="5.97913">
        <ele>1503.6394042969</ele>
        <time>2012-02-11T11:26:56Z</time>
      </trkpt>
      <trkpt lat="45.68628" lon="5.97911">
        <ele>1505.5620117188</ele>
        <time>2012-02-11T11:27:07Z</time>
      </trkpt>
      <trkpt lat="45.68628" lon="5.9791">
        <ele>1505.0812988281</ele>
        <time>2012-02-11T11:27:17Z</time>
      </trkpt>
      <trkpt lat="45.68628" lon="5.97911">
        <ele>1505.5620117188</ele>
        <time>2012-02-11T11:27:27Z</time>
      </trkpt>
      <trkpt lat="45.68628" lon="5.97911">
        <ele>1504.6005859375</ele>
        <time>2012-02-11T11:27:34Z</time>
      </trkpt>
      <trkpt lat="45.68628" lon="5.97911">
        <ele>1504.1201171875</ele>
        <time>2012-02-11T11:27:46Z</time>
      </trkpt>
      <trkpt lat="45.68627" lon="5.97913">
        <ele>1504.1201171875</ele>
        <time>2012-02-11T11:28:02Z</time>
      </trkpt>
      <trkpt lat="45.68627" lon="5.97913">
        <ele>1504.6005859375</ele>
        <time>2012-02-11T11:28:11Z</time>
      </trkpt>
      <trkpt lat="45.68628" lon="5.97912">
        <ele>1505.5620117188</ele>
        <time>2012-02-11T11:28:18Z</time>
      </trkpt>
      <trkpt lat="45.68627" lon="5.97912">
        <ele>1506.5231933594</ele>
        <time>2012-02-11T11:28:25Z</time>
      </trkpt>
      <trkpt lat="45.68627" lon="5.97907">
        <ele>1503.6394042969</ele>
        <time>2012-02-11T11:28:38Z</time>
      </trkpt>
      <trkpt lat="45.68629" lon="5.97906">
        <ele>1498.8325195312</ele>
        <time>2012-02-11T11:28:59Z</time>
      </trkpt>
      <trkpt lat="45.68629" lon="5.97907">
        <ele>1499.3132324219</ele>
        <time>2012-02-11T11:29:03Z</time>
      </trkpt>
      <trkpt lat="45.68628" lon="5.97906">
        <ele>1501.716796875</ele>
        <time>2012-02-11T11:29:10Z</time>
      </trkpt>
      <trkpt lat="45.68629" lon="5.97906">
        <ele>1504.6005859375</ele>
        <time>2012-02-11T11:29:30Z</time>
      </trkpt>
      <trkpt lat="45.68629" lon="5.97907">
        <ele>1504.6005859375</ele>
        <time>2012-02-11T11:29:41Z</time>
      </trkpt>
      <trkpt lat="45.68629" lon="5.97907">
        <ele>1504.6005859375</ele>
        <time>2012-02-11T11:29:51Z</time>
      </trkpt>
      <trkpt lat="45.68628" lon="5.97908">
        <ele>1504.1201171875</ele>
        <time>2012-02-11T11:30:03Z</time>
      </trkpt>
      <trkpt lat="45.68626" lon="5.97908">
        <ele>1508.4458007812</ele>
        <time>2012-02-11T11:30:17Z</time>
      </trkpt>
      <trkpt lat="45.68626" lon="5.97909">
        <ele>1508.9265136719</ele>
        <time>2012-02-11T11:30:21Z</time>
      </trkpt>
      <trkpt lat="45.68627" lon="5.97909">
        <ele>1509.4072265625</ele>
        <time>2012-02-11T11:30:25Z</time>
      </trkpt>
      <trkpt lat="45.68627" lon="5.97908">
        <ele>1508.9265136719</ele>
        <time>2012-02-11T11:30:36Z</time>
      </trkpt>
      <trkpt lat="45.68627" lon="5.97907">
        <ele>1507.9653320312</ele>
        <time>2012-02-11T11:30:44Z</time>
      </trkpt>
      <trkpt lat="45.68628" lon="5.97906">
        <ele>1510.3684082031</ele>
        <time>2012-02-11T11:30:54Z</time>
      </trkpt>
      <trkpt lat="45.68628" lon="5.97906">
        <ele>1510.3684082031</ele>
        <time>2012-02-11T11:30:57Z</time>
      </trkpt>
      <trkpt lat="45.68628" lon="5.97905">
        <ele>1508.4458007812</ele>
        <time>2012-02-11T11:31:05Z</time>
      </trkpt>
      <trkpt lat="45.68629" lon="5.97905">
        <ele>1506.0424804688</ele>
        <time>2012-02-11T11:31:15Z</time>
      </trkpt>
      <trkpt lat="45.68628" lon="5.97908">
        <ele>1504.6005859375</ele>
        <time>2012-02-11T11:31:23Z</time>
      </trkpt>
      <trkpt lat="45.68627" lon="5.97909">
        <ele>1505.0812988281</ele>
        <time>2012-02-11T11:31:32Z</time>
      </trkpt>
      <trkpt lat="45.68627" lon="5.97909">
        <ele>1505.5620117188</ele>
        <time>2012-02-11T11:31:39Z</time>
      </trkpt>
      <trkpt lat="45.68626" lon="5.97908">
        <ele>1505.5620117188</ele>
        <time>2012-02-11T11:31:49Z</time>
      </trkpt>
      <trkpt lat="45.68626" lon="5.97911">
        <ele>1506.0424804688</ele>
        <time>2012-02-11T11:31:56Z</time>
      </trkpt>
      <trkpt lat="45.68626" lon="5.97909">
        <ele>1509.4072265625</ele>
        <time>2012-02-11T11:32:03Z</time>
      </trkpt>
      <trkpt lat="45.68627" lon="5.97907">
        <ele>1510.8491210938</ele>
        <time>2012-02-11T11:32:15Z</time>
      </trkpt>
      <trkpt lat="45.68627" lon="5.97907">
        <ele>1510.8491210938</ele>
        <time>2012-02-11T11:32:18Z</time>
      </trkpt>
      <trkpt lat="45.68627" lon="5.97907">
        <ele>1511.3298339844</ele>
        <time>2012-02-11T11:32:22Z</time>
      </trkpt>
      <trkpt lat="45.68628" lon="5.97907">
        <ele>1509.4072265625</ele>
        <time>2012-02-11T11:32:31Z</time>
      </trkpt>
      <trkpt lat="45.68629" lon="5.97906">
        <ele>1509.8876953125</ele>
        <time>2012-02-11T11:32:36Z</time>
      </trkpt>
      <trkpt lat="45.68628" lon="5.97909">
        <ele>1510.8491210938</ele>
        <time>2012-02-11T11:32:42Z</time>
      </trkpt>
      <trkpt lat="45.68627" lon="5.9791">
        <ele>1509.8876953125</ele>
        <time>2012-02-11T11:32:48Z</time>
      </trkpt>
      <trkpt lat="45.68627" lon="5.97911">
        <ele>1509.4072265625</ele>
        <time>2012-02-11T11:32:55Z</time>
      </trkpt>
      <trkpt lat="45.68626" lon="5.97912">
        <ele>1508.9265136719</ele>
        <time>2012-02-11T11:33:01Z</time>
      </trkpt>
      <trkpt lat="45.68626" lon="5.97913">
        <ele>1509.4072265625</ele>
        <time>2012-02-11T11:33:08Z</time>
      </trkpt>
      <trkpt lat="45.68626" lon="5.97911">
        <ele>1508.4458007812</ele>
        <time>2012-02-11T11:33:21Z</time>
      </trkpt>
      <trkpt lat="45.68627" lon="5.97911">
        <ele>1505.5620117188</ele>
        <time>2012-02-11T11:33:37Z</time>
      </trkpt>
      <trkpt lat="45.68629" lon="5.97908">
        <ele>1503.6394042969</ele>
        <time>2012-02-11T11:34:23Z</time>
      </trkpt>
      <trkpt lat="45.68629" lon="5.97908">
        <ele>1503.6394042969</ele>
        <time>2012-02-11T11:34:33Z</time>
      </trkpt>
      <trkpt lat="45.68628" lon="5.97908">
        <ele>1504.1201171875</ele>
        <time>2012-02-11T11:34:42Z</time>
      </trkpt>
      <trkpt lat="45.68628" lon="5.97909">
        <ele>1504.1201171875</ele>
        <time>2012-02-11T11:34:49Z</time>
      </trkpt>
      <trkpt lat="45.68628" lon="5.97909">
        <ele>1503.1586914062</ele>
        <time>2012-02-11T11:34:59Z</time>
      </trkpt>
      <trkpt lat="45.68628" lon="5.9791">
        <ele>1503.1586914062</ele>
        <time>2012-02-11T11:35:03Z</time>
      </trkpt>
      <trkpt lat="45.68628" lon="5.9791">
        <ele>1503.1586914062</ele>
        <time>2012-02-11T11:35:04Z</time>
      </trkpt>
      <trkpt lat="45.68629" lon="5.9791">
        <ele>1503.6394042969</ele>
        <time>2012-02-11T11:35:07Z</time>
      </trkpt>
      <trkpt lat="45.68629" lon="5.9791">
        <ele>1503.6394042969</ele>
        <time>2012-02-11T11:35:10Z</time>
      </trkpt>
      <trkpt lat="45.68629" lon="5.97909">
        <ele>1505.0812988281</ele>
        <time>2012-02-11T11:35:22Z</time>
      </trkpt>
      <trkpt lat="45.68629" lon="5.97911">
        <ele>1506.5231933594</ele>
        <time>2012-02-11T11:35:37Z</time>
      </trkpt>
      <trkpt lat="45.68629" lon="5.9791">
        <ele>1506.5231933594</ele>
        <time>2012-02-11T11:35:43Z</time>
      </trkpt>
      <trkpt lat="45.68628" lon="5.9791">
        <ele>1507.4846191406</ele>
        <time>2012-02-11T11:35:50Z</time>
      </trkpt>
      <trkpt lat="45.68628" lon="5.97909">
        <ele>1507.4846191406</ele>
        <time>2012-02-11T11:36:04Z</time>
      </trkpt>
      <trkpt lat="45.68628" lon="5.97907">
        <ele>1509.4072265625</ele>
        <time>2012-02-11T11:36:12Z</time>
      </trkpt>
      <trkpt lat="45.68629" lon="5.97909">
        <ele>1507.4846191406</ele>
        <time>2012-02-11T11:36:23Z</time>
      </trkpt>
      <trkpt lat="45.68629" lon="5.9791">
        <ele>1505.5620117188</ele>
        <time>2012-02-11T11:36:28Z</time>
      </trkpt>
      <trkpt lat="45.68629" lon="5.97909">
        <ele>1504.1201171875</ele>
        <time>2012-02-11T11:36:36Z</time>
      </trkpt>
      <trkpt lat="45.68629" lon="5.97907">
        <ele>1504.1201171875</ele>
        <time>2012-02-11T11:36:43Z</time>
      </trkpt>
      <trkpt lat="45.68629" lon="5.97908">
        <ele>1503.6394042969</ele>
        <time>2012-02-11T11:36:49Z</time>
      </trkpt>
      <trkpt lat="45.68627" lon="5.97909">
        <ele>1501.716796875</ele>
        <time>2012-02-11T11:36:57Z</time>
      </trkpt>
      <trkpt lat="45.68627" lon="5.97907">
        <ele>1500.7553710938</ele>
        <time>2012-02-11T11:37:03Z</time>
      </trkpt>
      <trkpt lat="45.68627" lon="5.97907">
        <ele>1501.716796875</ele>
        <time>2012-02-11T11:37:08Z</time>
      </trkpt>
      <trkpt lat="45.68626" lon="5.97907">
        <ele>1503.6394042969</ele>
        <time>2012-02-11T11:37:26Z</time>
      </trkpt>
      <trkpt lat="45.68626" lon="5.97905">
        <ele>1507.00390625</ele>
        <time>2012-02-11T11:37:37Z</time>
      </trkpt>
      <trkpt lat="45.68626" lon="5.97906">
        <ele>1505.5620117188</ele>
        <time>2012-02-11T11:37:42Z</time>
      </trkpt>
      <trkpt lat="45.68625" lon="5.97909">
        <ele>1507.00390625</ele>
        <time>2012-02-11T11:37:51Z</time>
      </trkpt>
      <trkpt lat="45.68625" lon="5.97909">
        <ele>1505.0812988281</ele>
        <time>2012-02-11T11:38:02Z</time>
      </trkpt>
      <trkpt lat="45.68625" lon="5.97908">
        <ele>1505.0812988281</ele>
        <time>2012-02-11T11:38:04Z</time>
      </trkpt>
      <trkpt lat="45.68625" lon="5.97908">
        <ele>1505.0812988281</ele>
        <time>2012-02-11T11:38:05Z</time>
      </trkpt>
      <trkpt lat="45.68626" lon="5.97908">
        <ele>1509.4072265625</ele>
        <time>2012-02-11T11:38:16Z</time>
      </trkpt>
      <trkpt lat="45.68627" lon="5.97909">
        <ele>1511.3298339844</ele>
        <time>2012-02-11T11:38:24Z</time>
      </trkpt>
      <trkpt lat="45.68624" lon="5.9791">
        <ele>1509.8876953125</ele>
        <time>2012-02-11T11:38:38Z</time>
      </trkpt>
      <trkpt lat="45.68625" lon="5.97909">
        <ele>1509.8876953125</ele>
        <time>2012-02-11T11:38:46Z</time>
      </trkpt>
      <trkpt lat="45.68627" lon="5.97907">
        <ele>1507.4846191406</ele>
        <time>2012-02-11T11:38:55Z</time>
      </trkpt>
      <trkpt lat="45.68627" lon="5.97906">
        <ele>1508.4458007812</ele>
        <time>2012-02-11T11:39:05Z</time>
      </trkpt>
      <trkpt lat="45.68626" lon="5.97906">
        <ele>1509.4072265625</ele>
        <time>2012-02-11T11:39:14Z</time>
      </trkpt>
      <trkpt lat="45.68627" lon="5.97901">
        <ele>1512.7717285156</ele>
        <time>2012-02-11T11:39:30Z</time>
      </trkpt>
      <trkpt lat="45.68628" lon="5.97901">
        <ele>1512.7717285156</ele>
        <time>2012-02-11T11:39:44Z</time>
      </trkpt>
      <trkpt lat="45.68627" lon="5.97902">
        <ele>1510.3684082031</ele>
        <time>2012-02-11T11:39:59Z</time>
      </trkpt>
      <trkpt lat="45.68627" lon="5.97904">
        <ele>1509.4072265625</ele>
        <time>2012-02-11T11:40:03Z</time>
      </trkpt>
      <trkpt lat="45.68627" lon="5.97904">
        <ele>1509.8876953125</ele>
        <time>2012-02-11T11:40:05Z</time>
      </trkpt>
      <trkpt lat="45.68626" lon="5.97906">
        <ele>1510.3684082031</ele>
        <time>2012-02-11T11:40:12Z</time>
      </trkpt>
      <trkpt lat="45.68625" lon="5.97911">
        <ele>1508.4458007812</ele>
        <time>2012-02-11T11:40:35Z</time>
      </trkpt>
      <trkpt lat="45.68625" lon="5.97911">
        <ele>1507.4846191406</ele>
        <time>2012-02-11T11:40:46Z</time>
      </trkpt>
      <trkpt lat="45.68625" lon="5.9791">
        <ele>1507.4846191406</ele>
        <time>2012-02-11T11:40:56Z</time>
      </trkpt>
      <trkpt lat="45.68625" lon="5.97908">
        <ele>1508.9265136719</ele>
        <time>2012-02-11T11:41:02Z</time>
      </trkpt>
      <trkpt lat="45.68626" lon="5.97907">
        <ele>1508.4458007812</ele>
        <time>2012-02-11T11:41:07Z</time>
      </trkpt>
      <trkpt lat="45.68625" lon="5.97906">
        <ele>1506.5231933594</ele>
        <time>2012-02-11T11:41:20Z</time>
      </trkpt>
      <trkpt lat="45.68625" lon="5.97906">
        <ele>1506.5231933594</ele>
        <time>2012-02-11T11:41:31Z</time>
      </trkpt>
      <trkpt lat="45.68625" lon="5.97906">
        <ele>1506.0424804688</ele>
        <time>2012-02-11T11:41:33Z</time>
      </trkpt>
      <trkpt lat="45.68624" lon="5.97906">
        <ele>1506.0424804688</ele>
        <time>2012-02-11T11:41:34Z</time>
      </trkpt>
      <trkpt lat="45.68625" lon="5.97906">
        <ele>1505.5620117188</ele>
        <time>2012-02-11T11:41:42Z</time>
      </trkpt>
      <trkpt lat="45.68624" lon="5.97907">
        <ele>1507.4846191406</ele>
        <time>2012-02-11T11:42:00Z</time>
      </trkpt>
      <trkpt lat="45.68624" lon="5.97908">
        <ele>1507.4846191406</ele>
        <time>2012-02-11T11:42:08Z</time>
      </trkpt>
      <trkpt lat="45.68625" lon="5.97906">
        <ele>1507.00390625</ele>
        <time>2012-02-11T11:42:22Z</time>
      </trkpt>
      <trkpt lat="45.68625" lon="5.97905">
        <ele>1505.5620117188</ele>
        <time>2012-02-11T11:42:31Z</time>
      </trkpt>
      <trkpt lat="45.68625" lon="5.97904">
        <ele>1506.5231933594</ele>
        <time>2012-02-11T11:42:38Z</time>
      </trkpt>
      <trkpt lat="45.68625" lon="5.97905">
        <ele>1506.5231933594</ele>
        <time>2012-02-11T11:42:49Z</time>
      </trkpt>
      <trkpt lat="45.68625" lon="5.97909">
        <ele>1505.0812988281</ele>
        <time>2012-02-11T11:42:59Z</time>
      </trkpt>
      <trkpt lat="45.68625" lon="5.97909">
        <ele>1506.0424804688</ele>
        <time>2012-02-11T11:43:06Z</time>
      </trkpt>
      <trkpt lat="45.68626" lon="5.97909">
        <ele>1506.5231933594</ele>
        <time>2012-02-11T11:43:10Z</time>
      </trkpt>
      <trkpt lat="45.68626" lon="5.97909">
        <ele>1506.5231933594</ele>
        <time>2012-02-11T11:43:13Z</time>
      </trkpt>
      <trkpt lat="45.68627" lon="5.97907">
        <ele>1507.9653320312</ele>
        <time>2012-02-11T11:43:24Z</time>
      </trkpt>
      <trkpt lat="45.68626" lon="5.97906">
        <ele>1507.9653320312</ele>
        <time>2012-02-11T11:43:49Z</time>
      </trkpt>
      <trkpt lat="45.68626" lon="5.97906">
        <ele>1508.4458007812</ele>
        <time>2012-02-11T11:43:59Z</time>
      </trkpt>
      <trkpt lat="45.68627" lon="5.97906">
        <ele>1508.4458007812</ele>
        <time>2012-02-11T11:44:07Z</time>
      </trkpt>
      <trkpt lat="45.68627" lon="5.97906">
        <ele>1508.4458007812</ele>
        <time>2012-02-11T11:44:11Z</time>
      </trkpt>
      <trkpt lat="45.68627" lon="5.97906">
        <ele>1508.4458007812</ele>
        <time>2012-02-11T11:44:22Z</time>
      </trkpt>
      <trkpt lat="45.68627" lon="5.97905">
        <ele>1508.9265136719</ele>
        <time>2012-02-11T11:44:34Z</time>
      </trkpt>
      <trkpt lat="45.68628" lon="5.97906">
        <ele>1506.5231933594</ele>
        <time>2012-02-11T11:44:49Z</time>
      </trkpt>
      <trkpt lat="45.68626" lon="5.97908">
        <ele>1503.6394042969</ele>
        <time>2012-02-11T11:44:59Z</time>
      </trkpt>
      <trkpt lat="45.68626" lon="5.97906">
        <ele>1502.6779785156</ele>
        <time>2012-02-11T11:45:14Z</time>
      </trkpt>
      <trkpt lat="45.68625" lon="5.97906">
        <ele>1502.197265625</ele>
        <time>2012-02-11T11:45:31Z</time>
      </trkpt>
      <trkpt lat="45.68626" lon="5.97907">
        <ele>1502.6779785156</ele>
        <time>2012-02-11T11:45:43Z</time>
      </trkpt>
      <trkpt lat="45.68626" lon="5.97907">
        <ele>1502.6779785156</ele>
        <time>2012-02-11T11:45:45Z</time>
      </trkpt>
      <trkpt lat="45.68625" lon="5.97905">
        <ele>1507.00390625</ele>
        <time>2012-02-11T11:46:20Z</time>
      </trkpt>
      <trkpt lat="45.68627" lon="5.97906">
        <ele>1505.5620117188</ele>
        <time>2012-02-11T11:46:32Z</time>
      </trkpt>
      <trkpt lat="45.68627" lon="5.97906">
        <ele>1505.5620117188</ele>
        <time>2012-02-11T11:46:35Z</time>
      </trkpt>
      <trkpt lat="45.68627" lon="5.97905">
        <ele>1506.5231933594</ele>
        <time>2012-02-11T11:46:40Z</time>
      </trkpt>
      <trkpt lat="45.68627" lon="5.97905">
        <ele>1506.5231933594</ele>
        <time>2012-02-11T11:46:41Z</time>
      </trkpt>
      <trkpt lat="45.68627" lon="5.97904">
        <ele>1507.4846191406</ele>
        <time>2012-02-11T11:46:57Z</time>
      </trkpt>
      <trkpt lat="45.68627" lon="5.97905">
        <ele>1506.5231933594</ele>
        <time>2012-02-11T11:47:07Z</time>
      </trkpt>
      <trkpt lat="45.68626" lon="5.97906">
        <ele>1506.5231933594</ele>
        <time>2012-02-11T11:47:13Z</time>
      </trkpt>
      <trkpt lat="45.68626" lon="5.97908">
        <ele>1507.00390625</ele>
        <time>2012-02-11T11:47:26Z</time>
      </trkpt>
      <trkpt lat="45.68626" lon="5.9791">
        <ele>1505.5620117188</ele>
        <time>2012-02-11T11:47:40Z</time>
      </trkpt>
      <trkpt lat="45.68626" lon="5.9791">
        <ele>1505.5620117188</ele>
        <time>2012-02-11T11:47:54Z</time>
      </trkpt>
      <trkpt lat="45.68625" lon="5.97909">
        <ele>1509.8876953125</ele>
        <time>2012-02-11T11:48:13Z</time>
      </trkpt>
      <trkpt lat="45.68626" lon="5.97907">
        <ele>1509.8876953125</ele>
        <time>2012-02-11T11:48:26Z</time>
      </trkpt>
      <trkpt lat="45.68628" lon="5.97906">
        <ele>1511.810546875</ele>
        <time>2012-02-11T11:48:50Z</time>
      </trkpt>
      <trkpt lat="45.68629" lon="5.97906">
        <ele>1508.4458007812</ele>
        <time>2012-02-11T11:49:01Z</time>
      </trkpt>
      <trkpt lat="45.68628" lon="5.97906">
        <ele>1509.8876953125</ele>
        <time>2012-02-11T11:49:13Z</time>
      </trkpt>
      <trkpt lat="45.68627" lon="5.97908">
        <ele>1508.4458007812</ele>
        <time>2012-02-11T11:49:20Z</time>
      </trkpt>
      <trkpt lat="45.68627" lon="5.97907">
        <ele>1508.4458007812</ele>
        <time>2012-02-11T11:49:25Z</time>
      </trkpt>
      <trkpt lat="45.68627" lon="5.97907">
        <ele>1507.4846191406</ele>
        <time>2012-02-11T11:49:30Z</time>
      </trkpt>
      <trkpt lat="45.68628" lon="5.97908">
        <ele>1506.5231933594</ele>
        <time>2012-02-11T11:49:39Z</time>
      </trkpt>
      <trkpt lat="45.68627" lon="5.97907">
        <ele>1504.6005859375</ele>
        <time>2012-02-11T11:49:59Z</time>
      </trkpt>
      <trkpt lat="45.68628" lon="5.97907">
        <ele>1505.0812988281</ele>
        <time>2012-02-11T11:50:13Z</time>
      </trkpt>
      <trkpt lat="45.68628" lon="5.97908">
        <ele>1504.1201171875</ele>
        <time>2012-02-11T11:50:24Z</time>
      </trkpt>
      <trkpt lat="45.68628" lon="5.97906">
        <ele>1504.6005859375</ele>
        <time>2012-02-11T11:50:30Z</time>
      </trkpt>
      <trkpt lat="45.68628" lon="5.97907">
        <ele>1504.1201171875</ele>
        <time>2012-02-11T11:50:37Z</time>
      </trkpt>
      <trkpt lat="45.68626" lon="5.97905">
        <ele>1506.0424804688</ele>
        <time>2012-02-11T11:50:50Z</time>
      </trkpt>
      <trkpt lat="45.68626" lon="5.97905">
        <ele>1506.0424804688</ele>
        <time>2012-02-11T11:50:54Z</time>
      </trkpt>
      <trkpt lat="45.68626" lon="5.97905">
        <ele>1506.0424804688</ele>
        <time>2012-02-11T11:50:58Z</time>
      </trkpt>
      <trkpt lat="45.68626" lon="5.97905">
        <ele>1506.0424804688</ele>
        <time>2012-02-11T11:50:59Z</time>
      </trkpt>
      <trkpt lat="45.68627" lon="5.97905">
        <ele>1506.5231933594</ele>
        <time>2012-02-11T11:51:06Z</time>
      </trkpt>
      <trkpt lat="45.68627" lon="5.97905">
        <ele>1506.0424804688</ele>
        <time>2012-02-11T11:51:09Z</time>
      </trkpt>
      <trkpt lat="45.68627" lon="5.97906">
        <ele>1506.0424804688</ele>
        <time>2012-02-11T11:51:10Z</time>
      </trkpt>
      <trkpt lat="45.68626" lon="5.97905">
        <ele>1507.00390625</ele>
        <time>2012-02-11T11:51:24Z</time>
      </trkpt>
      <trkpt lat="45.68626" lon="5.97905">
        <ele>1507.00390625</ele>
        <time>2012-02-11T11:51:34Z</time>
      </trkpt>
      <trkpt lat="45.68627" lon="5.97906">
        <ele>1505.0812988281</ele>
        <time>2012-02-11T11:51:43Z</time>
      </trkpt>
      <trkpt lat="45.68626" lon="5.97906">
        <ele>1504.6005859375</ele>
        <time>2012-02-11T11:51:49Z</time>
      </trkpt>
      <trkpt lat="45.68627" lon="5.97907">
        <ele>1504.1201171875</ele>
        <time>2012-02-11T11:52:00Z</time>
      </trkpt>
      <trkpt lat="45.68628" lon="5.97907">
        <ele>1503.6394042969</ele>
        <time>2012-02-11T11:52:15Z</time>
      </trkpt>
      <trkpt lat="45.68627" lon="5.97908">
        <ele>1501.2360839844</ele>
        <time>2012-02-11T11:52:28Z</time>
      </trkpt>
      <trkpt lat="45.68627" lon="5.97909">
        <ele>1502.6779785156</ele>
        <time>2012-02-11T11:52:38Z</time>
      </trkpt>
      <trkpt lat="45.68627" lon="5.97908">
        <ele>1502.197265625</ele>
        <time>2012-02-11T11:52:45Z</time>
      </trkpt>
      <trkpt lat="45.68628" lon="5.97907">
        <ele>1505.0812988281</ele>
        <time>2012-02-11T11:52:54Z</time>
      </trkpt>
      <trkpt lat="45.68629" lon="5.97908">
        <ele>1508.9265136719</ele>
        <time>2012-02-11T11:53:15Z</time>
      </trkpt>
      <trkpt lat="45.68629" lon="5.97908">
        <ele>1508.9265136719</ele>
        <time>2012-02-11T11:53:20Z</time>
      </trkpt>
      <trkpt lat="45.68629" lon="5.97907">
        <ele>1509.4072265625</ele>
        <time>2012-02-11T11:53:27Z</time>
      </trkpt>
      <trkpt lat="45.68629" lon="5.97907">
        <ele>1508.4458007812</ele>
        <time>2012-02-11T11:53:37Z</time>
      </trkpt>
      <trkpt lat="45.68628" lon="5.97906">
        <ele>1505.5620117188</ele>
        <time>2012-02-11T11:53:57Z</time>
      </trkpt>
      <trkpt lat="45.68627" lon="5.97906">
        <ele>1504.1201171875</ele>
        <time>2012-02-11T11:54:11Z</time>
      </trkpt>
      <trkpt lat="45.68627" lon="5.97906">
        <ele>1503.6394042969</ele>
        <time>2012-02-11T11:54:17Z</time>
      </trkpt>
      <trkpt lat="45.68627" lon="5.97907">
        <ele>1504.1201171875</ele>
        <time>2012-02-11T11:54:30Z</time>
      </trkpt>
      <trkpt lat="45.68628" lon="5.97907">
        <ele>1504.6005859375</ele>
        <time>2012-02-11T11:54:48Z</time>
      </trkpt>
      <trkpt lat="45.68627" lon="5.97904">
        <ele>1507.00390625</ele>
        <time>2012-02-11T11:55:04Z</time>
      </trkpt>
      <trkpt lat="45.68628" lon="5.97903">
        <ele>1507.9653320312</ele>
        <time>2012-02-11T11:55:22Z</time>
      </trkpt>
      <trkpt lat="45.68628" lon="5.97902">
        <ele>1507.9653320312</ele>
        <time>2012-02-11T11:55:33Z</time>
      </trkpt>
      <trkpt lat="45.68628" lon="5.97902">
        <ele>1509.8876953125</ele>
        <time>2012-02-11T11:55:49Z</time>
      </trkpt>
      <trkpt lat="45.68628" lon="5.97902">
        <ele>1511.3298339844</ele>
        <time>2012-02-11T11:56:07Z</time>
      </trkpt>
      <trkpt lat="45.68629" lon="5.97901">
        <ele>1515.6557617188</ele>
        <time>2012-02-11T11:56:30Z</time>
      </trkpt>
      <trkpt lat="45.68628" lon="5.97902">
        <ele>1513.7329101562</ele>
        <time>2012-02-11T11:56:52Z</time>
      </trkpt>
      <trkpt lat="45.68628" lon="5.97903">
        <ele>1516.6171875</ele>
        <time>2012-02-11T11:57:11Z</time>
      </trkpt>
      <trkpt lat="45.68628" lon="5.97902">
        <ele>1515.6557617188</ele>
        <time>2012-02-11T11:57:20Z</time>
      </trkpt>
      <trkpt lat="45.68629" lon="5.97905">
        <ele>1514.2136230469</ele>
        <time>2012-02-11T11:57:28Z</time>
      </trkpt>
      <trkpt lat="45.68629" lon="5.97903">
        <ele>1514.6943359375</ele>
        <time>2012-02-11T11:57:32Z</time>
      </trkpt>
      <trkpt lat="45.68628" lon="5.97903">
        <ele>1514.6943359375</ele>
        <time>2012-02-11T11:57:34Z</time>
      </trkpt>
      <trkpt lat="45.68629" lon="5.97902">
        <ele>1513.2524414062</ele>
        <time>2012-02-11T11:57:43Z</time>
      </trkpt>
      <trkpt lat="45.68629" lon="5.97902">
        <ele>1514.6943359375</ele>
        <time>2012-02-11T11:57:57Z</time>
      </trkpt>
      <trkpt lat="45.68629" lon="5.97901">
        <ele>1515.6557617188</ele>
        <time>2012-02-11T11:58:03Z</time>
      </trkpt>
      <trkpt lat="45.68628" lon="5.97902">
        <ele>1513.2524414062</ele>
        <time>2012-02-11T11:58:14Z</time>
      </trkpt>
      <trkpt lat="45.68628" lon="5.97902">
        <ele>1512.7717285156</ele>
        <time>2012-02-11T11:58:20Z</time>
      </trkpt>
      <trkpt lat="45.68627" lon="5.97903">
        <ele>1512.291015625</ele>
        <time>2012-02-11T11:58:49Z</time>
      </trkpt>
      <trkpt lat="45.68628" lon="5.97905">
        <ele>1511.3298339844</ele>
        <time>2012-02-11T11:58:55Z</time>
      </trkpt>
      <trkpt lat="45.68629" lon="5.97908">
        <ele>1510.8491210938</ele>
        <time>2012-02-11T11:59:08Z</time>
      </trkpt>
      <trkpt lat="45.68629" lon="5.97906">
        <ele>1512.291015625</ele>
        <time>2012-02-11T11:59:25Z</time>
      </trkpt>
      <trkpt lat="45.68631" lon="5.97903">
        <ele>1512.7717285156</ele>
        <time>2012-02-11T11:59:34Z</time>
      </trkpt>
      <trkpt lat="45.68631" lon="5.97905">
        <ele>1511.3298339844</ele>
        <time>2012-02-11T11:59:39Z</time>
      </trkpt>
      <trkpt lat="45.68628" lon="5.97908">
        <ele>1502.6779785156</ele>
        <time>2012-02-11T11:59:58Z</time>
      </trkpt>
      <trkpt lat="45.68626" lon="5.97904">
        <ele>1501.2360839844</ele>
        <time>2012-02-11T12:00:10Z</time>
      </trkpt>
      <trkpt lat="45.68626" lon="5.97906">
        <ele>1503.1586914062</ele>
        <time>2012-02-11T12:00:31Z</time>
      </trkpt>
      <trkpt lat="45.68627" lon="5.97907">
        <ele>1502.6779785156</ele>
        <time>2012-02-11T12:00:39Z</time>
      </trkpt>
      <trkpt lat="45.68627" lon="5.97906">
        <ele>1504.6005859375</ele>
        <time>2012-02-11T12:00:47Z</time>
      </trkpt>
      <trkpt lat="45.68627" lon="5.97906">
        <ele>1505.5620117188</ele>
        <time>2012-02-11T12:00:51Z</time>
      </trkpt>
      <trkpt lat="45.68628" lon="5.97906">
        <ele>1506.0424804688</ele>
        <time>2012-02-11T12:00:53Z</time>
      </trkpt>
      <trkpt lat="45.68628" lon="5.97906">
        <ele>1506.0424804688</ele>
        <time>2012-02-11T12:01:06Z</time>
      </trkpt>
      <trkpt lat="45.68628" lon="5.97907">
        <ele>1506.0424804688</ele>
        <time>2012-02-11T12:01:17Z</time>
      </trkpt>
      <trkpt lat="45.68628" lon="5.97908">
        <ele>1504.6005859375</ele>
        <time>2012-02-11T12:01:29Z</time>
      </trkpt>
      <trkpt lat="45.68628" lon="5.97909">
        <ele>1502.6779785156</ele>
        <time>2012-02-11T12:01:39Z</time>
      </trkpt>
      <trkpt lat="45.68628" lon="5.97909">
        <ele>1500.2749023438</ele>
        <time>2012-02-11T12:01:50Z</time>
      </trkpt>
      <trkpt lat="45.68629" lon="5.97908">
        <ele>1504.1201171875</ele>
        <time>2012-02-11T12:02:04Z</time>
      </trkpt>
      <trkpt lat="45.68627" lon="5.97907">
        <ele>1507.4846191406</ele>
        <time>2012-02-11T12:02:20Z</time>
      </trkpt>
      <trkpt lat="45.68627" lon="5.97909">
        <ele>1507.9653320312</ele>
        <time>2012-02-11T12:02:29Z</time>
      </trkpt>
      <trkpt lat="45.68627" lon="5.97909">
        <ele>1507.00390625</ele>
        <time>2012-02-11T12:02:35Z</time>
      </trkpt>
      <trkpt lat="45.68628" lon="5.97909">
        <ele>1506.5231933594</ele>
        <time>2012-02-11T12:02:44Z</time>
      </trkpt>
      <trkpt lat="45.68628" lon="5.97907">
        <ele>1506.0424804688</ele>
        <time>2012-02-11T12:02:58Z</time>
      </trkpt>
      <trkpt lat="45.68628" lon="5.97907">
        <ele>1506.0424804688</ele>
        <time>2012-02-11T12:03:11Z</time>
      </trkpt>
      <trkpt lat="45.68628" lon="5.97906">
        <ele>1506.0424804688</ele>
        <time>2012-02-11T12:03:15Z</time>
      </trkpt>
      <trkpt lat="45.68628" lon="5.97905">
        <ele>1509.4072265625</ele>
        <time>2012-02-11T12:03:35Z</time>
      </trkpt>
      <trkpt lat="45.68628" lon="5.97908">
        <ele>1510.3684082031</ele>
        <time>2012-02-11T12:03:50Z</time>
      </trkpt>
      <trkpt lat="45.68627" lon="5.97908">
        <ele>1510.8491210938</ele>
        <time>2012-02-11T12:03:59Z</time>
      </trkpt>
      <trkpt lat="45.68627" lon="5.97907">
        <ele>1511.3298339844</ele>
        <time>2012-02-11T12:04:06Z</time>
      </trkpt>
      <trkpt lat="45.68628" lon="5.97907">
        <ele>1509.8876953125</ele>
        <time>2012-02-11T12:04:17Z</time>
      </trkpt>
      <trkpt lat="45.68627" lon="5.97909">
        <ele>1506.5231933594</ele>
        <time>2012-02-11T12:04:32Z</time>
      </trkpt>
      <trkpt lat="45.68626" lon="5.97908">
        <ele>1504.1201171875</ele>
        <time>2012-02-11T12:04:55Z</time>
      </trkpt>
      <trkpt lat="45.68625" lon="5.97905">
        <ele>1503.6394042969</ele>
        <time>2012-02-11T12:05:17Z</time>
      </trkpt>
      <trkpt lat="45.68625" lon="5.97902">
        <ele>1505.5620117188</ele>
        <time>2012-02-11T12:05:31Z</time>
      </trkpt>
      <trkpt lat="45.68625" lon="5.97905">
        <ele>1503.1586914062</ele>
        <time>2012-02-11T12:05:58Z</time>
      </trkpt>
      <trkpt lat="45.68625" lon="5.97904">
        <ele>1503.6394042969</ele>
        <time>2012-02-11T12:06:11Z</time>
      </trkpt>
      <trkpt lat="45.68625" lon="5.97903">
        <ele>1506.5231933594</ele>
        <time>2012-02-11T12:06:21Z</time>
      </trkpt>
      <trkpt lat="45.68626" lon="5.97901">
        <ele>1506.5231933594</ele>
        <time>2012-02-11T12:06:41Z</time>
      </trkpt>
      <trkpt lat="45.68626" lon="5.97901">
        <ele>1507.00390625</ele>
        <time>2012-02-11T12:06:49Z</time>
      </trkpt>
      <trkpt lat="45.68626" lon="5.97901">
        <ele>1508.4458007812</ele>
        <time>2012-02-11T12:06:58Z</time>
      </trkpt>
      <trkpt lat="45.68626" lon="5.97901">
        <ele>1509.8876953125</ele>
        <time>2012-02-11T12:07:06Z</time>
      </trkpt>
      <trkpt lat="45.68626" lon="5.97904">
        <ele>1506.0424804688</ele>
        <time>2012-02-11T12:07:15Z</time>
      </trkpt>
      <trkpt lat="45.68626" lon="5.97905">
        <ele>1505.0812988281</ele>
        <time>2012-02-11T12:07:21Z</time>
      </trkpt>
      <trkpt lat="45.68626" lon="5.97904">
        <ele>1506.5231933594</ele>
        <time>2012-02-11T12:07:28Z</time>
      </trkpt>
      <trkpt lat="45.68626" lon="5.97905">
        <ele>1507.00390625</ele>
        <time>2012-02-11T12:07:39Z</time>
      </trkpt>
      <trkpt lat="45.68626" lon="5.97905">
        <ele>1507.9653320312</ele>
        <time>2012-02-11T12:07:47Z</time>
      </trkpt>
      <trkpt lat="45.68626" lon="5.97905">
        <ele>1508.4458007812</ele>
        <time>2012-02-11T12:08:11Z</time>
      </trkpt>
      <trkpt lat="45.68626" lon="5.97904">
        <ele>1507.4846191406</ele>
        <time>2012-02-11T12:08:25Z</time>
      </trkpt>
      <trkpt lat="45.68625" lon="5.97904">
        <ele>1506.5231933594</ele>
        <time>2012-02-11T12:08:32Z</time>
      </trkpt>
      <trkpt lat="45.68626" lon="5.97904">
        <ele>1507.00390625</ele>
        <time>2012-02-11T12:08:48Z</time>
      </trkpt>
      <trkpt lat="45.68627" lon="5.97905">
        <ele>1511.810546875</ele>
        <time>2012-02-11T12:09:14Z</time>
      </trkpt>
      <trkpt lat="45.68626" lon="5.97905">
        <ele>1511.3298339844</ele>
        <time>2012-02-11T12:09:18Z</time>
      </trkpt>
      <trkpt lat="45.68626" lon="5.97906">
        <ele>1510.3684082031</ele>
        <time>2012-02-11T12:09:22Z</time>
      </trkpt>
      <trkpt lat="45.68627" lon="5.9791">
        <ele>1507.4846191406</ele>
        <time>2012-02-11T12:09:34Z</time>
      </trkpt>
      <trkpt lat="45.68626" lon="5.9791">
        <ele>1505.5620117188</ele>
        <time>2012-02-11T12:09:46Z</time>
      </trkpt>
      <trkpt lat="45.68627" lon="5.97909">
        <ele>1506.0424804688</ele>
        <time>2012-02-11T12:09:56Z</time>
      </trkpt>
      <trkpt lat="45.68626" lon="5.97909">
        <ele>1506.5231933594</ele>
        <time>2012-02-11T12:10:03Z</time>
      </trkpt>
      <trkpt lat="45.68627" lon="5.97909">
        <ele>1504.6005859375</ele>
        <time>2012-02-11T12:10:20Z</time>
      </trkpt>
      <trkpt lat="45.68627" lon="5.97908">
        <ele>1504.6005859375</ele>
        <time>2012-02-11T12:10:28Z</time>
      </trkpt>
      <trkpt lat="45.68627" lon="5.97908">
        <ele>1505.0812988281</ele>
        <time>2012-02-11T12:10:33Z</time>
      </trkpt>
      <trkpt lat="45.68629" lon="5.97907">
        <ele>1508.9265136719</ele>
        <time>2012-02-11T12:10:42Z</time>
      </trkpt>
      <trkpt lat="45.68629" lon="5.97908">
        <ele>1508.4458007812</ele>
        <time>2012-02-11T12:10:46Z</time>
      </trkpt>
      <trkpt lat="45.6863" lon="5.97908">
        <ele>1508.4458007812</ele>
        <time>2012-02-11T12:10:47Z</time>
      </trkpt>
      <trkpt lat="45.68632" lon="5.97909">
        <ele>1504.6005859375</ele>
        <time>2012-02-11T12:11:03Z</time>
      </trkpt>
      <trkpt lat="45.68632" lon="5.97908">
        <ele>1504.1201171875</ele>
        <time>2012-02-11T12:11:06Z</time>
      </trkpt>
      <trkpt lat="45.68631" lon="5.97908">
        <ele>1508.9265136719</ele>
        <time>2012-02-11T12:11:23Z</time>
      </trkpt>
      <trkpt lat="45.6863" lon="5.97908">
        <ele>1509.4072265625</ele>
        <time>2012-02-11T12:11:29Z</time>
      </trkpt>
      <trkpt lat="45.6863" lon="5.97907">
        <ele>1510.8491210938</ele>
        <time>2012-02-11T12:11:41Z</time>
      </trkpt>
      <trkpt lat="45.68629" lon="5.97906">
        <ele>1509.8876953125</ele>
        <time>2012-02-11T12:11:50Z</time>
      </trkpt>
      <trkpt lat="45.68628" lon="5.97904">
        <ele>1509.4072265625</ele>
        <time>2012-02-11T12:11:58Z</time>
      </trkpt>
      <trkpt lat="45.68627" lon="5.97904">
        <ele>1507.9653320312</ele>
        <time>2012-02-11T12:12:08Z</time>
      </trkpt>
      <trkpt lat="45.68627" lon="5.97903">
        <ele>1508.4458007812</ele>
        <time>2012-02-11T12:12:13Z</time>
      </trkpt>
      <trkpt lat="45.68629" lon="5.97905">
        <ele>1511.3298339844</ele>
        <time>2012-02-11T12:12:31Z</time>
      </trkpt>
      <trkpt lat="45.68627" lon="5.97905">
        <ele>1509.8876953125</ele>
        <time>2012-02-11T12:12:42Z</time>
      </trkpt>
      <trkpt lat="45.68629" lon="5.97906">
        <ele>1507.9653320312</ele>
        <time>2012-02-11T12:12:52Z</time>
      </trkpt>
      <trkpt lat="45.68629" lon="5.97908">
        <ele>1505.5620117188</ele>
        <time>2012-02-11T12:12:59Z</time>
      </trkpt>
      <trkpt lat="45.68629" lon="5.97909">
        <ele>1503.1586914062</ele>
        <time>2012-02-11T12:13:09Z</time>
      </trkpt>
      <trkpt lat="45.68629" lon="5.9791">
        <ele>1502.6779785156</ele>
        <time>2012-02-11T12:13:13Z</time>
      </trkpt>
      <trkpt lat="45.68628" lon="5.9791">
        <ele>1503.1586914062</ele>
        <time>2012-02-11T12:13:17Z</time>
      </trkpt>
      <trkpt lat="45.68628" lon="5.97909">
        <ele>1503.6394042969</ele>
        <time>2012-02-11T12:13:22Z</time>
      </trkpt>
      <trkpt lat="45.68629" lon="5.97908">
        <ele>1505.5620117188</ele>
        <time>2012-02-11T12:13:32Z</time>
      </trkpt>
      <trkpt lat="45.68628" lon="5.97908">
        <ele>1505.0812988281</ele>
        <time>2012-02-11T12:13:37Z</time>
      </trkpt>
      <trkpt lat="45.68629" lon="5.97908">
        <ele>1504.6005859375</ele>
        <time>2012-02-11T12:13:41Z</time>
      </trkpt>
      <trkpt lat="45.68629" lon="5.97906">
        <ele>1503.6394042969</ele>
        <time>2012-02-11T12:13:48Z</time>
      </trkpt>
      <trkpt lat="45.68629" lon="5.97909">
        <ele>1506.5231933594</ele>
        <time>2012-02-11T12:13:56Z</time>
      </trkpt>
      <trkpt lat="45.68628" lon="5.97911">
        <ele>1509.4072265625</ele>
        <time>2012-02-11T12:14:08Z</time>
      </trkpt>
      <trkpt lat="45.68627" lon="5.97909">
        <ele>1508.4458007812</ele>
        <time>2012-02-11T12:14:13Z</time>
      </trkpt>
      <trkpt lat="45.68627" lon="5.97909">
        <ele>1508.9265136719</ele>
        <time>2012-02-11T12:14:17Z</time>
      </trkpt>
      <trkpt lat="45.68628" lon="5.97907">
        <ele>1508.9265136719</ele>
        <time>2012-02-11T12:14:24Z</time>
      </trkpt>
      <trkpt lat="45.68627" lon="5.97906">
        <ele>1510.8491210938</ele>
        <time>2012-02-11T12:14:36Z</time>
      </trkpt>
      <trkpt lat="45.68627" lon="5.97905">
        <ele>1509.8876953125</ele>
        <time>2012-02-11T12:14:50Z</time>
      </trkpt>
      <trkpt lat="45.68626" lon="5.97904">
        <ele>1507.00390625</ele>
        <time>2012-02-11T12:14:58Z</time>
      </trkpt>
      <trkpt lat="45.68624" lon="5.97904">
        <ele>1505.0812988281</ele>
        <time>2012-02-11T12:15:10Z</time>
      </trkpt>
      <trkpt lat="45.68623" lon="5.97905">
        <ele>1504.1201171875</ele>
        <time>2012-02-11T12:15:13Z</time>
      </trkpt>
      <trkpt lat="45.68623" lon="5.97905">
        <ele>1504.6005859375</ele>
        <time>2012-02-11T12:15:14Z</time>
      </trkpt>
      <trkpt lat="45.68623" lon="5.97905">
        <ele>1507.9653320312</ele>
        <time>2012-02-11T12:15:21Z</time>
      </trkpt>
      <trkpt lat="45.68624" lon="5.97906">
        <ele>1507.4846191406</ele>
        <time>2012-02-11T12:15:32Z</time>
      </trkpt>
      <trkpt lat="45.68627" lon="5.97907">
        <ele>1506.5231933594</ele>
        <time>2012-02-11T12:15:41Z</time>
      </trkpt>
      <trkpt lat="45.68628" lon="5.97908">
        <ele>1507.00390625</ele>
        <time>2012-02-11T12:15:55Z</time>
      </trkpt>
      <trkpt lat="45.68627" lon="5.97907">
        <ele>1506.5231933594</ele>
        <time>2012-02-11T12:16:02Z</time>
      </trkpt>
      <trkpt lat="45.68628" lon="5.97905">
        <ele>1507.00390625</ele>
        <time>2012-02-11T12:16:13Z</time>
      </trkpt>
      <trkpt lat="45.68628" lon="5.97898">
        <ele>1517.0979003906</ele>
        <time>2012-02-11T12:16:34Z</time>
      </trkpt>
      <trkpt lat="45.68627" lon="5.97897">
        <ele>1517.0979003906</ele>
        <time>2012-02-11T12:16:46Z</time>
      </trkpt>
      <trkpt lat="45.68628" lon="5.97901">
        <ele>1513.7329101562</ele>
        <time>2012-02-11T12:16:56Z</time>
      </trkpt>
      <trkpt lat="45.68628" lon="5.97901">
        <ele>1513.7329101562</ele>
        <time>2012-02-11T12:16:57Z</time>
      </trkpt>
      <trkpt lat="45.68628" lon="5.97901">
        <ele>1513.7329101562</ele>
        <time>2012-02-11T12:16:58Z</time>
      </trkpt>
      <trkpt lat="45.68628" lon="5.97906">
        <ele>1508.4458007812</ele>
        <time>2012-02-11T12:17:21Z</time>
      </trkpt>
      <trkpt lat="45.68627" lon="5.97906">
        <ele>1505.5620117188</ele>
        <time>2012-02-11T12:17:26Z</time>
      </trkpt>
      <trkpt lat="45.68626" lon="5.97904">
        <ele>1505.0812988281</ele>
        <time>2012-02-11T12:17:30Z</time>
      </trkpt>
      <trkpt lat="45.68626" lon="5.97904">
        <ele>1505.0812988281</ele>
        <time>2012-02-11T12:17:31Z</time>
      </trkpt>
      <trkpt lat="45.68627" lon="5.97905">
        <ele>1505.5620117188</ele>
        <time>2012-02-11T12:17:33Z</time>
      </trkpt>
      <trkpt lat="45.6863" lon="5.97903">
        <ele>1510.3684082031</ele>
        <time>2012-02-11T12:17:53Z</time>
      </trkpt>
      <trkpt lat="45.6863" lon="5.97904">
        <ele>1509.8876953125</ele>
        <time>2012-02-11T12:18:01Z</time>
      </trkpt>
      <trkpt lat="45.68631" lon="5.97904">
        <ele>1510.3684082031</ele>
        <time>2012-02-11T12:18:03Z</time>
      </trkpt>
      <trkpt lat="45.68631" lon="5.97904">
        <ele>1510.3684082031</ele>
        <time>2012-02-11T12:18:19Z</time>
      </trkpt>
      <trkpt lat="45.68628" lon="5.97904">
        <ele>1503.6394042969</ele>
        <time>2012-02-11T12:18:41Z</time>
      </trkpt>
      <trkpt lat="45.68628" lon="5.97903">
        <ele>1503.6394042969</ele>
        <time>2012-02-11T12:18:55Z</time>
      </trkpt>
      <trkpt lat="45.68629" lon="5.97903">
        <ele>1503.6394042969</ele>
        <time>2012-02-11T12:19:03Z</time>
      </trkpt>
      <trkpt lat="45.68629" lon="5.97903">
        <ele>1503.6394042969</ele>
        <time>2012-02-11T12:19:15Z</time>
      </trkpt>
      <trkpt lat="45.68629" lon="5.97902">
        <ele>1504.1201171875</ele>
        <time>2012-02-11T12:19:19Z</time>
      </trkpt>
      <trkpt lat="45.68629" lon="5.97903">
        <ele>1504.1201171875</ele>
        <time>2012-02-11T12:19:27Z</time>
      </trkpt>
      <trkpt lat="45.6863" lon="5.97904">
        <ele>1503.1586914062</ele>
        <time>2012-02-11T12:19:34Z</time>
      </trkpt>
      <trkpt lat="45.68629" lon="5.97903">
        <ele>1503.6394042969</ele>
        <time>2012-02-11T12:19:57Z</time>
      </trkpt>
      <trkpt lat="45.68627" lon="5.97905">
        <ele>1496.4294433594</ele>
        <time>2012-02-11T12:20:12Z</time>
      </trkpt>
      <trkpt lat="45.68628" lon="5.97907">
        <ele>1495.9487304688</ele>
        <time>2012-02-11T12:20:24Z</time>
      </trkpt>
      <trkpt lat="45.68628" lon="5.979">
        <ele>1493.5454101562</ele>
        <time>2012-02-11T12:20:58Z</time>
      </trkpt>
      <trkpt lat="45.68628" lon="5.97904">
        <ele>1496.4294433594</ele>
        <time>2012-02-11T12:21:16Z</time>
      </trkpt>
      <trkpt lat="45.68628" lon="5.97907">
        <ele>1497.390625</ele>
        <time>2012-02-11T12:21:28Z</time>
      </trkpt>
      <trkpt lat="45.68626" lon="5.97904">
        <ele>1499.3132324219</ele>
        <time>2012-02-11T12:21:46Z</time>
      </trkpt>
      <trkpt lat="45.68625" lon="5.97902">
        <ele>1499.7939453125</ele>
        <time>2012-02-11T12:21:59Z</time>
      </trkpt>
      <trkpt lat="45.68621" lon="5.97909">
        <ele>1500.7553710938</ele>
        <time>2012-02-11T12:23:12Z</time>
      </trkpt>
      <trkpt lat="45.68624" lon="5.97906">
        <ele>1501.2360839844</ele>
        <time>2012-02-11T12:23:16Z</time>
      </trkpt>
      <trkpt lat="45.68629" lon="5.97899">
        <ele>1506.5231933594</ele>
        <time>2012-02-11T12:23:30Z</time>
      </trkpt>
      <trkpt lat="45.68629" lon="5.97902">
        <ele>1505.5620117188</ele>
        <time>2012-02-11T12:23:56Z</time>
      </trkpt>
      <trkpt lat="45.68628" lon="5.97904">
        <ele>1505.5620117188</ele>
        <time>2012-02-11T12:24:09Z</time>
      </trkpt>
      <trkpt lat="45.68628" lon="5.97904">
        <ele>1504.1201171875</ele>
        <time>2012-02-11T12:24:17Z</time>
      </trkpt>
      <trkpt lat="45.68627" lon="5.97903">
        <ele>1503.6394042969</ele>
        <time>2012-02-11T12:24:27Z</time>
      </trkpt>
      <trkpt lat="45.68627" lon="5.97903">
        <ele>1505.0812988281</ele>
        <time>2012-02-11T12:24:40Z</time>
      </trkpt>
      <trkpt lat="45.68627" lon="5.97902">
        <ele>1506.0424804688</ele>
        <time>2012-02-11T12:24:50Z</time>
      </trkpt>
      <trkpt lat="45.68627" lon="5.97904">
        <ele>1505.0812988281</ele>
        <time>2012-02-11T12:24:58Z</time>
      </trkpt>
      <trkpt lat="45.68627" lon="5.97904">
        <ele>1507.00390625</ele>
        <time>2012-02-11T12:25:08Z</time>
      </trkpt>
      <trkpt lat="45.68627" lon="5.97904">
        <ele>1506.0424804688</ele>
        <time>2012-02-11T12:25:16Z</time>
      </trkpt>
      <trkpt lat="45.68627" lon="5.97904">
        <ele>1506.5231933594</ele>
        <time>2012-02-11T12:25:21Z</time>
      </trkpt>
      <trkpt lat="45.68626" lon="5.97901">
        <ele>1509.4072265625</ele>
        <time>2012-02-11T12:25:45Z</time>
      </trkpt>
      <trkpt lat="45.68626" lon="5.97907">
        <ele>1502.197265625</ele>
        <time>2012-02-11T12:26:08Z</time>
      </trkpt>
      <trkpt lat="45.68624" lon="5.97906">
        <ele>1503.6394042969</ele>
        <time>2012-02-11T12:26:40Z</time>
      </trkpt>
      <trkpt lat="45.68625" lon="5.97902">
        <ele>1504.6005859375</ele>
        <time>2012-02-11T12:26:55Z</time>
      </trkpt>
      <trkpt lat="45.68625" lon="5.97902">
        <ele>1504.6005859375</ele>
        <time>2012-02-11T12:27:02Z</time>
      </trkpt>
      <trkpt lat="45.68625" lon="5.97904">
        <ele>1503.1586914062</ele>
        <time>2012-02-11T12:27:18Z</time>
      </trkpt>
      <trkpt lat="45.68625" lon="5.97903">
        <ele>1503.1586914062</ele>
        <time>2012-02-11T12:27:33Z</time>
      </trkpt>
      <trkpt lat="45.68625" lon="5.97902">
        <ele>1504.1201171875</ele>
        <time>2012-02-11T12:27:44Z</time>
      </trkpt>
      <trkpt lat="45.68625" lon="5.97903">
        <ele>1505.0812988281</ele>
        <time>2012-02-11T12:28:01Z</time>
      </trkpt>
      <trkpt lat="45.68626" lon="5.97904">
        <ele>1504.6005859375</ele>
        <time>2012-02-11T12:28:14Z</time>
      </trkpt>
      <trkpt lat="45.68626" lon="5.97905">
        <ele>1503.6394042969</ele>
        <time>2012-02-11T12:28:19Z</time>
      </trkpt>
      <trkpt lat="45.68626" lon="5.97906">
        <ele>1503.1586914062</ele>
        <time>2012-02-11T12:28:29Z</time>
      </trkpt>
      <trkpt lat="45.68626" lon="5.97906">
        <ele>1503.6394042969</ele>
        <time>2012-02-11T12:28:41Z</time>
      </trkpt>
      <trkpt lat="45.68626" lon="5.97907">
        <ele>1503.1586914062</ele>
        <time>2012-02-11T12:28:47Z</time>
      </trkpt>
      <trkpt lat="45.68626" lon="5.97905">
        <ele>1503.6394042969</ele>
        <time>2012-02-11T12:28:56Z</time>
      </trkpt>
      <trkpt lat="45.68626" lon="5.97906">
        <ele>1504.6005859375</ele>
        <time>2012-02-11T12:29:04Z</time>
      </trkpt>
      <trkpt lat="45.68626" lon="5.97904">
        <ele>1504.6005859375</ele>
        <time>2012-02-11T12:29:15Z</time>
      </trkpt>
      <trkpt lat="45.68631" lon="5.97905">
        <ele>1508.4458007812</ele>
        <time>2012-02-11T12:29:32Z</time>
      </trkpt>
      <trkpt lat="45.68631" lon="5.97905">
        <ele>1510.3684082031</ele>
        <time>2012-02-11T12:29:39Z</time>
      </trkpt>
      <trkpt lat="45.68628" lon="5.97904">
        <ele>1506.5231933594</ele>
        <time>2012-02-11T12:29:51Z</time>
      </trkpt>
      <trkpt lat="45.68626" lon="5.97904">
        <ele>1504.6005859375</ele>
        <time>2012-02-11T12:29:59Z</time>
      </trkpt>
      <trkpt lat="45.68626" lon="5.97905">
        <ele>1506.0424804688</ele>
        <time>2012-02-11T12:30:15Z</time>
      </trkpt>
      <trkpt lat="45.68626" lon="5.97905">
        <ele>1507.9653320312</ele>
        <time>2012-02-11T12:30:26Z</time>
      </trkpt>
      <trkpt lat="45.68626" lon="5.97904">
        <ele>1508.9265136719</ele>
        <time>2012-02-11T12:30:34Z</time>
      </trkpt>
      <trkpt lat="45.68626" lon="5.97903">
        <ele>1509.4072265625</ele>
        <time>2012-02-11T12:30:40Z</time>
      </trkpt>
      <trkpt lat="45.68626" lon="5.97903">
        <ele>1509.4072265625</ele>
        <time>2012-02-11T12:30:42Z</time>
      </trkpt>
      <trkpt lat="45.68626" lon="5.97903">
        <ele>1508.9265136719</ele>
        <time>2012-02-11T12:30:43Z</time>
      </trkpt>
      <trkpt lat="45.68626" lon="5.97903">
        <ele>1508.4458007812</ele>
        <time>2012-02-11T12:30:45Z</time>
      </trkpt>
      <trkpt lat="45.68626" lon="5.97904">
        <ele>1507.4846191406</ele>
        <time>2012-02-11T12:30:53Z</time>
      </trkpt>
      <trkpt lat="45.68626" lon="5.97902">
        <ele>1513.7329101562</ele>
        <time>2012-02-11T12:31:08Z</time>
      </trkpt>
      <trkpt lat="45.68628" lon="5.97903">
        <ele>1516.1364746094</ele>
        <time>2012-02-11T12:31:17Z</time>
      </trkpt>
      <trkpt lat="45.68629" lon="5.97903">
        <ele>1516.6171875</ele>
        <time>2012-02-11T12:31:19Z</time>
      </trkpt>
      <trkpt lat="45.68629" lon="5.97903">
        <ele>1516.6171875</ele>
        <time>2012-02-11T12:31:20Z</time>
      </trkpt>
      <trkpt lat="45.68627" lon="5.97903">
        <ele>1510.3684082031</ele>
        <time>2012-02-11T12:31:28Z</time>
      </trkpt>
      <trkpt lat="45.68626" lon="5.97903">
        <ele>1504.6005859375</ele>
        <time>2012-02-11T12:31:39Z</time>
      </trkpt>
      <trkpt lat="45.68629" lon="5.97903">
        <ele>1508.4458007812</ele>
        <time>2012-02-11T12:31:51Z</time>
      </trkpt>
      <trkpt lat="45.68629" lon="5.97903">
        <ele>1511.3298339844</ele>
        <time>2012-02-11T12:31:59Z</time>
      </trkpt>
      <trkpt lat="45.68629" lon="5.97904">
        <ele>1508.9265136719</ele>
        <time>2012-02-11T12:32:11Z</time>
      </trkpt>
      <trkpt lat="45.68634" lon="5.97905">
        <ele>1514.6943359375</ele>
        <time>2012-02-11T12:32:28Z</time>
      </trkpt>
      <trkpt lat="45.68633" lon="5.97906">
        <ele>1514.6943359375</ele>
        <time>2012-02-11T12:32:38Z</time>
      </trkpt>
      <trkpt lat="45.68628" lon="5.97903">
        <ele>1511.3298339844</ele>
        <time>2012-02-11T12:32:50Z</time>
      </trkpt>
      <trkpt lat="45.68628" lon="5.97903">
        <ele>1509.8876953125</ele>
        <time>2012-02-11T12:33:06Z</time>
      </trkpt>
      <trkpt lat="45.68627" lon="5.97902">
        <ele>1508.9265136719</ele>
        <time>2012-02-11T12:33:19Z</time>
      </trkpt>
      <trkpt lat="45.68626" lon="5.97904">
        <ele>1507.4846191406</ele>
        <time>2012-02-11T12:33:35Z</time>
      </trkpt>
      <trkpt lat="45.68626" lon="5.97905">
        <ele>1505.5620117188</ele>
        <time>2012-02-11T12:33:50Z</time>
      </trkpt>
      <trkpt lat="45.68626" lon="5.97906">
        <ele>1506.0424804688</ele>
        <time>2012-02-11T12:33:58Z</time>
      </trkpt>
      <trkpt lat="45.68626" lon="5.97907">
        <ele>1507.00390625</ele>
        <time>2012-02-11T12:34:06Z</time>
      </trkpt>
      <trkpt lat="45.68624" lon="5.97906">
        <ele>1507.00390625</ele>
        <time>2012-02-11T12:34:10Z</time>
      </trkpt>
      <trkpt lat="45.68623" lon="5.97906">
        <ele>1507.00390625</ele>
        <time>2012-02-11T12:34:14Z</time>
      </trkpt>
      <trkpt lat="45.68622" lon="5.97907">
        <ele>1505.5620117188</ele>
        <time>2012-02-11T12:34:17Z</time>
      </trkpt>
      <trkpt lat="45.68622" lon="5.97907">
        <ele>1506.5231933594</ele>
        <time>2012-02-11T12:34:18Z</time>
      </trkpt>
      <trkpt lat="45.68621" lon="5.97907">
        <ele>1506.5231933594</ele>
        <time>2012-02-11T12:34:25Z</time>
      </trkpt>
      <trkpt lat="45.6862" lon="5.97906">
        <ele>1507.00390625</ele>
        <time>2012-02-11T12:34:37Z</time>
      </trkpt>
      <trkpt lat="45.68624" lon="5.97908">
        <ele>1506.5231933594</ele>
        <time>2012-02-11T12:34:54Z</time>
      </trkpt>
      <trkpt lat="45.68625" lon="5.97906">
        <ele>1509.8876953125</ele>
        <time>2012-02-11T12:35:01Z</time>
      </trkpt>
      <trkpt lat="45.68627" lon="5.97905">
        <ele>1509.8876953125</ele>
        <time>2012-02-11T12:35:05Z</time>
      </trkpt>
      <trkpt lat="45.68627" lon="5.97906">
        <ele>1509.8876953125</ele>
        <time>2012-02-11T12:35:14Z</time>
      </trkpt>
      <trkpt lat="45.68626" lon="5.97905">
        <ele>1509.4072265625</ele>
        <time>2012-02-11T12:35:22Z</time>
      </trkpt>
      <trkpt lat="45.68627" lon="5.97906">
        <ele>1509.8876953125</ele>
        <time>2012-02-11T12:35:26Z</time>
      </trkpt>
      <trkpt lat="45.68629" lon="5.97907">
        <ele>1510.8491210938</ele>
        <time>2012-02-11T12:35:35Z</time>
      </trkpt>
      <trkpt lat="45.68631" lon="5.97908">
        <ele>1511.3298339844</ele>
        <time>2012-02-11T12:35:50Z</time>
      </trkpt>
      <trkpt lat="45.68631" lon="5.97908">
        <ele>1511.810546875</ele>
        <time>2012-02-11T12:35:58Z</time>
      </trkpt>
      <trkpt lat="45.68629" lon="5.97905">
        <ele>1512.7717285156</ele>
        <time>2012-02-11T12:36:11Z</time>
      </trkpt>
      <trkpt lat="45.68628" lon="5.97905">
        <ele>1508.9265136719</ele>
        <time>2012-02-11T12:36:26Z</time>
      </trkpt>
      <trkpt lat="45.68628" lon="5.97903">
        <ele>1509.4072265625</ele>
        <time>2012-02-11T12:36:35Z</time>
      </trkpt>
      <trkpt lat="45.68627" lon="5.97901">
        <ele>1509.4072265625</ele>
        <time>2012-02-11T12:36:48Z</time>
      </trkpt>
      <trkpt lat="45.68627" lon="5.97903">
        <ele>1509.8876953125</ele>
        <time>2012-02-11T12:37:07Z</time>
      </trkpt>
      <trkpt lat="45.68627" lon="5.97905">
        <ele>1508.9265136719</ele>
        <time>2012-02-11T12:37:23Z</time>
      </trkpt>
      <trkpt lat="45.68628" lon="5.97905">
        <ele>1509.4072265625</ele>
        <time>2012-02-11T12:37:34Z</time>
      </trkpt>
      <trkpt lat="45.68629" lon="5.97905">
        <ele>1509.8876953125</ele>
        <time>2012-02-11T12:37:42Z</time>
      </trkpt>
      <trkpt lat="45.68629" lon="5.97907">
        <ele>1508.9265136719</ele>
        <time>2012-02-11T12:37:57Z</time>
      </trkpt>
      <trkpt lat="45.68629" lon="5.97907">
        <ele>1507.9653320312</ele>
        <time>2012-02-11T12:38:05Z</time>
      </trkpt>
      <trkpt lat="45.68628" lon="5.97906">
        <ele>1505.5620117188</ele>
        <time>2012-02-11T12:38:17Z</time>
      </trkpt>
      <trkpt lat="45.68628" lon="5.97905">
        <ele>1507.4846191406</ele>
        <time>2012-02-11T12:38:28Z</time>
      </trkpt>
      <trkpt lat="45.68628" lon="5.97905">
        <ele>1507.4846191406</ele>
        <time>2012-02-11T12:38:38Z</time>
      </trkpt>
      <trkpt lat="45.68628" lon="5.97905">
        <ele>1508.9265136719</ele>
        <time>2012-02-11T12:38:51Z</time>
      </trkpt>
      <trkpt lat="45.68629" lon="5.97906">
        <ele>1511.810546875</ele>
        <time>2012-02-11T12:39:00Z</time>
      </trkpt>
      <trkpt lat="45.6863" lon="5.97906">
        <ele>1511.3298339844</ele>
        <time>2012-02-11T12:39:11Z</time>
      </trkpt>
      <trkpt lat="45.68628" lon="5.97906">
        <ele>1507.00390625</ele>
        <time>2012-02-11T12:39:33Z</time>
      </trkpt>
      <trkpt lat="45.68629" lon="5.97907">
        <ele>1506.5231933594</ele>
        <time>2012-02-11T12:39:42Z</time>
      </trkpt>
      <trkpt lat="45.68629" lon="5.97906">
        <ele>1507.4846191406</ele>
        <time>2012-02-11T12:39:58Z</time>
      </trkpt>
      <trkpt lat="45.68628" lon="5.97905">
        <ele>1508.4458007812</ele>
        <time>2012-02-11T12:40:04Z</time>
      </trkpt>
      <trkpt lat="45.68628" lon="5.97902">
        <ele>1512.291015625</ele>
        <time>2012-02-11T12:40:23Z</time>
      </trkpt>
      <trkpt lat="45.68628" lon="5.97903">
        <ele>1513.7329101562</ele>
        <time>2012-02-11T12:40:40Z</time>
      </trkpt>
      <trkpt lat="45.68628" lon="5.97902">
        <ele>1514.2136230469</ele>
        <time>2012-02-11T12:40:55Z</time>
      </trkpt>
      <trkpt lat="45.68627" lon="5.97901">
        <ele>1514.6943359375</ele>
        <time>2012-02-11T12:41:03Z</time>
      </trkpt>
      <trkpt lat="45.68627" lon="5.97901">
        <ele>1514.2136230469</ele>
        <time>2012-02-11T12:41:11Z</time>
      </trkpt>
      <trkpt lat="45.68627" lon="5.97902">
        <ele>1513.7329101562</ele>
        <time>2012-02-11T12:41:22Z</time>
      </trkpt>
      <trkpt lat="45.68628" lon="5.979">
        <ele>1515.6557617188</ele>
        <time>2012-02-11T12:41:46Z</time>
      </trkpt>
      <trkpt lat="45.68628" lon="5.979">
        <ele>1515.6557617188</ele>
        <time>2012-02-11T12:41:51Z</time>
      </trkpt>
      <trkpt lat="45.68628" lon="5.97902">
        <ele>1512.7717285156</ele>
        <time>2012-02-11T12:42:02Z</time>
      </trkpt>
      <trkpt lat="45.68628" lon="5.97896">
        <ele>1520.4624023438</ele>
        <time>2012-02-11T12:42:36Z</time>
      </trkpt>
      <trkpt lat="45.68628" lon="5.97899">
        <ele>1520.4624023438</ele>
        <time>2012-02-11T12:42:44Z</time>
      </trkpt>
      <trkpt lat="45.68628" lon="5.97903">
        <ele>1518.5397949219</ele>
        <time>2012-02-11T12:42:59Z</time>
      </trkpt>
      <trkpt lat="45.68628" lon="5.97904">
        <ele>1513.7329101562</ele>
        <time>2012-02-11T12:43:12Z</time>
      </trkpt>
      <trkpt lat="45.68628" lon="5.97904">
        <ele>1512.291015625</ele>
        <time>2012-02-11T12:43:31Z</time>
      </trkpt>
      <trkpt lat="45.68628" lon="5.97906">
        <ele>1511.810546875</ele>
        <time>2012-02-11T12:43:40Z</time>
      </trkpt>
      <trkpt lat="45.68628" lon="5.97907">
        <ele>1510.8491210938</ele>
        <time>2012-02-11T12:43:43Z</time>
      </trkpt>
      <trkpt lat="45.68628" lon="5.97907">
        <ele>1510.8491210938</ele>
        <time>2012-02-11T12:43:44Z</time>
      </trkpt>
      <trkpt lat="45.68628" lon="5.97906">
        <ele>1511.3298339844</ele>
        <time>2012-02-11T12:43:57Z</time>
      </trkpt>
      <trkpt lat="45.68628" lon="5.97906">
        <ele>1511.3298339844</ele>
        <time>2012-02-11T12:44:02Z</time>
      </trkpt>
      <trkpt lat="45.68628" lon="5.97906">
        <ele>1511.810546875</ele>
        <time>2012-02-11T12:44:05Z</time>
      </trkpt>
      <trkpt lat="45.68629" lon="5.97906">
        <ele>1512.7717285156</ele>
        <time>2012-02-11T12:44:24Z</time>
      </trkpt>
      <trkpt lat="45.68629" lon="5.97906">
        <ele>1512.7717285156</ele>
        <time>2012-02-11T12:44:30Z</time>
      </trkpt>
      <trkpt lat="45.68629" lon="5.97906">
        <ele>1512.291015625</ele>
        <time>2012-02-11T12:44:38Z</time>
      </trkpt>
      <trkpt lat="45.68631" lon="5.97907">
        <ele>1512.7717285156</ele>
        <time>2012-02-11T12:44:45Z</time>
      </trkpt>
      <trkpt lat="45.68631" lon="5.97907">
        <ele>1511.3298339844</ele>
        <time>2012-02-11T12:44:51Z</time>
      </trkpt>
      <trkpt lat="45.6863" lon="5.97907">
        <ele>1508.9265136719</ele>
        <time>2012-02-11T12:44:55Z</time>
      </trkpt>
      <trkpt lat="45.68628" lon="5.97906">
        <ele>1504.1201171875</ele>
        <time>2012-02-11T12:45:06Z</time>
      </trkpt>
      <trkpt lat="45.68628" lon="5.97906">
        <ele>1507.00390625</ele>
        <time>2012-02-11T12:45:13Z</time>
      </trkpt>
      <trkpt lat="45.68628" lon="5.97907">
        <ele>1511.810546875</ele>
        <time>2012-02-11T12:45:26Z</time>
      </trkpt>
      <trkpt lat="45.68628" lon="5.97908">
        <ele>1511.810546875</ele>
        <time>2012-02-11T12:45:29Z</time>
      </trkpt>
      <trkpt lat="45.68631" lon="5.9791">
        <ele>1512.7717285156</ele>
        <time>2012-02-11T12:45:41Z</time>
      </trkpt>
      <trkpt lat="45.68629" lon="5.97908">
        <ele>1512.7717285156</ele>
        <time>2012-02-11T12:45:49Z</time>
      </trkpt>
      <trkpt lat="45.68628" lon="5.97907">
        <ele>1511.810546875</ele>
        <time>2012-02-11T12:46:01Z</time>
      </trkpt>
      <trkpt lat="45.68627" lon="5.97906">
        <ele>1512.291015625</ele>
        <time>2012-02-11T12:46:12Z</time>
      </trkpt>
      <trkpt lat="45.68627" lon="5.97906">
        <ele>1511.3298339844</ele>
        <time>2012-02-11T12:46:15Z</time>
      </trkpt>
      <trkpt lat="45.68627" lon="5.97906">
        <ele>1510.8491210938</ele>
        <time>2012-02-11T12:46:16Z</time>
      </trkpt>
      <trkpt lat="45.68626" lon="5.97906">
        <ele>1510.8491210938</ele>
        <time>2012-02-11T12:46:17Z</time>
      </trkpt>
      <trkpt lat="45.68626" lon="5.97906">
        <ele>1508.4458007812</ele>
        <time>2012-02-11T12:46:26Z</time>
      </trkpt>
      <trkpt lat="45.68626" lon="5.97905">
        <ele>1509.4072265625</ele>
        <time>2012-02-11T12:46:33Z</time>
      </trkpt>
      <trkpt lat="45.68627" lon="5.97905">
        <ele>1508.4458007812</ele>
        <time>2012-02-11T12:46:40Z</time>
      </trkpt>
      <trkpt lat="45.68627" lon="5.97904">
        <ele>1508.4458007812</ele>
        <time>2012-02-11T12:46:49Z</time>
      </trkpt>
      <trkpt lat="45.68627" lon="5.97905">
        <ele>1509.8876953125</ele>
        <time>2012-02-11T12:47:11Z</time>
      </trkpt>
      <trkpt lat="45.68627" lon="5.97905">
        <ele>1508.9265136719</ele>
        <time>2012-02-11T12:47:20Z</time>
      </trkpt>
      <trkpt lat="45.68627" lon="5.97901">
        <ele>1515.6557617188</ele>
        <time>2012-02-11T12:47:39Z</time>
      </trkpt>
      <trkpt lat="45.68628" lon="5.97902">
        <ele>1514.2136230469</ele>
        <time>2012-02-11T12:47:46Z</time>
      </trkpt>
      <trkpt lat="45.68628" lon="5.97903">
        <ele>1515.6557617188</ele>
        <time>2012-02-11T12:47:54Z</time>
      </trkpt>
      <trkpt lat="45.68627" lon="5.97903">
        <ele>1515.6557617188</ele>
        <time>2012-02-11T12:48:23Z</time>
      </trkpt>
      <trkpt lat="45.68628" lon="5.97904">
        <ele>1512.7717285156</ele>
        <time>2012-02-11T12:48:45Z</time>
      </trkpt>
      <trkpt lat="45.68629" lon="5.97905">
        <ele>1511.810546875</ele>
        <time>2012-02-11T12:48:57Z</time>
      </trkpt>
      <trkpt lat="45.68629" lon="5.97906">
        <ele>1510.8491210938</ele>
        <time>2012-02-11T12:49:13Z</time>
      </trkpt>
      <trkpt lat="45.68628" lon="5.97907">
        <ele>1511.3298339844</ele>
        <time>2012-02-11T12:49:24Z</time>
      </trkpt>
      <trkpt lat="45.68627" lon="5.97907">
        <ele>1512.291015625</ele>
        <time>2012-02-11T12:49:44Z</time>
      </trkpt>
      <trkpt lat="45.68627" lon="5.97907">
        <ele>1510.8491210938</ele>
        <time>2012-02-11T12:49:50Z</time>
      </trkpt>
      <trkpt lat="45.68628" lon="5.97907">
        <ele>1509.4072265625</ele>
        <time>2012-02-11T12:49:55Z</time>
      </trkpt>
      <trkpt lat="45.68628" lon="5.97907">
        <ele>1508.9265136719</ele>
        <time>2012-02-11T12:50:03Z</time>
      </trkpt>
      <trkpt lat="45.68627" lon="5.97907">
        <ele>1507.4846191406</ele>
        <time>2012-02-11T12:50:08Z</time>
      </trkpt>
      <trkpt lat="45.68627" lon="5.97907">
        <ele>1507.4846191406</ele>
        <time>2012-02-11T12:50:11Z</time>
      </trkpt>
      <trkpt lat="45.68627" lon="5.97907">
        <ele>1507.9653320312</ele>
        <time>2012-02-11T12:50:13Z</time>
      </trkpt>
      <trkpt lat="45.68629" lon="5.97908">
        <ele>1507.4846191406</ele>
        <time>2012-02-11T12:50:19Z</time>
      </trkpt>
      <trkpt lat="45.68629" lon="5.97908">
        <ele>1507.4846191406</ele>
        <time>2012-02-11T12:50:26Z</time>
      </trkpt>
      <trkpt lat="45.68625" lon="5.97908">
        <ele>1506.5231933594</ele>
        <time>2012-02-11T12:50:38Z</time>
      </trkpt>
      <trkpt lat="45.68627" lon="5.97909">
        <ele>1505.5620117188</ele>
        <time>2012-02-11T12:50:43Z</time>
      </trkpt>
      <trkpt lat="45.68627" lon="5.97908">
        <ele>1506.0424804688</ele>
        <time>2012-02-11T12:50:48Z</time>
      </trkpt>
      <trkpt lat="45.68625" lon="5.97908">
        <ele>1505.0812988281</ele>
        <time>2012-02-11T12:50:54Z</time>
      </trkpt>
      <trkpt lat="45.68627" lon="5.97909">
        <ele>1502.6779785156</ele>
        <time>2012-02-11T12:51:01Z</time>
      </trkpt>
      <trkpt lat="45.68626" lon="5.97909">
        <ele>1504.1201171875</ele>
        <time>2012-02-11T12:51:11Z</time>
      </trkpt>
      <trkpt lat="45.68625" lon="5.97908">
        <ele>1505.0812988281</ele>
        <time>2012-02-11T12:51:19Z</time>
      </trkpt>
      <trkpt lat="45.68626" lon="5.9791">
        <ele>1504.1201171875</ele>
        <time>2012-02-11T12:51:26Z</time>
      </trkpt>
      <trkpt lat="45.68625" lon="5.97911">
        <ele>1505.0812988281</ele>
        <time>2012-02-11T12:51:34Z</time>
      </trkpt>
      <trkpt lat="45.68624" lon="5.97911">
        <ele>1506.0424804688</ele>
        <time>2012-02-11T12:51:44Z</time>
      </trkpt>
      <trkpt lat="45.68624" lon="5.9791">
        <ele>1507.4846191406</ele>
        <time>2012-02-11T12:51:51Z</time>
      </trkpt>
      <trkpt lat="45.68625" lon="5.9791">
        <ele>1507.9653320312</ele>
        <time>2012-02-11T12:51:57Z</time>
      </trkpt>
      <trkpt lat="45.68624" lon="5.97907">
        <ele>1509.4072265625</ele>
        <time>2012-02-11T12:52:04Z</time>
      </trkpt>
      <trkpt lat="45.68622" lon="5.97906">
        <ele>1509.8876953125</ele>
        <time>2012-02-11T12:52:14Z</time>
      </trkpt>
      <trkpt lat="45.68622" lon="5.97907">
        <ele>1509.8876953125</ele>
        <time>2012-02-11T12:52:19Z</time>
      </trkpt>
      <trkpt lat="45.68622" lon="5.97909">
        <ele>1509.4072265625</ele>
        <time>2012-02-11T12:52:28Z</time>
      </trkpt>
      <trkpt lat="45.68618" lon="5.97911">
        <ele>1510.3684082031</ele>
        <time>2012-02-11T12:52:40Z</time>
      </trkpt>
      <trkpt lat="45.68617" lon="5.97908">
        <ele>1509.8876953125</ele>
        <time>2012-02-11T12:52:53Z</time>
      </trkpt>
      <trkpt lat="45.68617" lon="5.97909">
        <ele>1507.9653320312</ele>
        <time>2012-02-11T12:53:05Z</time>
      </trkpt>
      <trkpt lat="45.68618" lon="5.97909">
        <ele>1507.00390625</ele>
        <time>2012-02-11T12:53:14Z</time>
      </trkpt>
      <trkpt lat="45.68616" lon="5.97911">
        <ele>1508.4458007812</ele>
        <time>2012-02-11T12:53:20Z</time>
      </trkpt>
      <trkpt lat="45.6862" lon="5.9791">
        <ele>1510.8491210938</ele>
        <time>2012-02-11T12:53:26Z</time>
      </trkpt>
      <trkpt lat="45.68623" lon="5.97908">
        <ele>1510.3684082031</ele>
        <time>2012-02-11T12:53:37Z</time>
      </trkpt>
      <trkpt lat="45.68624" lon="5.97906">
        <ele>1508.9265136719</ele>
        <time>2012-02-11T12:53:43Z</time>
      </trkpt>
      <trkpt lat="45.68626" lon="5.97908">
        <ele>1508.4458007812</ele>
        <time>2012-02-11T12:53:48Z</time>
      </trkpt>
      <trkpt lat="45.68626" lon="5.97907">
        <ele>1507.4846191406</ele>
        <time>2012-02-11T12:53:55Z</time>
      </trkpt>
      <trkpt lat="45.68626" lon="5.97906">
        <ele>1509.8876953125</ele>
        <time>2012-02-11T12:54:00Z</time>
      </trkpt>
      <trkpt lat="45.68627" lon="5.97906">
        <ele>1510.8491210938</ele>
        <time>2012-02-11T12:54:03Z</time>
      </trkpt>
      <trkpt lat="45.68627" lon="5.97904">
        <ele>1510.8491210938</ele>
        <time>2012-02-11T12:54:10Z</time>
      </trkpt>
      <trkpt lat="45.68627" lon="5.97903">
        <ele>1511.810546875</ele>
        <time>2012-02-11T12:54:20Z</time>
      </trkpt>
      <trkpt lat="45.68629" lon="5.97901">
        <ele>1511.810546875</ele>
        <time>2012-02-11T12:54:31Z</time>
      </trkpt>
      <trkpt lat="45.6863" lon="5.97901">
        <ele>1511.3298339844</ele>
        <time>2012-02-11T12:54:41Z</time>
      </trkpt>
      <trkpt lat="45.6863" lon="5.97899">
        <ele>1514.6943359375</ele>
        <time>2012-02-11T12:54:46Z</time>
      </trkpt>
      <trkpt lat="45.68632" lon="5.97901">
        <ele>1514.2136230469</ele>
        <time>2012-02-11T12:54:58Z</time>
      </trkpt>
      <trkpt lat="45.68633" lon="5.97902">
        <ele>1512.7717285156</ele>
        <time>2012-02-11T12:55:04Z</time>
      </trkpt>
      <trkpt lat="45.68632" lon="5.97902">
        <ele>1512.291015625</ele>
        <time>2012-02-11T12:55:07Z</time>
      </trkpt>
      <trkpt lat="45.68633" lon="5.97902">
        <ele>1511.810546875</ele>
        <time>2012-02-11T12:55:12Z</time>
      </trkpt>
      <trkpt lat="45.68633" lon="5.97902">
        <ele>1511.3298339844</ele>
        <time>2012-02-11T12:55:15Z</time>
      </trkpt>
      <trkpt lat="45.68632" lon="5.97903">
        <ele>1508.9265136719</ele>
        <time>2012-02-11T12:55:23Z</time>
      </trkpt>
      <trkpt lat="45.68633" lon="5.97905">
        <ele>1505.5620117188</ele>
        <time>2012-02-11T12:55:32Z</time>
      </trkpt>
      <trkpt lat="45.68632" lon="5.97904">
        <ele>1505.0812988281</ele>
        <time>2012-02-11T12:55:35Z</time>
      </trkpt>
      <trkpt lat="45.68632" lon="5.97904">
        <ele>1505.0812988281</ele>
        <time>2012-02-11T12:55:37Z</time>
      </trkpt>
      <trkpt lat="45.68629" lon="5.97903">
        <ele>1506.5231933594</ele>
        <time>2012-02-11T12:55:49Z</time>
      </trkpt>
      <trkpt lat="45.68629" lon="5.97902">
        <ele>1507.9653320312</ele>
        <time>2012-02-11T12:55:53Z</time>
      </trkpt>
      <trkpt lat="45.68628" lon="5.97903">
        <ele>1508.9265136719</ele>
        <time>2012-02-11T12:56:02Z</time>
      </trkpt>
      <trkpt lat="45.68627" lon="5.97906">
        <ele>1506.5231933594</ele>
        <time>2012-02-11T12:56:22Z</time>
      </trkpt>
      <trkpt lat="45.68627" lon="5.97906">
        <ele>1507.9653320312</ele>
        <time>2012-02-11T12:56:30Z</time>
      </trkpt>
      <trkpt lat="45.68627" lon="5.97906">
        <ele>1507.9653320312</ele>
        <time>2012-02-11T12:56:34Z</time>
      </trkpt>
      <trkpt lat="45.68627" lon="5.97904">
        <ele>1508.4458007812</ele>
        <time>2012-02-11T12:56:37Z</time>
      </trkpt>
      <trkpt lat="45.68627" lon="5.97901">
        <ele>1508.9265136719</ele>
        <time>2012-02-11T12:56:48Z</time>
      </trkpt>
      <trkpt lat="45.68627" lon="5.979">
        <ele>1509.8876953125</ele>
        <time>2012-02-11T12:57:01Z</time>
      </trkpt>
      <trkpt lat="45.68627" lon="5.97899">
        <ele>1509.4072265625</ele>
        <time>2012-02-11T12:57:09Z</time>
      </trkpt>
      <trkpt lat="45.68627" lon="5.97899">
        <ele>1509.4072265625</ele>
        <time>2012-02-11T12:57:15Z</time>
      </trkpt>
      <trkpt lat="45.68626" lon="5.979">
        <ele>1508.9265136719</ele>
        <time>2012-02-11T12:57:23Z</time>
      </trkpt>
      <trkpt lat="45.68627" lon="5.97902">
        <ele>1507.9653320312</ele>
        <time>2012-02-11T12:57:29Z</time>
      </trkpt>
      <trkpt lat="45.68628" lon="5.97903">
        <ele>1506.0424804688</ele>
        <time>2012-02-11T12:57:38Z</time>
      </trkpt>
      <trkpt lat="45.68628" lon="5.97904">
        <ele>1507.9653320312</ele>
        <time>2012-02-11T12:57:52Z</time>
      </trkpt>
      <trkpt lat="45.68629" lon="5.97906">
        <ele>1507.00390625</ele>
        <time>2012-02-11T12:57:56Z</time>
      </trkpt>
      <trkpt lat="45.68629" lon="5.97907">
        <ele>1505.5620117188</ele>
        <time>2012-02-11T12:57:59Z</time>
      </trkpt>
      <trkpt lat="45.68629" lon="5.97908">
        <ele>1505.5620117188</ele>
        <time>2012-02-11T12:58:01Z</time>
      </trkpt>
      <trkpt lat="45.68629" lon="5.97907">
        <ele>1504.6005859375</ele>
        <time>2012-02-11T12:58:07Z</time>
      </trkpt>
      <trkpt lat="45.68628" lon="5.97906">
        <ele>1507.00390625</ele>
        <time>2012-02-11T12:58:13Z</time>
      </trkpt>
      <trkpt lat="45.68628" lon="5.97908">
        <ele>1507.4846191406</ele>
        <time>2012-02-11T12:58:20Z</time>
      </trkpt>
      <trkpt lat="45.68628" lon="5.97908">
        <ele>1506.5231933594</ele>
        <time>2012-02-11T12:58:28Z</time>
      </trkpt>
      <trkpt lat="45.68627" lon="5.97907">
        <ele>1506.0424804688</ele>
        <time>2012-02-11T12:58:32Z</time>
      </trkpt>
      <trkpt lat="45.68625" lon="5.97908">
        <ele>1509.4072265625</ele>
        <time>2012-02-11T12:58:38Z</time>
      </trkpt>
      <trkpt lat="45.68624" lon="5.97908">
        <ele>1510.3684082031</ele>
        <time>2012-02-11T12:58:45Z</time>
      </trkpt>
      <trkpt lat="45.68621" lon="5.9791">
        <ele>1512.7717285156</ele>
        <time>2012-02-11T12:58:53Z</time>
      </trkpt>
      <trkpt lat="45.68621" lon="5.97911">
        <ele>1514.6943359375</ele>
        <time>2012-02-11T12:59:03Z</time>
      </trkpt>
      <trkpt lat="45.68623" lon="5.9791">
        <ele>1512.7717285156</ele>
        <time>2012-02-11T12:59:13Z</time>
      </trkpt>
      <trkpt lat="45.68622" lon="5.9791">
        <ele>1512.7717285156</ele>
        <time>2012-02-11T12:59:20Z</time>
      </trkpt>
      <trkpt lat="45.68622" lon="5.9791">
        <ele>1512.7717285156</ele>
        <time>2012-02-11T12:59:21Z</time>
      </trkpt>
      <trkpt lat="45.68622" lon="5.9791">
        <ele>1513.2524414062</ele>
        <time>2012-02-11T12:59:22Z</time>
      </trkpt>
      <trkpt lat="45.68622" lon="5.97909">
        <ele>1513.2524414062</ele>
        <time>2012-02-11T12:59:23Z</time>
      </trkpt>
      <trkpt lat="45.68621" lon="5.9791">
        <ele>1513.2524414062</ele>
        <time>2012-02-11T12:59:24Z</time>
      </trkpt>
      <trkpt lat="45.68621" lon="5.97909">
        <ele>1513.2524414062</ele>
        <time>2012-02-11T12:59:33Z</time>
      </trkpt>
      <trkpt lat="45.68621" lon="5.97908">
        <ele>1513.7329101562</ele>
        <time>2012-02-11T12:59:41Z</time>
      </trkpt>
      <trkpt lat="45.68621" lon="5.97909">
        <ele>1513.2524414062</ele>
        <time>2012-02-11T12:59:47Z</time>
      </trkpt>
      <trkpt lat="45.68621" lon="5.9791">
        <ele>1513.2524414062</ele>
        <time>2012-02-11T12:59:58Z</time>
      </trkpt>
      <trkpt lat="45.68621" lon="5.9791">
        <ele>1512.7717285156</ele>
        <time>2012-02-11T13:00:00Z</time>
      </trkpt>
      <trkpt lat="45.68622" lon="5.97908">
        <ele>1509.8876953125</ele>
        <time>2012-02-11T13:00:08Z</time>
      </trkpt>
      <trkpt lat="45.68621" lon="5.9791">
        <ele>1510.8491210938</ele>
        <time>2012-02-11T13:00:16Z</time>
      </trkpt>
      <trkpt lat="45.68619" lon="5.97914">
        <ele>1514.6943359375</ele>
        <time>2012-02-11T13:00:31Z</time>
      </trkpt>
      <trkpt lat="45.6862" lon="5.9791">
        <ele>1512.7717285156</ele>
        <time>2012-02-11T13:00:44Z</time>
      </trkpt>
      <trkpt lat="45.68621" lon="5.9791">
        <ele>1511.810546875</ele>
        <time>2012-02-11T13:00:51Z</time>
      </trkpt>
      <trkpt lat="45.68624" lon="5.9791">
        <ele>1508.4458007812</ele>
        <time>2012-02-11T13:01:02Z</time>
      </trkpt>
      <trkpt lat="45.68624" lon="5.97909">
        <ele>1507.00390625</ele>
        <time>2012-02-11T13:01:07Z</time>
      </trkpt>
      <trkpt lat="45.68623" lon="5.97909">
        <ele>1506.5231933594</ele>
        <time>2012-02-11T13:01:12Z</time>
      </trkpt>
      <trkpt lat="45.68624" lon="5.97908">
        <ele>1507.00390625</ele>
        <time>2012-02-11T13:01:17Z</time>
      </trkpt>
      <trkpt lat="45.68625" lon="5.97909">
        <ele>1506.5231933594</ele>
        <time>2012-02-11T13:01:24Z</time>
      </trkpt>
      <trkpt lat="45.68626" lon="5.9791">
        <ele>1507.4846191406</ele>
        <time>2012-02-11T13:01:36Z</time>
      </trkpt>
      <trkpt lat="45.68626" lon="5.9791">
        <ele>1507.00390625</ele>
        <time>2012-02-11T13:01:46Z</time>
      </trkpt>
      <trkpt lat="45.68626" lon="5.97909">
        <ele>1507.4846191406</ele>
        <time>2012-02-11T13:01:50Z</time>
      </trkpt>
      <trkpt lat="45.68625" lon="5.97909">
        <ele>1509.8876953125</ele>
        <time>2012-02-11T13:01:58Z</time>
      </trkpt>
      <trkpt lat="45.68623" lon="5.97911">
        <ele>1513.7329101562</ele>
        <time>2012-02-11T13:02:11Z</time>
      </trkpt>
      <trkpt lat="45.68622" lon="5.97912">
        <ele>1515.1750488281</ele>
        <time>2012-02-11T13:02:21Z</time>
      </trkpt>
      <trkpt lat="45.68619" lon="5.97913">
        <ele>1517.0979003906</ele>
        <time>2012-02-11T13:02:31Z</time>
      </trkpt>
      <trkpt lat="45.68619" lon="5.97912">
        <ele>1516.6171875</ele>
        <time>2012-02-11T13:02:47Z</time>
      </trkpt>
      <trkpt lat="45.68621" lon="5.97908">
        <ele>1512.291015625</ele>
        <time>2012-02-11T13:02:55Z</time>
      </trkpt>
      <trkpt lat="45.68621" lon="5.97906">
        <ele>1512.7717285156</ele>
        <time>2012-02-11T13:02:59Z</time>
      </trkpt>
      <trkpt lat="45.68623" lon="5.97903">
        <ele>1512.291015625</ele>
        <time>2012-02-11T13:03:12Z</time>
      </trkpt>
      <trkpt lat="45.68624" lon="5.97901">
        <ele>1514.2136230469</ele>
        <time>2012-02-11T13:03:29Z</time>
      </trkpt>
      <trkpt lat="45.68624" lon="5.97901">
        <ele>1513.2524414062</ele>
        <time>2012-02-11T13:03:42Z</time>
      </trkpt>
      <trkpt lat="45.68625" lon="5.97901">
        <ele>1512.7717285156</ele>
        <time>2012-02-11T13:03:48Z</time>
      </trkpt>
      <trkpt lat="45.68624" lon="5.97901">
        <ele>1511.810546875</ele>
        <time>2012-02-11T13:04:00Z</time>
      </trkpt>
      <trkpt lat="45.68625" lon="5.97902">
        <ele>1510.3684082031</ele>
        <time>2012-02-11T13:04:03Z</time>
      </trkpt>
      <trkpt lat="45.68627" lon="5.97905">
        <ele>1507.00390625</ele>
        <time>2012-02-11T13:04:15Z</time>
      </trkpt>
      <trkpt lat="45.68626" lon="5.97905">
        <ele>1506.5231933594</ele>
        <time>2012-02-11T13:04:27Z</time>
      </trkpt>
      <trkpt lat="45.68626" lon="5.97906">
        <ele>1506.5231933594</ele>
        <time>2012-02-11T13:04:36Z</time>
      </trkpt>
      <trkpt lat="45.68627" lon="5.97908">
        <ele>1506.0424804688</ele>
        <time>2012-02-11T13:04:48Z</time>
      </trkpt>
      <trkpt lat="45.68626" lon="5.97907">
        <ele>1506.5231933594</ele>
        <time>2012-02-11T13:05:00Z</time>
      </trkpt>
      <trkpt lat="45.68628" lon="5.97904">
        <ele>1506.5231933594</ele>
        <time>2012-02-11T13:05:16Z</time>
      </trkpt>
      <trkpt lat="45.68627" lon="5.97902">
        <ele>1507.4846191406</ele>
        <time>2012-02-11T13:05:26Z</time>
      </trkpt>
      <trkpt lat="45.68627" lon="5.97902">
        <ele>1507.4846191406</ele>
        <time>2012-02-11T13:05:30Z</time>
      </trkpt>
      <trkpt lat="45.68626" lon="5.97902">
        <ele>1506.0424804688</ele>
        <time>2012-02-11T13:05:42Z</time>
      </trkpt>
      <trkpt lat="45.68627" lon="5.97899">
        <ele>1499.7939453125</ele>
        <time>2012-02-11T13:05:54Z</time>
      </trkpt>
      <trkpt lat="45.68624" lon="5.97899">
        <ele>1501.2360839844</ele>
        <time>2012-02-11T13:06:00Z</time>
      </trkpt>
      <trkpt lat="45.68622" lon="5.97902">
        <ele>1508.9265136719</ele>
        <time>2012-02-11T13:06:09Z</time>
      </trkpt>
      <trkpt lat="45.68621" lon="5.97901">
        <ele>1512.291015625</ele>
        <time>2012-02-11T13:06:16Z</time>
      </trkpt>
      <trkpt lat="45.68621" lon="5.97901">
        <ele>1512.291015625</ele>
        <time>2012-02-11T13:06:17Z</time>
      </trkpt>
      <trkpt lat="45.68624" lon="5.97904">
        <ele>1509.4072265625</ele>
        <time>2012-02-11T13:06:25Z</time>
      </trkpt>
      <trkpt lat="45.68625" lon="5.97903">
        <ele>1507.00390625</ele>
        <time>2012-02-11T13:06:32Z</time>
      </trkpt>
      <trkpt lat="45.68625" lon="5.97903">
        <ele>1507.00390625</ele>
        <time>2012-02-11T13:06:44Z</time>
      </trkpt>
      <trkpt lat="45.68624" lon="5.97905">
        <ele>1506.5231933594</ele>
        <time>2012-02-11T13:06:51Z</time>
      </trkpt>
      <trkpt lat="45.68624" lon="5.97909">
        <ele>1507.4846191406</ele>
        <time>2012-02-11T13:06:58Z</time>
      </trkpt>
      <trkpt lat="45.68624" lon="5.9791">
        <ele>1507.9653320312</ele>
        <time>2012-02-11T13:07:10Z</time>
      </trkpt>
      <trkpt lat="45.68623" lon="5.97907">
        <ele>1508.4458007812</ele>
        <time>2012-02-11T13:07:20Z</time>
      </trkpt>
      <trkpt lat="45.68622" lon="5.97908">
        <ele>1513.7329101562</ele>
        <time>2012-02-11T13:07:35Z</time>
      </trkpt>
      <trkpt lat="45.6862" lon="5.97909">
        <ele>1514.6943359375</ele>
        <time>2012-02-11T13:07:48Z</time>
      </trkpt>
      <trkpt lat="45.6862" lon="5.97909">
        <ele>1514.2136230469</ele>
        <time>2012-02-11T13:07:55Z</time>
      </trkpt>
      <trkpt lat="45.68621" lon="5.97907">
        <ele>1512.291015625</ele>
        <time>2012-02-11T13:08:12Z</time>
      </trkpt>
      <trkpt lat="45.68622" lon="5.97907">
        <ele>1510.8491210938</ele>
        <time>2012-02-11T13:08:19Z</time>
      </trkpt>
      <trkpt lat="45.68624" lon="5.97907">
        <ele>1508.9265136719</ele>
        <time>2012-02-11T13:08:27Z</time>
      </trkpt>
      <trkpt lat="45.68623" lon="5.9791">
        <ele>1508.4458007812</ele>
        <time>2012-02-11T13:08:36Z</time>
      </trkpt>
      <trkpt lat="45.68627" lon="5.97908">
        <ele>1506.0424804688</ele>
        <time>2012-02-11T13:08:41Z</time>
      </trkpt>
      <trkpt lat="45.68631" lon="5.97905">
        <ele>1505.5620117188</ele>
        <time>2012-02-11T13:08:48Z</time>
      </trkpt>
      <trkpt lat="45.68629" lon="5.97902">
        <ele>1506.0424804688</ele>
        <time>2012-02-11T13:08:52Z</time>
      </trkpt>
      <trkpt lat="45.68629" lon="5.979">
        <ele>1506.0424804688</ele>
        <time>2012-02-11T13:08:57Z</time>
      </trkpt>
      <trkpt lat="45.68629" lon="5.979">
        <ele>1507.9653320312</ele>
        <time>2012-02-11T13:09:02Z</time>
      </trkpt>
      <trkpt lat="45.6863" lon="5.979">
        <ele>1507.4846191406</ele>
        <time>2012-02-11T13:09:05Z</time>
      </trkpt>
      <trkpt lat="45.6863" lon="5.979">
        <ele>1507.9653320312</ele>
        <time>2012-02-11T13:09:06Z</time>
      </trkpt>
      <trkpt lat="45.68629" lon="5.97899">
        <ele>1508.4458007812</ele>
        <time>2012-02-11T13:09:12Z</time>
      </trkpt>
      <trkpt lat="45.68629" lon="5.979">
        <ele>1507.4846191406</ele>
        <time>2012-02-11T13:09:18Z</time>
      </trkpt>
      <trkpt lat="45.68629" lon="5.97898">
        <ele>1506.5231933594</ele>
        <time>2012-02-11T13:09:31Z</time>
      </trkpt>
      <trkpt lat="45.68628" lon="5.97896">
        <ele>1509.4072265625</ele>
        <time>2012-02-11T13:09:42Z</time>
      </trkpt>
      <trkpt lat="45.68624" lon="5.97896">
        <ele>1514.2136230469</ele>
        <time>2012-02-11T13:09:59Z</time>
      </trkpt>
      <trkpt lat="45.68625" lon="5.97897">
        <ele>1515.1750488281</ele>
        <time>2012-02-11T13:10:09Z</time>
      </trkpt>
      <trkpt lat="45.68626" lon="5.97898">
        <ele>1515.6557617188</ele>
        <time>2012-02-11T13:10:20Z</time>
      </trkpt>
      <trkpt lat="45.68628" lon="5.97897">
        <ele>1514.2136230469</ele>
        <time>2012-02-11T13:10:29Z</time>
      </trkpt>
      <trkpt lat="45.68629" lon="5.97897">
        <ele>1512.291015625</ele>
        <time>2012-02-11T13:10:34Z</time>
      </trkpt>
      <trkpt lat="45.68631" lon="5.97903">
        <ele>1510.3684082031</ele>
        <time>2012-02-11T13:10:39Z</time>
      </trkpt>
      <trkpt lat="45.68628" lon="5.97908">
        <ele>1508.4458007812</ele>
        <time>2012-02-11T13:10:43Z</time>
      </trkpt>
      <trkpt lat="45.68625" lon="5.97909">
        <ele>1509.4072265625</ele>
        <time>2012-02-11T13:10:48Z</time>
      </trkpt>
      <trkpt lat="45.68626" lon="5.97907">
        <ele>1508.4458007812</ele>
        <time>2012-02-11T13:10:55Z</time>
      </trkpt>
      <trkpt lat="45.68627" lon="5.97907">
        <ele>1508.9265136719</ele>
        <time>2012-02-11T13:11:00Z</time>
      </trkpt>
      <trkpt lat="45.68626" lon="5.97906">
        <ele>1510.3684082031</ele>
        <time>2012-02-11T13:11:08Z</time>
      </trkpt>
      <trkpt lat="45.68625" lon="5.97905">
        <ele>1514.2136230469</ele>
        <time>2012-02-11T13:11:23Z</time>
      </trkpt>
      <trkpt lat="45.68626" lon="5.97905">
        <ele>1511.3298339844</ele>
        <time>2012-02-11T13:11:28Z</time>
      </trkpt>
      <trkpt lat="45.68628" lon="5.97908">
        <ele>1503.1586914062</ele>
        <time>2012-02-11T13:11:39Z</time>
      </trkpt>
      <trkpt lat="45.68626" lon="5.97909">
        <ele>1505.5620117188</ele>
        <time>2012-02-11T13:11:50Z</time>
      </trkpt>
      <trkpt lat="45.68626" lon="5.97909">
        <ele>1506.5231933594</ele>
        <time>2012-02-11T13:11:57Z</time>
      </trkpt>
      <trkpt lat="45.68625" lon="5.97909">
        <ele>1506.5231933594</ele>
        <time>2012-02-11T13:12:04Z</time>
      </trkpt>
      <trkpt lat="45.68626" lon="5.9791">
        <ele>1506.5231933594</ele>
        <time>2012-02-11T13:12:08Z</time>
      </trkpt>
      <trkpt lat="45.68627" lon="5.9791">
        <ele>1506.5231933594</ele>
        <time>2012-02-11T13:12:10Z</time>
      </trkpt>
      <trkpt lat="45.68626" lon="5.9791">
        <ele>1504.6005859375</ele>
        <time>2012-02-11T13:12:19Z</time>
      </trkpt>
      <trkpt lat="45.68626" lon="5.9791">
        <ele>1504.1201171875</ele>
        <time>2012-02-11T13:12:34Z</time>
      </trkpt>
      <trkpt lat="45.68629" lon="5.97905">
        <ele>1496.9099121094</ele>
        <time>2012-02-11T13:12:49Z</time>
      </trkpt>
      <trkpt lat="45.6863" lon="5.97905">
        <ele>1495.9487304688</ele>
        <time>2012-02-11T13:13:02Z</time>
      </trkpt>
      <trkpt lat="45.6863" lon="5.97907">
        <ele>1497.8713378906</ele>
        <time>2012-02-11T13:13:12Z</time>
      </trkpt>
      <trkpt lat="45.68628" lon="5.97909">
        <ele>1498.8325195312</ele>
        <time>2012-02-11T13:13:25Z</time>
      </trkpt>
      <trkpt lat="45.68626" lon="5.97911">
        <ele>1502.197265625</ele>
        <time>2012-02-11T13:13:36Z</time>
      </trkpt>
      <trkpt lat="45.68625" lon="5.97911">
        <ele>1505.5620117188</ele>
        <time>2012-02-11T13:13:44Z</time>
      </trkpt>
      <trkpt lat="45.68624" lon="5.97912">
        <ele>1507.9653320312</ele>
        <time>2012-02-11T13:13:50Z</time>
      </trkpt>
      <trkpt lat="45.68624" lon="5.97913">
        <ele>1507.4846191406</ele>
        <time>2012-02-11T13:14:06Z</time>
      </trkpt>
      <trkpt lat="45.68624" lon="5.97912">
        <ele>1509.8876953125</ele>
        <time>2012-02-11T13:14:15Z</time>
      </trkpt>
      <trkpt lat="45.68625" lon="5.97911">
        <ele>1509.8876953125</ele>
        <time>2012-02-11T13:14:21Z</time>
      </trkpt>
      <trkpt lat="45.68627" lon="5.97909">
        <ele>1508.4458007812</ele>
        <time>2012-02-11T13:14:26Z</time>
      </trkpt>
      <trkpt lat="45.68626" lon="5.97908">
        <ele>1508.4458007812</ele>
        <time>2012-02-11T13:14:31Z</time>
      </trkpt>
      <trkpt lat="45.68625" lon="5.97909">
        <ele>1507.9653320312</ele>
        <time>2012-02-11T13:14:37Z</time>
      </trkpt>
      <trkpt lat="45.68625" lon="5.97911">
        <ele>1507.00390625</ele>
        <time>2012-02-11T13:14:44Z</time>
      </trkpt>
      <trkpt lat="45.68625" lon="5.97911">
        <ele>1507.00390625</ele>
        <time>2012-02-11T13:14:50Z</time>
      </trkpt>
      <trkpt lat="45.68626" lon="5.9791">
        <ele>1501.716796875</ele>
        <time>2012-02-11T13:14:58Z</time>
      </trkpt>
      <trkpt lat="45.68625" lon="5.9791">
        <ele>1501.716796875</ele>
        <time>2012-02-11T13:15:07Z</time>
      </trkpt>
      <trkpt lat="45.68628" lon="5.97911">
        <ele>1503.1586914062</ele>
        <time>2012-02-11T13:15:16Z</time>
      </trkpt>
      <trkpt lat="45.68628" lon="5.9791">
        <ele>1504.6005859375</ele>
        <time>2012-02-11T13:15:23Z</time>
      </trkpt>
      <trkpt lat="45.68628" lon="5.97908">
        <ele>1503.6394042969</ele>
        <time>2012-02-11T13:15:28Z</time>
      </trkpt>
      <trkpt lat="45.68626" lon="5.97901">
        <ele>1506.5231933594</ele>
        <time>2012-02-11T13:15:42Z</time>
      </trkpt>
      <trkpt lat="45.68627" lon="5.97904">
        <ele>1505.5620117188</ele>
        <time>2012-02-11T13:15:54Z</time>
      </trkpt>
      <trkpt lat="45.68626" lon="5.97911">
        <ele>1503.6394042969</ele>
        <time>2012-02-11T13:16:10Z</time>
      </trkpt>
      <trkpt lat="45.6863" lon="5.9791">
        <ele>1501.716796875</ele>
        <time>2012-02-11T13:16:24Z</time>
      </trkpt>
      <trkpt lat="45.6863" lon="5.9791">
        <ele>1499.7939453125</ele>
        <time>2012-02-11T13:16:37Z</time>
      </trkpt>
      <trkpt lat="45.68629" lon="5.9791">
        <ele>1498.3518066406</ele>
        <time>2012-02-11T13:16:44Z</time>
      </trkpt>
      <trkpt lat="45.68626" lon="5.9791">
        <ele>1504.1201171875</ele>
        <time>2012-02-11T13:16:50Z</time>
      </trkpt>
      <trkpt lat="45.68626" lon="5.97911">
        <ele>1502.6779785156</ele>
        <time>2012-02-11T13:16:54Z</time>
      </trkpt>
      <trkpt lat="45.68626" lon="5.9791">
        <ele>1500.2749023438</ele>
        <time>2012-02-11T13:17:12Z</time>
      </trkpt>
      <trkpt lat="45.68626" lon="5.97909">
        <ele>1503.1586914062</ele>
        <time>2012-02-11T13:17:18Z</time>
      </trkpt>
      <trkpt lat="45.68626" lon="5.97907">
        <ele>1503.6394042969</ele>
        <time>2012-02-11T13:17:23Z</time>
      </trkpt>
      <trkpt lat="45.68625" lon="5.97906">
        <ele>1506.0424804688</ele>
        <time>2012-02-11T13:17:30Z</time>
      </trkpt>
      <trkpt lat="45.68625" lon="5.97907">
        <ele>1507.9653320312</ele>
        <time>2012-02-11T13:17:34Z</time>
      </trkpt>
      <trkpt lat="45.68625" lon="5.97909">
        <ele>1509.4072265625</ele>
        <time>2012-02-11T13:17:41Z</time>
      </trkpt>
      <trkpt lat="45.68624" lon="5.97909">
        <ele>1507.4846191406</ele>
        <time>2012-02-11T13:17:58Z</time>
      </trkpt>
      <trkpt lat="45.68626" lon="5.97909">
        <ele>1506.5231933594</ele>
        <time>2012-02-11T13:18:07Z</time>
      </trkpt>
      <trkpt lat="45.68627" lon="5.97908">
        <ele>1505.5620117188</ele>
        <time>2012-02-11T13:18:15Z</time>
      </trkpt>
      <trkpt lat="45.68627" lon="5.97906">
        <ele>1511.810546875</ele>
        <time>2012-02-11T13:18:28Z</time>
      </trkpt>
      <trkpt lat="45.68627" lon="5.9791">
        <ele>1514.2136230469</ele>
        <time>2012-02-11T13:18:40Z</time>
      </trkpt>
      <trkpt lat="45.68628" lon="5.97911">
        <ele>1506.5231933594</ele>
        <time>2012-02-11T13:18:54Z</time>
      </trkpt>
      <trkpt lat="45.68627" lon="5.97911">
        <ele>1502.6779785156</ele>
        <time>2012-02-11T13:19:21Z</time>
      </trkpt>
      <trkpt lat="45.68627" lon="5.97911">
        <ele>1503.1586914062</ele>
        <time>2012-02-11T13:19:31Z</time>
      </trkpt>
      <trkpt lat="45.68627" lon="5.97912">
        <ele>1503.6394042969</ele>
        <time>2012-02-11T13:19:38Z</time>
      </trkpt>
      <trkpt lat="45.68627" lon="5.97912">
        <ele>1503.6394042969</ele>
        <time>2012-02-11T13:19:44Z</time>
      </trkpt>
      <trkpt lat="45.68626" lon="5.9791">
        <ele>1507.00390625</ele>
        <time>2012-02-11T13:19:51Z</time>
      </trkpt>
      <trkpt lat="45.68624" lon="5.97909">
        <ele>1508.4458007812</ele>
        <time>2012-02-11T13:19:56Z</time>
      </trkpt>
      <trkpt lat="45.68624" lon="5.9791">
        <ele>1508.9265136719</ele>
        <time>2012-02-11T13:20:18Z</time>
      </trkpt>
      <trkpt lat="45.68625" lon="5.9791">
        <ele>1507.9653320312</ele>
        <time>2012-02-11T13:20:22Z</time>
      </trkpt>
      <trkpt lat="45.68624" lon="5.97912">
        <ele>1504.1201171875</ele>
        <time>2012-02-11T13:20:36Z</time>
      </trkpt>
      <trkpt lat="45.68625" lon="5.97911">
        <ele>1499.3132324219</ele>
        <time>2012-02-11T13:20:47Z</time>
      </trkpt>
      <trkpt lat="45.68625" lon="5.97911">
        <ele>1501.2360839844</ele>
        <time>2012-02-11T13:20:57Z</time>
      </trkpt>
      <trkpt lat="45.68625" lon="5.9791">
        <ele>1503.6394042969</ele>
        <time>2012-02-11T13:21:05Z</time>
      </trkpt>
      <trkpt lat="45.68624" lon="5.9791">
        <ele>1506.0424804688</ele>
        <time>2012-02-11T13:21:15Z</time>
      </trkpt>
      <trkpt lat="45.68623" lon="5.97909">
        <ele>1506.5231933594</ele>
        <time>2012-02-11T13:21:19Z</time>
      </trkpt>
      <trkpt lat="45.68624" lon="5.97909">
        <ele>1505.5620117188</ele>
        <time>2012-02-11T13:21:24Z</time>
      </trkpt>
      <trkpt lat="45.68625" lon="5.97909">
        <ele>1506.0424804688</ele>
        <time>2012-02-11T13:21:31Z</time>
      </trkpt>
      <trkpt lat="45.68625" lon="5.9791">
        <ele>1505.0812988281</ele>
        <time>2012-02-11T13:21:40Z</time>
      </trkpt>
      <trkpt lat="45.68628" lon="5.97909">
        <ele>1502.6779785156</ele>
        <time>2012-02-11T13:21:53Z</time>
      </trkpt>
      <trkpt lat="45.68628" lon="5.9791">
        <ele>1504.1201171875</ele>
        <time>2012-02-11T13:22:06Z</time>
      </trkpt>
      <trkpt lat="45.68627" lon="5.97911">
        <ele>1503.6394042969</ele>
        <time>2012-02-11T13:22:17Z</time>
      </trkpt>
      <trkpt lat="45.68624" lon="5.97912">
        <ele>1505.0812988281</ele>
        <time>2012-02-11T13:22:28Z</time>
      </trkpt>
      <trkpt lat="45.68624" lon="5.97911">
        <ele>1506.0424804688</ele>
        <time>2012-02-11T13:22:36Z</time>
      </trkpt>
      <trkpt lat="45.68624" lon="5.97911">
        <ele>1504.6005859375</ele>
        <time>2012-02-11T13:22:50Z</time>
      </trkpt>
      <trkpt lat="45.68625" lon="5.97913">
        <ele>1503.6394042969</ele>
        <time>2012-02-11T13:23:01Z</time>
      </trkpt>
      <trkpt lat="45.68624" lon="5.97913">
        <ele>1509.8876953125</ele>
        <time>2012-02-11T13:23:11Z</time>
      </trkpt>
      <trkpt lat="45.68626" lon="5.97913">
        <ele>1507.00390625</ele>
        <time>2012-02-11T13:23:22Z</time>
      </trkpt>
      <trkpt lat="45.68629" lon="5.97911">
        <ele>1500.7553710938</ele>
        <time>2012-02-11T13:23:30Z</time>
      </trkpt>
      <trkpt lat="45.68629" lon="5.9791">
        <ele>1503.6394042969</ele>
        <time>2012-02-11T13:23:36Z</time>
      </trkpt>
      <trkpt lat="45.68628" lon="5.97911">
        <ele>1509.8876953125</ele>
        <time>2012-02-11T13:23:44Z</time>
      </trkpt>
      <trkpt lat="45.6863" lon="5.97909">
        <ele>1509.8876953125</ele>
        <time>2012-02-11T13:23:50Z</time>
      </trkpt>
      <trkpt lat="45.68628" lon="5.9791">
        <ele>1509.4072265625</ele>
        <time>2012-02-11T13:23:55Z</time>
      </trkpt>
      <trkpt lat="45.68627" lon="5.9791">
        <ele>1510.3684082031</ele>
        <time>2012-02-11T13:24:00Z</time>
      </trkpt>
      <trkpt lat="45.68623" lon="5.97908">
        <ele>1511.810546875</ele>
        <time>2012-02-11T13:24:12Z</time>
      </trkpt>
      <trkpt lat="45.68619" lon="5.9791">
        <ele>1516.6171875</ele>
        <time>2012-02-11T13:24:30Z</time>
      </trkpt>
      <trkpt lat="45.6862" lon="5.97907">
        <ele>1504.6005859375</ele>
        <time>2012-02-11T13:24:57Z</time>
      </trkpt>
      <trkpt lat="45.68623" lon="5.97906">
        <ele>1501.716796875</ele>
        <time>2012-02-11T13:25:12Z</time>
      </trkpt>
      <trkpt lat="45.68624" lon="5.97906">
        <ele>1497.390625</ele>
        <time>2012-02-11T13:25:26Z</time>
      </trkpt>
      <trkpt lat="45.68624" lon="5.97907">
        <ele>1499.7939453125</ele>
        <time>2012-02-11T13:25:31Z</time>
      </trkpt>
      <trkpt lat="45.68627" lon="5.97907">
        <ele>1496.4294433594</ele>
        <time>2012-02-11T13:25:46Z</time>
      </trkpt>
      <trkpt lat="45.68628" lon="5.97905">
        <ele>1498.8325195312</ele>
        <time>2012-02-11T13:25:51Z</time>
      </trkpt>
      <trkpt lat="45.6863" lon="5.97909">
        <ele>1500.2749023438</ele>
        <time>2012-02-11T13:25:55Z</time>
      </trkpt>
      <trkpt lat="45.68629" lon="5.97909">
        <ele>1503.1586914062</ele>
        <time>2012-02-11T13:25:59Z</time>
      </trkpt>
      <trkpt lat="45.68628" lon="5.97908">
        <ele>1505.5620117188</ele>
        <time>2012-02-11T13:26:04Z</time>
      </trkpt>
      <trkpt lat="45.68628" lon="5.97908">
        <ele>1507.4846191406</ele>
        <time>2012-02-11T13:26:15Z</time>
      </trkpt>
      <trkpt lat="45.68628" lon="5.97907">
        <ele>1506.5231933594</ele>
        <time>2012-02-11T13:26:22Z</time>
      </trkpt>
      <trkpt lat="45.68628" lon="5.97907">
        <ele>1505.5620117188</ele>
        <time>2012-02-11T13:26:35Z</time>
      </trkpt>
      <trkpt lat="45.68628" lon="5.97908">
        <ele>1507.00390625</ele>
        <time>2012-02-11T13:26:44Z</time>
      </trkpt>
      <trkpt lat="45.68627" lon="5.97909">
        <ele>1508.4458007812</ele>
        <time>2012-02-11T13:26:49Z</time>
      </trkpt>
      <trkpt lat="45.68627" lon="5.97911">
        <ele>1510.3684082031</ele>
        <time>2012-02-11T13:26:54Z</time>
      </trkpt>
      <trkpt lat="45.68627" lon="5.9791">
        <ele>1509.8876953125</ele>
        <time>2012-02-11T13:27:02Z</time>
      </trkpt>
      <trkpt lat="45.68627" lon="5.97911">
        <ele>1512.7717285156</ele>
        <time>2012-02-11T13:27:17Z</time>
      </trkpt>
      <trkpt lat="45.68623" lon="5.97912">
        <ele>1522.8657226562</ele>
        <time>2012-02-11T13:27:41Z</time>
      </trkpt>
      <trkpt lat="45.68623" lon="5.97914">
        <ele>1519.0205078125</ele>
        <time>2012-02-11T13:27:58Z</time>
      </trkpt>
      <trkpt lat="45.68623" lon="5.97913">
        <ele>1516.1364746094</ele>
        <time>2012-02-11T13:28:09Z</time>
      </trkpt>
      <trkpt lat="45.68626" lon="5.97911">
        <ele>1510.3684082031</ele>
        <time>2012-02-11T13:28:25Z</time>
      </trkpt>
      <trkpt lat="45.68629" lon="5.9791">
        <ele>1502.6779785156</ele>
        <time>2012-02-11T13:28:37Z</time>
      </trkpt>
      <trkpt lat="45.68628" lon="5.97909">
        <ele>1502.197265625</ele>
        <time>2012-02-11T13:28:53Z</time>
      </trkpt>
      <trkpt lat="45.68628" lon="5.97909">
        <ele>1501.2360839844</ele>
        <time>2012-02-11T13:28:55Z</time>
      </trkpt>
      <trkpt lat="45.6863" lon="5.97912">
        <ele>1494.0261230469</ele>
        <time>2012-02-11T13:29:01Z</time>
      </trkpt>
      <trkpt lat="45.68632" lon="5.97906">
        <ele>1500.2749023438</ele>
        <time>2012-02-11T13:29:19Z</time>
      </trkpt>
      <trkpt lat="45.68631" lon="5.97908">
        <ele>1493.5454101562</ele>
        <time>2012-02-11T13:29:30Z</time>
      </trkpt>
      <trkpt lat="45.68631" lon="5.97908">
        <ele>1495.4680175781</ele>
        <time>2012-02-11T13:29:35Z</time>
      </trkpt>
      <trkpt lat="45.68631" lon="5.97908">
        <ele>1496.9099121094</ele>
        <time>2012-02-11T13:29:40Z</time>
      </trkpt>
      <trkpt lat="45.68631" lon="5.97907">
        <ele>1499.3132324219</ele>
        <time>2012-02-11T13:29:45Z</time>
      </trkpt>
      <trkpt lat="45.68631" lon="5.97907">
        <ele>1499.7939453125</ele>
        <time>2012-02-11T13:29:47Z</time>
      </trkpt>
      <trkpt lat="45.68628" lon="5.97908">
        <ele>1503.1586914062</ele>
        <time>2012-02-11T13:29:52Z</time>
      </trkpt>
      <trkpt lat="45.68625" lon="5.97909">
        <ele>1507.00390625</ele>
        <time>2012-02-11T13:29:59Z</time>
      </trkpt>
      <trkpt lat="45.68625" lon="5.97909">
        <ele>1506.5231933594</ele>
        <time>2012-02-11T13:30:02Z</time>
      </trkpt>
      <trkpt lat="45.68623" lon="5.9791">
        <ele>1510.3684082031</ele>
        <time>2012-02-11T13:30:13Z</time>
      </trkpt>
      <trkpt lat="45.68623" lon="5.97912">
        <ele>1509.4072265625</ele>
        <time>2012-02-11T13:30:26Z</time>
      </trkpt>
      <trkpt lat="45.68625" lon="5.97913">
        <ele>1507.9653320312</ele>
        <time>2012-02-11T13:30:33Z</time>
      </trkpt>
      <trkpt lat="45.68625" lon="5.97917">
        <ele>1507.9653320312</ele>
        <time>2012-02-11T13:30:42Z</time>
      </trkpt>
      <trkpt lat="45.68626" lon="5.97919">
        <ele>1506.5231933594</ele>
        <time>2012-02-11T13:30:48Z</time>
      </trkpt>
      <trkpt lat="45.68629" lon="5.97923">
        <ele>1507.9653320312</ele>
        <time>2012-02-11T13:30:54Z</time>
      </trkpt>
      <trkpt lat="45.68629" lon="5.97929">
        <ele>1507.00390625</ele>
        <time>2012-02-11T13:30:59Z</time>
      </trkpt>
      <trkpt lat="45.68626" lon="5.97932">
        <ele>1508.4458007812</ele>
        <time>2012-02-11T13:31:04Z</time>
      </trkpt>
      <trkpt lat="45.68623" lon="5.97937">
        <ele>1511.810546875</ele>
        <time>2012-02-11T13:31:09Z</time>
      </trkpt>
      <trkpt lat="45.68622" lon="5.97941">
        <ele>1512.291015625</ele>
        <time>2012-02-11T13:31:13Z</time>
      </trkpt>
      <trkpt lat="45.68621" lon="5.97945">
        <ele>1512.7717285156</ele>
        <time>2012-02-11T13:31:17Z</time>
      </trkpt>
      <trkpt lat="45.68618" lon="5.97947">
        <ele>1514.6943359375</ele>
        <time>2012-02-11T13:31:22Z</time>
      </trkpt>
      <trkpt lat="45.68616" lon="5.97952">
        <ele>1512.7717285156</ele>
        <time>2012-02-11T13:31:28Z</time>
      </trkpt>
      <trkpt lat="45.68614" lon="5.97957">
        <ele>1512.7717285156</ele>
        <time>2012-02-11T13:31:35Z</time>
      </trkpt>
      <trkpt lat="45.68613" lon="5.97964">
        <ele>1509.4072265625</ele>
        <time>2012-02-11T13:31:42Z</time>
      </trkpt>
      <trkpt lat="45.68611" lon="5.97971">
        <ele>1510.8491210938</ele>
        <time>2012-02-11T13:31:48Z</time>
      </trkpt>
      <trkpt lat="45.6861" lon="5.97975">
        <ele>1511.3298339844</ele>
        <time>2012-02-11T13:31:52Z</time>
      </trkpt>
      <trkpt lat="45.68607" lon="5.97981">
        <ele>1513.7329101562</ele>
        <time>2012-02-11T13:31:57Z</time>
      </trkpt>
      <trkpt lat="45.68605" lon="5.97984">
        <ele>1513.7329101562</ele>
        <time>2012-02-11T13:32:01Z</time>
      </trkpt>
      <trkpt lat="45.68603" lon="5.97989">
        <ele>1513.2524414062</ele>
        <time>2012-02-11T13:32:07Z</time>
      </trkpt>
      <trkpt lat="45.68602" lon="5.97992">
        <ele>1512.7717285156</ele>
        <time>2012-02-11T13:32:11Z</time>
      </trkpt>
      <trkpt lat="45.68601" lon="5.97995">
        <ele>1512.291015625</ele>
        <time>2012-02-11T13:32:16Z</time>
      </trkpt>
      <trkpt lat="45.68599" lon="5.97997">
        <ele>1515.1750488281</ele>
        <time>2012-02-11T13:32:21Z</time>
      </trkpt>
      <trkpt lat="45.68597" lon="5.98001">
        <ele>1513.7329101562</ele>
        <time>2012-02-11T13:32:26Z</time>
      </trkpt>
      <trkpt lat="45.68595" lon="5.98004">
        <ele>1512.7717285156</ele>
        <time>2012-02-11T13:32:31Z</time>
      </trkpt>
      <trkpt lat="45.68594" lon="5.98007">
        <ele>1511.810546875</ele>
        <time>2012-02-11T13:32:36Z</time>
      </trkpt>
      <trkpt lat="45.68591" lon="5.98011">
        <ele>1510.8491210938</ele>
        <time>2012-02-11T13:32:43Z</time>
      </trkpt>
      <trkpt lat="45.6859" lon="5.98012">
        <ele>1512.291015625</ele>
        <time>2012-02-11T13:32:48Z</time>
      </trkpt>
      <trkpt lat="45.68588" lon="5.98014">
        <ele>1511.810546875</ele>
        <time>2012-02-11T13:32:51Z</time>
      </trkpt>
      <trkpt lat="45.68585" lon="5.98017">
        <ele>1511.3298339844</ele>
        <time>2012-02-11T13:32:57Z</time>
      </trkpt>
      <trkpt lat="45.68584" lon="5.98022">
        <ele>1510.8491210938</ele>
        <time>2012-02-11T13:33:03Z</time>
      </trkpt>
      <trkpt lat="45.68581" lon="5.98026">
        <ele>1510.8491210938</ele>
        <time>2012-02-11T13:33:08Z</time>
      </trkpt>
      <trkpt lat="45.68577" lon="5.9803">
        <ele>1511.810546875</ele>
        <time>2012-02-11T13:33:13Z</time>
      </trkpt>
      <trkpt lat="45.68573" lon="5.98035">
        <ele>1512.7717285156</ele>
        <time>2012-02-11T13:33:18Z</time>
      </trkpt>
      <trkpt lat="45.68571" lon="5.98037">
        <ele>1512.291015625</ele>
        <time>2012-02-11T13:33:21Z</time>
      </trkpt>
      <trkpt lat="45.68567" lon="5.98041">
        <ele>1513.2524414062</ele>
        <time>2012-02-11T13:33:27Z</time>
      </trkpt>
      <trkpt lat="45.68563" lon="5.98046">
        <ele>1514.6943359375</ele>
        <time>2012-02-11T13:33:33Z</time>
      </trkpt>
      <trkpt lat="45.68557" lon="5.9805">
        <ele>1513.7329101562</ele>
        <time>2012-02-11T13:33:38Z</time>
      </trkpt>
      <trkpt lat="45.68552" lon="5.98055">
        <ele>1514.2136230469</ele>
        <time>2012-02-11T13:33:44Z</time>
      </trkpt>
      <trkpt lat="45.6855" lon="5.98057">
        <ele>1513.7329101562</ele>
        <time>2012-02-11T13:33:46Z</time>
      </trkpt>
      <trkpt lat="45.68549" lon="5.9806">
        <ele>1513.7329101562</ele>
        <time>2012-02-11T13:33:49Z</time>
      </trkpt>
      <trkpt lat="45.68546" lon="5.98066">
        <ele>1513.2524414062</ele>
        <time>2012-02-11T13:33:55Z</time>
      </trkpt>
      <trkpt lat="45.68542" lon="5.98072">
        <ele>1513.7329101562</ele>
        <time>2012-02-11T13:34:00Z</time>
      </trkpt>
      <trkpt lat="45.68538" lon="5.98078">
        <ele>1514.2136230469</ele>
        <time>2012-02-11T13:34:06Z</time>
      </trkpt>
      <trkpt lat="45.68532" lon="5.98085">
        <ele>1513.7329101562</ele>
        <time>2012-02-11T13:34:13Z</time>
      </trkpt>
      <trkpt lat="45.68531" lon="5.9809">
        <ele>1513.7329101562</ele>
        <time>2012-02-11T13:34:17Z</time>
      </trkpt>
      <trkpt lat="45.68528" lon="5.98093">
        <ele>1516.1364746094</ele>
        <time>2012-02-11T13:34:23Z</time>
      </trkpt>
      <trkpt lat="45.68526" lon="5.98099">
        <ele>1517.0979003906</ele>
        <time>2012-02-11T13:34:38Z</time>
      </trkpt>
      <trkpt lat="45.68525" lon="5.98103">
        <ele>1518.0590820312</ele>
        <time>2012-02-11T13:34:42Z</time>
      </trkpt>
      <trkpt lat="45.68522" lon="5.98107">
        <ele>1518.5397949219</ele>
        <time>2012-02-11T13:34:46Z</time>
      </trkpt>
      <trkpt lat="45.6852" lon="5.98113">
        <ele>1518.0590820312</ele>
        <time>2012-02-11T13:34:51Z</time>
      </trkpt>
      <trkpt lat="45.68515" lon="5.98121">
        <ele>1516.6171875</ele>
        <time>2012-02-11T13:34:57Z</time>
      </trkpt>
      <trkpt lat="45.68511" lon="5.98127">
        <ele>1514.6943359375</ele>
        <time>2012-02-11T13:35:02Z</time>
      </trkpt>
      <trkpt lat="45.68509" lon="5.9813">
        <ele>1513.2524414062</ele>
        <time>2012-02-11T13:35:05Z</time>
      </trkpt>
      <trkpt lat="45.68506" lon="5.98136">
        <ele>1512.291015625</ele>
        <time>2012-02-11T13:35:10Z</time>
      </trkpt>
      <trkpt lat="45.68502" lon="5.98142">
        <ele>1511.810546875</ele>
        <time>2012-02-11T13:35:16Z</time>
      </trkpt>
      <trkpt lat="45.68502" lon="5.98141">
        <ele>1511.810546875</ele>
        <time>2012-02-11T13:35:23Z</time>
      </trkpt>
      <trkpt lat="45.68502" lon="5.98139">
        <ele>1512.291015625</ele>
        <time>2012-02-11T13:35:32Z</time>
      </trkpt>
      <trkpt lat="45.685" lon="5.98136">
        <ele>1512.291015625</ele>
        <time>2012-02-11T13:35:38Z</time>
      </trkpt>
      <trkpt lat="45.68501" lon="5.98139">
        <ele>1511.810546875</ele>
        <time>2012-02-11T13:35:45Z</time>
      </trkpt>
      <trkpt lat="45.68501" lon="5.9814">
        <ele>1511.810546875</ele>
        <time>2012-02-11T13:35:46Z</time>
      </trkpt>
      <trkpt lat="45.68499" lon="5.98148">
        <ele>1511.3298339844</ele>
        <time>2012-02-11T13:35:51Z</time>
      </trkpt>
      <trkpt lat="45.68501" lon="5.98149">
        <ele>1510.8491210938</ele>
        <time>2012-02-11T13:35:58Z</time>
      </trkpt>
      <trkpt lat="45.685" lon="5.98148">
        <ele>1510.8491210938</ele>
        <time>2012-02-11T13:36:03Z</time>
      </trkpt>
      <trkpt lat="45.68496" lon="5.98151">
        <ele>1510.3684082031</ele>
        <time>2012-02-11T13:36:07Z</time>
      </trkpt>
      <trkpt lat="45.68492" lon="5.98156">
        <ele>1511.3298339844</ele>
        <time>2012-02-11T13:36:13Z</time>
      </trkpt>
      <trkpt lat="45.68491" lon="5.98158">
        <ele>1512.291015625</ele>
        <time>2012-02-11T13:36:17Z</time>
      </trkpt>
      <trkpt lat="45.68492" lon="5.98157">
        <ele>1512.291015625</ele>
        <time>2012-02-11T13:36:25Z</time>
      </trkpt>
      <trkpt lat="45.68493" lon="5.98158">
        <ele>1512.291015625</ele>
        <time>2012-02-11T13:36:30Z</time>
      </trkpt>
      <trkpt lat="45.68493" lon="5.98168">
        <ele>1511.3298339844</ele>
        <time>2012-02-11T13:36:34Z</time>
      </trkpt>
      <trkpt lat="45.68494" lon="5.98177">
        <ele>1510.8491210938</ele>
        <time>2012-02-11T13:36:39Z</time>
      </trkpt>
      <trkpt lat="45.68494" lon="5.98186">
        <ele>1510.3684082031</ele>
        <time>2012-02-11T13:36:43Z</time>
      </trkpt>
      <trkpt lat="45.68493" lon="5.98196">
        <ele>1508.9265136719</ele>
        <time>2012-02-11T13:36:48Z</time>
      </trkpt>
      <trkpt lat="45.68493" lon="5.98201">
        <ele>1507.00390625</ele>
        <time>2012-02-11T13:36:53Z</time>
      </trkpt>
      <trkpt lat="45.68492" lon="5.98203">
        <ele>1507.00390625</ele>
        <time>2012-02-11T13:36:58Z</time>
      </trkpt>
      <trkpt lat="45.68492" lon="5.98206">
        <ele>1507.4846191406</ele>
        <time>2012-02-11T13:37:05Z</time>
      </trkpt>
      <trkpt lat="45.6849" lon="5.98211">
        <ele>1507.00390625</ele>
        <time>2012-02-11T13:37:09Z</time>
      </trkpt>
      <trkpt lat="45.68489" lon="5.98215">
        <ele>1505.5620117188</ele>
        <time>2012-02-11T13:37:15Z</time>
      </trkpt>
      <trkpt lat="45.68484" lon="5.98224">
        <ele>1504.6005859375</ele>
        <time>2012-02-11T13:37:23Z</time>
      </trkpt>
      <trkpt lat="45.68482" lon="5.98228">
        <ele>1505.0812988281</ele>
        <time>2012-02-11T13:37:26Z</time>
      </trkpt>
      <trkpt lat="45.6848" lon="5.98229">
        <ele>1504.6005859375</ele>
        <time>2012-02-11T13:37:31Z</time>
      </trkpt>
      <trkpt lat="45.68479" lon="5.98229">
        <ele>1502.6779785156</ele>
        <time>2012-02-11T13:37:44Z</time>
      </trkpt>
      <trkpt lat="45.68479" lon="5.98224">
        <ele>1501.716796875</ele>
        <time>2012-02-11T13:37:50Z</time>
      </trkpt>
      <trkpt lat="45.68481" lon="5.98221">
        <ele>1501.2360839844</ele>
        <time>2012-02-11T13:37:53Z</time>
      </trkpt>
      <trkpt lat="45.68485" lon="5.98214">
        <ele>1501.716796875</ele>
        <time>2012-02-11T13:37:58Z</time>
      </trkpt>
      <trkpt lat="45.68486" lon="5.98213">
        <ele>1503.1586914062</ele>
        <time>2012-02-11T13:38:02Z</time>
      </trkpt>
      <trkpt lat="45.68486" lon="5.9821">
        <ele>1504.1201171875</ele>
        <time>2012-02-11T13:38:08Z</time>
      </trkpt>
      <trkpt lat="45.68492" lon="5.98205">
        <ele>1504.1201171875</ele>
        <time>2012-02-11T13:38:13Z</time>
      </trkpt>
      <trkpt lat="45.68494" lon="5.98194">
        <ele>1504.1201171875</ele>
        <time>2012-02-11T13:38:20Z</time>
      </trkpt>
      <trkpt lat="45.68496" lon="5.98186">
        <ele>1505.5620117188</ele>
        <time>2012-02-11T13:38:25Z</time>
      </trkpt>
      <trkpt lat="45.68496" lon="5.98178">
        <ele>1507.4846191406</ele>
        <time>2012-02-11T13:38:30Z</time>
      </trkpt>
      <trkpt lat="45.68496" lon="5.98172">
        <ele>1508.4458007812</ele>
        <time>2012-02-11T13:38:36Z</time>
      </trkpt>
      <trkpt lat="45.68493" lon="5.9816">
        <ele>1509.8876953125</ele>
        <time>2012-02-11T13:38:43Z</time>
      </trkpt>
      <trkpt lat="45.68493" lon="5.98155">
        <ele>1511.3298339844</ele>
        <time>2012-02-11T13:38:47Z</time>
      </trkpt>
      <trkpt lat="45.68494" lon="5.9815">
        <ele>1511.3298339844</ele>
        <time>2012-02-11T13:38:52Z</time>
      </trkpt>
      <trkpt lat="45.68497" lon="5.98148">
        <ele>1511.810546875</ele>
        <time>2012-02-11T13:38:56Z</time>
      </trkpt>
      <trkpt lat="45.68498" lon="5.98146">
        <ele>1511.3298339844</ele>
        <time>2012-02-11T13:39:01Z</time>
      </trkpt>
      <trkpt lat="45.68501" lon="5.98143">
        <ele>1511.810546875</ele>
        <time>2012-02-11T13:39:07Z</time>
      </trkpt>
      <trkpt lat="45.68503" lon="5.9814">
        <ele>1511.3298339844</ele>
        <time>2012-02-11T13:39:11Z</time>
      </trkpt>
      <trkpt lat="45.68505" lon="5.98138">
        <ele>1510.8491210938</ele>
        <time>2012-02-11T13:39:15Z</time>
      </trkpt>
      <trkpt lat="45.68505" lon="5.98138">
        <ele>1510.3684082031</ele>
        <time>2012-02-11T13:39:21Z</time>
      </trkpt>
      <trkpt lat="45.68505" lon="5.98141">
        <ele>1509.8876953125</ele>
        <time>2012-02-11T13:39:26Z</time>
      </trkpt>
      <trkpt lat="45.68509" lon="5.98151">
        <ele>1508.9265136719</ele>
        <time>2012-02-11T13:39:30Z</time>
      </trkpt>
      <trkpt lat="45.68517" lon="5.98165">
        <ele>1505.5620117188</ele>
        <time>2012-02-11T13:39:36Z</time>
      </trkpt>
      <trkpt lat="45.68519" lon="5.98176">
        <ele>1504.1201171875</ele>
        <time>2012-02-11T13:39:40Z</time>
      </trkpt>
      <trkpt lat="45.6852" lon="5.98179">
        <ele>1503.6394042969</ele>
        <time>2012-02-11T13:39:45Z</time>
      </trkpt>
      <trkpt lat="45.68518" lon="5.98179">
        <ele>1503.1586914062</ele>
        <time>2012-02-11T13:39:50Z</time>
      </trkpt>
      <trkpt lat="45.68518" lon="5.9818">
        <ele>1502.6779785156</ele>
        <time>2012-02-11T13:39:56Z</time>
      </trkpt>
      <trkpt lat="45.68517" lon="5.98182">
        <ele>1503.1586914062</ele>
        <time>2012-02-11T13:40:02Z</time>
      </trkpt>
      <trkpt lat="45.68517" lon="5.98184">
        <ele>1504.1201171875</ele>
        <time>2012-02-11T13:40:07Z</time>
      </trkpt>
      <trkpt lat="45.68518" lon="5.98185">
        <ele>1504.1201171875</ele>
        <time>2012-02-11T13:40:12Z</time>
      </trkpt>
      <trkpt lat="45.68517" lon="5.98191">
        <ele>1503.6394042969</ele>
        <time>2012-02-11T13:40:16Z</time>
      </trkpt>
      <trkpt lat="45.68517" lon="5.98197">
        <ele>1503.1586914062</ele>
        <time>2012-02-11T13:40:20Z</time>
      </trkpt>
      <trkpt lat="45.68517" lon="5.982">
        <ele>1501.716796875</ele>
        <time>2012-02-11T13:40:24Z</time>
      </trkpt>
      <trkpt lat="45.68518" lon="5.98201">
        <ele>1499.3132324219</ele>
        <time>2012-02-11T13:40:30Z</time>
      </trkpt>
      <trkpt lat="45.68518" lon="5.982">
        <ele>1497.8713378906</ele>
        <time>2012-02-11T13:40:40Z</time>
      </trkpt>
      <trkpt lat="45.68522" lon="5.98207">
        <ele>1496.9099121094</ele>
        <time>2012-02-11T13:40:46Z</time>
      </trkpt>
      <trkpt lat="45.68522" lon="5.98216">
        <ele>1495.9487304688</ele>
        <time>2012-02-11T13:40:51Z</time>
      </trkpt>
      <trkpt lat="45.68524" lon="5.98226">
        <ele>1494.9873046875</ele>
        <time>2012-02-11T13:40:55Z</time>
      </trkpt>
      <trkpt lat="45.68526" lon="5.98237">
        <ele>1494.9873046875</ele>
        <time>2012-02-11T13:40:59Z</time>
      </trkpt>
      <trkpt lat="45.68528" lon="5.9824">
        <ele>1496.9099121094</ele>
        <time>2012-02-11T13:41:06Z</time>
      </trkpt>
      <trkpt lat="45.6853" lon="5.98243">
        <ele>1498.3518066406</ele>
        <time>2012-02-11T13:41:11Z</time>
      </trkpt>
      <trkpt lat="45.6853" lon="5.98245">
        <ele>1498.8325195312</ele>
        <time>2012-02-11T13:41:17Z</time>
      </trkpt>
      <trkpt lat="45.68533" lon="5.98249">
        <ele>1497.8713378906</ele>
        <time>2012-02-11T13:41:23Z</time>
      </trkpt>
      <trkpt lat="45.68533" lon="5.9825">
        <ele>1497.8713378906</ele>
        <time>2012-02-11T13:41:24Z</time>
      </trkpt>
      <trkpt lat="45.68536" lon="5.98255">
        <ele>1497.390625</ele>
        <time>2012-02-11T13:41:29Z</time>
      </trkpt>
      <trkpt lat="45.68538" lon="5.98258">
        <ele>1497.8713378906</ele>
        <time>2012-02-11T13:41:32Z</time>
      </trkpt>
      <trkpt lat="45.68539" lon="5.98266">
        <ele>1497.390625</ele>
        <time>2012-02-11T13:41:37Z</time>
      </trkpt>
      <trkpt lat="45.6854" lon="5.98275">
        <ele>1496.4294433594</ele>
        <time>2012-02-11T13:41:43Z</time>
      </trkpt>
      <trkpt lat="45.68543" lon="5.98285">
        <ele>1493.0646972656</ele>
        <time>2012-02-11T13:41:50Z</time>
      </trkpt>
      <trkpt lat="45.68543" lon="5.98289">
        <ele>1492.103515625</ele>
        <time>2012-02-11T13:41:52Z</time>
      </trkpt>
      <trkpt lat="45.68542" lon="5.98292">
        <ele>1491.6228027344</ele>
        <time>2012-02-11T13:41:56Z</time>
      </trkpt>
      <trkpt lat="45.68543" lon="5.98296">
        <ele>1491.6228027344</ele>
        <time>2012-02-11T13:42:00Z</time>
      </trkpt>
      <trkpt lat="45.68542" lon="5.983">
        <ele>1493.0646972656</ele>
        <time>2012-02-11T13:42:04Z</time>
      </trkpt>
      <trkpt lat="45.68542" lon="5.983">
        <ele>1492.5842285156</ele>
        <time>2012-02-11T13:42:05Z</time>
      </trkpt>
      <trkpt lat="45.68542" lon="5.98309">
        <ele>1492.5842285156</ele>
        <time>2012-02-11T13:42:10Z</time>
      </trkpt>
      <trkpt lat="45.68546" lon="5.98308">
        <ele>1492.103515625</ele>
        <time>2012-02-11T13:42:26Z</time>
      </trkpt>
      <trkpt lat="45.68547" lon="5.98316">
        <ele>1492.5842285156</ele>
        <time>2012-02-11T13:42:31Z</time>
      </trkpt>
      <trkpt lat="45.68547" lon="5.98319">
        <ele>1493.0646972656</ele>
        <time>2012-02-11T13:42:33Z</time>
      </trkpt>
      <trkpt lat="45.68547" lon="5.98322">
        <ele>1494.9873046875</ele>
        <time>2012-02-11T13:42:39Z</time>
      </trkpt>
      <trkpt lat="45.68546" lon="5.98325">
        <ele>1497.8713378906</ele>
        <time>2012-02-11T13:42:50Z</time>
      </trkpt>
      <trkpt lat="45.68546" lon="5.98326">
        <ele>1498.8325195312</ele>
        <time>2012-02-11T13:42:57Z</time>
      </trkpt>
      <trkpt lat="45.68547" lon="5.98326">
        <ele>1499.7939453125</ele>
        <time>2012-02-11T13:42:59Z</time>
      </trkpt>
      <trkpt lat="45.68551" lon="5.98327">
        <ele>1497.8713378906</ele>
        <time>2012-02-11T13:43:02Z</time>
      </trkpt>
      <trkpt lat="45.68556" lon="5.98327">
        <ele>1496.4294433594</ele>
        <time>2012-02-11T13:43:06Z</time>
      </trkpt>
      <trkpt lat="45.68556" lon="5.98329">
        <ele>1496.4294433594</ele>
        <time>2012-02-11T13:43:11Z</time>
      </trkpt>
      <trkpt lat="45.68558" lon="5.98325">
        <ele>1495.4680175781</ele>
        <time>2012-02-11T13:43:15Z</time>
      </trkpt>
      <trkpt lat="45.68565" lon="5.98324">
        <ele>1494.0261230469</ele>
        <time>2012-02-11T13:43:19Z</time>
      </trkpt>
      <trkpt lat="45.6857" lon="5.98322">
        <ele>1492.5842285156</ele>
        <time>2012-02-11T13:43:23Z</time>
      </trkpt>
      <trkpt lat="45.68572" lon="5.98322">
        <ele>1491.6228027344</ele>
        <time>2012-02-11T13:43:27Z</time>
      </trkpt>
      <trkpt lat="45.68578" lon="5.98323">
        <ele>1492.103515625</ele>
        <time>2012-02-11T13:43:32Z</time>
      </trkpt>
      <trkpt lat="45.6858" lon="5.98322">
        <ele>1491.1420898438</ele>
        <time>2012-02-11T13:43:38Z</time>
      </trkpt>
      <trkpt lat="45.68584" lon="5.98318">
        <ele>1489.7001953125</ele>
        <time>2012-02-11T13:43:43Z</time>
      </trkpt>
      <trkpt lat="45.68588" lon="5.98314">
        <ele>1489.2194824219</ele>
        <time>2012-02-11T13:43:47Z</time>
      </trkpt>
      <trkpt lat="45.68589" lon="5.98311">
        <ele>1489.7001953125</ele>
        <time>2012-02-11T13:43:49Z</time>
      </trkpt>
      <trkpt lat="45.68594" lon="5.98305">
        <ele>1490.1809082031</ele>
        <time>2012-02-11T13:43:54Z</time>
      </trkpt>
      <trkpt lat="45.68597" lon="5.98301">
        <ele>1489.7001953125</ele>
        <time>2012-02-11T13:43:58Z</time>
      </trkpt>
      <trkpt lat="45.68604" lon="5.98296">
        <ele>1488.7390136719</ele>
        <time>2012-02-11T13:44:04Z</time>
      </trkpt>
      <trkpt lat="45.68606" lon="5.98294">
        <ele>1488.7390136719</ele>
        <time>2012-02-11T13:44:06Z</time>
      </trkpt>
      <trkpt lat="45.6861" lon="5.9829">
        <ele>1488.7390136719</ele>
        <time>2012-02-11T13:44:11Z</time>
      </trkpt>
      <trkpt lat="45.68616" lon="5.98287">
        <ele>1489.2194824219</ele>
        <time>2012-02-11T13:44:17Z</time>
      </trkpt>
      <trkpt lat="45.68623" lon="5.98285">
        <ele>1489.7001953125</ele>
        <time>2012-02-11T13:44:22Z</time>
      </trkpt>
      <trkpt lat="45.68624" lon="5.98285">
        <ele>1489.7001953125</ele>
        <time>2012-02-11T13:44:23Z</time>
      </trkpt>
      <trkpt lat="45.68629" lon="5.98284">
        <ele>1490.1809082031</ele>
        <time>2012-02-11T13:44:27Z</time>
      </trkpt>
      <trkpt lat="45.68632" lon="5.98284">
        <ele>1490.1809082031</ele>
        <time>2012-02-11T13:44:29Z</time>
      </trkpt>
      <trkpt lat="45.68634" lon="5.98283">
        <ele>1490.1809082031</ele>
        <time>2012-02-11T13:44:33Z</time>
      </trkpt>
      <trkpt lat="45.68637" lon="5.98282">
        <ele>1490.6613769531</ele>
        <time>2012-02-11T13:44:39Z</time>
      </trkpt>
      <trkpt lat="45.68641" lon="5.98282">
        <ele>1491.1420898438</ele>
        <time>2012-02-11T13:44:43Z</time>
      </trkpt>
      <trkpt lat="45.68644" lon="5.9828">
        <ele>1492.103515625</ele>
        <time>2012-02-11T13:44:46Z</time>
      </trkpt>
      <trkpt lat="45.68647" lon="5.9828">
        <ele>1492.103515625</ele>
        <time>2012-02-11T13:44:49Z</time>
      </trkpt>
      <trkpt lat="45.68649" lon="5.98279">
        <ele>1491.6228027344</ele>
        <time>2012-02-11T13:44:51Z</time>
      </trkpt>
      <trkpt lat="45.68656" lon="5.98277">
        <ele>1490.1809082031</ele>
        <time>2012-02-11T13:44:59Z</time>
      </trkpt>
      <trkpt lat="45.6866" lon="5.98277">
        <ele>1490.1809082031</ele>
        <time>2012-02-11T13:45:03Z</time>
      </trkpt>
      <trkpt lat="45.68666" lon="5.98277">
        <ele>1490.1809082031</ele>
        <time>2012-02-11T13:45:08Z</time>
      </trkpt>
      <trkpt lat="45.68668" lon="5.98277">
        <ele>1490.1809082031</ele>
        <time>2012-02-11T13:45:10Z</time>
      </trkpt>
      <trkpt lat="45.68675" lon="5.98278">
        <ele>1491.6228027344</ele>
        <time>2012-02-11T13:45:16Z</time>
      </trkpt>
      <trkpt lat="45.68678" lon="5.9828">
        <ele>1490.6613769531</ele>
        <time>2012-02-11T13:45:19Z</time>
      </trkpt>
      <trkpt lat="45.68678" lon="5.98281">
        <ele>1490.1809082031</ele>
        <time>2012-02-11T13:45:25Z</time>
      </trkpt>
      <trkpt lat="45.68678" lon="5.98281">
        <ele>1490.1809082031</ele>
        <time>2012-02-11T13:45:35Z</time>
      </trkpt>
      <trkpt lat="45.68677" lon="5.98281">
        <ele>1489.7001953125</ele>
        <time>2012-02-11T13:45:41Z</time>
      </trkpt>
      <trkpt lat="45.68677" lon="5.98281">
        <ele>1489.7001953125</ele>
        <time>2012-02-11T13:45:58Z</time>
      </trkpt>
      <trkpt lat="45.68678" lon="5.98282">
        <ele>1489.7001953125</ele>
        <time>2012-02-11T13:46:08Z</time>
      </trkpt>
      <trkpt lat="45.6868" lon="5.98282">
        <ele>1488.7390136719</ele>
        <time>2012-02-11T13:46:15Z</time>
      </trkpt>
      <trkpt lat="45.68682" lon="5.98282">
        <ele>1488.2583007812</ele>
        <time>2012-02-11T13:46:21Z</time>
      </trkpt>
      <trkpt lat="45.68686" lon="5.98283">
        <ele>1487.7775878906</ele>
        <time>2012-02-11T13:46:27Z</time>
      </trkpt>
      <trkpt lat="45.6869" lon="5.98283">
        <ele>1487.296875</ele>
        <time>2012-02-11T13:46:32Z</time>
      </trkpt>
      <trkpt lat="45.68694" lon="5.98283">
        <ele>1485.8549804688</ele>
        <time>2012-02-11T13:46:40Z</time>
      </trkpt>
      <trkpt lat="45.68695" lon="5.98284">
        <ele>1485.8549804688</ele>
        <time>2012-02-11T13:46:41Z</time>
      </trkpt>
      <trkpt lat="45.68707" lon="5.98286">
        <ele>1483.9321289062</ele>
        <time>2012-02-11T13:46:48Z</time>
      </trkpt>
      <trkpt lat="45.68717" lon="5.98287">
        <ele>1482.490234375</ele>
        <time>2012-02-11T13:46:53Z</time>
      </trkpt>
      <trkpt lat="45.68731" lon="5.98287">
        <ele>1479.6062011719</ele>
        <time>2012-02-11T13:46:57Z</time>
      </trkpt>
      <trkpt lat="45.68753" lon="5.98291">
        <ele>1474.3190917969</ele>
        <time>2012-02-11T13:47:02Z</time>
      </trkpt>
      <trkpt lat="45.68758" lon="5.98292">
        <ele>1472.8771972656</ele>
        <time>2012-02-11T13:47:03Z</time>
      </trkpt>
      <trkpt lat="45.6878" lon="5.98308">
        <ele>1468.0705566406</ele>
        <time>2012-02-11T13:47:08Z</time>
      </trkpt>
      <trkpt lat="45.68783" lon="5.9831">
        <ele>1467.5895996094</ele>
        <time>2012-02-11T13:47:09Z</time>
      </trkpt>
      <trkpt lat="45.68791" lon="5.98318">
        <ele>1464.2250976562</ele>
        <time>2012-02-11T13:47:15Z</time>
      </trkpt>
      <trkpt lat="45.68793" lon="5.98317">
        <ele>1466.1477050781</ele>
        <time>2012-02-11T13:47:22Z</time>
      </trkpt>
      <trkpt lat="45.68795" lon="5.98317">
        <ele>1468.0705566406</ele>
        <time>2012-02-11T13:47:40Z</time>
      </trkpt>
      <trkpt lat="45.68796" lon="5.98318">
        <ele>1466.6284179688</ele>
        <time>2012-02-11T13:47:45Z</time>
      </trkpt>
      <trkpt lat="45.68812" lon="5.98328">
        <ele>1461.8220214844</ele>
        <time>2012-02-11T13:47:51Z</time>
      </trkpt>
      <trkpt lat="45.68831" lon="5.98343">
        <ele>1456.0539550781</ele>
        <time>2012-02-11T13:47:56Z</time>
      </trkpt>
      <trkpt lat="45.68843" lon="5.98354">
        <ele>1452.689453125</ele>
        <time>2012-02-11T13:47:59Z</time>
      </trkpt>
      <trkpt lat="45.68856" lon="5.9837">
        <ele>1448.8439941406</ele>
        <time>2012-02-11T13:48:03Z</time>
      </trkpt>
      <trkpt lat="45.68869" lon="5.98387">
        <ele>1446.4409179688</ele>
        <time>2012-02-11T13:48:07Z</time>
      </trkpt>
      <trkpt lat="45.68877" lon="5.98407">
        <ele>1443.076171875</ele>
        <time>2012-02-11T13:48:11Z</time>
      </trkpt>
      <trkpt lat="45.68887" lon="5.9843">
        <ele>1438.2697753906</ele>
        <time>2012-02-11T13:48:16Z</time>
      </trkpt>
      <trkpt lat="45.68895" lon="5.98444">
        <ele>1436.8276367188</ele>
        <time>2012-02-11T13:48:19Z</time>
      </trkpt>
      <trkpt lat="45.68908" lon="5.98465">
        <ele>1433.9436035156</ele>
        <time>2012-02-11T13:48:24Z</time>
      </trkpt>
      <trkpt lat="45.68924" lon="5.98483">
        <ele>1431.0598144531</ele>
        <time>2012-02-11T13:48:29Z</time>
      </trkpt>
      <trkpt lat="45.68928" lon="5.98487">
        <ele>1430.5791015625</ele>
        <time>2012-02-11T13:48:30Z</time>
      </trkpt>
      <trkpt lat="45.68946" lon="5.98506">
        <ele>1426.2531738281</ele>
        <time>2012-02-11T13:48:35Z</time>
      </trkpt>
      <trkpt lat="45.68961" lon="5.98525">
        <ele>1424.3305664062</ele>
        <time>2012-02-11T13:48:39Z</time>
      </trkpt>
      <trkpt lat="45.68967" lon="5.98538">
        <ele>1420.0046386719</ele>
        <time>2012-02-11T13:48:42Z</time>
      </trkpt>
      <trkpt lat="45.68969" lon="5.98542">
        <ele>1418.5625</ele>
        <time>2012-02-11T13:48:43Z</time>
      </trkpt>
      <trkpt lat="45.68987" lon="5.98576">
        <ele>1410.8720703125</ele>
        <time>2012-02-11T13:48:51Z</time>
      </trkpt>
      <trkpt lat="45.68993" lon="5.98589">
        <ele>1407.98828125</ele>
        <time>2012-02-11T13:48:55Z</time>
      </trkpt>
      <trkpt lat="45.68991" lon="5.9859">
        <ele>1406.0654296875</ele>
        <time>2012-02-11T13:48:59Z</time>
      </trkpt>
      <trkpt lat="45.68993" lon="5.98589">
        <ele>1409.9106445312</ele>
        <time>2012-02-11T13:49:13Z</time>
      </trkpt>
      <trkpt lat="45.68995" lon="5.98588">
        <ele>1413.755859375</ele>
        <time>2012-02-11T13:49:19Z</time>
      </trkpt>
      <trkpt lat="45.68993" lon="5.98587">
        <ele>1413.275390625</ele>
        <time>2012-02-11T13:49:29Z</time>
      </trkpt>
      <trkpt lat="45.68992" lon="5.98588">
        <ele>1413.755859375</ele>
        <time>2012-02-11T13:49:37Z</time>
      </trkpt>
      <trkpt lat="45.68992" lon="5.98589">
        <ele>1412.7946777344</ele>
        <time>2012-02-11T13:49:43Z</time>
      </trkpt>
      <trkpt lat="45.68995" lon="5.9859">
        <ele>1415.6787109375</ele>
        <time>2012-02-11T13:49:52Z</time>
      </trkpt>
      <trkpt lat="45.68993" lon="5.98591">
        <ele>1412.7946777344</ele>
        <time>2012-02-11T13:49:59Z</time>
      </trkpt>
      <trkpt lat="45.68994" lon="5.98591">
        <ele>1413.755859375</ele>
        <time>2012-02-11T13:50:08Z</time>
      </trkpt>
      <trkpt lat="45.68992" lon="5.9859">
        <ele>1414.2365722656</ele>
        <time>2012-02-11T13:50:11Z</time>
      </trkpt>
      <trkpt lat="45.68991" lon="5.9859">
        <ele>1412.7946777344</ele>
        <time>2012-02-11T13:50:22Z</time>
      </trkpt>
      <trkpt lat="45.68993" lon="5.98595">
        <ele>1410.8720703125</ele>
        <time>2012-02-11T13:50:26Z</time>
      </trkpt>
      <trkpt lat="45.69" lon="5.98612">
        <ele>1407.5075683594</ele>
        <time>2012-02-11T13:50:33Z</time>
      </trkpt>
      <trkpt lat="45.69012" lon="5.9863">
        <ele>1404.1430664062</ele>
        <time>2012-02-11T13:50:40Z</time>
      </trkpt>
      <trkpt lat="45.69017" lon="5.98637">
        <ele>1402.2199707031</ele>
        <time>2012-02-11T13:50:45Z</time>
      </trkpt>
      <trkpt lat="45.69029" lon="5.98655">
        <ele>1397.8942871094</ele>
        <time>2012-02-11T13:50:51Z</time>
      </trkpt>
      <trkpt lat="45.69044" lon="5.98675">
        <ele>1393.0876464844</ele>
        <time>2012-02-11T13:50:56Z</time>
      </trkpt>
      <trkpt lat="45.69061" lon="5.987">
        <ele>1387.3195800781</ele>
        <time>2012-02-11T13:51:02Z</time>
      </trkpt>
      <trkpt lat="45.69065" lon="5.98704">
        <ele>1386.3583984375</ele>
        <time>2012-02-11T13:51:03Z</time>
      </trkpt>
      <trkpt lat="45.69084" lon="5.98724">
        <ele>1381.5517578125</ele>
        <time>2012-02-11T13:51:08Z</time>
      </trkpt>
      <trkpt lat="45.69108" lon="5.9874">
        <ele>1376.7453613281</ele>
        <time>2012-02-11T13:51:14Z</time>
      </trkpt>
      <trkpt lat="45.69115" lon="5.98748">
        <ele>1374.8227539062</ele>
        <time>2012-02-11T13:51:16Z</time>
      </trkpt>
      <trkpt lat="45.69125" lon="5.9876">
        <ele>1371.4577636719</ele>
        <time>2012-02-11T13:51:19Z</time>
      </trkpt>
      <trkpt lat="45.6913" lon="5.98769">
        <ele>1369.0546875</ele>
        <time>2012-02-11T13:51:21Z</time>
      </trkpt>
      <trkpt lat="45.69138" lon="5.98788">
        <ele>1363.2868652344</ele>
        <time>2012-02-11T13:51:25Z</time>
      </trkpt>
      <trkpt lat="45.69145" lon="5.98805">
        <ele>1360.8835449219</ele>
        <time>2012-02-11T13:51:28Z</time>
      </trkpt>
      <trkpt lat="45.6916" lon="5.98831">
        <ele>1356.0769042969</ele>
        <time>2012-02-11T13:51:33Z</time>
      </trkpt>
      <trkpt lat="45.69177" lon="5.98866">
        <ele>1349.34765625</ele>
        <time>2012-02-11T13:51:39Z</time>
      </trkpt>
      <trkpt lat="45.6918" lon="5.98872">
        <ele>1347.4250488281</ele>
        <time>2012-02-11T13:51:40Z</time>
      </trkpt>
      <trkpt lat="45.69189" lon="5.98888">
        <ele>1345.0217285156</ele>
        <time>2012-02-11T13:51:43Z</time>
      </trkpt>
      <trkpt lat="45.69193" lon="5.98896">
        <ele>1341.1765136719</ele>
        <time>2012-02-11T13:51:47Z</time>
      </trkpt>
      <trkpt lat="45.6919" lon="5.98899">
        <ele>1338.2924804688</ele>
        <time>2012-02-11T13:51:54Z</time>
      </trkpt>
      <trkpt lat="45.69197" lon="5.98899">
        <ele>1355.1154785156</ele>
        <time>2012-02-11T13:52:19Z</time>
      </trkpt>
      <trkpt lat="45.69209" lon="5.98893">
        <ele>1375.7839355469</ele>
        <time>2012-02-11T13:52:30Z</time>
      </trkpt>
      <trkpt lat="45.69207" lon="5.98892">
        <ele>1373.380859375</ele>
        <time>2012-02-11T13:52:42Z</time>
      </trkpt>
      <trkpt lat="45.69204" lon="5.98892">
        <ele>1371.9384765625</ele>
        <time>2012-02-11T13:52:57Z</time>
      </trkpt>
      <trkpt lat="45.69207" lon="5.98888">
        <ele>1376.2646484375</ele>
        <time>2012-02-11T13:53:12Z</time>
      </trkpt>
      <trkpt lat="45.69207" lon="5.98888">
        <ele>1375.7839355469</ele>
        <time>2012-02-11T13:53:16Z</time>
      </trkpt>
      <trkpt lat="45.69207" lon="5.98888">
        <ele>1375.7839355469</ele>
        <time>2012-02-11T13:53:17Z</time>
      </trkpt>
      <trkpt lat="45.69205" lon="5.98888">
        <ele>1375.7839355469</ele>
        <time>2012-02-11T13:53:25Z</time>
      </trkpt>
      <trkpt lat="45.69203" lon="5.98891">
        <ele>1371.4577636719</ele>
        <time>2012-02-11T13:53:27Z</time>
      </trkpt>
      <trkpt lat="45.69204" lon="5.9889">
        <ele>1367.1320800781</ele>
        <time>2012-02-11T13:53:36Z</time>
      </trkpt>
      <trkpt lat="45.69201" lon="5.98893">
        <ele>1358.4802246094</ele>
        <time>2012-02-11T13:53:46Z</time>
      </trkpt>
      <trkpt lat="45.69199" lon="5.98895">
        <ele>1353.6735839844</ele>
        <time>2012-02-11T13:53:53Z</time>
      </trkpt>
      <trkpt lat="45.69195" lon="5.98896">
        <ele>1345.0217285156</ele>
        <time>2012-02-11T13:54:05Z</time>
      </trkpt>
      <trkpt lat="45.69192" lon="5.98898">
        <ele>1338.7731933594</ele>
        <time>2012-02-11T13:54:19Z</time>
      </trkpt>
      <trkpt lat="45.69192" lon="5.98898">
        <ele>1338.2924804688</ele>
        <time>2012-02-11T13:54:26Z</time>
      </trkpt>
      <trkpt lat="45.69192" lon="5.98898">
        <ele>1338.2924804688</ele>
        <time>2012-02-11T13:54:32Z</time>
      </trkpt>
      <trkpt lat="45.69192" lon="5.98898">
        <ele>1337.8117675781</ele>
        <time>2012-02-11T13:54:39Z</time>
      </trkpt>
      <trkpt lat="45.692" lon="5.98899">
        <ele>1345.9831542969</ele>
        <time>2012-02-11T13:54:57Z</time>
      </trkpt>
      <trkpt lat="45.692" lon="5.98897">
        <ele>1345.9831542969</ele>
        <time>2012-02-11T13:55:05Z</time>
      </trkpt>
      <trkpt lat="45.69198" lon="5.98896">
        <ele>1345.0217285156</ele>
        <time>2012-02-11T13:55:06Z</time>
      </trkpt>
      <trkpt lat="45.69194" lon="5.98894">
        <ele>1344.541015625</ele>
        <time>2012-02-11T13:55:11Z</time>
      </trkpt>
      <trkpt lat="45.69194" lon="5.98895">
        <ele>1343.5798339844</ele>
        <time>2012-02-11T13:55:13Z</time>
      </trkpt>
      <trkpt lat="45.69193" lon="5.98895">
        <ele>1341.6572265625</ele>
        <time>2012-02-11T13:55:18Z</time>
      </trkpt>
      <trkpt lat="45.69193" lon="5.98896">
        <ele>1344.541015625</ele>
        <time>2012-02-11T13:55:23Z</time>
      </trkpt>
      <trkpt lat="45.69194" lon="5.98896">
        <ele>1349.34765625</ele>
        <time>2012-02-11T13:55:29Z</time>
      </trkpt>
      <trkpt lat="45.69203" lon="5.98892">
        <ele>1358.9609375</ele>
        <time>2012-02-11T13:55:46Z</time>
      </trkpt>
      <trkpt lat="45.69205" lon="5.98892">
        <ele>1358.9609375</ele>
        <time>2012-02-11T13:55:51Z</time>
      </trkpt>
      <trkpt lat="45.69205" lon="5.98896">
        <ele>1356.5576171875</ele>
        <time>2012-02-11T13:56:05Z</time>
      </trkpt>
      <trkpt lat="45.69195" lon="5.98902">
        <ele>1353.6735839844</ele>
        <time>2012-02-11T13:56:20Z</time>
      </trkpt>
      <trkpt lat="45.69194" lon="5.98902">
        <ele>1353.1928710938</ele>
        <time>2012-02-11T13:56:21Z</time>
      </trkpt>
      <trkpt lat="45.69194" lon="5.98903">
        <ele>1342.1379394531</ele>
        <time>2012-02-11T13:56:36Z</time>
      </trkpt>
      <trkpt lat="45.69193" lon="5.98901">
        <ele>1342.1379394531</ele>
        <time>2012-02-11T13:56:45Z</time>
      </trkpt>
      <trkpt lat="45.69198" lon="5.98898">
        <ele>1347.9057617188</ele>
        <time>2012-02-11T13:56:52Z</time>
      </trkpt>
      <trkpt lat="45.69203" lon="5.98897">
        <ele>1352.7121582031</ele>
        <time>2012-02-11T13:56:56Z</time>
      </trkpt>
      <trkpt lat="45.69209" lon="5.98894">
        <ele>1363.2868652344</ele>
        <time>2012-02-11T13:57:02Z</time>
      </trkpt>
      <trkpt lat="45.69205" lon="5.98896">
        <ele>1360.4028320312</ele>
        <time>2012-02-11T13:57:14Z</time>
      </trkpt>
      <trkpt lat="45.69203" lon="5.98897">
        <ele>1357.5190429688</ele>
        <time>2012-02-11T13:57:27Z</time>
      </trkpt>
      <trkpt lat="45.69204" lon="5.98896">
        <ele>1359.4416503906</ele>
        <time>2012-02-11T13:57:48Z</time>
      </trkpt>
      <trkpt lat="45.69199" lon="5.98897">
        <ele>1352.7121582031</ele>
        <time>2012-02-11T13:58:01Z</time>
      </trkpt>
      <trkpt lat="45.69198" lon="5.98896">
        <ele>1352.7121582031</ele>
        <time>2012-02-11T13:58:13Z</time>
      </trkpt>
      <trkpt lat="45.69198" lon="5.98897">
        <ele>1351.2702636719</ele>
        <time>2012-02-11T13:58:20Z</time>
      </trkpt>
      <trkpt lat="45.69199" lon="5.98897">
        <ele>1351.7509765625</ele>
        <time>2012-02-11T13:58:36Z</time>
      </trkpt>
      <trkpt lat="45.69201" lon="5.98896">
        <ele>1351.7509765625</ele>
        <time>2012-02-11T13:58:48Z</time>
      </trkpt>
      <trkpt lat="45.69197" lon="5.98898">
        <ele>1345.5024414062</ele>
        <time>2012-02-11T13:59:04Z</time>
      </trkpt>
      <trkpt lat="45.69195" lon="5.98899">
        <ele>1344.541015625</ele>
        <time>2012-02-11T13:59:09Z</time>
      </trkpt>
      <trkpt lat="45.69195" lon="5.98898">
        <ele>1346.4638671875</ele>
        <time>2012-02-11T13:59:16Z</time>
      </trkpt>
      <trkpt lat="45.69198" lon="5.98902">
        <ele>1344.541015625</ele>
        <time>2012-02-11T13:59:23Z</time>
      </trkpt>
      <trkpt lat="45.69208" lon="5.98917">
        <ele>1341.1765136719</ele>
        <time>2012-02-11T13:59:29Z</time>
      </trkpt>
      <trkpt lat="45.69219" lon="5.98934">
        <ele>1337.8117675781</ele>
        <time>2012-02-11T13:59:34Z</time>
      </trkpt>
      <trkpt lat="45.69233" lon="5.98956">
        <ele>1333.4858398438</ele>
        <time>2012-02-11T13:59:39Z</time>
      </trkpt>
      <trkpt lat="45.69244" lon="5.98976">
        <ele>1329.1599121094</ele>
        <time>2012-02-11T13:59:43Z</time>
      </trkpt>
      <trkpt lat="45.69262" lon="5.99005">
        <ele>1322.9113769531</ele>
        <time>2012-02-11T13:59:49Z</time>
      </trkpt>
      <trkpt lat="45.69284" lon="5.99034">
        <ele>1316.1821289062</ele>
        <time>2012-02-11T13:59:55Z</time>
      </trkpt>
      <trkpt lat="45.69292" lon="5.99045">
        <ele>1313.7788085938</ele>
        <time>2012-02-11T13:59:57Z</time>
      </trkpt>
      <trkpt lat="45.693" lon="5.99055">
        <ele>1311.3757324219</ele>
        <time>2012-02-11T13:59:59Z</time>
      </trkpt>
      <trkpt lat="45.69322" lon="5.99083">
        <ele>1305.126953125</ele>
        <time>2012-02-11T14:00:05Z</time>
      </trkpt>
      <trkpt lat="45.69335" lon="5.99096">
        <ele>1304.6462402344</ele>
        <time>2012-02-11T14:00:08Z</time>
      </trkpt>
      <trkpt lat="45.69349" lon="5.99106">
        <ele>1303.2043457031</ele>
        <time>2012-02-11T14:00:11Z</time>
      </trkpt>
      <trkpt lat="45.6937" lon="5.99118">
        <ele>1301.2817382812</ele>
        <time>2012-02-11T14:00:15Z</time>
      </trkpt>
      <trkpt lat="45.69385" lon="5.99129">
        <ele>1297.9172363281</ele>
        <time>2012-02-11T14:00:20Z</time>
      </trkpt>
      <trkpt lat="45.69391" lon="5.99131">
        <ele>1299.83984375</ele>
        <time>2012-02-11T14:00:25Z</time>
      </trkpt>
      <trkpt lat="45.69393" lon="5.99129">
        <ele>1304.6462402344</ele>
        <time>2012-02-11T14:00:35Z</time>
      </trkpt>
      <trkpt lat="45.69405" lon="5.99138">
        <ele>1300.3205566406</ele>
        <time>2012-02-11T14:00:41Z</time>
      </trkpt>
      <trkpt lat="45.69423" lon="5.99151">
        <ele>1295.5139160156</ele>
        <time>2012-02-11T14:00:46Z</time>
      </trkpt>
      <trkpt lat="45.69447" lon="5.99168">
        <ele>1289.7458496094</ele>
        <time>2012-02-11T14:00:52Z</time>
      </trkpt>
      <trkpt lat="45.69452" lon="5.99171">
        <ele>1288.7846679688</ele>
        <time>2012-02-11T14:00:53Z</time>
      </trkpt>
      <trkpt lat="45.69482" lon="5.99203">
        <ele>1281.5747070312</ele>
        <time>2012-02-11T14:01:00Z</time>
      </trkpt>
      <trkpt lat="45.69505" lon="5.99223">
        <ele>1277.7294921875</ele>
        <time>2012-02-11T14:01:05Z</time>
      </trkpt>
      <trkpt lat="45.69511" lon="5.99228">
        <ele>1275.3259277344</ele>
        <time>2012-02-11T14:01:07Z</time>
      </trkpt>
      <trkpt lat="45.69532" lon="5.99239">
        <ele>1271.0002441406</ele>
        <time>2012-02-11T14:01:13Z</time>
      </trkpt>
      <trkpt lat="45.69536" lon="5.99241">
        <ele>1270.51953125</ele>
        <time>2012-02-11T14:01:14Z</time>
      </trkpt>
      <trkpt lat="45.69547" lon="5.99245">
        <ele>1268.5969238281</ele>
        <time>2012-02-11T14:01:16Z</time>
      </trkpt>
      <trkpt lat="45.69565" lon="5.99245">
        <ele>1268.1162109375</ele>
        <time>2012-02-11T14:01:20Z</time>
      </trkpt>
      <trkpt lat="45.69579" lon="5.99242">
        <ele>1264.2709960938</ele>
        <time>2012-02-11T14:01:23Z</time>
      </trkpt>
      <trkpt lat="45.69595" lon="5.99238">
        <ele>1258.9836425781</ele>
        <time>2012-02-11T14:01:28Z</time>
      </trkpt>
      <trkpt lat="45.69616" lon="5.99231">
        <ele>1255.1384277344</ele>
        <time>2012-02-11T14:01:34Z</time>
      </trkpt>
      <trkpt lat="45.69633" lon="5.99225">
        <ele>1249.8513183594</ele>
        <time>2012-02-11T14:01:39Z</time>
      </trkpt>
      <trkpt lat="45.69636" lon="5.99226">
        <ele>1251.2932128906</ele>
        <time>2012-02-11T14:01:41Z</time>
      </trkpt>
      <trkpt lat="45.69638" lon="5.99227">
        <ele>1248.8898925781</ele>
        <time>2012-02-11T14:01:49Z</time>
      </trkpt>
      <trkpt lat="45.69637" lon="5.99228">
        <ele>1246.4868164062</ele>
        <time>2012-02-11T14:01:54Z</time>
      </trkpt>
      <trkpt lat="45.69638" lon="5.99227">
        <ele>1245.0446777344</ele>
        <time>2012-02-11T14:02:01Z</time>
      </trkpt>
      <trkpt lat="45.69637" lon="5.99228">
        <ele>1253.2158203125</ele>
        <time>2012-02-11T14:02:08Z</time>
      </trkpt>
      <trkpt lat="45.69635" lon="5.99228">
        <ele>1255.1384277344</ele>
        <time>2012-02-11T14:02:13Z</time>
      </trkpt>
      <trkpt lat="45.69639" lon="5.99225">
        <ele>1243.6025390625</ele>
        <time>2012-02-11T14:02:32Z</time>
      </trkpt>
      <trkpt lat="45.6964" lon="5.99225">
        <ele>1245.0446777344</ele>
        <time>2012-02-11T14:02:40Z</time>
      </trkpt>
      <trkpt lat="45.6964" lon="5.99225">
        <ele>1246.0061035156</ele>
        <time>2012-02-11T14:02:47Z</time>
      </trkpt>
      <trkpt lat="45.69641" lon="5.99224">
        <ele>1247.4479980469</ele>
        <time>2012-02-11T14:02:52Z</time>
      </trkpt>
      <trkpt lat="45.69641" lon="5.99223">
        <ele>1247.9287109375</ele>
        <time>2012-02-11T14:03:00Z</time>
      </trkpt>
      <trkpt lat="45.69646" lon="5.9922">
        <ele>1245.0446777344</ele>
        <time>2012-02-11T14:03:04Z</time>
      </trkpt>
      <trkpt lat="45.69659" lon="5.99217">
        <ele>1240.7185058594</ele>
        <time>2012-02-11T14:03:08Z</time>
      </trkpt>
      <trkpt lat="45.69677" lon="5.99216">
        <ele>1235.912109375</ele>
        <time>2012-02-11T14:03:12Z</time>
      </trkpt>
      <trkpt lat="45.69691" lon="5.99219">
        <ele>1233.0280761719</ele>
        <time>2012-02-11T14:03:15Z</time>
      </trkpt>
      <trkpt lat="45.69699" lon="5.99223">
        <ele>1231.5861816406</ele>
        <time>2012-02-11T14:03:17Z</time>
      </trkpt>
      <trkpt lat="45.69712" lon="5.99232">
        <ele>1229.6635742188</ele>
        <time>2012-02-11T14:03:20Z</time>
      </trkpt>
      <trkpt lat="45.69715" lon="5.99235">
        <ele>1229.1828613281</ele>
        <time>2012-02-11T14:03:25Z</time>
      </trkpt>
      <trkpt lat="45.69712" lon="5.99226">
        <ele>1225.3374023438</ele>
        <time>2012-02-11T14:03:30Z</time>
      </trkpt>
      <trkpt lat="45.69713" lon="5.99231">
        <ele>1228.2216796875</ele>
        <time>2012-02-11T14:03:35Z</time>
      </trkpt>
      <trkpt lat="45.69712" lon="5.99229">
        <ele>1230.1442871094</ele>
        <time>2012-02-11T14:03:37Z</time>
      </trkpt>
      <trkpt lat="45.69719" lon="5.99229">
        <ele>1231.1057128906</ele>
        <time>2012-02-11T14:03:42Z</time>
      </trkpt>
      <trkpt lat="45.69716" lon="5.9923">
        <ele>1227.7407226562</ele>
        <time>2012-02-11T14:03:53Z</time>
      </trkpt>
      <trkpt lat="45.69709" lon="5.99226">
        <ele>1233.5087890625</ele>
        <time>2012-02-11T14:03:59Z</time>
      </trkpt>
      <trkpt lat="45.69691" lon="5.99216">
        <ele>1218.6083984375</ele>
        <time>2012-02-11T14:04:20Z</time>
      </trkpt>
      <trkpt lat="45.69683" lon="5.99204">
        <ele>1225.8181152344</ele>
        <time>2012-02-11T14:04:25Z</time>
      </trkpt>
      <trkpt lat="45.69684" lon="5.99211">
        <ele>1224.3762207031</ele>
        <time>2012-02-11T14:04:30Z</time>
      </trkpt>
      <trkpt lat="45.69693" lon="5.99219">
        <ele>1231.5861816406</ele>
        <time>2012-02-11T14:04:36Z</time>
      </trkpt>
      <trkpt lat="45.69699" lon="5.99225">
        <ele>1230.625</ele>
        <time>2012-02-11T14:04:43Z</time>
      </trkpt>
      <trkpt lat="45.697" lon="5.99227">
        <ele>1236.3928222656</ele>
        <time>2012-02-11T14:04:48Z</time>
      </trkpt>
      <trkpt lat="45.6969" lon="5.99227">
        <ele>1232.0668945312</ele>
        <time>2012-02-11T14:04:50Z</time>
      </trkpt>
      <trkpt lat="45.69695" lon="5.99221">
        <ele>1225.3374023438</ele>
        <time>2012-02-11T14:04:55Z</time>
      </trkpt>
      <trkpt lat="45.6969" lon="5.99221">
        <ele>1227.2602539062</ele>
        <time>2012-02-11T14:05:02Z</time>
      </trkpt>
      <trkpt lat="45.69687" lon="5.99208">
        <ele>1235.4313964844</ele>
        <time>2012-02-11T14:05:12Z</time>
      </trkpt>
      <trkpt lat="45.6969" lon="5.99203">
        <ele>1243.6025390625</ele>
        <time>2012-02-11T14:05:23Z</time>
      </trkpt>
      <trkpt lat="45.69687" lon="5.99199">
        <ele>1241.6799316406</ele>
        <time>2012-02-11T14:05:27Z</time>
      </trkpt>
      <trkpt lat="45.69686" lon="5.99196">
        <ele>1242.1606445312</ele>
        <time>2012-02-11T14:05:34Z</time>
      </trkpt>
      <trkpt lat="45.69685" lon="5.99232">
        <ele>1262.8291015625</ele>
        <time>2012-02-11T14:06:13Z</time>
      </trkpt>
      <trkpt lat="45.69687" lon="5.99227">
        <ele>1263.3098144531</ele>
        <time>2012-02-11T14:06:20Z</time>
      </trkpt>
      <trkpt lat="45.69693" lon="5.99228">
        <ele>1267.1550292969</ele>
        <time>2012-02-11T14:06:43Z</time>
      </trkpt>
      <trkpt lat="45.69697" lon="5.99219">
        <ele>1253.2158203125</ele>
        <time>2012-02-11T14:07:08Z</time>
      </trkpt>
      <trkpt lat="45.69697" lon="5.9922">
        <ele>1257.5417480469</ele>
        <time>2012-02-11T14:07:14Z</time>
      </trkpt>
      <trkpt lat="45.69697" lon="5.9922">
        <ele>1257.5417480469</ele>
        <time>2012-02-11T14:07:18Z</time>
      </trkpt>
      <trkpt lat="45.69696" lon="5.99231">
        <ele>1257.5417480469</ele>
        <time>2012-02-11T14:07:24Z</time>
      </trkpt>
      <trkpt lat="45.69695" lon="5.9923">
        <ele>1255.619140625</ele>
        <time>2012-02-11T14:07:29Z</time>
      </trkpt>
      <trkpt lat="45.697" lon="5.99236">
        <ele>1243.6025390625</ele>
        <time>2012-02-11T14:07:36Z</time>
      </trkpt>
      <trkpt lat="45.697" lon="5.99235">
        <ele>1246.4868164062</ele>
        <time>2012-02-11T14:07:37Z</time>
      </trkpt>
      <trkpt lat="45.69697" lon="5.99232">
        <ele>1255.619140625</ele>
        <time>2012-02-11T14:07:44Z</time>
      </trkpt>
      <trkpt lat="45.69704" lon="5.99233">
        <ele>1239.7573242188</ele>
        <time>2012-02-11T14:08:04Z</time>
      </trkpt>
      <trkpt lat="45.69706" lon="5.99228">
        <ele>1237.3540039062</ele>
        <time>2012-02-11T14:08:08Z</time>
      </trkpt>
      <trkpt lat="45.6969" lon="5.99215">
        <ele>1237.3540039062</ele>
        <time>2012-02-11T14:08:20Z</time>
      </trkpt>
      <trkpt lat="45.69691" lon="5.99224">
        <ele>1233.0280761719</ele>
        <time>2012-02-11T14:08:26Z</time>
      </trkpt>
      <trkpt lat="45.69695" lon="5.99216">
        <ele>1225.3374023438</ele>
        <time>2012-02-11T14:08:32Z</time>
      </trkpt>
      <trkpt lat="45.69693" lon="5.99214">
        <ele>1222.4536132812</ele>
        <time>2012-02-11T14:08:36Z</time>
      </trkpt>
      <trkpt lat="45.69692" lon="5.99218">
        <ele>1213.3212890625</ele>
        <time>2012-02-11T14:08:41Z</time>
      </trkpt>
      <trkpt lat="45.69695" lon="5.9922">
        <ele>1215.724609375</ele>
        <time>2012-02-11T14:08:47Z</time>
      </trkpt>
      <trkpt lat="45.69697" lon="5.99214">
        <ele>1220.5310058594</ele>
        <time>2012-02-11T14:08:53Z</time>
      </trkpt>
      <trkpt lat="45.69698" lon="5.99212">
        <ele>1223.8955078125</ele>
        <time>2012-02-11T14:09:00Z</time>
      </trkpt>
      <trkpt lat="45.69698" lon="5.9921">
        <ele>1241.6799316406</ele>
        <time>2012-02-11T14:09:15Z</time>
      </trkpt>
      <trkpt lat="45.69705" lon="5.99241">
        <ele>1246.9672851562</ele>
        <time>2012-02-11T14:09:21Z</time>
      </trkpt>
      <trkpt lat="45.69698" lon="5.99218">
        <ele>1248.4091796875</ele>
        <time>2012-02-11T14:09:28Z</time>
      </trkpt>
      <trkpt lat="45.69698" lon="5.99209">
        <ele>1239.7573242188</ele>
        <time>2012-02-11T14:09:31Z</time>
      </trkpt>
      <trkpt lat="45.69703" lon="5.99209">
        <ele>1242.1606445312</ele>
        <time>2012-02-11T14:09:36Z</time>
      </trkpt>
      <trkpt lat="45.69695" lon="5.99215">
        <ele>1245.525390625</ele>
        <time>2012-02-11T14:09:42Z</time>
      </trkpt>
      <trkpt lat="45.69695" lon="5.99214">
        <ele>1247.9287109375</ele>
        <time>2012-02-11T14:09:46Z</time>
      </trkpt>
      <trkpt lat="45.69697" lon="5.99215">
        <ele>1246.4868164062</ele>
        <time>2012-02-11T14:09:51Z</time>
      </trkpt>
      <trkpt lat="45.697" lon="5.99216">
        <ele>1232.0668945312</ele>
        <time>2012-02-11T14:09:58Z</time>
      </trkpt>
      <trkpt lat="45.69696" lon="5.99219">
        <ele>1224.8569335938</ele>
        <time>2012-02-11T14:10:04Z</time>
      </trkpt>
      <trkpt lat="45.69693" lon="5.9922">
        <ele>1230.1442871094</ele>
        <time>2012-02-11T14:10:10Z</time>
      </trkpt>
      <trkpt lat="45.69699" lon="5.99215">
        <ele>1238.3154296875</ele>
        <time>2012-02-11T14:10:19Z</time>
      </trkpt>
      <trkpt lat="45.69701" lon="5.99217">
        <ele>1241.6799316406</ele>
        <time>2012-02-11T14:10:25Z</time>
      </trkpt>
      <trkpt lat="45.69712" lon="5.99238">
        <ele>1248.8898925781</ele>
        <time>2012-02-11T14:10:33Z</time>
      </trkpt>
      <trkpt lat="45.69713" lon="5.9924">
        <ele>1249.8513183594</ele>
        <time>2012-02-11T14:10:34Z</time>
      </trkpt>
      <trkpt lat="45.69701" lon="5.99271">
        <ele>1249.8513183594</ele>
        <time>2012-02-11T14:10:43Z</time>
      </trkpt>
      <trkpt lat="45.69714" lon="5.99325">
        <ele>1256.099609375</ele>
        <time>2012-02-11T14:11:01Z</time>
      </trkpt>
      <trkpt lat="45.69901" lon="5.99252">
        <ele>1253.2158203125</ele>
        <time>2012-02-11T14:11:57Z</time>
      </trkpt>
      <trkpt lat="45.69899" lon="5.99249">
        <ele>1252.7351074219</ele>
        <time>2012-02-11T14:12:04Z</time>
      </trkpt>
      <trkpt lat="45.69849" lon="5.99283">
        <ele>1225.8181152344</ele>
        <time>2012-02-11T14:12:09Z</time>
      </trkpt>
      <trkpt lat="45.69816" lon="5.99281">
        <ele>1202.7465820312</ele>
        <time>2012-02-11T14:12:15Z</time>
      </trkpt>
      <trkpt lat="45.69813" lon="5.99285">
        <ele>1198.9013671875</ele>
        <time>2012-02-11T14:12:19Z</time>
      </trkpt>
      <trkpt lat="45.69822" lon="5.99293">
        <ele>1198.4206542969</ele>
        <time>2012-02-11T14:12:24Z</time>
      </trkpt>
      <trkpt lat="45.6983" lon="5.99296">
        <ele>1201.3046875</ele>
        <time>2012-02-11T14:12:26Z</time>
      </trkpt>
      <trkpt lat="45.69861" lon="5.99303">
        <ele>1205.1499023438</ele>
        <time>2012-02-11T14:12:33Z</time>
      </trkpt>
      <trkpt lat="45.69889" lon="5.99313">
        <ele>1206.1110839844</ele>
        <time>2012-02-11T14:12:42Z</time>
      </trkpt>
      <trkpt lat="45.69905" lon="5.99319">
        <ele>1206.591796875</ele>
        <time>2012-02-11T14:12:47Z</time>
      </trkpt>
      <trkpt lat="45.69936" lon="5.99331">
        <ele>1207.0725097656</ele>
        <time>2012-02-11T14:12:57Z</time>
      </trkpt>
      <trkpt lat="45.69692" lon="5.99293">
        <ele>1117.189453125</ele>
        <time>2012-02-11T14:15:07Z</time>
      </trkpt>
      <trkpt lat="45.69675" lon="5.99297">
        <ele>1098.443359375</ele>
        <time>2012-02-11T14:15:11Z</time>
      </trkpt>
      <trkpt lat="45.69685" lon="5.99278">
        <ele>1085.4658203125</ele>
        <time>2012-02-11T14:15:15Z</time>
      </trkpt>
      <trkpt lat="45.69691" lon="5.9928">
        <ele>1097.962890625</ele>
        <time>2012-02-11T14:15:18Z</time>
      </trkpt>
      <trkpt lat="45.69734" lon="5.99286">
        <ele>1137.376953125</ele>
        <time>2012-02-11T14:15:23Z</time>
      </trkpt>
      <trkpt lat="45.69818" lon="5.99273">
        <ele>1201.3046875</ele>
        <time>2012-02-11T14:15:37Z</time>
      </trkpt>
      <trkpt lat="45.69822" lon="5.9927">
        <ele>1204.1887207031</ele>
        <time>2012-02-11T14:15:40Z</time>
      </trkpt>
      <trkpt lat="45.69815" lon="5.99273">
        <ele>1205.6306152344</ele>
        <time>2012-02-11T14:15:49Z</time>
      </trkpt>
      <trkpt lat="45.69818" lon="5.99273">
        <ele>1211.8791503906</ele>
        <time>2012-02-11T14:15:55Z</time>
      </trkpt>
      <trkpt lat="45.69821" lon="5.99272">
        <ele>1217.1665039062</ele>
        <time>2012-02-11T14:16:02Z</time>
      </trkpt>
      <trkpt lat="45.69818" lon="5.99271">
        <ele>1217.6469726562</ele>
        <time>2012-02-11T14:16:15Z</time>
      </trkpt>
      <trkpt lat="45.69818" lon="5.99268">
        <ele>1214.7631835938</ele>
        <time>2012-02-11T14:16:29Z</time>
      </trkpt>
      <trkpt lat="45.69823" lon="5.99265">
        <ele>1211.8791503906</ele>
        <time>2012-02-11T14:16:33Z</time>
      </trkpt>
      <trkpt lat="45.69831" lon="5.99246">
        <ele>1207.5532226562</ele>
        <time>2012-02-11T14:16:38Z</time>
      </trkpt>
      <trkpt lat="45.69838" lon="5.99236">
        <ele>1205.6306152344</ele>
        <time>2012-02-11T14:16:41Z</time>
      </trkpt>
      <trkpt lat="45.69849" lon="5.99209">
        <ele>1199.8627929688</ele>
        <time>2012-02-11T14:16:46Z</time>
      </trkpt>
      <trkpt lat="45.69851" lon="5.99196">
        <ele>1197.9401855469</ele>
        <time>2012-02-11T14:16:48Z</time>
      </trkpt>
      <trkpt lat="45.69851" lon="5.99173">
        <ele>1193.6140136719</ele>
        <time>2012-02-11T14:16:54Z</time>
      </trkpt>
      <trkpt lat="45.69849" lon="5.9916">
        <ele>1191.2106933594</ele>
        <time>2012-02-11T14:16:59Z</time>
      </trkpt>
      <trkpt lat="45.69843" lon="5.9914">
        <ele>1188.3269042969</ele>
        <time>2012-02-11T14:17:07Z</time>
      </trkpt>
      <trkpt lat="45.69839" lon="5.9913">
        <ele>1188.3269042969</ele>
        <time>2012-02-11T14:17:11Z</time>
      </trkpt>
      <trkpt lat="45.69833" lon="5.99119">
        <ele>1187.8461914062</ele>
        <time>2012-02-11T14:17:17Z</time>
      </trkpt>
      <trkpt lat="45.69833" lon="5.99119">
        <ele>1187.3654785156</ele>
        <time>2012-02-11T14:17:25Z</time>
      </trkpt>
      <trkpt lat="45.69833" lon="5.99118">
        <ele>1187.8461914062</ele>
        <time>2012-02-11T14:17:34Z</time>
      </trkpt>
      <trkpt lat="45.69831" lon="5.99116">
        <ele>1186.884765625</ele>
        <time>2012-02-11T14:17:37Z</time>
      </trkpt>
      <trkpt lat="45.69826" lon="5.9911">
        <ele>1184.9624023438</ele>
        <time>2012-02-11T14:17:41Z</time>
      </trkpt>
      <trkpt lat="45.6981" lon="5.99097">
        <ele>1181.1171875</ele>
        <time>2012-02-11T14:17:50Z</time>
      </trkpt>
      <trkpt lat="45.69808" lon="5.99095">
        <ele>1181.1171875</ele>
        <time>2012-02-11T14:17:54Z</time>
      </trkpt>
      <trkpt lat="45.69806" lon="5.99093">
        <ele>1180.6364746094</ele>
        <time>2012-02-11T14:17:59Z</time>
      </trkpt>
      <trkpt lat="45.69795" lon="5.99091">
        <ele>1178.7136230469</ele>
        <time>2012-02-11T14:18:08Z</time>
      </trkpt>
      <trkpt lat="45.69779" lon="5.9909">
        <ele>1175.3488769531</ele>
        <time>2012-02-11T14:18:16Z</time>
      </trkpt>
      <trkpt lat="45.69769" lon="5.99091">
        <ele>1173.4265136719</ele>
        <time>2012-02-11T14:18:23Z</time>
      </trkpt>
      <trkpt lat="45.69769" lon="5.99091">
        <ele>1171.0231933594</ele>
        <time>2012-02-11T14:18:28Z</time>
      </trkpt>
      <trkpt lat="45.69767" lon="5.99087">
        <ele>1173.4265136719</ele>
        <time>2012-02-11T14:18:39Z</time>
      </trkpt>
      <trkpt lat="45.69761" lon="5.99087">
        <ele>1173.9069824219</ele>
        <time>2012-02-11T14:18:48Z</time>
      </trkpt>
      <trkpt lat="45.69757" lon="5.99091">
        <ele>1172.9458007812</ele>
        <time>2012-02-11T14:18:52Z</time>
      </trkpt>
      <trkpt lat="45.69749" lon="5.99095">
        <ele>1170.5424804688</ele>
        <time>2012-02-11T14:18:58Z</time>
      </trkpt>
      <trkpt lat="45.69744" lon="5.99097">
        <ele>1168.1391601562</ele>
        <time>2012-02-11T14:19:02Z</time>
      </trkpt>
      <trkpt lat="45.6974" lon="5.99098">
        <ele>1167.1779785156</ele>
        <time>2012-02-11T14:19:08Z</time>
      </trkpt>
      <trkpt lat="45.6974" lon="5.99098">
        <ele>1167.1779785156</ele>
        <time>2012-02-11T14:19:12Z</time>
      </trkpt>
      <trkpt lat="45.69735" lon="5.99096">
        <ele>1170.5424804688</ele>
        <time>2012-02-11T14:19:27Z</time>
      </trkpt>
      <trkpt lat="45.69732" lon="5.99095">
        <ele>1171.5036621094</ele>
        <time>2012-02-11T14:19:32Z</time>
      </trkpt>
      <trkpt lat="45.6973" lon="5.99095">
        <ele>1171.0231933594</ele>
        <time>2012-02-11T14:19:34Z</time>
      </trkpt>
      <trkpt lat="45.69726" lon="5.99095">
        <ele>1171.984375</ele>
        <time>2012-02-11T14:19:38Z</time>
      </trkpt>
      <trkpt lat="45.69724" lon="5.99094">
        <ele>1173.4265136719</ele>
        <time>2012-02-11T14:19:43Z</time>
      </trkpt>
      <trkpt lat="45.69719" lon="5.99094">
        <ele>1173.4265136719</ele>
        <time>2012-02-11T14:19:48Z</time>
      </trkpt>
      <trkpt lat="45.69714" lon="5.99094">
        <ele>1174.3876953125</ele>
        <time>2012-02-11T14:19:53Z</time>
      </trkpt>
      <trkpt lat="45.69711" lon="5.9909">
        <ele>1177.2717285156</ele>
        <time>2012-02-11T14:19:59Z</time>
      </trkpt>
      <trkpt lat="45.69707" lon="5.99089">
        <ele>1180.6364746094</ele>
        <time>2012-02-11T14:20:04Z</time>
      </trkpt>
      <trkpt lat="45.69705" lon="5.99087">
        <ele>1181.59765625</ele>
        <time>2012-02-11T14:20:08Z</time>
      </trkpt>
      <trkpt lat="45.69704" lon="5.99085">
        <ele>1180.6364746094</ele>
        <time>2012-02-11T14:20:13Z</time>
      </trkpt>
      <trkpt lat="45.69702" lon="5.99083">
        <ele>1179.1940917969</ele>
        <time>2012-02-11T14:20:17Z</time>
      </trkpt>
      <trkpt lat="45.69698" lon="5.99081">
        <ele>1176.791015625</ele>
        <time>2012-02-11T14:20:22Z</time>
      </trkpt>
      <trkpt lat="45.69694" lon="5.99078">
        <ele>1174.8684082031</ele>
        <time>2012-02-11T14:20:27Z</time>
      </trkpt>
      <trkpt lat="45.6969" lon="5.99075">
        <ele>1172.9458007812</ele>
        <time>2012-02-11T14:20:30Z</time>
      </trkpt>
      <trkpt lat="45.69687" lon="5.99073">
        <ele>1172.4650878906</ele>
        <time>2012-02-11T14:20:34Z</time>
      </trkpt>
      <trkpt lat="45.69679" lon="5.99069">
        <ele>1171.5036621094</ele>
        <time>2012-02-11T14:20:40Z</time>
      </trkpt>
      <trkpt lat="45.69677" lon="5.99068">
        <ele>1170.5424804688</ele>
        <time>2012-02-11T14:20:43Z</time>
      </trkpt>
      <trkpt lat="45.69671" lon="5.99062">
        <ele>1168.6198730469</ele>
        <time>2012-02-11T14:20:50Z</time>
      </trkpt>
      <trkpt lat="45.69667" lon="5.9906">
        <ele>1167.1779785156</ele>
        <time>2012-02-11T14:20:54Z</time>
      </trkpt>
      <trkpt lat="45.69662" lon="5.99059">
        <ele>1167.1779785156</ele>
        <time>2012-02-11T14:20:59Z</time>
      </trkpt>
      <trkpt lat="45.69662" lon="5.99056">
        <ele>1168.6198730469</ele>
        <time>2012-02-11T14:21:01Z</time>
      </trkpt>
      <trkpt lat="45.69659" lon="5.99053">
        <ele>1169.5812988281</ele>
        <time>2012-02-11T14:21:06Z</time>
      </trkpt>
      <trkpt lat="45.69656" lon="5.99046">
        <ele>1173.4265136719</ele>
        <time>2012-02-11T14:21:11Z</time>
      </trkpt>
      <trkpt lat="45.69653" lon="5.99044">
        <ele>1173.9069824219</ele>
        <time>2012-02-11T14:21:15Z</time>
      </trkpt>
      <trkpt lat="45.6965" lon="5.99042">
        <ele>1173.4265136719</ele>
        <time>2012-02-11T14:21:21Z</time>
      </trkpt>
      <trkpt lat="45.69649" lon="5.9904">
        <ele>1174.8684082031</ele>
        <time>2012-02-11T14:21:27Z</time>
      </trkpt>
      <trkpt lat="45.69648" lon="5.99039">
        <ele>1174.8684082031</ele>
        <time>2012-02-11T14:21:29Z</time>
      </trkpt>
      <trkpt lat="45.69639" lon="5.99032">
        <ele>1173.9069824219</ele>
        <time>2012-02-11T14:21:35Z</time>
      </trkpt>
      <trkpt lat="45.69633" lon="5.99026">
        <ele>1172.9458007812</ele>
        <time>2012-02-11T14:21:39Z</time>
      </trkpt>
      <trkpt lat="45.69625" lon="5.99022">
        <ele>1174.3876953125</ele>
        <time>2012-02-11T14:21:44Z</time>
      </trkpt>
      <trkpt lat="45.69623" lon="5.9902">
        <ele>1173.9069824219</ele>
        <time>2012-02-11T14:21:47Z</time>
      </trkpt>
      <trkpt lat="45.69617" lon="5.99015">
        <ele>1168.1391601562</ele>
        <time>2012-02-11T14:21:52Z</time>
      </trkpt>
      <trkpt lat="45.69615" lon="5.9901">
        <ele>1169.1005859375</ele>
        <time>2012-02-11T14:22:05Z</time>
      </trkpt>
      <trkpt lat="45.69612" lon="5.99008">
        <ele>1167.6584472656</ele>
        <time>2012-02-11T14:22:09Z</time>
      </trkpt>
      <trkpt lat="45.69608" lon="5.98999">
        <ele>1169.5812988281</ele>
        <time>2012-02-11T14:22:13Z</time>
      </trkpt>
      <trkpt lat="45.69599" lon="5.98989">
        <ele>1169.1005859375</ele>
        <time>2012-02-11T14:22:18Z</time>
      </trkpt>
      <trkpt lat="45.69598" lon="5.98988">
        <ele>1168.1391601562</ele>
        <time>2012-02-11T14:22:21Z</time>
      </trkpt>
      <trkpt lat="45.69598" lon="5.9899">
        <ele>1168.1391601562</ele>
        <time>2012-02-11T14:22:26Z</time>
      </trkpt>
      <trkpt lat="45.69596" lon="5.98991">
        <ele>1167.6584472656</ele>
        <time>2012-02-11T14:22:33Z</time>
      </trkpt>
      <trkpt lat="45.69597" lon="5.98987">
        <ele>1166.2165527344</ele>
        <time>2012-02-11T14:22:38Z</time>
      </trkpt>
      <trkpt lat="45.69599" lon="5.98985">
        <ele>1168.6198730469</ele>
        <time>2012-02-11T14:22:46Z</time>
      </trkpt>
      <trkpt lat="45.69598" lon="5.98985">
        <ele>1169.1005859375</ele>
        <time>2012-02-11T14:23:02Z</time>
      </trkpt>
      <trkpt lat="45.69595" lon="5.98985">
        <ele>1169.1005859375</ele>
        <time>2012-02-11T14:23:10Z</time>
      </trkpt>
      <trkpt lat="45.69594" lon="5.98983">
        <ele>1167.6584472656</ele>
        <time>2012-02-11T14:23:14Z</time>
      </trkpt>
      <trkpt lat="45.6959" lon="5.98977">
        <ele>1166.697265625</ele>
        <time>2012-02-11T14:23:19Z</time>
      </trkpt>
      <trkpt lat="45.69585" lon="5.98967">
        <ele>1163.3325195312</ele>
        <time>2012-02-11T14:23:26Z</time>
      </trkpt>
      <trkpt lat="45.69582" lon="5.9896">
        <ele>1160.9291992188</ele>
        <time>2012-02-11T14:23:31Z</time>
      </trkpt>
      <trkpt lat="45.69577" lon="5.98944">
        <ele>1159.0065917969</ele>
        <time>2012-02-11T14:23:37Z</time>
      </trkpt>
      <trkpt lat="45.69574" lon="5.98932">
        <ele>1156.6032714844</ele>
        <time>2012-02-11T14:23:41Z</time>
      </trkpt>
      <trkpt lat="45.69568" lon="5.98914">
        <ele>1153.7194824219</ele>
        <time>2012-02-11T14:23:46Z</time>
      </trkpt>
      <trkpt lat="45.6956" lon="5.98892">
        <ele>1150.8354492188</ele>
        <time>2012-02-11T14:23:51Z</time>
      </trkpt>
      <trkpt lat="45.69548" lon="5.9887">
        <ele>1146.5095214844</ele>
        <time>2012-02-11T14:23:55Z</time>
      </trkpt>
      <trkpt lat="45.69543" lon="5.98858">
        <ele>1144.1062011719</ele>
        <time>2012-02-11T14:23:57Z</time>
      </trkpt>
      <trkpt lat="45.69529" lon="5.98825">
        <ele>1139.2995605469</ele>
        <time>2012-02-11T14:24:02Z</time>
      </trkpt>
      <trkpt lat="45.69509" lon="5.98779">
        <ele>1130.6477050781</ele>
        <time>2012-02-11T14:24:08Z</time>
      </trkpt>
      <trkpt lat="45.69506" lon="5.98771">
        <ele>1129.6862792969</ele>
        <time>2012-02-11T14:24:09Z</time>
      </trkpt>
      <trkpt lat="45.695" lon="5.98744">
        <ele>1124.8798828125</ele>
        <time>2012-02-11T14:24:12Z</time>
      </trkpt>
      <trkpt lat="45.69498" lon="5.98718">
        <ele>1120.5539550781</ele>
        <time>2012-02-11T14:24:15Z</time>
      </trkpt>
      <trkpt lat="45.695" lon="5.98701">
        <ele>1117.669921875</ele>
        <time>2012-02-11T14:24:17Z</time>
      </trkpt>
      <trkpt lat="45.69505" lon="5.9867">
        <ele>1112.3825683594</ele>
        <time>2012-02-11T14:24:21Z</time>
      </trkpt>
      <trkpt lat="45.69506" lon="5.98655">
        <ele>1109.4987792969</ele>
        <time>2012-02-11T14:24:23Z</time>
      </trkpt>
      <trkpt lat="45.69511" lon="5.98645">
        <ele>1105.6535644531</ele>
        <time>2012-02-11T14:24:27Z</time>
      </trkpt>
      <trkpt lat="45.6951" lon="5.98644">
        <ele>1106.1340332031</ele>
        <time>2012-02-11T14:24:32Z</time>
      </trkpt>
      <trkpt lat="45.69513" lon="5.98646">
        <ele>1106.6147460938</ele>
        <time>2012-02-11T14:24:35Z</time>
      </trkpt>
      <trkpt lat="45.69513" lon="5.98646">
        <ele>1107.0954589844</ele>
        <time>2012-02-11T14:24:36Z</time>
      </trkpt>
      <trkpt lat="45.69514" lon="5.98646">
        <ele>1108.0568847656</ele>
        <time>2012-02-11T14:24:41Z</time>
      </trkpt>
      <trkpt lat="45.69516" lon="5.98645">
        <ele>1109.4987792969</ele>
        <time>2012-02-11T14:24:47Z</time>
      </trkpt>
      <trkpt lat="45.69517" lon="5.98638">
        <ele>1109.9792480469</ele>
        <time>2012-02-11T14:24:52Z</time>
      </trkpt>
      <trkpt lat="45.69518" lon="5.98636">
        <ele>1109.9792480469</ele>
        <time>2012-02-11T14:24:54Z</time>
      </trkpt>
      <trkpt lat="45.69519" lon="5.98636">
        <ele>1110.4599609375</ele>
        <time>2012-02-11T14:25:00Z</time>
      </trkpt>
      <trkpt lat="45.69519" lon="5.98637">
        <ele>1111.4213867188</ele>
        <time>2012-02-11T14:25:02Z</time>
      </trkpt>
      <trkpt lat="45.69519" lon="5.98637">
        <ele>1111.4213867188</ele>
        <time>2012-02-11T14:25:03Z</time>
      </trkpt>
      <trkpt lat="45.69519" lon="5.98637">
        <ele>1111.9020996094</ele>
        <time>2012-02-11T14:25:04Z</time>
      </trkpt>
      <trkpt lat="45.6952" lon="5.98637">
        <ele>1111.9020996094</ele>
        <time>2012-02-11T14:25:06Z</time>
      </trkpt>
      <trkpt lat="45.69524" lon="5.98636">
        <ele>1114.7858886719</ele>
        <time>2012-02-11T14:25:15Z</time>
      </trkpt>
      <trkpt lat="45.69526" lon="5.98636">
        <ele>1115.2666015625</ele>
        <time>2012-02-11T14:25:18Z</time>
      </trkpt>
      <trkpt lat="45.69527" lon="5.98636">
        <ele>1115.7473144531</ele>
        <time>2012-02-11T14:25:21Z</time>
      </trkpt>
      <trkpt lat="45.69527" lon="5.98636">
        <ele>1115.7473144531</ele>
        <time>2012-02-11T14:25:22Z</time>
      </trkpt>
      <trkpt lat="45.69526" lon="5.98636">
        <ele>1117.669921875</ele>
        <time>2012-02-11T14:25:31Z</time>
      </trkpt>
      <trkpt lat="45.69526" lon="5.98632">
        <ele>1116.2280273438</ele>
        <time>2012-02-11T14:25:37Z</time>
      </trkpt>
      <trkpt lat="45.69526" lon="5.9863">
        <ele>1115.2666015625</ele>
        <time>2012-02-11T14:25:44Z</time>
      </trkpt>
      <trkpt lat="45.69527" lon="5.9863">
        <ele>1115.7473144531</ele>
        <time>2012-02-11T14:25:47Z</time>
      </trkpt>
      <trkpt lat="45.69527" lon="5.9863">
        <ele>1116.2280273438</ele>
        <time>2012-02-11T14:25:48Z</time>
      </trkpt>
      <trkpt lat="45.69529" lon="5.98629">
        <ele>1117.669921875</ele>
        <time>2012-02-11T14:25:54Z</time>
      </trkpt>
      <trkpt lat="45.69528" lon="5.98631">
        <ele>1117.189453125</ele>
        <time>2012-02-11T14:26:06Z</time>
      </trkpt>
      <trkpt lat="45.69528" lon="5.98631">
        <ele>1116.7087402344</ele>
        <time>2012-02-11T14:26:07Z</time>
      </trkpt>
      <trkpt lat="45.69527" lon="5.98631">
        <ele>1114.3051757812</ele>
        <time>2012-02-11T14:26:20Z</time>
      </trkpt>
      <trkpt lat="45.69528" lon="5.98631">
        <ele>1112.3825683594</ele>
        <time>2012-02-11T14:26:30Z</time>
      </trkpt>
      <trkpt lat="45.69529" lon="5.98632">
        <ele>1112.3825683594</ele>
        <time>2012-02-11T14:26:36Z</time>
      </trkpt>
      <trkpt lat="45.69529" lon="5.98632">
        <ele>1112.3825683594</ele>
        <time>2012-02-11T14:26:40Z</time>
      </trkpt>
      <trkpt lat="45.69525" lon="5.98632">
        <ele>1110.4599609375</ele>
        <time>2012-02-11T14:26:49Z</time>
      </trkpt>
      <trkpt lat="45.69525" lon="5.98632">
        <ele>1111.4213867188</ele>
        <time>2012-02-11T14:26:55Z</time>
      </trkpt>
      <trkpt lat="45.69524" lon="5.98631">
        <ele>1110.9406738281</ele>
        <time>2012-02-11T14:27:07Z</time>
      </trkpt>
      <trkpt lat="45.69524" lon="5.98629">
        <ele>1112.86328125</ele>
        <time>2012-02-11T14:27:22Z</time>
      </trkpt>
      <trkpt lat="45.69524" lon="5.98629">
        <ele>1112.86328125</ele>
        <time>2012-02-11T14:27:29Z</time>
      </trkpt>
      <trkpt lat="45.69524" lon="5.9863">
        <ele>1111.9020996094</ele>
        <time>2012-02-11T14:27:32Z</time>
      </trkpt>
      <trkpt lat="45.69524" lon="5.9863">
        <ele>1110.9406738281</ele>
        <time>2012-02-11T14:27:34Z</time>
      </trkpt>
      <trkpt lat="45.69525" lon="5.9863">
        <ele>1110.9406738281</ele>
        <time>2012-02-11T14:27:35Z</time>
      </trkpt>
      <trkpt lat="45.69525" lon="5.98632">
        <ele>1109.0180664062</ele>
        <time>2012-02-11T14:27:50Z</time>
      </trkpt>
      <trkpt lat="45.69532" lon="5.98631">
        <ele>1111.9020996094</ele>
        <time>2012-02-11T14:28:01Z</time>
      </trkpt>
      <trkpt lat="45.69535" lon="5.98631">
        <ele>1113.3439941406</ele>
        <time>2012-02-11T14:28:11Z</time>
      </trkpt>
      <trkpt lat="45.6953" lon="5.98636">
        <ele>1112.3825683594</ele>
        <time>2012-02-11T14:28:16Z</time>
      </trkpt>
      <trkpt lat="45.69529" lon="5.9864">
        <ele>1114.3051757812</ele>
        <time>2012-02-11T14:28:19Z</time>
      </trkpt>
      <trkpt lat="45.69526" lon="5.9864">
        <ele>1114.7858886719</ele>
        <time>2012-02-11T14:28:21Z</time>
      </trkpt>
      <trkpt lat="45.69527" lon="5.98641">
        <ele>1115.2666015625</ele>
        <time>2012-02-11T14:28:24Z</time>
      </trkpt>
      <trkpt lat="45.69526" lon="5.98635">
        <ele>1114.7858886719</ele>
        <time>2012-02-11T14:28:28Z</time>
      </trkpt>
      <trkpt lat="45.69527" lon="5.98633">
        <ele>1114.7858886719</ele>
        <time>2012-02-11T14:28:29Z</time>
      </trkpt>
      <trkpt lat="45.69527" lon="5.98632">
        <ele>1114.3051757812</ele>
        <time>2012-02-11T14:28:30Z</time>
      </trkpt>
      <trkpt lat="45.69527" lon="5.98629">
        <ele>1114.7858886719</ele>
        <time>2012-02-11T14:28:36Z</time>
      </trkpt>
      <trkpt lat="45.6953" lon="5.98629">
        <ele>1116.2280273438</ele>
        <time>2012-02-11T14:28:46Z</time>
      </trkpt>
      <trkpt lat="45.69527" lon="5.98632">
        <ele>1114.3051757812</ele>
        <time>2012-02-11T14:28:52Z</time>
      </trkpt>
      <trkpt lat="45.69524" lon="5.98632">
        <ele>1113.8244628906</ele>
        <time>2012-02-11T14:28:59Z</time>
      </trkpt>
      <trkpt lat="45.69526" lon="5.98628">
        <ele>1118.1506347656</ele>
        <time>2012-02-11T14:29:08Z</time>
      </trkpt>
      <trkpt lat="45.69526" lon="5.98628">
        <ele>1117.669921875</ele>
        <time>2012-02-11T14:29:10Z</time>
      </trkpt>
      <trkpt lat="45.69528" lon="5.98629">
        <ele>1116.7087402344</ele>
        <time>2012-02-11T14:29:15Z</time>
      </trkpt>
      <trkpt lat="45.69527" lon="5.9863">
        <ele>1115.7473144531</ele>
        <time>2012-02-11T14:29:19Z</time>
      </trkpt>
      <trkpt lat="45.69529" lon="5.9863">
        <ele>1115.2666015625</ele>
        <time>2012-02-11T14:29:21Z</time>
      </trkpt>
      <trkpt lat="45.69529" lon="5.9863">
        <ele>1115.7473144531</ele>
        <time>2012-02-11T14:29:22Z</time>
      </trkpt>
      <trkpt lat="45.69529" lon="5.98626">
        <ele>1113.8244628906</ele>
        <time>2012-02-11T14:29:27Z</time>
      </trkpt>
      <trkpt lat="45.69527" lon="5.9863">
        <ele>1111.9020996094</ele>
        <time>2012-02-11T14:29:31Z</time>
      </trkpt>
      <trkpt lat="45.69526" lon="5.9863">
        <ele>1110.9406738281</ele>
        <time>2012-02-11T14:29:34Z</time>
      </trkpt>
      <trkpt lat="45.69526" lon="5.98629">
        <ele>1110.4599609375</ele>
        <time>2012-02-11T14:29:36Z</time>
      </trkpt>
      <trkpt lat="45.69523" lon="5.98629">
        <ele>1107.0954589844</ele>
        <time>2012-02-11T14:29:45Z</time>
      </trkpt>
      <trkpt lat="45.69523" lon="5.98628">
        <ele>1106.1340332031</ele>
        <time>2012-02-11T14:29:53Z</time>
      </trkpt>
      <trkpt lat="45.69522" lon="5.98628">
        <ele>1106.6147460938</ele>
        <time>2012-02-11T14:29:56Z</time>
      </trkpt>
      <trkpt lat="45.69521" lon="5.98629">
        <ele>1107.576171875</ele>
        <time>2012-02-11T14:30:05Z</time>
      </trkpt>
      <trkpt lat="45.69522" lon="5.98628">
        <ele>1106.1340332031</ele>
        <time>2012-02-11T14:30:13Z</time>
      </trkpt>
      <trkpt lat="45.69523" lon="5.98628">
        <ele>1106.1340332031</ele>
        <time>2012-02-11T14:30:17Z</time>
      </trkpt>
      <trkpt lat="45.69522" lon="5.9863">
        <ele>1108.0568847656</ele>
        <time>2012-02-11T14:30:24Z</time>
      </trkpt>
      <trkpt lat="45.69523" lon="5.98629">
        <ele>1109.9792480469</ele>
        <time>2012-02-11T14:30:32Z</time>
      </trkpt>
      <trkpt lat="45.69522" lon="5.9863">
        <ele>1110.9406738281</ele>
        <time>2012-02-11T14:30:37Z</time>
      </trkpt>
      <trkpt lat="45.69521" lon="5.98634">
        <ele>1113.8244628906</ele>
        <time>2012-02-11T14:30:44Z</time>
      </trkpt>
      <trkpt lat="45.69521" lon="5.98635">
        <ele>1115.2666015625</ele>
        <time>2012-02-11T14:30:48Z</time>
      </trkpt>
      <trkpt lat="45.69522" lon="5.98629">
        <ele>1119.1120605469</ele>
        <time>2012-02-11T14:31:01Z</time>
      </trkpt>
      <trkpt lat="45.69521" lon="5.98627">
        <ele>1119.1120605469</ele>
        <time>2012-02-11T14:31:07Z</time>
      </trkpt>
      <trkpt lat="45.6952" lon="5.98628">
        <ele>1118.1506347656</ele>
        <time>2012-02-11T14:31:10Z</time>
      </trkpt>
      <trkpt lat="45.69518" lon="5.98635">
        <ele>1117.189453125</ele>
        <time>2012-02-11T14:31:15Z</time>
      </trkpt>
      <trkpt lat="45.69515" lon="5.98639">
        <ele>1114.3051757812</ele>
        <time>2012-02-11T14:31:20Z</time>
      </trkpt>
      <trkpt lat="45.69516" lon="5.98638">
        <ele>1113.8244628906</ele>
        <time>2012-02-11T14:31:25Z</time>
      </trkpt>
      <trkpt lat="45.69516" lon="5.9864">
        <ele>1116.2280273438</ele>
        <time>2012-02-11T14:31:30Z</time>
      </trkpt>
      <trkpt lat="45.69516" lon="5.98645">
        <ele>1115.2666015625</ele>
        <time>2012-02-11T14:31:35Z</time>
      </trkpt>
      <trkpt lat="45.69518" lon="5.98644">
        <ele>1113.8244628906</ele>
        <time>2012-02-11T14:31:42Z</time>
      </trkpt>
      <trkpt lat="45.6952" lon="5.98641">
        <ele>1114.7858886719</ele>
        <time>2012-02-11T14:31:59Z</time>
      </trkpt>
      <trkpt lat="45.69521" lon="5.98639">
        <ele>1117.189453125</ele>
        <time>2012-02-11T14:32:08Z</time>
      </trkpt>
      <trkpt lat="45.69518" lon="5.98639">
        <ele>1116.2280273438</ele>
        <time>2012-02-11T14:32:11Z</time>
      </trkpt>
      <trkpt lat="45.69516" lon="5.98637">
        <ele>1115.7473144531</ele>
        <time>2012-02-11T14:32:13Z</time>
      </trkpt>
      <trkpt lat="45.69517" lon="5.98632">
        <ele>1114.3051757812</ele>
        <time>2012-02-11T14:32:17Z</time>
      </trkpt>
      <trkpt lat="45.69518" lon="5.98628">
        <ele>1113.3439941406</ele>
        <time>2012-02-11T14:32:20Z</time>
      </trkpt>
      <trkpt lat="45.6952" lon="5.98616">
        <ele>1109.0180664062</ele>
        <time>2012-02-11T14:32:26Z</time>
      </trkpt>
      <trkpt lat="45.69521" lon="5.98613">
        <ele>1109.0180664062</ele>
        <time>2012-02-11T14:32:27Z</time>
      </trkpt>
      <trkpt lat="45.69529" lon="5.9858">
        <ele>1102.2888183594</ele>
        <time>2012-02-11T14:32:34Z</time>
      </trkpt>
      <trkpt lat="45.69533" lon="5.98562">
        <ele>1098.9240722656</ele>
        <time>2012-02-11T14:32:37Z</time>
      </trkpt>
      <trkpt lat="45.69538" lon="5.98541">
        <ele>1095.5595703125</ele>
        <time>2012-02-11T14:32:40Z</time>
      </trkpt>
      <trkpt lat="45.6954" lon="5.985">
        <ele>1085.4658203125</ele>
        <time>2012-02-11T14:32:46Z</time>
      </trkpt>
      <trkpt lat="45.69543" lon="5.98476">
        <ele>1079.6977539062</ele>
        <time>2012-02-11T14:32:51Z</time>
      </trkpt>
      <trkpt lat="45.69543" lon="5.98468">
        <ele>1081.1398925781</ele>
        <time>2012-02-11T14:32:56Z</time>
      </trkpt>
      <trkpt lat="45.69547" lon="5.98465">
        <ele>1084.5046386719</ele>
        <time>2012-02-11T14:33:04Z</time>
      </trkpt>
      <trkpt lat="45.69551" lon="5.98464">
        <ele>1088.8305664062</ele>
        <time>2012-02-11T14:33:11Z</time>
      </trkpt>
      <trkpt lat="45.69551" lon="5.98459">
        <ele>1091.2336425781</ele>
        <time>2012-02-11T14:33:24Z</time>
      </trkpt>
      <trkpt lat="45.69551" lon="5.98457">
        <ele>1089.7917480469</ele>
        <time>2012-02-11T14:33:26Z</time>
      </trkpt>
      <trkpt lat="45.69558" lon="5.98438">
        <ele>1085.4658203125</ele>
        <time>2012-02-11T14:33:31Z</time>
      </trkpt>
      <trkpt lat="45.69568" lon="5.98419">
        <ele>1080.1784667969</ele>
        <time>2012-02-11T14:33:35Z</time>
      </trkpt>
      <trkpt lat="45.69587" lon="5.98388">
        <ele>1072.4880371094</ele>
        <time>2012-02-11T14:33:40Z</time>
      </trkpt>
      <trkpt lat="45.69594" lon="5.98375">
        <ele>1069.6042480469</ele>
        <time>2012-02-11T14:33:42Z</time>
      </trkpt>
      <trkpt lat="45.69604" lon="5.98339">
        <ele>1061.4328613281</ele>
        <time>2012-02-11T14:33:47Z</time>
      </trkpt>
      <trkpt lat="45.69606" lon="5.98315">
        <ele>1055.6650390625</ele>
        <time>2012-02-11T14:33:51Z</time>
      </trkpt>
      <trkpt lat="45.69604" lon="5.98302">
        <ele>1053.7424316406</ele>
        <time>2012-02-11T14:33:53Z</time>
      </trkpt>
      <trkpt lat="45.69601" lon="5.98273">
        <ele>1050.8581542969</ele>
        <time>2012-02-11T14:33:57Z</time>
      </trkpt>
      <trkpt lat="45.69594" lon="5.98253">
        <ele>1048.4548339844</ele>
        <time>2012-02-11T14:34:01Z</time>
      </trkpt>
      <trkpt lat="45.69594" lon="5.98252">
        <ele>1048.4548339844</ele>
        <time>2012-02-11T14:34:06Z</time>
      </trkpt>
      <trkpt lat="45.69596" lon="5.98253">
        <ele>1050.3776855469</ele>
        <time>2012-02-11T14:34:20Z</time>
      </trkpt>
      <trkpt lat="45.69597" lon="5.98252">
        <ele>1050.8581542969</ele>
        <time>2012-02-11T14:34:24Z</time>
      </trkpt>
      <trkpt lat="45.69595" lon="5.98252">
        <ele>1048.4548339844</ele>
        <time>2012-02-11T14:34:33Z</time>
      </trkpt>
      <trkpt lat="45.69594" lon="5.98251">
        <ele>1047.9743652344</ele>
        <time>2012-02-11T14:34:41Z</time>
      </trkpt>
      <trkpt lat="45.69598" lon="5.98251">
        <ele>1048.935546875</ele>
        <time>2012-02-11T14:34:45Z</time>
      </trkpt>
      <trkpt lat="45.696" lon="5.98251">
        <ele>1048.935546875</ele>
        <time>2012-02-11T14:34:47Z</time>
      </trkpt>
      <trkpt lat="45.69598" lon="5.98249">
        <ele>1047.9743652344</ele>
        <time>2012-02-11T14:34:53Z</time>
      </trkpt>
      <trkpt lat="45.69596" lon="5.98248">
        <ele>1049.4162597656</ele>
        <time>2012-02-11T14:34:59Z</time>
      </trkpt>
      <trkpt lat="45.69597" lon="5.98248">
        <ele>1049.4162597656</ele>
        <time>2012-02-11T14:35:04Z</time>
      </trkpt>
      <trkpt lat="45.69596" lon="5.98247">
        <ele>1048.935546875</ele>
        <time>2012-02-11T14:35:15Z</time>
      </trkpt>
      <trkpt lat="45.69593" lon="5.98244">
        <ele>1049.4162597656</ele>
        <time>2012-02-11T14:35:20Z</time>
      </trkpt>
      <trkpt lat="45.6959" lon="5.98236">
        <ele>1050.8581542969</ele>
        <time>2012-02-11T14:35:25Z</time>
      </trkpt>
      <trkpt lat="45.69588" lon="5.98231">
        <ele>1049.8969726562</ele>
        <time>2012-02-11T14:35:28Z</time>
      </trkpt>
      <trkpt lat="45.69586" lon="5.98227">
        <ele>1049.4162597656</ele>
        <time>2012-02-11T14:35:33Z</time>
      </trkpt>
      <trkpt lat="45.69583" lon="5.98222">
        <ele>1048.4548339844</ele>
        <time>2012-02-11T14:35:37Z</time>
      </trkpt>
      <trkpt lat="45.69581" lon="5.98216">
        <ele>1047.4936523438</ele>
        <time>2012-02-11T14:35:41Z</time>
      </trkpt>
      <trkpt lat="45.69579" lon="5.98213">
        <ele>1046.5324707031</ele>
        <time>2012-02-11T14:35:43Z</time>
      </trkpt>
      <trkpt lat="45.69576" lon="5.98204">
        <ele>1046.0517578125</ele>
        <time>2012-02-11T14:35:49Z</time>
      </trkpt>
      <trkpt lat="45.69575" lon="5.98201">
        <ele>1046.0517578125</ele>
        <time>2012-02-11T14:35:51Z</time>
      </trkpt>
      <trkpt lat="45.69573" lon="5.98195">
        <ele>1044.6096191406</ele>
        <time>2012-02-11T14:35:56Z</time>
      </trkpt>
      <trkpt lat="45.69569" lon="5.98186">
        <ele>1045.0903320312</ele>
        <time>2012-02-11T14:36:03Z</time>
      </trkpt>
      <trkpt lat="45.69568" lon="5.9818">
        <ele>1044.6096191406</ele>
        <time>2012-02-11T14:36:07Z</time>
      </trkpt>
      <trkpt lat="45.69567" lon="5.98178">
        <ele>1044.1291503906</ele>
        <time>2012-02-11T14:36:09Z</time>
      </trkpt>
      <trkpt lat="45.69565" lon="5.9817">
        <ele>1043.6484375</ele>
        <time>2012-02-11T14:36:16Z</time>
      </trkpt>
      <trkpt lat="45.69563" lon="5.98161">
        <ele>1043.1677246094</ele>
        <time>2012-02-11T14:36:22Z</time>
      </trkpt>
      <trkpt lat="45.69561" lon="5.98152">
        <ele>1042.2065429688</ele>
        <time>2012-02-11T14:36:28Z</time>
      </trkpt>
      <trkpt lat="45.69559" lon="5.98146">
        <ele>1041.7258300781</ele>
        <time>2012-02-11T14:36:32Z</time>
      </trkpt>
      <trkpt lat="45.69558" lon="5.98139">
        <ele>1041.2451171875</ele>
        <time>2012-02-11T14:36:36Z</time>
      </trkpt>
      <trkpt lat="45.69556" lon="5.98131">
        <ele>1039.8032226562</ele>
        <time>2012-02-11T14:36:42Z</time>
      </trkpt>
      <trkpt lat="45.69556" lon="5.98127">
        <ele>1039.8032226562</ele>
        <time>2012-02-11T14:36:47Z</time>
      </trkpt>
      <trkpt lat="45.69556" lon="5.98126">
        <ele>1038.8420410156</ele>
        <time>2012-02-11T14:36:55Z</time>
      </trkpt>
      <trkpt lat="45.69555" lon="5.98124">
        <ele>1039.8032226562</ele>
        <time>2012-02-11T14:37:08Z</time>
      </trkpt>
      <trkpt lat="45.69555" lon="5.98124">
        <ele>1039.8032226562</ele>
        <time>2012-02-11T14:37:13Z</time>
      </trkpt>
      <trkpt lat="45.69553" lon="5.98124">
        <ele>1037.3999023438</ele>
        <time>2012-02-11T14:37:20Z</time>
      </trkpt>
      <trkpt lat="45.69553" lon="5.9812">
        <ele>1036.4387207031</ele>
        <time>2012-02-11T14:37:24Z</time>
      </trkpt>
      <trkpt lat="45.69554" lon="5.981">
        <ele>1033.5544433594</ele>
        <time>2012-02-11T14:37:30Z</time>
      </trkpt>
      <trkpt lat="45.69557" lon="5.98075">
        <ele>1029.7092285156</ele>
        <time>2012-02-11T14:37:35Z</time>
      </trkpt>
      <trkpt lat="45.69557" lon="5.98075">
        <ele>1026.8254394531</ele>
        <time>2012-02-11T14:37:40Z</time>
      </trkpt>
      <trkpt lat="45.69557" lon="5.98087">
        <ele>1027.3061523438</ele>
        <time>2012-02-11T14:37:41Z</time>
      </trkpt>
      <trkpt lat="45.69545" lon="5.98084">
        <ele>1018.6540527344</ele>
        <time>2012-02-11T14:37:46Z</time>
      </trkpt>
      <trkpt lat="45.69542" lon="5.98083">
        <ele>1017.2121582031</ele>
        <time>2012-02-11T14:37:47Z</time>
      </trkpt>
      <trkpt lat="45.69543" lon="5.98065">
        <ele>1015.2895507812</ele>
        <time>2012-02-11T14:37:52Z</time>
      </trkpt>
      <trkpt lat="45.69548" lon="5.98058">
        <ele>1016.7314453125</ele>
        <time>2012-02-11T14:37:56Z</time>
      </trkpt>
      <trkpt lat="45.69542" lon="5.98043">
        <ele>1016.2507324219</ele>
        <time>2012-02-11T14:38:03Z</time>
      </trkpt>
      <trkpt lat="45.69551" lon="5.98037">
        <ele>1025.8640136719</ele>
        <time>2012-02-11T14:38:09Z</time>
      </trkpt>
      <trkpt lat="45.69553" lon="5.9803">
        <ele>1037.3999023438</ele>
        <time>2012-02-11T14:38:24Z</time>
      </trkpt>
      <trkpt lat="45.6955" lon="5.98028">
        <ele>1038.8420410156</ele>
        <time>2012-02-11T14:38:45Z</time>
      </trkpt>
      <trkpt lat="45.69549" lon="5.98025">
        <ele>1036.4387207031</ele>
        <time>2012-02-11T14:38:47Z</time>
      </trkpt>
      <trkpt lat="45.69546" lon="5.98003">
        <ele>1027.7866210938</ele>
        <time>2012-02-11T14:38:55Z</time>
      </trkpt>
      <trkpt lat="45.69542" lon="5.97975">
        <ele>1020.0961914062</ele>
        <time>2012-02-11T14:39:02Z</time>
      </trkpt>
      <trkpt lat="45.69539" lon="5.97947">
        <ele>1013.3669433594</ele>
        <time>2012-02-11T14:39:08Z</time>
      </trkpt>
      <trkpt lat="45.69537" lon="5.97925">
        <ele>1009.041015625</ele>
        <time>2012-02-11T14:39:12Z</time>
      </trkpt>
      <trkpt lat="45.69533" lon="5.97889">
        <ele>1003.2729492188</ele>
        <time>2012-02-11T14:39:17Z</time>
      </trkpt>
      <trkpt lat="45.69529" lon="5.97842">
        <ele>996.06323242188</ele>
        <time>2012-02-11T14:39:22Z</time>
      </trkpt>
      <trkpt lat="45.69525" lon="5.97797">
        <ele>990.77587890625</ele>
        <time>2012-02-11T14:39:27Z</time>
      </trkpt>
      <trkpt lat="45.69519" lon="5.97769">
        <ele>986.93041992188</ele>
        <time>2012-02-11T14:39:30Z</time>
      </trkpt>
      <trkpt lat="45.69513" lon="5.9773">
        <ele>980.68212890625</ele>
        <time>2012-02-11T14:39:34Z</time>
      </trkpt>
      <trkpt lat="45.69502" lon="5.9768">
        <ele>974.43359375</ele>
        <time>2012-02-11T14:39:39Z</time>
      </trkpt>
      <trkpt lat="45.69477" lon="5.97626">
        <ele>963.37841796875</ele>
        <time>2012-02-11T14:39:45Z</time>
      </trkpt>
      <trkpt lat="45.69458" lon="5.97583">
        <ele>955.68774414062</ele>
        <time>2012-02-11T14:39:50Z</time>
      </trkpt>
      <trkpt lat="45.69456" lon="5.97577">
        <ele>953.76513671875</ele>
        <time>2012-02-11T14:39:51Z</time>
      </trkpt>
      <trkpt lat="45.69453" lon="5.9757">
        <ele>951.36181640625</ele>
        <time>2012-02-11T14:39:55Z</time>
      </trkpt>
      <trkpt lat="45.69453" lon="5.97572">
        <ele>951.36181640625</ele>
        <time>2012-02-11T14:40:00Z</time>
      </trkpt>
      <trkpt lat="45.69455" lon="5.97577">
        <ele>951.84252929688</ele>
        <time>2012-02-11T14:40:04Z</time>
      </trkpt>
      <trkpt lat="45.69455" lon="5.9758">
        <ele>953.28442382812</ele>
        <time>2012-02-11T14:40:09Z</time>
      </trkpt>
      <trkpt lat="45.69456" lon="5.97581">
        <ele>954.72631835938</ele>
        <time>2012-02-11T14:40:13Z</time>
      </trkpt>
      <trkpt lat="45.69458" lon="5.97586">
        <ele>955.68774414062</ele>
        <time>2012-02-11T14:40:17Z</time>
      </trkpt>
      <trkpt lat="45.6946" lon="5.97594">
        <ele>957.1298828125</ele>
        <time>2012-02-11T14:40:22Z</time>
      </trkpt>
      <trkpt lat="45.69464" lon="5.97601">
        <ele>959.533203125</ele>
        <time>2012-02-11T14:40:28Z</time>
      </trkpt>
      <trkpt lat="45.69467" lon="5.97606">
        <ele>960.49438476562</ele>
        <time>2012-02-11T14:40:32Z</time>
      </trkpt>
      <trkpt lat="45.69469" lon="5.9761">
        <ele>961.9365234375</ele>
        <time>2012-02-11T14:40:36Z</time>
      </trkpt>
      <trkpt lat="45.69472" lon="5.97617">
        <ele>962.89770507812</ele>
        <time>2012-02-11T14:40:43Z</time>
      </trkpt>
      <trkpt lat="45.69473" lon="5.97622">
        <ele>963.37841796875</ele>
        <time>2012-02-11T14:40:49Z</time>
      </trkpt>
      <trkpt lat="45.69474" lon="5.97626">
        <ele>963.85888671875</ele>
        <time>2012-02-11T14:40:54Z</time>
      </trkpt>
      <trkpt lat="45.69476" lon="5.97629">
        <ele>964.8203125</ele>
        <time>2012-02-11T14:40:59Z</time>
      </trkpt>
      <trkpt lat="45.69474" lon="5.97627">
        <ele>964.8203125</ele>
        <time>2012-02-11T14:41:18Z</time>
      </trkpt>
      <trkpt lat="45.69473" lon="5.97627">
        <ele>963.37841796875</ele>
        <time>2012-02-11T14:41:28Z</time>
      </trkpt>
      <trkpt lat="45.69473" lon="5.97626">
        <ele>962.4169921875</ele>
        <time>2012-02-11T14:41:40Z</time>
      </trkpt>
      <trkpt lat="45.69474" lon="5.97626">
        <ele>962.89770507812</ele>
        <time>2012-02-11T14:41:44Z</time>
      </trkpt>
      <trkpt lat="45.69474" lon="5.97624">
        <ele>962.4169921875</ele>
        <time>2012-02-11T14:41:53Z</time>
      </trkpt>
      <trkpt lat="45.69464" lon="5.97606">
        <ele>958.57177734375</ele>
        <time>2012-02-11T14:41:59Z</time>
      </trkpt>
      <trkpt lat="45.69453" lon="5.97571">
        <ele>953.28442382812</ele>
        <time>2012-02-11T14:42:04Z</time>
      </trkpt>
      <trkpt lat="45.69449" lon="5.97517">
        <ele>945.59399414062</ele>
        <time>2012-02-11T14:42:10Z</time>
      </trkpt>
      <trkpt lat="45.69458" lon="5.97471">
        <ele>938.86474609375</ele>
        <time>2012-02-11T14:42:15Z</time>
      </trkpt>
      <trkpt lat="45.69473" lon="5.97428">
        <ele>933.0966796875</ele>
        <time>2012-02-11T14:42:20Z</time>
      </trkpt>
      <trkpt lat="45.69477" lon="5.9742">
        <ele>931.65478515625</ele>
        <time>2012-02-11T14:42:21Z</time>
      </trkpt>
      <trkpt lat="45.69484" lon="5.97398">
        <ele>927.8095703125</ele>
        <time>2012-02-11T14:42:24Z</time>
      </trkpt>
      <trkpt lat="45.69487" lon="5.97386">
        <ele>925.88696289062</ele>
        <time>2012-02-11T14:42:26Z</time>
      </trkpt>
      <trkpt lat="45.69489" lon="5.97381">
        <ele>923.48364257812</ele>
        <time>2012-02-11T14:42:30Z</time>
      </trkpt>
      <trkpt lat="45.6949" lon="5.97381">
        <ele>923.0029296875</ele>
        <time>2012-02-11T14:42:33Z</time>
      </trkpt>
      <trkpt lat="45.6949" lon="5.97381">
        <ele>923.0029296875</ele>
        <time>2012-02-11T14:42:34Z</time>
      </trkpt>
      <trkpt lat="45.69489" lon="5.9738">
        <ele>923.0029296875</ele>
        <time>2012-02-11T14:42:39Z</time>
      </trkpt>
      <trkpt lat="45.6949" lon="5.97379">
        <ele>924.92578125</ele>
        <time>2012-02-11T14:42:50Z</time>
      </trkpt>
      <trkpt lat="45.69491" lon="5.97379">
        <ele>924.44506835938</ele>
        <time>2012-02-11T14:42:56Z</time>
      </trkpt>
      <trkpt lat="45.69491" lon="5.97379">
        <ele>924.44506835938</ele>
        <time>2012-02-11T14:43:01Z</time>
      </trkpt>
      <trkpt lat="45.69491" lon="5.97378">
        <ele>924.44506835938</ele>
        <time>2012-02-11T14:43:08Z</time>
      </trkpt>
      <trkpt lat="45.69489" lon="5.9738">
        <ele>924.92578125</ele>
        <time>2012-02-11T14:43:13Z</time>
      </trkpt>
      <trkpt lat="45.69489" lon="5.97382">
        <ele>926.84838867188</ele>
        <time>2012-02-11T14:43:20Z</time>
      </trkpt>
      <trkpt lat="45.6949" lon="5.97382">
        <ele>927.3291015625</ele>
        <time>2012-02-11T14:43:24Z</time>
      </trkpt>
      <trkpt lat="45.6949" lon="5.97378">
        <ele>927.3291015625</ele>
        <time>2012-02-11T14:43:30Z</time>
      </trkpt>
      <trkpt lat="45.69492" lon="5.97358">
        <ele>924.44506835938</ele>
        <time>2012-02-11T14:43:34Z</time>
      </trkpt>
      <trkpt lat="45.69492" lon="5.97328">
        <ele>921.56079101562</ele>
        <time>2012-02-11T14:43:38Z</time>
      </trkpt>
      <trkpt lat="45.6949" lon="5.97313">
        <ele>919.15771484375</ele>
        <time>2012-02-11T14:43:40Z</time>
      </trkpt>
      <trkpt lat="45.69484" lon="5.97283">
        <ele>913.87036132812</ele>
        <time>2012-02-11T14:43:44Z</time>
      </trkpt>
      <trkpt lat="45.69483" lon="5.97273">
        <ele>910.505859375</ele>
        <time>2012-02-11T14:43:50Z</time>
      </trkpt>
      <trkpt lat="45.69481" lon="5.97269">
        <ele>908.10278320312</ele>
        <time>2012-02-11T14:43:56Z</time>
      </trkpt>
      <trkpt lat="45.69478" lon="5.97252">
        <ele>905.21850585938</ele>
        <time>2012-02-11T14:44:00Z</time>
      </trkpt>
      <trkpt lat="45.69474" lon="5.9723">
        <ele>901.37329101562</ele>
        <time>2012-02-11T14:44:05Z</time>
      </trkpt>
      <trkpt lat="45.69473" lon="5.97205">
        <ele>897.52807617188</ele>
        <time>2012-02-11T14:44:09Z</time>
      </trkpt>
      <trkpt lat="45.69472" lon="5.9719">
        <ele>895.12475585938</ele>
        <time>2012-02-11T14:44:11Z</time>
      </trkpt>
      <trkpt lat="45.69471" lon="5.97148">
        <ele>889.83740234375</ele>
        <time>2012-02-11T14:44:16Z</time>
      </trkpt>
      <trkpt lat="45.69473" lon="5.97114">
        <ele>885.51147460938</ele>
        <time>2012-02-11T14:44:20Z</time>
      </trkpt>
      <trkpt lat="45.69479" lon="5.97076">
        <ele>878.78247070312</ele>
        <time>2012-02-11T14:44:25Z</time>
      </trkpt>
      <trkpt lat="45.6948" lon="5.97042">
        <ele>873.9755859375</ele>
        <time>2012-02-11T14:44:29Z</time>
      </trkpt>
      <trkpt lat="45.69487" lon="5.97022">
        <ele>871.091796875</ele>
        <time>2012-02-11T14:44:33Z</time>
      </trkpt>
      <trkpt lat="45.69487" lon="5.97022">
        <ele>870.13037109375</ele>
        <time>2012-02-11T14:44:34Z</time>
      </trkpt>
      <trkpt lat="45.69489" lon="5.97024">
        <ele>868.20776367188</ele>
        <time>2012-02-11T14:44:41Z</time>
      </trkpt>
      <trkpt lat="45.69488" lon="5.97023">
        <ele>869.64990234375</ele>
        <time>2012-02-11T14:44:53Z</time>
      </trkpt>
      <trkpt lat="45.69488" lon="5.97019">
        <ele>874.93701171875</ele>
        <time>2012-02-11T14:45:26Z</time>
      </trkpt>
      <trkpt lat="45.69489" lon="5.97022">
        <ele>873.4951171875</ele>
        <time>2012-02-11T14:45:28Z</time>
      </trkpt>
      <trkpt lat="45.69489" lon="5.97022">
        <ele>873.4951171875</ele>
        <time>2012-02-11T14:45:29Z</time>
      </trkpt>
      <trkpt lat="45.69489" lon="5.97025">
        <ele>873.01440429688</ele>
        <time>2012-02-11T14:45:33Z</time>
      </trkpt>
      <trkpt lat="45.69491" lon="5.97028">
        <ele>873.4951171875</ele>
        <time>2012-02-11T14:45:38Z</time>
      </trkpt>
      <trkpt lat="45.69493" lon="5.97033">
        <ele>873.9755859375</ele>
        <time>2012-02-11T14:45:43Z</time>
      </trkpt>
      <trkpt lat="45.69495" lon="5.97038">
        <ele>874.45629882812</ele>
        <time>2012-02-11T14:45:47Z</time>
      </trkpt>
      <trkpt lat="45.69497" lon="5.97044">
        <ele>874.93701171875</ele>
        <time>2012-02-11T14:45:52Z</time>
      </trkpt>
      <trkpt lat="45.69499" lon="5.97047">
        <ele>875.41748046875</ele>
        <time>2012-02-11T14:45:55Z</time>
      </trkpt>
      <trkpt lat="45.69503" lon="5.97058">
        <ele>875.89819335938</ele>
        <time>2012-02-11T14:46:03Z</time>
      </trkpt>
      <trkpt lat="45.69505" lon="5.97065">
        <ele>874.93701171875</ele>
        <time>2012-02-11T14:46:11Z</time>
      </trkpt>
      <trkpt lat="45.69506" lon="5.9707">
        <ele>874.45629882812</ele>
        <time>2012-02-11T14:46:16Z</time>
      </trkpt>
      <trkpt lat="45.69511" lon="5.97082">
        <ele>873.9755859375</ele>
        <time>2012-02-11T14:46:24Z</time>
      </trkpt>
      <trkpt lat="45.69515" lon="5.9709">
        <ele>873.01440429688</ele>
        <time>2012-02-11T14:46:30Z</time>
      </trkpt>
      <trkpt lat="45.69516" lon="5.97093">
        <ele>872.53369140625</ele>
        <time>2012-02-11T14:46:32Z</time>
      </trkpt>
      <trkpt lat="45.69521" lon="5.97105">
        <ele>871.091796875</ele>
        <time>2012-02-11T14:46:40Z</time>
      </trkpt>
      <trkpt lat="45.69522" lon="5.97106">
        <ele>871.091796875</ele>
        <time>2012-02-11T14:46:41Z</time>
      </trkpt>
      <trkpt lat="45.69525" lon="5.97118">
        <ele>869.16918945312</ele>
        <time>2012-02-11T14:46:49Z</time>
      </trkpt>
      <trkpt lat="45.69526" lon="5.97119">
        <ele>868.6884765625</ele>
        <time>2012-02-11T14:46:50Z</time>
      </trkpt>
      <trkpt lat="45.6953" lon="5.97128">
        <ele>867.24658203125</ele>
        <time>2012-02-11T14:46:57Z</time>
      </trkpt>
      <trkpt lat="45.69534" lon="5.97135">
        <ele>867.24658203125</ele>
        <time>2012-02-11T14:47:02Z</time>
      </trkpt>
      <trkpt lat="45.69538" lon="5.97143">
        <ele>867.24658203125</ele>
        <time>2012-02-11T14:47:09Z</time>
      </trkpt>
      <trkpt lat="45.69543" lon="5.97152">
        <ele>867.24658203125</ele>
        <time>2012-02-11T14:47:16Z</time>
      </trkpt>
      <trkpt lat="45.69545" lon="5.97154">
        <ele>867.24658203125</ele>
        <time>2012-02-11T14:47:18Z</time>
      </trkpt>
      <trkpt lat="45.69551" lon="5.97163">
        <ele>866.28515625</ele>
        <time>2012-02-11T14:47:26Z</time>
      </trkpt>
      <trkpt lat="45.69556" lon="5.97169">
        <ele>866.76586914062</ele>
        <time>2012-02-11T14:47:32Z</time>
      </trkpt>
      <trkpt lat="45.69559" lon="5.97174">
        <ele>866.76586914062</ele>
        <time>2012-02-11T14:47:37Z</time>
      </trkpt>
      <trkpt lat="45.69566" lon="5.97181">
        <ele>865.8046875</ele>
        <time>2012-02-11T14:47:45Z</time>
      </trkpt>
      <trkpt lat="45.69572" lon="5.97188">
        <ele>865.32397460938</ele>
        <time>2012-02-11T14:47:51Z</time>
      </trkpt>
      <trkpt lat="45.69576" lon="5.97194">
        <ele>864.36254882812</ele>
        <time>2012-02-11T14:47:57Z</time>
      </trkpt>
      <trkpt lat="45.69582" lon="5.97198">
        <ele>864.36254882812</ele>
        <time>2012-02-11T14:48:02Z</time>
      </trkpt>
      <trkpt lat="45.69586" lon="5.97205">
        <ele>863.4013671875</ele>
        <time>2012-02-11T14:48:08Z</time>
      </trkpt>
      <trkpt lat="45.69587" lon="5.97208">
        <ele>862.43994140625</ele>
        <time>2012-02-11T14:48:14Z</time>
      </trkpt>
      <trkpt lat="45.69586" lon="5.97206">
        <ele>862.43994140625</ele>
        <time>2012-02-11T14:48:28Z</time>
      </trkpt>
      <trkpt lat="45.69586" lon="5.97205">
        <ele>862.43994140625</ele>
        <time>2012-02-11T14:48:41Z</time>
      </trkpt>
      <trkpt lat="45.69586" lon="5.97207">
        <ele>863.4013671875</ele>
        <time>2012-02-11T14:48:48Z</time>
      </trkpt>
      <trkpt lat="45.69587" lon="5.97208">
        <ele>863.4013671875</ele>
        <time>2012-02-11T14:48:52Z</time>
      </trkpt>
      <trkpt lat="45.69592" lon="5.97216">
        <ele>862.92065429688</ele>
        <time>2012-02-11T14:48:58Z</time>
      </trkpt>
      <trkpt lat="45.69597" lon="5.97224">
        <ele>862.43994140625</ele>
        <time>2012-02-11T14:49:05Z</time>
      </trkpt>
      <trkpt lat="45.69601" lon="5.97231">
        <ele>862.92065429688</ele>
        <time>2012-02-11T14:49:11Z</time>
      </trkpt>
      <trkpt lat="45.69602" lon="5.97233">
        <ele>862.92065429688</ele>
        <time>2012-02-11T14:49:13Z</time>
      </trkpt>
      <trkpt lat="45.69606" lon="5.97238">
        <ele>863.4013671875</ele>
        <time>2012-02-11T14:49:18Z</time>
      </trkpt>
      <trkpt lat="45.6961" lon="5.97244">
        <ele>862.92065429688</ele>
        <time>2012-02-11T14:49:23Z</time>
      </trkpt>
      <trkpt lat="45.6961" lon="5.97245">
        <ele>862.43994140625</ele>
        <time>2012-02-11T14:49:24Z</time>
      </trkpt>
      <trkpt lat="45.69614" lon="5.97248">
        <ele>861.95947265625</ele>
        <time>2012-02-11T14:49:28Z</time>
      </trkpt>
      <trkpt lat="45.69617" lon="5.9725">
        <ele>861.47875976562</ele>
        <time>2012-02-11T14:49:31Z</time>
      </trkpt>
      <trkpt lat="45.6962" lon="5.97252">
        <ele>860.998046875</ele>
        <time>2012-02-11T14:49:35Z</time>
      </trkpt>
      <trkpt lat="45.69628" lon="5.97254">
        <ele>861.47875976562</ele>
        <time>2012-02-11T14:49:43Z</time>
      </trkpt>
      <trkpt lat="45.6963" lon="5.97255">
        <ele>860.998046875</ele>
        <time>2012-02-11T14:49:48Z</time>
      </trkpt>
      <trkpt lat="45.69633" lon="5.97255">
        <ele>860.998046875</ele>
        <time>2012-02-11T14:50:00Z</time>
      </trkpt>
      <trkpt lat="45.69643" lon="5.97256">
        <ele>861.47875976562</ele>
        <time>2012-02-11T14:50:05Z</time>
      </trkpt>
      <trkpt lat="45.69659" lon="5.97259">
        <ele>859.55590820312</ele>
        <time>2012-02-11T14:50:12Z</time>
      </trkpt>
      <trkpt lat="45.69678" lon="5.97263">
        <ele>856.671875</ele>
        <time>2012-02-11T14:50:19Z</time>
      </trkpt>
      <trkpt lat="45.69706" lon="5.97268">
        <ele>853.30737304688</ele>
        <time>2012-02-11T14:50:28Z</time>
      </trkpt>
      <trkpt lat="45.6972" lon="5.97272">
        <ele>852.34594726562</ele>
        <time>2012-02-11T14:50:32Z</time>
      </trkpt>
      <trkpt lat="45.69748" lon="5.97287">
        <ele>848.50073242188</ele>
        <time>2012-02-11T14:50:39Z</time>
      </trkpt>
      <trkpt lat="45.69776" lon="5.97303">
        <ele>844.65551757812</ele>
        <time>2012-02-11T14:50:45Z</time>
      </trkpt>
      <trkpt lat="45.69814" lon="5.97329">
        <ele>837.44555664062</ele>
        <time>2012-02-11T14:50:53Z</time>
      </trkpt>
      <trkpt lat="45.69848" lon="5.97352">
        <ele>832.15844726562</ele>
        <time>2012-02-11T14:51:00Z</time>
      </trkpt>
      <trkpt lat="45.69868" lon="5.97366">
        <ele>829.2744140625</ele>
        <time>2012-02-11T14:51:05Z</time>
      </trkpt>
      <trkpt lat="45.69875" lon="5.97372">
        <ele>828.31323242188</ele>
        <time>2012-02-11T14:51:07Z</time>
      </trkpt>
      <trkpt lat="45.69893" lon="5.97378">
        <ele>825.90966796875</ele>
        <time>2012-02-11T14:51:13Z</time>
      </trkpt>
      <trkpt lat="45.69893" lon="5.97376">
        <ele>825.90966796875</ele>
        <time>2012-02-11T14:51:18Z</time>
      </trkpt>
      <trkpt lat="45.69893" lon="5.97372">
        <ele>825.90966796875</ele>
        <time>2012-02-11T14:51:24Z</time>
      </trkpt>
      <trkpt lat="45.69893" lon="5.97374">
        <ele>825.90966796875</ele>
        <time>2012-02-11T14:51:30Z</time>
      </trkpt>
      <trkpt lat="45.69892" lon="5.97374">
        <ele>826.87109375</ele>
        <time>2012-02-11T14:51:40Z</time>
      </trkpt>
      <trkpt lat="45.69892" lon="5.97373">
        <ele>828.31323242188</ele>
        <time>2012-02-11T14:51:45Z</time>
      </trkpt>
      <trkpt lat="45.69893" lon="5.97372">
        <ele>828.7939453125</ele>
        <time>2012-02-11T14:51:51Z</time>
      </trkpt>
      <trkpt lat="45.69893" lon="5.97373">
        <ele>828.7939453125</ele>
        <time>2012-02-11T14:51:56Z</time>
      </trkpt>
      <trkpt lat="45.69893" lon="5.97373">
        <ele>828.31323242188</ele>
        <time>2012-02-11T14:52:01Z</time>
      </trkpt>
      <trkpt lat="45.69893" lon="5.97373">
        <ele>828.31323242188</ele>
        <time>2012-02-11T14:52:03Z</time>
      </trkpt>
      <trkpt lat="45.69893" lon="5.97373">
        <ele>827.83227539062</ele>
        <time>2012-02-11T14:52:11Z</time>
      </trkpt>
      <trkpt lat="45.69892" lon="5.97373">
        <ele>827.35180664062</ele>
        <time>2012-02-11T14:52:17Z</time>
      </trkpt>
      <trkpt lat="45.69892" lon="5.97373">
        <ele>827.35180664062</ele>
        <time>2012-02-11T14:52:23Z</time>
      </trkpt>
      <trkpt lat="45.69891" lon="5.97375">
        <ele>827.83227539062</ele>
        <time>2012-02-11T14:52:34Z</time>
      </trkpt>
      <trkpt lat="45.69893" lon="5.97373">
        <ele>827.83227539062</ele>
        <time>2012-02-11T14:52:39Z</time>
      </trkpt>
      <trkpt lat="45.69893" lon="5.97373">
        <ele>827.35180664062</ele>
        <time>2012-02-11T14:52:46Z</time>
      </trkpt>
      <trkpt lat="45.69893" lon="5.97374">
        <ele>826.39038085938</ele>
        <time>2012-02-11T14:52:55Z</time>
      </trkpt>
      <trkpt lat="45.69891" lon="5.97378">
        <ele>826.39038085938</ele>
        <time>2012-02-11T14:53:00Z</time>
      </trkpt>
      <trkpt lat="45.69889" lon="5.97379">
        <ele>826.39038085938</ele>
        <time>2012-02-11T14:53:06Z</time>
      </trkpt>
      <trkpt lat="45.69889" lon="5.97379">
        <ele>827.35180664062</ele>
        <time>2012-02-11T14:53:21Z</time>
      </trkpt>
      <trkpt lat="45.69891" lon="5.97376">
        <ele>826.87109375</ele>
        <time>2012-02-11T14:53:26Z</time>
      </trkpt>
      <trkpt lat="45.69891" lon="5.97376">
        <ele>828.31323242188</ele>
        <time>2012-02-11T14:53:33Z</time>
      </trkpt>
      <trkpt lat="45.69894" lon="5.97375">
        <ele>828.7939453125</ele>
        <time>2012-02-11T14:53:37Z</time>
      </trkpt>
      <trkpt lat="45.69894" lon="5.97374">
        <ele>829.2744140625</ele>
        <time>2012-02-11T14:53:40Z</time>
      </trkpt>
    </trkseg>
  </trk>
</gpx>